<?xml version="1.0" encoding="UTF-8" standalone="no" ?>
<gpx xmlns="http://www.topografix.com/GPX/1/1" xmlns:xsi="http://www.w3.org/2001/XMLSchema-instance" xsi:schemaLocation="http://www.topografix.com/GPX/1/1 http://www.topografix.com/GPX/1/1/gpx.xsd" version="1.1" creator="VisuGPX - https://www.visugpx.com">
  <metadata>
    <name>Voie verte Olargues - Le Poujol sur Orb   Héric</name>
    <desc><![CDATA[Voie verte Olargues - Le Poujol sur Orb   Héric]]></desc>
  </metadata>
  <trk>
    <name><![CDATA[14/12/2015 10:59]]></name>
    <desc><![CDATA[]]></desc>
    <trkseg>
      <trkpt lat="43.55473" lon="2.91135">
        <ele>181.7</ele>
        <time>2015-12-14T09:59:25.460Z</time>
      </trkpt>
      <trkpt lat="43.55473" lon="2.91135">
        <ele>181.7</ele>
        <time>2015-12-14T09:59:52.264Z</time>
      </trkpt>
      <trkpt lat="43.55472" lon="2.91148">
        <ele>178.4</ele>
        <time>2015-12-14T09:59:53.134Z</time>
      </trkpt>
      <trkpt lat="43.55472" lon="2.91148">
        <ele>178.4</ele>
        <time>2015-12-14T09:59:53.164Z</time>
      </trkpt>
      <trkpt lat="43.55472" lon="2.91149">
        <ele>179.6</ele>
        <time>2015-12-14T10:00:16.189Z</time>
      </trkpt>
      <trkpt lat="43.5547" lon="2.91153">
        <ele>173.5</ele>
        <time>2015-12-14T10:00:17.135Z</time>
      </trkpt>
      <trkpt lat="43.55473" lon="2.91165">
        <ele>171.5</ele>
        <time>2015-12-14T10:00:58.169Z</time>
      </trkpt>
      <trkpt lat="43.55474" lon="2.91168">
        <ele>171.4</ele>
        <time>2015-12-14T10:00:59.133Z</time>
      </trkpt>
      <trkpt lat="43.55478" lon="2.91176">
        <ele>171.2</ele>
        <time>2015-12-14T10:01:02.187Z</time>
      </trkpt>
      <trkpt lat="43.5548" lon="2.91178">
        <ele>171</ele>
        <time>2015-12-14T10:01:03.166Z</time>
      </trkpt>
      <trkpt lat="43.55484" lon="2.91185">
        <ele>170.8</ele>
        <time>2015-12-14T10:01:05.159Z</time>
      </trkpt>
      <trkpt lat="43.55486" lon="2.91188">
        <ele>170.7</ele>
        <time>2015-12-14T10:01:06.483Z</time>
      </trkpt>
      <trkpt lat="43.5549" lon="2.91194">
        <ele>169.9</ele>
        <time>2015-12-14T10:01:08.193Z</time>
      </trkpt>
      <trkpt lat="43.55493" lon="2.91197">
        <ele>169.7</ele>
        <time>2015-12-14T10:01:09.135Z</time>
      </trkpt>
      <trkpt lat="43.55498" lon="2.91206">
        <ele>168.7</ele>
        <time>2015-12-14T10:01:12.161Z</time>
      </trkpt>
      <trkpt lat="43.555" lon="2.91208">
        <ele>169.1</ele>
        <time>2015-12-14T10:01:13.134Z</time>
      </trkpt>
      <trkpt lat="43.55505" lon="2.91214">
        <ele>170</ele>
        <time>2015-12-14T10:01:15.201Z</time>
      </trkpt>
      <trkpt lat="43.55507" lon="2.91217">
        <ele>170.3</ele>
        <time>2015-12-14T10:01:16.485Z</time>
      </trkpt>
      <trkpt lat="43.55511" lon="2.91223">
        <ele>170.3</ele>
        <time>2015-12-14T10:01:18.205Z</time>
      </trkpt>
      <trkpt lat="43.55513" lon="2.91226">
        <ele>170.4</ele>
        <time>2015-12-14T10:01:19.136Z</time>
      </trkpt>
      <trkpt lat="43.55519" lon="2.91232">
        <ele>169.9</ele>
        <time>2015-12-14T10:01:21.166Z</time>
      </trkpt>
      <trkpt lat="43.55521" lon="2.91235">
        <ele>169.7</ele>
        <time>2015-12-14T10:01:22.137Z</time>
      </trkpt>
      <trkpt lat="43.55527" lon="2.91245">
        <ele>169.1</ele>
        <time>2015-12-14T10:01:25.168Z</time>
      </trkpt>
      <trkpt lat="43.55529" lon="2.91248">
        <ele>168.6</ele>
        <time>2015-12-14T10:01:26.133Z</time>
      </trkpt>
      <trkpt lat="43.55533" lon="2.91254">
        <ele>167.7</ele>
        <time>2015-12-14T10:01:28.183Z</time>
      </trkpt>
      <trkpt lat="43.55536" lon="2.91257">
        <ele>168</ele>
        <time>2015-12-14T10:01:29.138Z</time>
      </trkpt>
      <trkpt lat="43.5554" lon="2.91266">
        <ele>167.9</ele>
        <time>2015-12-14T10:01:31.170Z</time>
      </trkpt>
      <trkpt lat="43.55543" lon="2.91269">
        <ele>167.8</ele>
        <time>2015-12-14T10:01:32.131Z</time>
      </trkpt>
      <trkpt lat="43.55546" lon="2.91277">
        <ele>167.5</ele>
        <time>2015-12-14T10:01:34.612Z</time>
      </trkpt>
      <trkpt lat="43.55548" lon="2.91282">
        <ele>167.4</ele>
        <time>2015-12-14T10:01:35.129Z</time>
      </trkpt>
      <trkpt lat="43.55552" lon="2.91292">
        <ele>167.3</ele>
        <time>2015-12-14T10:01:37.177Z</time>
      </trkpt>
      <trkpt lat="43.55553" lon="2.91296">
        <ele>167</ele>
        <time>2015-12-14T10:01:38.133Z</time>
      </trkpt>
      <trkpt lat="43.55556" lon="2.91305">
        <ele>165.8</ele>
        <time>2015-12-14T10:01:40.157Z</time>
      </trkpt>
      <trkpt lat="43.55556" lon="2.91309">
        <ele>165</ele>
        <time>2015-12-14T10:01:41.132Z</time>
      </trkpt>
      <trkpt lat="43.5556" lon="2.91317">
        <ele>163.5</ele>
        <time>2015-12-14T10:01:43.190Z</time>
      </trkpt>
      <trkpt lat="43.55562" lon="2.91321">
        <ele>163.1</ele>
        <time>2015-12-14T10:01:44.132Z</time>
      </trkpt>
      <trkpt lat="43.55563" lon="2.91329">
        <ele>162.3</ele>
        <time>2015-12-14T10:01:46.178Z</time>
      </trkpt>
      <trkpt lat="43.55563" lon="2.91333">
        <ele>161.6</ele>
        <time>2015-12-14T10:01:47.133Z</time>
      </trkpt>
      <trkpt lat="43.5557" lon="2.9134">
        <ele>164.6</ele>
        <time>2015-12-14T10:01:49.225Z</time>
      </trkpt>
      <trkpt lat="43.55571" lon="2.91345">
        <ele>164.6</ele>
        <time>2015-12-14T10:01:50.132Z</time>
      </trkpt>
      <trkpt lat="43.55572" lon="2.91353">
        <ele>165.1</ele>
        <time>2015-12-14T10:01:52.170Z</time>
      </trkpt>
      <trkpt lat="43.55572" lon="2.91357">
        <ele>164.9</ele>
        <time>2015-12-14T10:01:53.131Z</time>
      </trkpt>
      <trkpt lat="43.55574" lon="2.91368">
        <ele>165.3</ele>
        <time>2015-12-14T10:01:56.167Z</time>
      </trkpt>
      <trkpt lat="43.55575" lon="2.91372">
        <ele>165</ele>
        <time>2015-12-14T10:01:57.134Z</time>
      </trkpt>
      <trkpt lat="43.55581" lon="2.91378">
        <ele>167</ele>
        <time>2015-12-14T10:01:59.170Z</time>
      </trkpt>
      <trkpt lat="43.55583" lon="2.91382">
        <ele>167.5</ele>
        <time>2015-12-14T10:02:00.136Z</time>
      </trkpt>
      <trkpt lat="43.55586" lon="2.9139">
        <ele>168.4</ele>
        <time>2015-12-14T10:02:02.211Z</time>
      </trkpt>
      <trkpt lat="43.55588" lon="2.91395">
        <ele>169</ele>
        <time>2015-12-14T10:02:03.145Z</time>
      </trkpt>
      <trkpt lat="43.5559" lon="2.91405">
        <ele>170</ele>
        <time>2015-12-14T10:02:05.170Z</time>
      </trkpt>
      <trkpt lat="43.55592" lon="2.9141">
        <ele>170.7</ele>
        <time>2015-12-14T10:02:06.134Z</time>
      </trkpt>
      <trkpt lat="43.55594" lon="2.91416">
        <ele>171.3</ele>
        <time>2015-12-14T10:02:07.388Z</time>
      </trkpt>
      <trkpt lat="43.55595" lon="2.91422">
        <ele>172.2</ele>
        <time>2015-12-14T10:02:08.140Z</time>
      </trkpt>
      <trkpt lat="43.55596" lon="2.91429">
        <ele>173.7</ele>
        <time>2015-12-14T10:02:09.176Z</time>
      </trkpt>
      <trkpt lat="43.55597" lon="2.91435">
        <ele>175</ele>
        <time>2015-12-14T10:02:10.135Z</time>
      </trkpt>
      <trkpt lat="43.55599" lon="2.91446">
        <ele>176.9</ele>
        <time>2015-12-14T10:02:12.160Z</time>
      </trkpt>
      <trkpt lat="43.556" lon="2.9145">
        <ele>177.7</ele>
        <time>2015-12-14T10:02:13.137Z</time>
      </trkpt>
      <trkpt lat="43.556" lon="2.91459">
        <ele>177.9</ele>
        <time>2015-12-14T10:02:15.167Z</time>
      </trkpt>
      <trkpt lat="43.55601" lon="2.91463">
        <ele>177.5</ele>
        <time>2015-12-14T10:02:16.136Z</time>
      </trkpt>
      <trkpt lat="43.55603" lon="2.91473">
        <ele>177.6</ele>
        <time>2015-12-14T10:02:18.176Z</time>
      </trkpt>
      <trkpt lat="43.55604" lon="2.91478">
        <ele>177.7</ele>
        <time>2015-12-14T10:02:19.138Z</time>
      </trkpt>
      <trkpt lat="43.55606" lon="2.91487">
        <ele>177</ele>
        <time>2015-12-14T10:02:21.201Z</time>
      </trkpt>
      <trkpt lat="43.55607" lon="2.91491">
        <ele>177</ele>
        <time>2015-12-14T10:02:22.137Z</time>
      </trkpt>
      <trkpt lat="43.55609" lon="2.915">
        <ele>177.4</ele>
        <time>2015-12-14T10:02:24.198Z</time>
      </trkpt>
      <trkpt lat="43.5561" lon="2.91504">
        <ele>177.9</ele>
        <time>2015-12-14T10:02:25.145Z</time>
      </trkpt>
      <trkpt lat="43.55613" lon="2.91513">
        <ele>178.7</ele>
        <time>2015-12-14T10:02:27.188Z</time>
      </trkpt>
      <trkpt lat="43.55614" lon="2.91517">
        <ele>178.6</ele>
        <time>2015-12-14T10:02:28.137Z</time>
      </trkpt>
      <trkpt lat="43.55616" lon="2.91527">
        <ele>177.9</ele>
        <time>2015-12-14T10:02:30.161Z</time>
      </trkpt>
      <trkpt lat="43.55618" lon="2.91532">
        <ele>177.5</ele>
        <time>2015-12-14T10:02:31.137Z</time>
      </trkpt>
      <trkpt lat="43.55619" lon="2.91541">
        <ele>176.5</ele>
        <time>2015-12-14T10:02:33.183Z</time>
      </trkpt>
      <trkpt lat="43.55621" lon="2.91545">
        <ele>176.7</ele>
        <time>2015-12-14T10:02:34.138Z</time>
      </trkpt>
      <trkpt lat="43.55623" lon="2.91553">
        <ele>176</ele>
        <time>2015-12-14T10:02:36.187Z</time>
      </trkpt>
      <trkpt lat="43.55624" lon="2.91558">
        <ele>175.6</ele>
        <time>2015-12-14T10:02:37.156Z</time>
      </trkpt>
      <trkpt lat="43.55627" lon="2.91566">
        <ele>175.6</ele>
        <time>2015-12-14T10:02:39.167Z</time>
      </trkpt>
      <trkpt lat="43.55628" lon="2.9157">
        <ele>175.4</ele>
        <time>2015-12-14T10:02:40.134Z</time>
      </trkpt>
      <trkpt lat="43.55632" lon="2.9158">
        <ele>175.1</ele>
        <time>2015-12-14T10:02:43.169Z</time>
      </trkpt>
      <trkpt lat="43.55633" lon="2.91584">
        <ele>175.1</ele>
        <time>2015-12-14T10:02:44.134Z</time>
      </trkpt>
      <trkpt lat="43.55635" lon="2.91594">
        <ele>175.2</ele>
        <time>2015-12-14T10:02:47.519Z</time>
      </trkpt>
      <trkpt lat="43.55636" lon="2.91597">
        <ele>175.2</ele>
        <time>2015-12-14T10:02:48.131Z</time>
      </trkpt>
      <trkpt lat="43.55635" lon="2.91606">
        <ele>176.5</ele>
        <time>2015-12-14T10:03:10.181Z</time>
      </trkpt>
      <trkpt lat="43.55634" lon="2.91611">
        <ele>175.6</ele>
        <time>2015-12-14T10:03:11.138Z</time>
      </trkpt>
      <trkpt lat="43.55629" lon="2.9162">
        <ele>176.7</ele>
        <time>2015-12-14T10:03:16.181Z</time>
      </trkpt>
      <trkpt lat="43.55629" lon="2.91624">
        <ele>176.8</ele>
        <time>2015-12-14T10:03:17.136Z</time>
      </trkpt>
      <trkpt lat="43.55631" lon="2.91634">
        <ele>176.9</ele>
        <time>2015-12-14T10:03:21.194Z</time>
      </trkpt>
      <trkpt lat="43.55632" lon="2.91636">
        <ele>176.8</ele>
        <time>2015-12-14T10:03:22.140Z</time>
      </trkpt>
      <trkpt lat="43.55634" lon="2.91648">
        <ele>176.3</ele>
        <time>2015-12-14T10:03:26.191Z</time>
      </trkpt>
      <trkpt lat="43.55635" lon="2.9165">
        <ele>176</ele>
        <time>2015-12-14T10:03:27.134Z</time>
      </trkpt>
      <trkpt lat="43.55637" lon="2.91651">
        <ele>177</ele>
        <time>2015-12-14T10:03:50.197Z</time>
      </trkpt>
      <trkpt lat="43.55645" lon="2.91652">
        <ele>178.7</ele>
        <time>2015-12-14T10:03:51.137Z</time>
      </trkpt>
      <trkpt lat="43.55645" lon="2.91664">
        <ele>177.1</ele>
        <time>2015-12-14T10:04:01.208Z</time>
      </trkpt>
      <trkpt lat="43.55646" lon="2.91666">
        <ele>177</ele>
        <time>2015-12-14T10:04:02.131Z</time>
      </trkpt>
      <trkpt lat="43.55641" lon="2.91676">
        <ele>177.2</ele>
        <time>2015-12-14T10:04:15.186Z</time>
      </trkpt>
      <trkpt lat="43.55641" lon="2.91679">
        <ele>177.1</ele>
        <time>2015-12-14T10:04:16.135Z</time>
      </trkpt>
      <trkpt lat="43.55641" lon="2.91689">
        <ele>177.3</ele>
        <time>2015-12-14T10:04:20.293Z</time>
      </trkpt>
      <trkpt lat="43.55642" lon="2.91692">
        <ele>177.2</ele>
        <time>2015-12-14T10:04:21.140Z</time>
      </trkpt>
      <trkpt lat="43.55642" lon="2.91702">
        <ele>176.9</ele>
        <time>2015-12-14T10:04:25.171Z</time>
      </trkpt>
      <trkpt lat="43.55642" lon="2.91705">
        <ele>177</ele>
        <time>2015-12-14T10:04:26.133Z</time>
      </trkpt>
      <trkpt lat="43.55645" lon="2.91713">
        <ele>178.1</ele>
        <time>2015-12-14T10:04:29.181Z</time>
      </trkpt>
      <trkpt lat="43.55646" lon="2.91716">
        <ele>178.2</ele>
        <time>2015-12-14T10:04:30.138Z</time>
      </trkpt>
      <trkpt lat="43.55647" lon="2.91728">
        <ele>177.2</ele>
        <time>2015-12-14T10:04:36.167Z</time>
      </trkpt>
      <trkpt lat="43.55649" lon="2.9173">
        <ele>177.2</ele>
        <time>2015-12-14T10:04:37.140Z</time>
      </trkpt>
      <trkpt lat="43.55651" lon="2.9174">
        <ele>176.8</ele>
        <time>2015-12-14T10:04:40.169Z</time>
      </trkpt>
      <trkpt lat="43.55652" lon="2.91743">
        <ele>176.5</ele>
        <time>2015-12-14T10:04:41.131Z</time>
      </trkpt>
      <trkpt lat="43.55654" lon="2.91753">
        <ele>176.1</ele>
        <time>2015-12-14T10:04:44.179Z</time>
      </trkpt>
      <trkpt lat="43.55654" lon="2.91756">
        <ele>176</ele>
        <time>2015-12-14T10:04:45.134Z</time>
      </trkpt>
      <trkpt lat="43.55655" lon="2.91767">
        <ele>175</ele>
        <time>2015-12-14T10:04:49.177Z</time>
      </trkpt>
      <trkpt lat="43.55657" lon="2.91771">
        <ele>174.6</ele>
        <time>2015-12-14T10:04:50.132Z</time>
      </trkpt>
      <trkpt lat="43.55657" lon="2.91781">
        <ele>173.5</ele>
        <time>2015-12-14T10:04:53.167Z</time>
      </trkpt>
      <trkpt lat="43.55658" lon="2.91784">
        <ele>173.5</ele>
        <time>2015-12-14T10:04:54.135Z</time>
      </trkpt>
      <trkpt lat="43.55661" lon="2.91795">
        <ele>172.9</ele>
        <time>2015-12-14T10:04:57.202Z</time>
      </trkpt>
      <trkpt lat="43.55662" lon="2.91798">
        <ele>173</ele>
        <time>2015-12-14T10:04:58.138Z</time>
      </trkpt>
      <trkpt lat="43.55664" lon="2.91809">
        <ele>172.8</ele>
        <time>2015-12-14T10:05:01.193Z</time>
      </trkpt>
      <trkpt lat="43.55666" lon="2.91813">
        <ele>173.4</ele>
        <time>2015-12-14T10:05:02.130Z</time>
      </trkpt>
      <trkpt lat="43.55669" lon="2.91821">
        <ele>174.3</ele>
        <time>2015-12-14T10:05:04.166Z</time>
      </trkpt>
      <trkpt lat="43.5567" lon="2.91825">
        <ele>174.6</ele>
        <time>2015-12-14T10:05:05.133Z</time>
      </trkpt>
      <trkpt lat="43.55671" lon="2.91834">
        <ele>174.2</ele>
        <time>2015-12-14T10:05:07.185Z</time>
      </trkpt>
      <trkpt lat="43.55672" lon="2.91838">
        <ele>173.9</ele>
        <time>2015-12-14T10:05:08.133Z</time>
      </trkpt>
      <trkpt lat="43.55674" lon="2.91848">
        <ele>173.6</ele>
        <time>2015-12-14T10:05:11.179Z</time>
      </trkpt>
      <trkpt lat="43.55676" lon="2.9185">
        <ele>173.4</ele>
        <time>2015-12-14T10:05:12.132Z</time>
      </trkpt>
      <trkpt lat="43.55683" lon="2.91857">
        <ele>173</ele>
        <time>2015-12-14T10:05:17.431Z</time>
      </trkpt>
      <trkpt lat="43.55684" lon="2.9186">
        <ele>172.7</ele>
        <time>2015-12-14T10:05:18.132Z</time>
      </trkpt>
      <trkpt lat="43.55689" lon="2.91868">
        <ele>172.6</ele>
        <time>2015-12-14T10:05:21.189Z</time>
      </trkpt>
      <trkpt lat="43.55691" lon="2.91871">
        <ele>173.2</ele>
        <time>2015-12-14T10:05:22.130Z</time>
      </trkpt>
      <trkpt lat="43.55694" lon="2.9188">
        <ele>173.8</ele>
        <time>2015-12-14T10:05:25.187Z</time>
      </trkpt>
      <trkpt lat="43.55695" lon="2.91884">
        <ele>174</ele>
        <time>2015-12-14T10:05:26.134Z</time>
      </trkpt>
      <trkpt lat="43.557" lon="2.91893">
        <ele>174.7</ele>
        <time>2015-12-14T10:05:29.213Z</time>
      </trkpt>
      <trkpt lat="43.55702" lon="2.91896">
        <ele>174.9</ele>
        <time>2015-12-14T10:05:30.133Z</time>
      </trkpt>
      <trkpt lat="43.55706" lon="2.91905">
        <ele>175.2</ele>
        <time>2015-12-14T10:05:33.170Z</time>
      </trkpt>
      <trkpt lat="43.55708" lon="2.91908">
        <ele>175.1</ele>
        <time>2015-12-14T10:05:34.141Z</time>
      </trkpt>
      <trkpt lat="43.55713" lon="2.91918">
        <ele>175.3</ele>
        <time>2015-12-14T10:05:37.174Z</time>
      </trkpt>
      <trkpt lat="43.55714" lon="2.91922">
        <ele>175.2</ele>
        <time>2015-12-14T10:05:38.134Z</time>
      </trkpt>
      <trkpt lat="43.55717" lon="2.91931">
        <ele>174.7</ele>
        <time>2015-12-14T10:05:40.183Z</time>
      </trkpt>
      <trkpt lat="43.55719" lon="2.91936">
        <ele>174.7</ele>
        <time>2015-12-14T10:05:41.133Z</time>
      </trkpt>
      <trkpt lat="43.55722" lon="2.91945">
        <ele>174.3</ele>
        <time>2015-12-14T10:05:43.210Z</time>
      </trkpt>
      <trkpt lat="43.55723" lon="2.91949">
        <ele>174.2</ele>
        <time>2015-12-14T10:05:44.135Z</time>
      </trkpt>
      <trkpt lat="43.55726" lon="2.91958">
        <ele>174.7</ele>
        <time>2015-12-14T10:05:47.172Z</time>
      </trkpt>
      <trkpt lat="43.55726" lon="2.9196">
        <ele>175</ele>
        <time>2015-12-14T10:05:48.134Z</time>
      </trkpt>
      <trkpt lat="43.55727" lon="2.91972">
        <ele>174.4</ele>
        <time>2015-12-14T10:06:12.161Z</time>
      </trkpt>
      <trkpt lat="43.55728" lon="2.91974">
        <ele>174.2</ele>
        <time>2015-12-14T10:06:13.165Z</time>
      </trkpt>
      <trkpt lat="43.55731" lon="2.91985">
        <ele>173.4</ele>
        <time>2015-12-14T10:06:16.168Z</time>
      </trkpt>
      <trkpt lat="43.55732" lon="2.91989">
        <ele>173.3</ele>
        <time>2015-12-14T10:06:17.129Z</time>
      </trkpt>
      <trkpt lat="43.55735" lon="2.91997">
        <ele>173.2</ele>
        <time>2015-12-14T10:06:19.426Z</time>
      </trkpt>
      <trkpt lat="43.55736" lon="2.92001">
        <ele>173.2</ele>
        <time>2015-12-14T10:06:20.134Z</time>
      </trkpt>
      <trkpt lat="43.55739" lon="2.92008">
        <ele>173.2</ele>
        <time>2015-12-14T10:06:22.176Z</time>
      </trkpt>
      <trkpt lat="43.5574" lon="2.92012">
        <ele>173.3</ele>
        <time>2015-12-14T10:06:23.132Z</time>
      </trkpt>
      <trkpt lat="43.55744" lon="2.9202">
        <ele>173.9</ele>
        <time>2015-12-14T10:06:25.203Z</time>
      </trkpt>
      <trkpt lat="43.55746" lon="2.92024">
        <ele>173.7</ele>
        <time>2015-12-14T10:06:26.136Z</time>
      </trkpt>
      <trkpt lat="43.5575" lon="2.92033">
        <ele>173.6</ele>
        <time>2015-12-14T10:06:28.179Z</time>
      </trkpt>
      <trkpt lat="43.55751" lon="2.92037">
        <ele>173.6</ele>
        <time>2015-12-14T10:06:29.130Z</time>
      </trkpt>
      <trkpt lat="43.55755" lon="2.92046">
        <ele>173.1</ele>
        <time>2015-12-14T10:06:31.193Z</time>
      </trkpt>
      <trkpt lat="43.55757" lon="2.92051">
        <ele>172.9</ele>
        <time>2015-12-14T10:06:32.138Z</time>
      </trkpt>
      <trkpt lat="43.5576" lon="2.9206">
        <ele>172.8</ele>
        <time>2015-12-14T10:06:34.170Z</time>
      </trkpt>
      <trkpt lat="43.55762" lon="2.92066">
        <ele>172.7</ele>
        <time>2015-12-14T10:06:35.135Z</time>
      </trkpt>
      <trkpt lat="43.55765" lon="2.92075">
        <ele>172.8</ele>
        <time>2015-12-14T10:06:37.177Z</time>
      </trkpt>
      <trkpt lat="43.55767" lon="2.9208">
        <ele>172.8</ele>
        <time>2015-12-14T10:06:38.136Z</time>
      </trkpt>
      <trkpt lat="43.55769" lon="2.92089">
        <ele>172.9</ele>
        <time>2015-12-14T10:06:40.192Z</time>
      </trkpt>
      <trkpt lat="43.55771" lon="2.92094">
        <ele>172.8</ele>
        <time>2015-12-14T10:06:41.135Z</time>
      </trkpt>
      <trkpt lat="43.55773" lon="2.92105">
        <ele>172.7</ele>
        <time>2015-12-14T10:06:43.189Z</time>
      </trkpt>
      <trkpt lat="43.55775" lon="2.9211">
        <ele>172.5</ele>
        <time>2015-12-14T10:06:44.135Z</time>
      </trkpt>
      <trkpt lat="43.55777" lon="2.92121">
        <ele>172.3</ele>
        <time>2015-12-14T10:06:46.538Z</time>
      </trkpt>
      <trkpt lat="43.55778" lon="2.92126">
        <ele>172.4</ele>
        <time>2015-12-14T10:06:47.136Z</time>
      </trkpt>
      <trkpt lat="43.55779" lon="2.92136">
        <ele>172.8</ele>
        <time>2015-12-14T10:06:49.201Z</time>
      </trkpt>
      <trkpt lat="43.55779" lon="2.92141">
        <ele>172.9</ele>
        <time>2015-12-14T10:06:50.356Z</time>
      </trkpt>
      <trkpt lat="43.5578" lon="2.92151">
        <ele>173.3</ele>
        <time>2015-12-14T10:06:52.173Z</time>
      </trkpt>
      <trkpt lat="43.55782" lon="2.92157">
        <ele>174.1</ele>
        <time>2015-12-14T10:06:53.133Z</time>
      </trkpt>
      <trkpt lat="43.55785" lon="2.92169">
        <ele>175</ele>
        <time>2015-12-14T10:06:55.182Z</time>
      </trkpt>
      <trkpt lat="43.55786" lon="2.92175">
        <ele>174.9</ele>
        <time>2015-12-14T10:06:56.136Z</time>
      </trkpt>
      <trkpt lat="43.55787" lon="2.92184">
        <ele>175.5</ele>
        <time>2015-12-14T10:06:58.180Z</time>
      </trkpt>
      <trkpt lat="43.55788" lon="2.92189">
        <ele>175.8</ele>
        <time>2015-12-14T10:06:59.131Z</time>
      </trkpt>
      <trkpt lat="43.55788" lon="2.92199">
        <ele>175.9</ele>
        <time>2015-12-14T10:07:01.176Z</time>
      </trkpt>
      <trkpt lat="43.55789" lon="2.92205">
        <ele>176</ele>
        <time>2015-12-14T10:07:02.129Z</time>
      </trkpt>
      <trkpt lat="43.5579" lon="2.92216">
        <ele>176.8</ele>
        <time>2015-12-14T10:07:04.185Z</time>
      </trkpt>
      <trkpt lat="43.55791" lon="2.92221">
        <ele>177.1</ele>
        <time>2015-12-14T10:07:05.134Z</time>
      </trkpt>
      <trkpt lat="43.55792" lon="2.92231">
        <ele>177.9</ele>
        <time>2015-12-14T10:07:07.180Z</time>
      </trkpt>
      <trkpt lat="43.55793" lon="2.92237">
        <ele>178.3</ele>
        <time>2015-12-14T10:07:08.147Z</time>
      </trkpt>
      <trkpt lat="43.55794" lon="2.92248">
        <ele>178.8</ele>
        <time>2015-12-14T10:07:10.170Z</time>
      </trkpt>
      <trkpt lat="43.55794" lon="2.92253">
        <ele>179</ele>
        <time>2015-12-14T10:07:11.135Z</time>
      </trkpt>
      <trkpt lat="43.55795" lon="2.9226">
        <ele>179</ele>
        <time>2015-12-14T10:07:12.185Z</time>
      </trkpt>
      <trkpt lat="43.55795" lon="2.92266">
        <ele>179.4</ele>
        <time>2015-12-14T10:07:13.140Z</time>
      </trkpt>
      <trkpt lat="43.55797" lon="2.92274">
        <ele>179</ele>
        <time>2015-12-14T10:07:14.191Z</time>
      </trkpt>
      <trkpt lat="43.55798" lon="2.9228">
        <ele>179.8</ele>
        <time>2015-12-14T10:07:15.143Z</time>
      </trkpt>
      <trkpt lat="43.55799" lon="2.92287">
        <ele>180</ele>
        <time>2015-12-14T10:07:16.173Z</time>
      </trkpt>
      <trkpt lat="43.558" lon="2.92292">
        <ele>180.4</ele>
        <time>2015-12-14T10:07:17.132Z</time>
      </trkpt>
      <trkpt lat="43.55799" lon="2.92301">
        <ele>180.5</ele>
        <time>2015-12-14T10:07:18.164Z</time>
      </trkpt>
      <trkpt lat="43.55799" lon="2.92309">
        <ele>180.7</ele>
        <time>2015-12-14T10:07:19.137Z</time>
      </trkpt>
      <trkpt lat="43.55799" lon="2.92315">
        <ele>180.9</ele>
        <time>2015-12-14T10:07:20.231Z</time>
      </trkpt>
      <trkpt lat="43.55802" lon="2.92321">
        <ele>181.2</ele>
        <time>2015-12-14T10:07:21.134Z</time>
      </trkpt>
      <trkpt lat="43.55803" lon="2.92327">
        <ele>181.2</ele>
        <time>2015-12-14T10:07:22.168Z</time>
      </trkpt>
      <trkpt lat="43.55804" lon="2.92333">
        <ele>181.2</ele>
        <time>2015-12-14T10:07:23.136Z</time>
      </trkpt>
      <trkpt lat="43.55806" lon="2.92339">
        <ele>181.2</ele>
        <time>2015-12-14T10:07:24.170Z</time>
      </trkpt>
      <trkpt lat="43.55807" lon="2.92346">
        <ele>181.4</ele>
        <time>2015-12-14T10:07:25.140Z</time>
      </trkpt>
      <trkpt lat="43.55807" lon="2.92352">
        <ele>181.5</ele>
        <time>2015-12-14T10:07:26.190Z</time>
      </trkpt>
      <trkpt lat="43.55809" lon="2.92359">
        <ele>181.2</ele>
        <time>2015-12-14T10:07:27.136Z</time>
      </trkpt>
      <trkpt lat="43.5581" lon="2.92366">
        <ele>181.2</ele>
        <time>2015-12-14T10:07:28.183Z</time>
      </trkpt>
      <trkpt lat="43.55812" lon="2.92373">
        <ele>181</ele>
        <time>2015-12-14T10:07:29.139Z</time>
      </trkpt>
      <trkpt lat="43.55813" lon="2.9238">
        <ele>180.8</ele>
        <time>2015-12-14T10:07:30.182Z</time>
      </trkpt>
      <trkpt lat="43.55814" lon="2.92387">
        <ele>180.4</ele>
        <time>2015-12-14T10:07:31.138Z</time>
      </trkpt>
      <trkpt lat="43.55815" lon="2.92394">
        <ele>180</ele>
        <time>2015-12-14T10:07:32.169Z</time>
      </trkpt>
      <trkpt lat="43.55816" lon="2.92401">
        <ele>179.7</ele>
        <time>2015-12-14T10:07:33.130Z</time>
      </trkpt>
      <trkpt lat="43.55817" lon="2.92407">
        <ele>179.5</ele>
        <time>2015-12-14T10:07:34.190Z</time>
      </trkpt>
      <trkpt lat="43.55818" lon="2.92413">
        <ele>179.8</ele>
        <time>2015-12-14T10:07:35.137Z</time>
      </trkpt>
      <trkpt lat="43.55819" lon="2.9242">
        <ele>180.2</ele>
        <time>2015-12-14T10:07:36.210Z</time>
      </trkpt>
      <trkpt lat="43.55821" lon="2.92427">
        <ele>180.3</ele>
        <time>2015-12-14T10:07:37.134Z</time>
      </trkpt>
      <trkpt lat="43.55822" lon="2.92434">
        <ele>180.2</ele>
        <time>2015-12-14T10:07:38.187Z</time>
      </trkpt>
      <trkpt lat="43.55824" lon="2.9244">
        <ele>180.2</ele>
        <time>2015-12-14T10:07:39.135Z</time>
      </trkpt>
      <trkpt lat="43.55827" lon="2.92451">
        <ele>180</ele>
        <time>2015-12-14T10:07:41.165Z</time>
      </trkpt>
      <trkpt lat="43.55828" lon="2.92457">
        <ele>180</ele>
        <time>2015-12-14T10:07:42.139Z</time>
      </trkpt>
      <trkpt lat="43.55832" lon="2.92466">
        <ele>180.1</ele>
        <time>2015-12-14T10:07:44.161Z</time>
      </trkpt>
      <trkpt lat="43.55834" lon="2.92472">
        <ele>180.2</ele>
        <time>2015-12-14T10:07:45.132Z</time>
      </trkpt>
      <trkpt lat="43.55836" lon="2.92478">
        <ele>179.9</ele>
        <time>2015-12-14T10:07:46.195Z</time>
      </trkpt>
      <trkpt lat="43.55837" lon="2.92484">
        <ele>179.9</ele>
        <time>2015-12-14T10:07:47.136Z</time>
      </trkpt>
      <trkpt lat="43.5584" lon="2.9249">
        <ele>179.7</ele>
        <time>2015-12-14T10:07:48.390Z</time>
      </trkpt>
      <trkpt lat="43.55841" lon="2.92499">
        <ele>179.7</ele>
        <time>2015-12-14T10:07:49.135Z</time>
      </trkpt>
      <trkpt lat="43.55843" lon="2.92505">
        <ele>179.6</ele>
        <time>2015-12-14T10:07:50.167Z</time>
      </trkpt>
      <trkpt lat="43.55846" lon="2.92513">
        <ele>179.4</ele>
        <time>2015-12-14T10:07:51.131Z</time>
      </trkpt>
      <trkpt lat="43.55848" lon="2.92519">
        <ele>179.1</ele>
        <time>2015-12-14T10:07:52.184Z</time>
      </trkpt>
      <trkpt lat="43.5585" lon="2.92526">
        <ele>178.9</ele>
        <time>2015-12-14T10:07:53.135Z</time>
      </trkpt>
      <trkpt lat="43.55852" lon="2.92532">
        <ele>178.7</ele>
        <time>2015-12-14T10:07:54.190Z</time>
      </trkpt>
      <trkpt lat="43.55854" lon="2.92538">
        <ele>178.4</ele>
        <time>2015-12-14T10:07:55.136Z</time>
      </trkpt>
      <trkpt lat="43.55855" lon="2.92544">
        <ele>178.1</ele>
        <time>2015-12-14T10:07:56.193Z</time>
      </trkpt>
      <trkpt lat="43.55857" lon="2.92552">
        <ele>177.5</ele>
        <time>2015-12-14T10:07:57.146Z</time>
      </trkpt>
      <trkpt lat="43.55858" lon="2.92558">
        <ele>177.4</ele>
        <time>2015-12-14T10:07:58.162Z</time>
      </trkpt>
      <trkpt lat="43.5586" lon="2.92565">
        <ele>176.8</ele>
        <time>2015-12-14T10:07:59.132Z</time>
      </trkpt>
      <trkpt lat="43.55862" lon="2.9257">
        <ele>176.6</ele>
        <time>2015-12-14T10:08:00.162Z</time>
      </trkpt>
      <trkpt lat="43.55864" lon="2.92575">
        <ele>176.5</ele>
        <time>2015-12-14T10:08:01.143Z</time>
      </trkpt>
      <trkpt lat="43.55866" lon="2.92581">
        <ele>176.5</ele>
        <time>2015-12-14T10:08:02.205Z</time>
      </trkpt>
      <trkpt lat="43.55868" lon="2.92587">
        <ele>176.4</ele>
        <time>2015-12-14T10:08:03.136Z</time>
      </trkpt>
      <trkpt lat="43.5587" lon="2.92593">
        <ele>176.3</ele>
        <time>2015-12-14T10:08:04.198Z</time>
      </trkpt>
      <trkpt lat="43.55871" lon="2.92599">
        <ele>176</ele>
        <time>2015-12-14T10:08:05.138Z</time>
      </trkpt>
      <trkpt lat="43.55873" lon="2.92606">
        <ele>175.7</ele>
        <time>2015-12-14T10:08:06.585Z</time>
      </trkpt>
      <trkpt lat="43.55875" lon="2.92612">
        <ele>175.6</ele>
        <time>2015-12-14T10:08:07.136Z</time>
      </trkpt>
      <trkpt lat="43.55879" lon="2.92623">
        <ele>175.8</ele>
        <time>2015-12-14T10:08:09.165Z</time>
      </trkpt>
      <trkpt lat="43.55881" lon="2.92628">
        <ele>175.9</ele>
        <time>2015-12-14T10:08:10.137Z</time>
      </trkpt>
      <trkpt lat="43.55884" lon="2.92638">
        <ele>176.1</ele>
        <time>2015-12-14T10:08:12.187Z</time>
      </trkpt>
      <trkpt lat="43.55885" lon="2.92643">
        <ele>176.1</ele>
        <time>2015-12-14T10:08:13.155Z</time>
      </trkpt>
      <trkpt lat="43.55888" lon="2.92653">
        <ele>176</ele>
        <time>2015-12-14T10:08:15.242Z</time>
      </trkpt>
      <trkpt lat="43.5589" lon="2.92659">
        <ele>175.6</ele>
        <time>2015-12-14T10:08:16.134Z</time>
      </trkpt>
      <trkpt lat="43.55892" lon="2.92666">
        <ele>175</ele>
        <time>2015-12-14T10:08:17.170Z</time>
      </trkpt>
      <trkpt lat="43.55894" lon="2.92671">
        <ele>174.8</ele>
        <time>2015-12-14T10:08:18.135Z</time>
      </trkpt>
      <trkpt lat="43.55896" lon="2.92677">
        <ele>174.5</ele>
        <time>2015-12-14T10:08:19.184Z</time>
      </trkpt>
      <trkpt lat="43.55898" lon="2.92685">
        <ele>174.4</ele>
        <time>2015-12-14T10:08:20.165Z</time>
      </trkpt>
      <trkpt lat="43.559" lon="2.92692">
        <ele>174.2</ele>
        <time>2015-12-14T10:08:21.156Z</time>
      </trkpt>
      <trkpt lat="43.55901" lon="2.92699">
        <ele>174</ele>
        <time>2015-12-14T10:08:22.136Z</time>
      </trkpt>
      <trkpt lat="43.55903" lon="2.92707">
        <ele>173.7</ele>
        <time>2015-12-14T10:08:23.162Z</time>
      </trkpt>
      <trkpt lat="43.55905" lon="2.92717">
        <ele>172.9</ele>
        <time>2015-12-14T10:08:24.131Z</time>
      </trkpt>
      <trkpt lat="43.55907" lon="2.92725">
        <ele>172.1</ele>
        <time>2015-12-14T10:08:25.176Z</time>
      </trkpt>
      <trkpt lat="43.55908" lon="2.92733">
        <ele>171.6</ele>
        <time>2015-12-14T10:08:26.135Z</time>
      </trkpt>
      <trkpt lat="43.55909" lon="2.92741">
        <ele>171.5</ele>
        <time>2015-12-14T10:08:27.166Z</time>
      </trkpt>
      <trkpt lat="43.5591" lon="2.92749">
        <ele>171.1</ele>
        <time>2015-12-14T10:08:28.147Z</time>
      </trkpt>
      <trkpt lat="43.55911" lon="2.92756">
        <ele>170.8</ele>
        <time>2015-12-14T10:08:29.181Z</time>
      </trkpt>
      <trkpt lat="43.55913" lon="2.92763">
        <ele>170.4</ele>
        <time>2015-12-14T10:08:30.136Z</time>
      </trkpt>
      <trkpt lat="43.55915" lon="2.92771">
        <ele>170.5</ele>
        <time>2015-12-14T10:08:31.173Z</time>
      </trkpt>
      <trkpt lat="43.55917" lon="2.92778">
        <ele>170.5</ele>
        <time>2015-12-14T10:08:32.140Z</time>
      </trkpt>
      <trkpt lat="43.55918" lon="2.92786">
        <ele>170.6</ele>
        <time>2015-12-14T10:08:33.177Z</time>
      </trkpt>
      <trkpt lat="43.55919" lon="2.92793">
        <ele>170.5</ele>
        <time>2015-12-14T10:08:34.140Z</time>
      </trkpt>
      <trkpt lat="43.5592" lon="2.928">
        <ele>170.7</ele>
        <time>2015-12-14T10:08:35.172Z</time>
      </trkpt>
      <trkpt lat="43.55921" lon="2.92808">
        <ele>170.4</ele>
        <time>2015-12-14T10:08:36.143Z</time>
      </trkpt>
      <trkpt lat="43.55922" lon="2.92815">
        <ele>170</ele>
        <time>2015-12-14T10:08:37.180Z</time>
      </trkpt>
      <trkpt lat="43.55923" lon="2.92821">
        <ele>170</ele>
        <time>2015-12-14T10:08:38.133Z</time>
      </trkpt>
      <trkpt lat="43.55924" lon="2.92827">
        <ele>169.8</ele>
        <time>2015-12-14T10:08:39.160Z</time>
      </trkpt>
      <trkpt lat="43.55926" lon="2.92834">
        <ele>169.5</ele>
        <time>2015-12-14T10:08:40.132Z</time>
      </trkpt>
      <trkpt lat="43.55927" lon="2.9284">
        <ele>169</ele>
        <time>2015-12-14T10:08:41.191Z</time>
      </trkpt>
      <trkpt lat="43.55928" lon="2.92847">
        <ele>168.4</ele>
        <time>2015-12-14T10:08:42.135Z</time>
      </trkpt>
      <trkpt lat="43.5593" lon="2.92855">
        <ele>168</ele>
        <time>2015-12-14T10:08:43.201Z</time>
      </trkpt>
      <trkpt lat="43.55931" lon="2.92862">
        <ele>168</ele>
        <time>2015-12-14T10:08:44.137Z</time>
      </trkpt>
      <trkpt lat="43.55932" lon="2.92869">
        <ele>168</ele>
        <time>2015-12-14T10:08:45.168Z</time>
      </trkpt>
      <trkpt lat="43.55934" lon="2.92876">
        <ele>168.2</ele>
        <time>2015-12-14T10:08:46.130Z</time>
      </trkpt>
      <trkpt lat="43.55935" lon="2.92883">
        <ele>167.9</ele>
        <time>2015-12-14T10:08:47.170Z</time>
      </trkpt>
      <trkpt lat="43.55936" lon="2.9289">
        <ele>167.6</ele>
        <time>2015-12-14T10:08:48.134Z</time>
      </trkpt>
      <trkpt lat="43.55937" lon="2.92897">
        <ele>167.7</ele>
        <time>2015-12-14T10:08:49.197Z</time>
      </trkpt>
      <trkpt lat="43.55938" lon="2.92904">
        <ele>167.5</ele>
        <time>2015-12-14T10:08:50.141Z</time>
      </trkpt>
      <trkpt lat="43.55939" lon="2.92912">
        <ele>167.4</ele>
        <time>2015-12-14T10:08:51.165Z</time>
      </trkpt>
      <trkpt lat="43.55939" lon="2.92918">
        <ele>167.1</ele>
        <time>2015-12-14T10:08:52.134Z</time>
      </trkpt>
      <trkpt lat="43.5594" lon="2.92925">
        <ele>166.8</ele>
        <time>2015-12-14T10:08:53.171Z</time>
      </trkpt>
      <trkpt lat="43.55942" lon="2.92931">
        <ele>166.7</ele>
        <time>2015-12-14T10:08:54.134Z</time>
      </trkpt>
      <trkpt lat="43.55944" lon="2.92942">
        <ele>166</ele>
        <time>2015-12-14T10:08:56.194Z</time>
      </trkpt>
      <trkpt lat="43.55945" lon="2.92948">
        <ele>165.4</ele>
        <time>2015-12-14T10:08:57.133Z</time>
      </trkpt>
      <trkpt lat="43.55947" lon="2.92959">
        <ele>164.7</ele>
        <time>2015-12-14T10:08:59.577Z</time>
      </trkpt>
      <trkpt lat="43.55948" lon="2.92964">
        <ele>164.4</ele>
        <time>2015-12-14T10:09:00.164Z</time>
      </trkpt>
      <trkpt lat="43.5595" lon="2.92975">
        <ele>163.8</ele>
        <time>2015-12-14T10:09:02.159Z</time>
      </trkpt>
      <trkpt lat="43.55951" lon="2.92979">
        <ele>163.5</ele>
        <time>2015-12-14T10:09:03.133Z</time>
      </trkpt>
      <trkpt lat="43.55954" lon="2.9299">
        <ele>162.3</ele>
        <time>2015-12-14T10:09:06.184Z</time>
      </trkpt>
      <trkpt lat="43.55954" lon="2.92994">
        <ele>161.9</ele>
        <time>2015-12-14T10:09:07.141Z</time>
      </trkpt>
      <trkpt lat="43.55956" lon="2.93002">
        <ele>161</ele>
        <time>2015-12-14T10:09:09.166Z</time>
      </trkpt>
      <trkpt lat="43.55957" lon="2.93006">
        <ele>160.6</ele>
        <time>2015-12-14T10:09:10.140Z</time>
      </trkpt>
      <trkpt lat="43.5596" lon="2.93013">
        <ele>159.9</ele>
        <time>2015-12-14T10:09:12.187Z</time>
      </trkpt>
      <trkpt lat="43.55961" lon="2.93017">
        <ele>159.6</ele>
        <time>2015-12-14T10:09:13.137Z</time>
      </trkpt>
      <trkpt lat="43.55963" lon="2.93029">
        <ele>158.7</ele>
        <time>2015-12-14T10:09:16.167Z</time>
      </trkpt>
      <trkpt lat="43.55963" lon="2.93032">
        <ele>158.3</ele>
        <time>2015-12-14T10:09:17.135Z</time>
      </trkpt>
      <trkpt lat="43.55965" lon="2.9304">
        <ele>157.3</ele>
        <time>2015-12-14T10:09:19.196Z</time>
      </trkpt>
      <trkpt lat="43.55966" lon="2.93044">
        <ele>157</ele>
        <time>2015-12-14T10:09:20.138Z</time>
      </trkpt>
      <trkpt lat="43.55969" lon="2.93053">
        <ele>156.1</ele>
        <time>2015-12-14T10:09:22.180Z</time>
      </trkpt>
      <trkpt lat="43.55974" lon="2.93057">
        <ele>155.8</ele>
        <time>2015-12-14T10:09:23.138Z</time>
      </trkpt>
      <trkpt lat="43.55981" lon="2.93062">
        <ele>155.9</ele>
        <time>2015-12-14T10:09:24.165Z</time>
      </trkpt>
      <trkpt lat="43.55983" lon="2.93066">
        <ele>155.7</ele>
        <time>2015-12-14T10:09:25.132Z</time>
      </trkpt>
      <trkpt lat="43.55987" lon="2.93074">
        <ele>155.4</ele>
        <time>2015-12-14T10:09:27.175Z</time>
      </trkpt>
      <trkpt lat="43.55989" lon="2.93078">
        <ele>155.1</ele>
        <time>2015-12-14T10:09:28.137Z</time>
      </trkpt>
      <trkpt lat="43.55992" lon="2.93084">
        <ele>154.6</ele>
        <time>2015-12-14T10:09:30.159Z</time>
      </trkpt>
      <trkpt lat="43.55995" lon="2.93089">
        <ele>154.7</ele>
        <time>2015-12-14T10:09:31.134Z</time>
      </trkpt>
      <trkpt lat="43.56" lon="2.93097">
        <ele>154.3</ele>
        <time>2015-12-14T10:09:33.185Z</time>
      </trkpt>
      <trkpt lat="43.56003" lon="2.93101">
        <ele>154.5</ele>
        <time>2015-12-14T10:09:34.130Z</time>
      </trkpt>
      <trkpt lat="43.56008" lon="2.9311">
        <ele>154.1</ele>
        <time>2015-12-14T10:09:36.158Z</time>
      </trkpt>
      <trkpt lat="43.5601" lon="2.93114">
        <ele>153.7</ele>
        <time>2015-12-14T10:09:37.136Z</time>
      </trkpt>
      <trkpt lat="43.56016" lon="2.93122">
        <ele>153.7</ele>
        <time>2015-12-14T10:09:39.199Z</time>
      </trkpt>
      <trkpt lat="43.5602" lon="2.93127">
        <ele>153.5</ele>
        <time>2015-12-14T10:09:40.146Z</time>
      </trkpt>
      <trkpt lat="43.56023" lon="2.93131">
        <ele>153.3</ele>
        <time>2015-12-14T10:09:41.167Z</time>
      </trkpt>
      <trkpt lat="43.56026" lon="2.93137">
        <ele>153.4</ele>
        <time>2015-12-14T10:09:42.138Z</time>
      </trkpt>
      <trkpt lat="43.5603" lon="2.93142">
        <ele>153.3</ele>
        <time>2015-12-14T10:09:43.184Z</time>
      </trkpt>
      <trkpt lat="43.56033" lon="2.93148">
        <ele>153.2</ele>
        <time>2015-12-14T10:09:44.138Z</time>
      </trkpt>
      <trkpt lat="43.56037" lon="2.93154">
        <ele>153.3</ele>
        <time>2015-12-14T10:09:45.553Z</time>
      </trkpt>
      <trkpt lat="43.5604" lon="2.93159">
        <ele>153.4</ele>
        <time>2015-12-14T10:09:46.148Z</time>
      </trkpt>
      <trkpt lat="43.56043" lon="2.93164">
        <ele>153.7</ele>
        <time>2015-12-14T10:09:47.170Z</time>
      </trkpt>
      <trkpt lat="43.56046" lon="2.93168">
        <ele>153.4</ele>
        <time>2015-12-14T10:09:48.136Z</time>
      </trkpt>
      <trkpt lat="43.56053" lon="2.93175">
        <ele>153.2</ele>
        <time>2015-12-14T10:09:50.193Z</time>
      </trkpt>
      <trkpt lat="43.56056" lon="2.9318">
        <ele>152.9</ele>
        <time>2015-12-14T10:09:51.130Z</time>
      </trkpt>
      <trkpt lat="43.5606" lon="2.93186">
        <ele>152.5</ele>
        <time>2015-12-14T10:09:52.173Z</time>
      </trkpt>
      <trkpt lat="43.56064" lon="2.93194">
        <ele>152</ele>
        <time>2015-12-14T10:09:53.132Z</time>
      </trkpt>
      <trkpt lat="43.56069" lon="2.93198">
        <ele>151.8</ele>
        <time>2015-12-14T10:09:54.209Z</time>
      </trkpt>
      <trkpt lat="43.56073" lon="2.93202">
        <ele>151.5</ele>
        <time>2015-12-14T10:09:55.136Z</time>
      </trkpt>
      <trkpt lat="43.56076" lon="2.93209">
        <ele>151.2</ele>
        <time>2015-12-14T10:09:56.173Z</time>
      </trkpt>
      <trkpt lat="43.5608" lon="2.93213">
        <ele>150.9</ele>
        <time>2015-12-14T10:09:57.134Z</time>
      </trkpt>
      <trkpt lat="43.56085" lon="2.93218">
        <ele>150.6</ele>
        <time>2015-12-14T10:09:58.173Z</time>
      </trkpt>
      <trkpt lat="43.56088" lon="2.93224">
        <ele>150.4</ele>
        <time>2015-12-14T10:09:59.137Z</time>
      </trkpt>
      <trkpt lat="43.56091" lon="2.93228">
        <ele>150.2</ele>
        <time>2015-12-14T10:10:00.168Z</time>
      </trkpt>
      <trkpt lat="43.56094" lon="2.93234">
        <ele>150.6</ele>
        <time>2015-12-14T10:10:01.135Z</time>
      </trkpt>
      <trkpt lat="43.56097" lon="2.93239">
        <ele>150.9</ele>
        <time>2015-12-14T10:10:02.172Z</time>
      </trkpt>
      <trkpt lat="43.561" lon="2.93245">
        <ele>151.1</ele>
        <time>2015-12-14T10:10:03.132Z</time>
      </trkpt>
      <trkpt lat="43.56106" lon="2.93253">
        <ele>150.6</ele>
        <time>2015-12-14T10:10:05.169Z</time>
      </trkpt>
      <trkpt lat="43.56109" lon="2.93258">
        <ele>150.6</ele>
        <time>2015-12-14T10:10:06.133Z</time>
      </trkpt>
      <trkpt lat="43.56114" lon="2.93267">
        <ele>151</ele>
        <time>2015-12-14T10:10:08.185Z</time>
      </trkpt>
      <trkpt lat="43.56117" lon="2.9327">
        <ele>150.9</ele>
        <time>2015-12-14T10:10:09.137Z</time>
      </trkpt>
      <trkpt lat="43.56121" lon="2.93278">
        <ele>151.6</ele>
        <time>2015-12-14T10:10:11.175Z</time>
      </trkpt>
      <trkpt lat="43.56123" lon="2.93284">
        <ele>151.9</ele>
        <time>2015-12-14T10:10:12.142Z</time>
      </trkpt>
      <trkpt lat="43.56126" lon="2.93289">
        <ele>152.2</ele>
        <time>2015-12-14T10:10:13.569Z</time>
      </trkpt>
      <trkpt lat="43.56129" lon="2.93294">
        <ele>152.3</ele>
        <time>2015-12-14T10:10:14.132Z</time>
      </trkpt>
      <trkpt lat="43.56134" lon="2.93304">
        <ele>151.6</ele>
        <time>2015-12-14T10:10:16.163Z</time>
      </trkpt>
      <trkpt lat="43.56136" lon="2.93308">
        <ele>151.3</ele>
        <time>2015-12-14T10:10:17.137Z</time>
      </trkpt>
      <trkpt lat="43.56139" lon="2.93313">
        <ele>151</ele>
        <time>2015-12-14T10:10:18.190Z</time>
      </trkpt>
      <trkpt lat="43.56143" lon="2.93319">
        <ele>150.5</ele>
        <time>2015-12-14T10:10:19.141Z</time>
      </trkpt>
      <trkpt lat="43.56146" lon="2.93324">
        <ele>150.1</ele>
        <time>2015-12-14T10:10:20.193Z</time>
      </trkpt>
      <trkpt lat="43.56148" lon="2.93329">
        <ele>150.2</ele>
        <time>2015-12-14T10:10:21.138Z</time>
      </trkpt>
      <trkpt lat="43.56151" lon="2.93335">
        <ele>150.4</ele>
        <time>2015-12-14T10:10:22.175Z</time>
      </trkpt>
      <trkpt lat="43.56157" lon="2.93339">
        <ele>151.9</ele>
        <time>2015-12-14T10:10:23.133Z</time>
      </trkpt>
      <trkpt lat="43.56157" lon="2.93339">
        <ele>151.9</ele>
        <time>2015-12-14T10:10:23.168Z</time>
      </trkpt>
      <trkpt lat="43.56166" lon="2.93345">
        <ele>153.3</ele>
        <time>2015-12-14T10:10:24.133Z</time>
      </trkpt>
      <trkpt lat="43.56169" lon="2.93349">
        <ele>153.5</ele>
        <time>2015-12-14T10:10:25.223Z</time>
      </trkpt>
      <trkpt lat="43.56171" lon="2.93355">
        <ele>154.8</ele>
        <time>2015-12-14T10:10:26.144Z</time>
      </trkpt>
      <trkpt lat="43.56175" lon="2.93361">
        <ele>155.1</ele>
        <time>2015-12-14T10:10:27.207Z</time>
      </trkpt>
      <trkpt lat="43.56178" lon="2.93366">
        <ele>155.9</ele>
        <time>2015-12-14T10:10:28.140Z</time>
      </trkpt>
      <trkpt lat="43.56184" lon="2.93375">
        <ele>156.6</ele>
        <time>2015-12-14T10:10:30.190Z</time>
      </trkpt>
      <trkpt lat="43.56187" lon="2.93379">
        <ele>156.9</ele>
        <time>2015-12-14T10:10:31.135Z</time>
      </trkpt>
      <trkpt lat="43.56193" lon="2.93387">
        <ele>156.9</ele>
        <time>2015-12-14T10:10:33.176Z</time>
      </trkpt>
      <trkpt lat="43.56196" lon="2.93391">
        <ele>156.7</ele>
        <time>2015-12-14T10:10:34.134Z</time>
      </trkpt>
      <trkpt lat="43.56203" lon="2.93399">
        <ele>157</ele>
        <time>2015-12-14T10:10:36.186Z</time>
      </trkpt>
      <trkpt lat="43.56206" lon="2.93403">
        <ele>157.2</ele>
        <time>2015-12-14T10:10:37.138Z</time>
      </trkpt>
      <trkpt lat="43.56212" lon="2.93412">
        <ele>157.5</ele>
        <time>2015-12-14T10:10:39.581Z</time>
      </trkpt>
      <trkpt lat="43.56215" lon="2.93416">
        <ele>157.7</ele>
        <time>2015-12-14T10:10:40.135Z</time>
      </trkpt>
      <trkpt lat="43.56222" lon="2.93424">
        <ele>157.7</ele>
        <time>2015-12-14T10:10:42.169Z</time>
      </trkpt>
      <trkpt lat="43.56224" lon="2.93428">
        <ele>157.6</ele>
        <time>2015-12-14T10:10:43.143Z</time>
      </trkpt>
      <trkpt lat="43.56231" lon="2.93435">
        <ele>157.3</ele>
        <time>2015-12-14T10:10:45.168Z</time>
      </trkpt>
      <trkpt lat="43.56233" lon="2.93439">
        <ele>157.2</ele>
        <time>2015-12-14T10:10:46.134Z</time>
      </trkpt>
      <trkpt lat="43.56241" lon="2.93445">
        <ele>156.9</ele>
        <time>2015-12-14T10:10:48.194Z</time>
      </trkpt>
      <trkpt lat="43.56244" lon="2.93447">
        <ele>156.9</ele>
        <time>2015-12-14T10:10:49.141Z</time>
      </trkpt>
      <trkpt lat="43.56252" lon="2.93453">
        <ele>156.9</ele>
        <time>2015-12-14T10:10:51.171Z</time>
      </trkpt>
      <trkpt lat="43.56255" lon="2.93455">
        <ele>156.9</ele>
        <time>2015-12-14T10:10:52.132Z</time>
      </trkpt>
      <trkpt lat="43.56263" lon="2.93462">
        <ele>156.7</ele>
        <time>2015-12-14T10:10:54.177Z</time>
      </trkpt>
      <trkpt lat="43.56267" lon="2.93464">
        <ele>156.4</ele>
        <time>2015-12-14T10:10:55.139Z</time>
      </trkpt>
      <trkpt lat="43.56274" lon="2.93469">
        <ele>155.9</ele>
        <time>2015-12-14T10:10:57.187Z</time>
      </trkpt>
      <trkpt lat="43.56278" lon="2.93471">
        <ele>155.6</ele>
        <time>2015-12-14T10:10:58.138Z</time>
      </trkpt>
      <trkpt lat="43.56286" lon="2.93477">
        <ele>155.3</ele>
        <time>2015-12-14T10:11:00.160Z</time>
      </trkpt>
      <trkpt lat="43.56289" lon="2.93481">
        <ele>155.1</ele>
        <time>2015-12-14T10:11:01.136Z</time>
      </trkpt>
      <trkpt lat="43.56297" lon="2.93485">
        <ele>155.1</ele>
        <time>2015-12-14T10:11:03.199Z</time>
      </trkpt>
      <trkpt lat="43.563" lon="2.93489">
        <ele>154.9</ele>
        <time>2015-12-14T10:11:04.139Z</time>
      </trkpt>
      <trkpt lat="43.56307" lon="2.93495">
        <ele>155</ele>
        <time>2015-12-14T10:11:06.168Z</time>
      </trkpt>
      <trkpt lat="43.5631" lon="2.93498">
        <ele>154.8</ele>
        <time>2015-12-14T10:11:07.140Z</time>
      </trkpt>
      <trkpt lat="43.56314" lon="2.93502">
        <ele>154.6</ele>
        <time>2015-12-14T10:11:09.163Z</time>
      </trkpt>
      <trkpt lat="43.56315" lon="2.93503">
        <ele>154.6</ele>
        <time>2015-12-14T10:11:10.134Z</time>
      </trkpt>
      <trkpt lat="43.56321" lon="2.93512">
        <ele>156.3</ele>
        <time>2015-12-14T10:11:20.169Z</time>
      </trkpt>
      <trkpt lat="43.56322" lon="2.93513">
        <ele>156.4</ele>
        <time>2015-12-14T10:11:21.133Z</time>
      </trkpt>
      <trkpt lat="43.56322" lon="2.93513">
        <ele>156.4</ele>
        <time>2015-12-14T10:11:22.169Z</time>
      </trkpt>
      <trkpt lat="43.56322" lon="2.93513">
        <ele>156.5</ele>
        <time>2015-12-14T10:11:23.137Z</time>
      </trkpt>
      <trkpt lat="43.56322" lon="2.93513">
        <ele>156.9</ele>
        <time>2015-12-14T10:12:08.183Z</time>
      </trkpt>
      <trkpt lat="43.56322" lon="2.93523">
        <ele>161.7</ele>
        <time>2015-12-14T10:12:09.140Z</time>
      </trkpt>
      <trkpt lat="43.56326" lon="2.93525">
        <ele>161.7</ele>
        <time>2015-12-14T10:12:13.191Z</time>
      </trkpt>
      <trkpt lat="43.56327" lon="2.93525">
        <ele>161.6</ele>
        <time>2015-12-14T10:12:14.136Z</time>
      </trkpt>
      <trkpt lat="43.5633" lon="2.93526">
        <ele>161.6</ele>
        <time>2015-12-14T10:12:17.191Z</time>
      </trkpt>
      <trkpt lat="43.56332" lon="2.93527">
        <ele>161.7</ele>
        <time>2015-12-14T10:12:18.136Z</time>
      </trkpt>
      <trkpt lat="43.56339" lon="2.93531">
        <ele>161.8</ele>
        <time>2015-12-14T10:12:21.177Z</time>
      </trkpt>
      <trkpt lat="43.56341" lon="2.93533">
        <ele>161.8</ele>
        <time>2015-12-14T10:12:22.131Z</time>
      </trkpt>
      <trkpt lat="43.56348" lon="2.93539">
        <ele>161.5</ele>
        <time>2015-12-14T10:12:25.199Z</time>
      </trkpt>
      <trkpt lat="43.56351" lon="2.93542">
        <ele>161.5</ele>
        <time>2015-12-14T10:12:26.133Z</time>
      </trkpt>
      <trkpt lat="43.56358" lon="2.93548">
        <ele>161.4</ele>
        <time>2015-12-14T10:12:29.193Z</time>
      </trkpt>
      <trkpt lat="43.5636" lon="2.9355">
        <ele>161.3</ele>
        <time>2015-12-14T10:12:30.138Z</time>
      </trkpt>
      <trkpt lat="43.56366" lon="2.93556">
        <ele>161.1</ele>
        <time>2015-12-14T10:12:33.163Z</time>
      </trkpt>
      <trkpt lat="43.56368" lon="2.93559">
        <ele>162</ele>
        <time>2015-12-14T10:12:34.130Z</time>
      </trkpt>
      <trkpt lat="43.56374" lon="2.93566">
        <ele>162.3</ele>
        <time>2015-12-14T10:12:37.184Z</time>
      </trkpt>
      <trkpt lat="43.56376" lon="2.93567">
        <ele>162.1</ele>
        <time>2015-12-14T10:12:38.135Z</time>
      </trkpt>
      <trkpt lat="43.56382" lon="2.93573">
        <ele>161.8</ele>
        <time>2015-12-14T10:12:41.161Z</time>
      </trkpt>
      <trkpt lat="43.56384" lon="2.93575">
        <ele>161.9</ele>
        <time>2015-12-14T10:12:42.132Z</time>
      </trkpt>
      <trkpt lat="43.5639" lon="2.93583">
        <ele>161.6</ele>
        <time>2015-12-14T10:12:46.176Z</time>
      </trkpt>
      <trkpt lat="43.56392" lon="2.93586">
        <ele>161.2</ele>
        <time>2015-12-14T10:12:47.139Z</time>
      </trkpt>
      <trkpt lat="43.56397" lon="2.93593">
        <ele>160.4</ele>
        <time>2015-12-14T10:12:50.164Z</time>
      </trkpt>
      <trkpt lat="43.56399" lon="2.93596">
        <ele>160.1</ele>
        <time>2015-12-14T10:12:51.138Z</time>
      </trkpt>
      <trkpt lat="43.56403" lon="2.93601">
        <ele>160.1</ele>
        <time>2015-12-14T10:12:53.169Z</time>
      </trkpt>
      <trkpt lat="43.56406" lon="2.93604">
        <ele>160.4</ele>
        <time>2015-12-14T10:12:54.134Z</time>
      </trkpt>
      <trkpt lat="43.56409" lon="2.9361">
        <ele>160.4</ele>
        <time>2015-12-14T10:12:56.182Z</time>
      </trkpt>
      <trkpt lat="43.56411" lon="2.93613">
        <ele>160.5</ele>
        <time>2015-12-14T10:12:57.153Z</time>
      </trkpt>
      <trkpt lat="43.56418" lon="2.93622">
        <ele>160.3</ele>
        <time>2015-12-14T10:13:01.185Z</time>
      </trkpt>
      <trkpt lat="43.56418" lon="2.93624">
        <ele>160.2</ele>
        <time>2015-12-14T10:13:02.134Z</time>
      </trkpt>
      <trkpt lat="43.56418" lon="2.93624">
        <ele>160.2</ele>
        <time>2015-12-14T10:13:02.213Z</time>
      </trkpt>
      <trkpt lat="43.56418" lon="2.93625">
        <ele>160</ele>
        <time>2015-12-14T10:13:03.137Z</time>
      </trkpt>
      <trkpt lat="43.56422" lon="2.9363">
        <ele>161.1</ele>
        <time>2015-12-14T10:13:09.179Z</time>
      </trkpt>
      <trkpt lat="43.56423" lon="2.93632">
        <ele>161.1</ele>
        <time>2015-12-14T10:13:10.136Z</time>
      </trkpt>
      <trkpt lat="43.56428" lon="2.9364">
        <ele>161</ele>
        <time>2015-12-14T10:13:13.179Z</time>
      </trkpt>
      <trkpt lat="43.5643" lon="2.93642">
        <ele>161.1</ele>
        <time>2015-12-14T10:13:14.133Z</time>
      </trkpt>
      <trkpt lat="43.56434" lon="2.93652">
        <ele>162.1</ele>
        <time>2015-12-14T10:13:19.543Z</time>
      </trkpt>
      <trkpt lat="43.56435" lon="2.93654">
        <ele>162.1</ele>
        <time>2015-12-14T10:13:20.133Z</time>
      </trkpt>
      <trkpt lat="43.56439" lon="2.9366">
        <ele>162.3</ele>
        <time>2015-12-14T10:13:22.165Z</time>
      </trkpt>
      <trkpt lat="43.56441" lon="2.93664">
        <ele>162.1</ele>
        <time>2015-12-14T10:13:23.132Z</time>
      </trkpt>
      <trkpt lat="43.56444" lon="2.93672">
        <ele>161.8</ele>
        <time>2015-12-14T10:13:25.178Z</time>
      </trkpt>
      <trkpt lat="43.56445" lon="2.93676">
        <ele>161.8</ele>
        <time>2015-12-14T10:13:26.212Z</time>
      </trkpt>
      <trkpt lat="43.56449" lon="2.93683">
        <ele>162</ele>
        <time>2015-12-14T10:13:28.163Z</time>
      </trkpt>
      <trkpt lat="43.5645" lon="2.93688">
        <ele>162.4</ele>
        <time>2015-12-14T10:13:29.133Z</time>
      </trkpt>
      <trkpt lat="43.56453" lon="2.93697">
        <ele>162.8</ele>
        <time>2015-12-14T10:13:31.180Z</time>
      </trkpt>
      <trkpt lat="43.56454" lon="2.93701">
        <ele>162.7</ele>
        <time>2015-12-14T10:13:32.136Z</time>
      </trkpt>
      <trkpt lat="43.56457" lon="2.9371">
        <ele>163</ele>
        <time>2015-12-14T10:13:34.173Z</time>
      </trkpt>
      <trkpt lat="43.56458" lon="2.93714">
        <ele>163.4</ele>
        <time>2015-12-14T10:13:35.136Z</time>
      </trkpt>
      <trkpt lat="43.56461" lon="2.93722">
        <ele>163.9</ele>
        <time>2015-12-14T10:13:37.485Z</time>
      </trkpt>
      <trkpt lat="43.56461" lon="2.93726">
        <ele>164.1</ele>
        <time>2015-12-14T10:13:38.133Z</time>
      </trkpt>
      <trkpt lat="43.56463" lon="2.93735">
        <ele>164.5</ele>
        <time>2015-12-14T10:13:40.185Z</time>
      </trkpt>
      <trkpt lat="43.56465" lon="2.93739">
        <ele>164.7</ele>
        <time>2015-12-14T10:13:41.135Z</time>
      </trkpt>
      <trkpt lat="43.56468" lon="2.93747">
        <ele>164.8</ele>
        <time>2015-12-14T10:13:43.175Z</time>
      </trkpt>
      <trkpt lat="43.56469" lon="2.93752">
        <ele>164.9</ele>
        <time>2015-12-14T10:13:44.132Z</time>
      </trkpt>
      <trkpt lat="43.56472" lon="2.93761">
        <ele>165.4</ele>
        <time>2015-12-14T10:13:46.183Z</time>
      </trkpt>
      <trkpt lat="43.56473" lon="2.93765">
        <ele>165.7</ele>
        <time>2015-12-14T10:13:47.134Z</time>
      </trkpt>
      <trkpt lat="43.56475" lon="2.93776">
        <ele>165.7</ele>
        <time>2015-12-14T10:13:49.181Z</time>
      </trkpt>
      <trkpt lat="43.56476" lon="2.93783">
        <ele>165.9</ele>
        <time>2015-12-14T10:13:50.133Z</time>
      </trkpt>
      <trkpt lat="43.56478" lon="2.93793">
        <ele>165.8</ele>
        <time>2015-12-14T10:13:52.402Z</time>
      </trkpt>
      <trkpt lat="43.56478" lon="2.93799">
        <ele>165.8</ele>
        <time>2015-12-14T10:13:53.129Z</time>
      </trkpt>
      <trkpt lat="43.5648" lon="2.93811">
        <ele>166.1</ele>
        <time>2015-12-14T10:13:55.192Z</time>
      </trkpt>
      <trkpt lat="43.56481" lon="2.93817">
        <ele>166.1</ele>
        <time>2015-12-14T10:13:56.134Z</time>
      </trkpt>
      <trkpt lat="43.56482" lon="2.93829">
        <ele>166.5</ele>
        <time>2015-12-14T10:13:58.164Z</time>
      </trkpt>
      <trkpt lat="43.56483" lon="2.93835">
        <ele>166.7</ele>
        <time>2015-12-14T10:13:59.135Z</time>
      </trkpt>
      <trkpt lat="43.56483" lon="2.93846">
        <ele>167</ele>
        <time>2015-12-14T10:14:01.211Z</time>
      </trkpt>
      <trkpt lat="43.56484" lon="2.93852">
        <ele>167</ele>
        <time>2015-12-14T10:14:02.137Z</time>
      </trkpt>
      <trkpt lat="43.56485" lon="2.93858">
        <ele>167</ele>
        <time>2015-12-14T10:14:03.167Z</time>
      </trkpt>
      <trkpt lat="43.56486" lon="2.93864">
        <ele>167</ele>
        <time>2015-12-14T10:14:04.132Z</time>
      </trkpt>
      <trkpt lat="43.56488" lon="2.93876">
        <ele>167.3</ele>
        <time>2015-12-14T10:14:06.161Z</time>
      </trkpt>
      <trkpt lat="43.56489" lon="2.93882">
        <ele>166.9</ele>
        <time>2015-12-14T10:14:07.131Z</time>
      </trkpt>
      <trkpt lat="43.56492" lon="2.93894">
        <ele>167.2</ele>
        <time>2015-12-14T10:14:09.206Z</time>
      </trkpt>
      <trkpt lat="43.56493" lon="2.939">
        <ele>166.9</ele>
        <time>2015-12-14T10:14:10.135Z</time>
      </trkpt>
      <trkpt lat="43.56494" lon="2.93906">
        <ele>166.8</ele>
        <time>2015-12-14T10:14:11.189Z</time>
      </trkpt>
      <trkpt lat="43.56495" lon="2.93912">
        <ele>166.5</ele>
        <time>2015-12-14T10:14:12.137Z</time>
      </trkpt>
      <trkpt lat="43.56498" lon="2.93924">
        <ele>166.6</ele>
        <time>2015-12-14T10:14:14.182Z</time>
      </trkpt>
      <trkpt lat="43.565" lon="2.93929">
        <ele>166.2</ele>
        <time>2015-12-14T10:14:15.130Z</time>
      </trkpt>
      <trkpt lat="43.56502" lon="2.93935">
        <ele>166.2</ele>
        <time>2015-12-14T10:14:16.182Z</time>
      </trkpt>
      <trkpt lat="43.56504" lon="2.93941">
        <ele>165.6</ele>
        <time>2015-12-14T10:14:17.134Z</time>
      </trkpt>
      <trkpt lat="43.56507" lon="2.93952">
        <ele>165.4</ele>
        <time>2015-12-14T10:14:19.208Z</time>
      </trkpt>
      <trkpt lat="43.56508" lon="2.93957">
        <ele>165.4</ele>
        <time>2015-12-14T10:14:20.139Z</time>
      </trkpt>
      <trkpt lat="43.5651" lon="2.93969">
        <ele>165.6</ele>
        <time>2015-12-14T10:14:22.164Z</time>
      </trkpt>
      <trkpt lat="43.56511" lon="2.93974">
        <ele>165.7</ele>
        <time>2015-12-14T10:14:23.131Z</time>
      </trkpt>
      <trkpt lat="43.56513" lon="2.93983">
        <ele>165.9</ele>
        <time>2015-12-14T10:14:25.198Z</time>
      </trkpt>
      <trkpt lat="43.56514" lon="2.93988">
        <ele>166.2</ele>
        <time>2015-12-14T10:14:26.142Z</time>
      </trkpt>
      <trkpt lat="43.56517" lon="2.93998">
        <ele>166.3</ele>
        <time>2015-12-14T10:14:28.181Z</time>
      </trkpt>
      <trkpt lat="43.56518" lon="2.94003">
        <ele>166.7</ele>
        <time>2015-12-14T10:14:29.135Z</time>
      </trkpt>
      <trkpt lat="43.56519" lon="2.94013">
        <ele>167.2</ele>
        <time>2015-12-14T10:14:31.197Z</time>
      </trkpt>
      <trkpt lat="43.56521" lon="2.94017">
        <ele>167.4</ele>
        <time>2015-12-14T10:14:32.147Z</time>
      </trkpt>
      <trkpt lat="43.56523" lon="2.94029">
        <ele>167.5</ele>
        <time>2015-12-14T10:14:34.168Z</time>
      </trkpt>
      <trkpt lat="43.56524" lon="2.94034">
        <ele>167.5</ele>
        <time>2015-12-14T10:14:35.135Z</time>
      </trkpt>
      <trkpt lat="43.56527" lon="2.94046">
        <ele>167.4</ele>
        <time>2015-12-14T10:14:37.168Z</time>
      </trkpt>
      <trkpt lat="43.56528" lon="2.94052">
        <ele>166.9</ele>
        <time>2015-12-14T10:14:38.135Z</time>
      </trkpt>
      <trkpt lat="43.56531" lon="2.94062">
        <ele>166.4</ele>
        <time>2015-12-14T10:14:40.191Z</time>
      </trkpt>
      <trkpt lat="43.56533" lon="2.94067">
        <ele>167.1</ele>
        <time>2015-12-14T10:14:41.141Z</time>
      </trkpt>
      <trkpt lat="43.56534" lon="2.94074">
        <ele>166.8</ele>
        <time>2015-12-14T10:14:42.170Z</time>
      </trkpt>
      <trkpt lat="43.56534" lon="2.9408">
        <ele>166.9</ele>
        <time>2015-12-14T10:14:43.134Z</time>
      </trkpt>
      <trkpt lat="43.56535" lon="2.94088">
        <ele>166</ele>
        <time>2015-12-14T10:14:44.161Z</time>
      </trkpt>
      <trkpt lat="43.56536" lon="2.94096">
        <ele>165.3</ele>
        <time>2015-12-14T10:14:45.133Z</time>
      </trkpt>
      <trkpt lat="43.56537" lon="2.94103">
        <ele>164.9</ele>
        <time>2015-12-14T10:14:46.172Z</time>
      </trkpt>
      <trkpt lat="43.56538" lon="2.94109">
        <ele>164.5</ele>
        <time>2015-12-14T10:14:47.130Z</time>
      </trkpt>
      <trkpt lat="43.56539" lon="2.94116">
        <ele>164</ele>
        <time>2015-12-14T10:14:48.189Z</time>
      </trkpt>
      <trkpt lat="43.56539" lon="2.94123">
        <ele>163.3</ele>
        <time>2015-12-14T10:14:49.140Z</time>
      </trkpt>
      <trkpt lat="43.56539" lon="2.94129">
        <ele>163</ele>
        <time>2015-12-14T10:14:50.183Z</time>
      </trkpt>
      <trkpt lat="43.5654" lon="2.94136">
        <ele>163</ele>
        <time>2015-12-14T10:14:51.135Z</time>
      </trkpt>
      <trkpt lat="43.56541" lon="2.94142">
        <ele>163.3</ele>
        <time>2015-12-14T10:14:52.164Z</time>
      </trkpt>
      <trkpt lat="43.56541" lon="2.94148">
        <ele>163.4</ele>
        <time>2015-12-14T10:14:53.137Z</time>
      </trkpt>
      <trkpt lat="43.56543" lon="2.94159">
        <ele>164</ele>
        <time>2015-12-14T10:14:55.186Z</time>
      </trkpt>
      <trkpt lat="43.56544" lon="2.94165">
        <ele>164</ele>
        <time>2015-12-14T10:14:56.130Z</time>
      </trkpt>
      <trkpt lat="43.56545" lon="2.94176">
        <ele>164.1</ele>
        <time>2015-12-14T10:14:58.198Z</time>
      </trkpt>
      <trkpt lat="43.56545" lon="2.94182">
        <ele>164.2</ele>
        <time>2015-12-14T10:14:59.136Z</time>
      </trkpt>
      <trkpt lat="43.56546" lon="2.94193">
        <ele>164.2</ele>
        <time>2015-12-14T10:15:01.162Z</time>
      </trkpt>
      <trkpt lat="43.56546" lon="2.94199">
        <ele>164.1</ele>
        <time>2015-12-14T10:15:02.129Z</time>
      </trkpt>
      <trkpt lat="43.56547" lon="2.9421">
        <ele>164.2</ele>
        <time>2015-12-14T10:15:04.165Z</time>
      </trkpt>
      <trkpt lat="43.56547" lon="2.94216">
        <ele>164.4</ele>
        <time>2015-12-14T10:15:05.145Z</time>
      </trkpt>
      <trkpt lat="43.56548" lon="2.94227">
        <ele>164.6</ele>
        <time>2015-12-14T10:15:07.182Z</time>
      </trkpt>
      <trkpt lat="43.56548" lon="2.94232">
        <ele>164.7</ele>
        <time>2015-12-14T10:15:08.138Z</time>
      </trkpt>
      <trkpt lat="43.56549" lon="2.94242">
        <ele>164.7</ele>
        <time>2015-12-14T10:15:10.168Z</time>
      </trkpt>
      <trkpt lat="43.56549" lon="2.94247">
        <ele>164.9</ele>
        <time>2015-12-14T10:15:11.133Z</time>
      </trkpt>
      <trkpt lat="43.5655" lon="2.94256">
        <ele>165</ele>
        <time>2015-12-14T10:15:13.181Z</time>
      </trkpt>
      <trkpt lat="43.56551" lon="2.94261">
        <ele>165.1</ele>
        <time>2015-12-14T10:15:14.138Z</time>
      </trkpt>
      <trkpt lat="43.56553" lon="2.94271">
        <ele>165.2</ele>
        <time>2015-12-14T10:15:16.186Z</time>
      </trkpt>
      <trkpt lat="43.56553" lon="2.94277">
        <ele>165.4</ele>
        <time>2015-12-14T10:15:17.136Z</time>
      </trkpt>
      <trkpt lat="43.56553" lon="2.94289">
        <ele>165.7</ele>
        <time>2015-12-14T10:15:19.578Z</time>
      </trkpt>
      <trkpt lat="43.56553" lon="2.94294">
        <ele>165.8</ele>
        <time>2015-12-14T10:15:20.133Z</time>
      </trkpt>
      <trkpt lat="43.56555" lon="2.94305">
        <ele>166</ele>
        <time>2015-12-14T10:15:22.165Z</time>
      </trkpt>
      <trkpt lat="43.56555" lon="2.9431">
        <ele>166.1</ele>
        <time>2015-12-14T10:15:23.132Z</time>
      </trkpt>
      <trkpt lat="43.56557" lon="2.9432">
        <ele>166.1</ele>
        <time>2015-12-14T10:15:20.639Z</time>
      </trkpt>
      <trkpt lat="43.56558" lon="2.94324">
        <ele>166</ele>
        <time>2015-12-14T10:15:26.131Z</time>
      </trkpt>
      <trkpt lat="43.5656" lon="2.94333">
        <ele>165.9</ele>
        <time>2015-12-14T10:15:28.166Z</time>
      </trkpt>
      <trkpt lat="43.5656" lon="2.94338">
        <ele>165.8</ele>
        <time>2015-12-14T10:15:29.137Z</time>
      </trkpt>
      <trkpt lat="43.56562" lon="2.94348">
        <ele>165.8</ele>
        <time>2015-12-14T10:15:31.167Z</time>
      </trkpt>
      <trkpt lat="43.56563" lon="2.94353">
        <ele>165.6</ele>
        <time>2015-12-14T10:15:32.133Z</time>
      </trkpt>
      <trkpt lat="43.56565" lon="2.94363">
        <ele>165.7</ele>
        <time>2015-12-14T10:15:34.178Z</time>
      </trkpt>
      <trkpt lat="43.56567" lon="2.9437">
        <ele>165.5</ele>
        <time>2015-12-14T10:15:35.144Z</time>
      </trkpt>
      <trkpt lat="43.56568" lon="2.94376">
        <ele>165.3</ele>
        <time>2015-12-14T10:15:36.584Z</time>
      </trkpt>
      <trkpt lat="43.5657" lon="2.94382">
        <ele>165.3</ele>
        <time>2015-12-14T10:15:37.138Z</time>
      </trkpt>
      <trkpt lat="43.56571" lon="2.94388">
        <ele>165.2</ele>
        <time>2015-12-14T10:15:38.163Z</time>
      </trkpt>
      <trkpt lat="43.56572" lon="2.94394">
        <ele>164.8</ele>
        <time>2015-12-14T10:15:39.135Z</time>
      </trkpt>
      <trkpt lat="43.56575" lon="2.94405">
        <ele>164.4</ele>
        <time>2015-12-14T10:15:41.196Z</time>
      </trkpt>
      <trkpt lat="43.56576" lon="2.94411">
        <ele>164.4</ele>
        <time>2015-12-14T10:15:42.133Z</time>
      </trkpt>
      <trkpt lat="43.56578" lon="2.94421">
        <ele>164.4</ele>
        <time>2015-12-14T10:15:44.177Z</time>
      </trkpt>
      <trkpt lat="43.56579" lon="2.94426">
        <ele>164.4</ele>
        <time>2015-12-14T10:15:45.136Z</time>
      </trkpt>
      <trkpt lat="43.56582" lon="2.94437">
        <ele>164.5</ele>
        <time>2015-12-14T10:15:47.171Z</time>
      </trkpt>
      <trkpt lat="43.56583" lon="2.94443">
        <ele>164.3</ele>
        <time>2015-12-14T10:15:48.134Z</time>
      </trkpt>
      <trkpt lat="43.56587" lon="2.94452">
        <ele>163.9</ele>
        <time>2015-12-14T10:15:50.180Z</time>
      </trkpt>
      <trkpt lat="43.5659" lon="2.94458">
        <ele>163.7</ele>
        <time>2015-12-14T10:15:51.132Z</time>
      </trkpt>
      <trkpt lat="43.56593" lon="2.94467">
        <ele>163.3</ele>
        <time>2015-12-14T10:15:53.161Z</time>
      </trkpt>
      <trkpt lat="43.56595" lon="2.94472">
        <ele>163.2</ele>
        <time>2015-12-14T10:15:54.133Z</time>
      </trkpt>
      <trkpt lat="43.566" lon="2.94482">
        <ele>163.1</ele>
        <time>2015-12-14T10:15:56.180Z</time>
      </trkpt>
      <trkpt lat="43.56602" lon="2.94486">
        <ele>162.6</ele>
        <time>2015-12-14T10:15:57.141Z</time>
      </trkpt>
      <trkpt lat="43.56607" lon="2.94495">
        <ele>162.1</ele>
        <time>2015-12-14T10:15:59.173Z</time>
      </trkpt>
      <trkpt lat="43.56609" lon="2.945">
        <ele>161.8</ele>
        <time>2015-12-14T10:16:00.137Z</time>
      </trkpt>
      <trkpt lat="43.56612" lon="2.94509">
        <ele>161.7</ele>
        <time>2015-12-14T10:16:02.175Z</time>
      </trkpt>
      <trkpt lat="43.56614" lon="2.94513">
        <ele>161.6</ele>
        <time>2015-12-14T10:16:03.135Z</time>
      </trkpt>
      <trkpt lat="43.56617" lon="2.94523">
        <ele>161.3</ele>
        <time>2015-12-14T10:16:05.564Z</time>
      </trkpt>
      <trkpt lat="43.5662" lon="2.94528">
        <ele>161.1</ele>
        <time>2015-12-14T10:16:06.159Z</time>
      </trkpt>
      <trkpt lat="43.56624" lon="2.94533">
        <ele>162.3</ele>
        <time>2015-12-14T10:16:07.175Z</time>
      </trkpt>
      <trkpt lat="43.56627" lon="2.94537">
        <ele>163.8</ele>
        <time>2015-12-14T10:16:08.133Z</time>
      </trkpt>
      <trkpt lat="43.56631" lon="2.94548">
        <ele>163.9</ele>
        <time>2015-12-14T10:16:10.183Z</time>
      </trkpt>
      <trkpt lat="43.56633" lon="2.94554">
        <ele>165.1</ele>
        <time>2015-12-14T10:16:11.131Z</time>
      </trkpt>
      <trkpt lat="43.56637" lon="2.94564">
        <ele>166.4</ele>
        <time>2015-12-14T10:16:13.217Z</time>
      </trkpt>
      <trkpt lat="43.56639" lon="2.9457">
        <ele>167.4</ele>
        <time>2015-12-14T10:16:14.139Z</time>
      </trkpt>
      <trkpt lat="43.56643" lon="2.9458">
        <ele>168.4</ele>
        <time>2015-12-14T10:16:16.166Z</time>
      </trkpt>
      <trkpt lat="43.56645" lon="2.94586">
        <ele>168.7</ele>
        <time>2015-12-14T10:16:17.133Z</time>
      </trkpt>
      <trkpt lat="43.56649" lon="2.94595">
        <ele>169</ele>
        <time>2015-12-14T10:16:19.203Z</time>
      </trkpt>
      <trkpt lat="43.56651" lon="2.946">
        <ele>169.2</ele>
        <time>2015-12-14T10:16:20.143Z</time>
      </trkpt>
      <trkpt lat="43.56654" lon="2.94609">
        <ele>169.1</ele>
        <time>2015-12-14T10:16:22.173Z</time>
      </trkpt>
      <trkpt lat="43.56656" lon="2.94613">
        <ele>169</ele>
        <time>2015-12-14T10:16:23.133Z</time>
      </trkpt>
      <trkpt lat="43.56659" lon="2.94622">
        <ele>169</ele>
        <time>2015-12-14T10:16:25.180Z</time>
      </trkpt>
      <trkpt lat="43.5666" lon="2.94626">
        <ele>168.9</ele>
        <time>2015-12-14T10:16:26.130Z</time>
      </trkpt>
      <trkpt lat="43.56663" lon="2.94635">
        <ele>168.6</ele>
        <time>2015-12-14T10:16:28.167Z</time>
      </trkpt>
      <trkpt lat="43.56665" lon="2.9464">
        <ele>168.4</ele>
        <time>2015-12-14T10:16:29.135Z</time>
      </trkpt>
      <trkpt lat="43.56668" lon="2.94648">
        <ele>168.3</ele>
        <time>2015-12-14T10:16:31.196Z</time>
      </trkpt>
      <trkpt lat="43.56669" lon="2.94652">
        <ele>168.4</ele>
        <time>2015-12-14T10:16:32.143Z</time>
      </trkpt>
      <trkpt lat="43.56673" lon="2.94662">
        <ele>168.5</ele>
        <time>2015-12-14T10:16:34.163Z</time>
      </trkpt>
      <trkpt lat="43.56674" lon="2.94667">
        <ele>168.5</ele>
        <time>2015-12-14T10:16:35.132Z</time>
      </trkpt>
      <trkpt lat="43.56677" lon="2.94676">
        <ele>168.5</ele>
        <time>2015-12-14T10:16:37.214Z</time>
      </trkpt>
      <trkpt lat="43.56678" lon="2.9468">
        <ele>168.6</ele>
        <time>2015-12-14T10:16:38.134Z</time>
      </trkpt>
      <trkpt lat="43.5668" lon="2.94689">
        <ele>168.8</ele>
        <time>2015-12-14T10:16:40.159Z</time>
      </trkpt>
      <trkpt lat="43.56682" lon="2.94694">
        <ele>168.9</ele>
        <time>2015-12-14T10:16:41.133Z</time>
      </trkpt>
      <trkpt lat="43.56684" lon="2.94706">
        <ele>169</ele>
        <time>2015-12-14T10:16:43.171Z</time>
      </trkpt>
      <trkpt lat="43.56685" lon="2.94711">
        <ele>169.1</ele>
        <time>2015-12-14T10:16:44.133Z</time>
      </trkpt>
      <trkpt lat="43.56688" lon="2.94722">
        <ele>169.7</ele>
        <time>2015-12-14T10:16:46.161Z</time>
      </trkpt>
      <trkpt lat="43.56689" lon="2.94728">
        <ele>170</ele>
        <time>2015-12-14T10:16:47.138Z</time>
      </trkpt>
      <trkpt lat="43.56691" lon="2.94734">
        <ele>170.1</ele>
        <time>2015-12-14T10:16:48.178Z</time>
      </trkpt>
      <trkpt lat="43.56693" lon="2.9474">
        <ele>170.3</ele>
        <time>2015-12-14T10:16:49.137Z</time>
      </trkpt>
      <trkpt lat="43.56695" lon="2.94751">
        <ele>170.7</ele>
        <time>2015-12-14T10:16:51.169Z</time>
      </trkpt>
      <trkpt lat="43.56695" lon="2.94756">
        <ele>170.9</ele>
        <time>2015-12-14T10:16:52.140Z</time>
      </trkpt>
      <trkpt lat="43.56697" lon="2.94767">
        <ele>171.6</ele>
        <time>2015-12-14T10:16:54.182Z</time>
      </trkpt>
      <trkpt lat="43.56697" lon="2.94771">
        <ele>172.6</ele>
        <time>2015-12-14T10:16:55.135Z</time>
      </trkpt>
      <trkpt lat="43.56699" lon="2.94783">
        <ele>172.1</ele>
        <time>2015-12-14T10:16:57.184Z</time>
      </trkpt>
      <trkpt lat="43.567" lon="2.94789">
        <ele>172.1</ele>
        <time>2015-12-14T10:16:58.136Z</time>
      </trkpt>
      <trkpt lat="43.56701" lon="2.94801">
        <ele>171.9</ele>
        <time>2015-12-14T10:17:00.179Z</time>
      </trkpt>
      <trkpt lat="43.56702" lon="2.94806">
        <ele>172.1</ele>
        <time>2015-12-14T10:17:01.139Z</time>
      </trkpt>
      <trkpt lat="43.56703" lon="2.94818">
        <ele>172.6</ele>
        <time>2015-12-14T10:17:03.159Z</time>
      </trkpt>
      <trkpt lat="43.56703" lon="2.94824">
        <ele>173.1</ele>
        <time>2015-12-14T10:17:04.132Z</time>
      </trkpt>
      <trkpt lat="43.56704" lon="2.94835">
        <ele>173.7</ele>
        <time>2015-12-14T10:17:06.179Z</time>
      </trkpt>
      <trkpt lat="43.56704" lon="2.94841">
        <ele>173.6</ele>
        <time>2015-12-14T10:17:07.136Z</time>
      </trkpt>
      <trkpt lat="43.56704" lon="2.94848">
        <ele>173.6</ele>
        <time>2015-12-14T10:17:08.167Z</time>
      </trkpt>
      <trkpt lat="43.56703" lon="2.94854">
        <ele>173.8</ele>
        <time>2015-12-14T10:17:09.141Z</time>
      </trkpt>
      <trkpt lat="43.56702" lon="2.94865">
        <ele>174.7</ele>
        <time>2015-12-14T10:17:11.195Z</time>
      </trkpt>
      <trkpt lat="43.56701" lon="2.9487">
        <ele>174.8</ele>
        <time>2015-12-14T10:17:12.135Z</time>
      </trkpt>
      <trkpt lat="43.567" lon="2.94882">
        <ele>175</ele>
        <time>2015-12-14T10:17:14.198Z</time>
      </trkpt>
      <trkpt lat="43.56699" lon="2.94887">
        <ele>175.4</ele>
        <time>2015-12-14T10:17:15.141Z</time>
      </trkpt>
      <trkpt lat="43.56698" lon="2.94899">
        <ele>175.7</ele>
        <time>2015-12-14T10:17:17.219Z</time>
      </trkpt>
      <trkpt lat="43.56697" lon="2.94905">
        <ele>176.2</ele>
        <time>2015-12-14T10:17:18.139Z</time>
      </trkpt>
      <trkpt lat="43.56696" lon="2.94912">
        <ele>176.2</ele>
        <time>2015-12-14T10:17:19.188Z</time>
      </trkpt>
      <trkpt lat="43.56695" lon="2.94919">
        <ele>176.3</ele>
        <time>2015-12-14T10:17:20.146Z</time>
      </trkpt>
      <trkpt lat="43.56694" lon="2.94929">
        <ele>177.8</ele>
        <time>2015-12-14T10:17:22.170Z</time>
      </trkpt>
      <trkpt lat="43.56693" lon="2.94934">
        <ele>178</ele>
        <time>2015-12-14T10:17:23.135Z</time>
      </trkpt>
      <trkpt lat="43.56691" lon="2.94945">
        <ele>178.1</ele>
        <time>2015-12-14T10:17:25.425Z</time>
      </trkpt>
      <trkpt lat="43.5669" lon="2.9495">
        <ele>178.6</ele>
        <time>2015-12-14T10:17:26.134Z</time>
      </trkpt>
      <trkpt lat="43.56688" lon="2.94962">
        <ele>177.1</ele>
        <time>2015-12-14T10:17:28.164Z</time>
      </trkpt>
      <trkpt lat="43.56687" lon="2.94968">
        <ele>176.7</ele>
        <time>2015-12-14T10:17:29.422Z</time>
      </trkpt>
      <trkpt lat="43.56686" lon="2.94975">
        <ele>176.1</ele>
        <time>2015-12-14T10:17:30.198Z</time>
      </trkpt>
      <trkpt lat="43.56686" lon="2.94981">
        <ele>174.8</ele>
        <time>2015-12-14T10:17:31.142Z</time>
      </trkpt>
      <trkpt lat="43.56685" lon="2.94993">
        <ele>173.7</ele>
        <time>2015-12-14T10:17:33.181Z</time>
      </trkpt>
      <trkpt lat="43.56684" lon="2.94999">
        <ele>173.5</ele>
        <time>2015-12-14T10:17:34.130Z</time>
      </trkpt>
      <trkpt lat="43.56681" lon="2.95009">
        <ele>173.6</ele>
        <time>2015-12-14T10:17:36.186Z</time>
      </trkpt>
      <trkpt lat="43.5668" lon="2.95014">
        <ele>173.4</ele>
        <time>2015-12-14T10:17:37.143Z</time>
      </trkpt>
      <trkpt lat="43.56678" lon="2.95025">
        <ele>173.3</ele>
        <time>2015-12-14T10:17:39.171Z</time>
      </trkpt>
      <trkpt lat="43.56677" lon="2.9503">
        <ele>173.4</ele>
        <time>2015-12-14T10:17:40.131Z</time>
      </trkpt>
      <trkpt lat="43.56675" lon="2.95041">
        <ele>173.5</ele>
        <time>2015-12-14T10:17:42.183Z</time>
      </trkpt>
      <trkpt lat="43.56673" lon="2.95046">
        <ele>173.6</ele>
        <time>2015-12-14T10:17:43.140Z</time>
      </trkpt>
      <trkpt lat="43.56671" lon="2.95056">
        <ele>173.5</ele>
        <time>2015-12-14T10:17:45.167Z</time>
      </trkpt>
      <trkpt lat="43.5667" lon="2.95061">
        <ele>173.6</ele>
        <time>2015-12-14T10:17:46.132Z</time>
      </trkpt>
      <trkpt lat="43.56669" lon="2.95071">
        <ele>173.8</ele>
        <time>2015-12-14T10:17:48.169Z</time>
      </trkpt>
      <trkpt lat="43.56667" lon="2.95077">
        <ele>173.9</ele>
        <time>2015-12-14T10:17:49.135Z</time>
      </trkpt>
      <trkpt lat="43.56664" lon="2.95088">
        <ele>174</ele>
        <time>2015-12-14T10:17:51.177Z</time>
      </trkpt>
      <trkpt lat="43.56663" lon="2.95094">
        <ele>174.2</ele>
        <time>2015-12-14T10:17:52.140Z</time>
      </trkpt>
      <trkpt lat="43.56661" lon="2.95104">
        <ele>174.6</ele>
        <time>2015-12-14T10:17:54.179Z</time>
      </trkpt>
      <trkpt lat="43.5666" lon="2.95109">
        <ele>174.9</ele>
        <time>2015-12-14T10:17:55.136Z</time>
      </trkpt>
      <trkpt lat="43.56658" lon="2.9512">
        <ele>174.6</ele>
        <time>2015-12-14T10:17:57.544Z</time>
      </trkpt>
      <trkpt lat="43.56657" lon="2.95125">
        <ele>174.2</ele>
        <time>2015-12-14T10:17:58.136Z</time>
      </trkpt>
      <trkpt lat="43.56657" lon="2.95137">
        <ele>173.3</ele>
        <time>2015-12-14T10:18:00.181Z</time>
      </trkpt>
      <trkpt lat="43.56656" lon="2.95142">
        <ele>172.7</ele>
        <time>2015-12-14T10:18:01.138Z</time>
      </trkpt>
      <trkpt lat="43.56656" lon="2.95153">
        <ele>172.3</ele>
        <time>2015-12-14T10:18:03.172Z</time>
      </trkpt>
      <trkpt lat="43.56656" lon="2.95158">
        <ele>171.7</ele>
        <time>2015-12-14T10:18:04.135Z</time>
      </trkpt>
      <trkpt lat="43.56656" lon="2.9517">
        <ele>171.2</ele>
        <time>2015-12-14T10:18:06.182Z</time>
      </trkpt>
      <trkpt lat="43.56656" lon="2.95176">
        <ele>171.6</ele>
        <time>2015-12-14T10:18:07.134Z</time>
      </trkpt>
      <trkpt lat="43.56657" lon="2.95187">
        <ele>171.8</ele>
        <time>2015-12-14T10:18:09.162Z</time>
      </trkpt>
      <trkpt lat="43.56657" lon="2.95193">
        <ele>171.7</ele>
        <time>2015-12-14T10:18:10.132Z</time>
      </trkpt>
      <trkpt lat="43.56658" lon="2.95204">
        <ele>171.4</ele>
        <time>2015-12-14T10:18:12.213Z</time>
      </trkpt>
      <trkpt lat="43.56658" lon="2.9521">
        <ele>171.6</ele>
        <time>2015-12-14T10:18:13.138Z</time>
      </trkpt>
      <trkpt lat="43.56658" lon="2.95221">
        <ele>171.8</ele>
        <time>2015-12-14T10:18:15.189Z</time>
      </trkpt>
      <trkpt lat="43.56658" lon="2.95227">
        <ele>171.9</ele>
        <time>2015-12-14T10:18:16.135Z</time>
      </trkpt>
      <trkpt lat="43.56658" lon="2.95238">
        <ele>171.8</ele>
        <time>2015-12-14T10:18:18.175Z</time>
      </trkpt>
      <trkpt lat="43.56658" lon="2.95244">
        <ele>172</ele>
        <time>2015-12-14T10:18:19.133Z</time>
      </trkpt>
      <trkpt lat="43.56658" lon="2.9525">
        <ele>172.3</ele>
        <time>2015-12-14T10:18:20.167Z</time>
      </trkpt>
      <trkpt lat="43.56657" lon="2.95256">
        <ele>172.6</ele>
        <time>2015-12-14T10:18:21.137Z</time>
      </trkpt>
      <trkpt lat="43.56657" lon="2.95262">
        <ele>172.7</ele>
        <time>2015-12-14T10:18:22.170Z</time>
      </trkpt>
      <trkpt lat="43.56657" lon="2.95268">
        <ele>172.9</ele>
        <time>2015-12-14T10:18:23.133Z</time>
      </trkpt>
      <trkpt lat="43.56657" lon="2.95279">
        <ele>172.9</ele>
        <time>2015-12-14T10:18:25.181Z</time>
      </trkpt>
      <trkpt lat="43.56658" lon="2.95285">
        <ele>172.7</ele>
        <time>2015-12-14T10:18:26.140Z</time>
      </trkpt>
      <trkpt lat="43.56658" lon="2.95296">
        <ele>172.7</ele>
        <time>2015-12-14T10:18:28.164Z</time>
      </trkpt>
      <trkpt lat="43.56658" lon="2.95301">
        <ele>172.6</ele>
        <time>2015-12-14T10:18:29.132Z</time>
      </trkpt>
      <trkpt lat="43.56657" lon="2.95313">
        <ele>172.8</ele>
        <time>2015-12-14T10:18:31.191Z</time>
      </trkpt>
      <trkpt lat="43.56658" lon="2.95318">
        <ele>173.1</ele>
        <time>2015-12-14T10:18:32.135Z</time>
      </trkpt>
      <trkpt lat="43.5666" lon="2.95329">
        <ele>173.8</ele>
        <time>2015-12-14T10:18:34.586Z</time>
      </trkpt>
      <trkpt lat="43.5666" lon="2.95335">
        <ele>173.7</ele>
        <time>2015-12-14T10:18:35.132Z</time>
      </trkpt>
      <trkpt lat="43.56661" lon="2.95346">
        <ele>173.2</ele>
        <time>2015-12-14T10:18:37.164Z</time>
      </trkpt>
      <trkpt lat="43.56662" lon="2.95351">
        <ele>172.9</ele>
        <time>2015-12-14T10:18:38.130Z</time>
      </trkpt>
      <trkpt lat="43.56662" lon="2.95361">
        <ele>171.9</ele>
        <time>2015-12-14T10:18:40.181Z</time>
      </trkpt>
      <trkpt lat="43.56662" lon="2.95367">
        <ele>171.6</ele>
        <time>2015-12-14T10:18:41.143Z</time>
      </trkpt>
      <trkpt lat="43.56663" lon="2.95378">
        <ele>171.6</ele>
        <time>2015-12-14T10:18:43.174Z</time>
      </trkpt>
      <trkpt lat="43.56663" lon="2.95383">
        <ele>171.7</ele>
        <time>2015-12-14T10:18:44.131Z</time>
      </trkpt>
      <trkpt lat="43.56663" lon="2.95394">
        <ele>172</ele>
        <time>2015-12-14T10:18:46.173Z</time>
      </trkpt>
      <trkpt lat="43.56664" lon="2.95399">
        <ele>172.1</ele>
        <time>2015-12-14T10:18:47.138Z</time>
      </trkpt>
      <trkpt lat="43.56664" lon="2.95409">
        <ele>171.6</ele>
        <time>2015-12-14T10:18:49.167Z</time>
      </trkpt>
      <trkpt lat="43.56665" lon="2.95415">
        <ele>171.9</ele>
        <time>2015-12-14T10:18:50.134Z</time>
      </trkpt>
      <trkpt lat="43.56664" lon="2.95427">
        <ele>171.7</ele>
        <time>2015-12-14T10:18:52.168Z</time>
      </trkpt>
      <trkpt lat="43.56664" lon="2.95433">
        <ele>171.9</ele>
        <time>2015-12-14T10:18:53.135Z</time>
      </trkpt>
      <trkpt lat="43.56665" lon="2.95444">
        <ele>171.4</ele>
        <time>2015-12-14T10:18:55.166Z</time>
      </trkpt>
      <trkpt lat="43.56665" lon="2.9545">
        <ele>171.3</ele>
        <time>2015-12-14T10:18:56.131Z</time>
      </trkpt>
      <trkpt lat="43.56667" lon="2.9546">
        <ele>171.5</ele>
        <time>2015-12-14T10:18:58.160Z</time>
      </trkpt>
      <trkpt lat="43.56668" lon="2.95465">
        <ele>171.3</ele>
        <time>2015-12-14T10:18:59.143Z</time>
      </trkpt>
      <trkpt lat="43.56669" lon="2.95476">
        <ele>171.5</ele>
        <time>2015-12-14T10:19:01.188Z</time>
      </trkpt>
      <trkpt lat="43.56669" lon="2.95481">
        <ele>171.5</ele>
        <time>2015-12-14T10:19:02.149Z</time>
      </trkpt>
      <trkpt lat="43.56669" lon="2.95492">
        <ele>170.6</ele>
        <time>2015-12-14T10:19:04.169Z</time>
      </trkpt>
      <trkpt lat="43.56669" lon="2.95498">
        <ele>170.5</ele>
        <time>2015-12-14T10:19:05.133Z</time>
      </trkpt>
      <trkpt lat="43.56669" lon="2.95505">
        <ele>170.6</ele>
        <time>2015-12-14T10:19:06.196Z</time>
      </trkpt>
      <trkpt lat="43.56669" lon="2.95511">
        <ele>170.3</ele>
        <time>2015-12-14T10:19:07.139Z</time>
      </trkpt>
      <trkpt lat="43.56669" lon="2.95523">
        <ele>171.1</ele>
        <time>2015-12-14T10:19:09.175Z</time>
      </trkpt>
      <trkpt lat="43.56669" lon="2.95529">
        <ele>170.8</ele>
        <time>2015-12-14T10:19:10.139Z</time>
      </trkpt>
      <trkpt lat="43.56669" lon="2.95541">
        <ele>171</ele>
        <time>2015-12-14T10:19:12.175Z</time>
      </trkpt>
      <trkpt lat="43.56668" lon="2.95547">
        <ele>171.1</ele>
        <time>2015-12-14T10:19:13.137Z</time>
      </trkpt>
      <trkpt lat="43.56668" lon="2.95559">
        <ele>171.4</ele>
        <time>2015-12-14T10:19:15.167Z</time>
      </trkpt>
      <trkpt lat="43.56668" lon="2.95564">
        <ele>171.7</ele>
        <time>2015-12-14T10:19:16.130Z</time>
      </trkpt>
      <trkpt lat="43.56667" lon="2.95576">
        <ele>171.8</ele>
        <time>2015-12-14T10:19:18.189Z</time>
      </trkpt>
      <trkpt lat="43.56667" lon="2.95582">
        <ele>172</ele>
        <time>2015-12-14T10:19:19.139Z</time>
      </trkpt>
      <trkpt lat="43.56666" lon="2.95593">
        <ele>172.5</ele>
        <time>2015-12-14T10:19:21.183Z</time>
      </trkpt>
      <trkpt lat="43.56666" lon="2.95598">
        <ele>172.5</ele>
        <time>2015-12-14T10:19:22.136Z</time>
      </trkpt>
      <trkpt lat="43.56666" lon="2.95609">
        <ele>172.6</ele>
        <time>2015-12-14T10:19:24.167Z</time>
      </trkpt>
      <trkpt lat="43.56666" lon="2.95615">
        <ele>172.6</ele>
        <time>2015-12-14T10:19:25.140Z</time>
      </trkpt>
      <trkpt lat="43.56665" lon="2.95627">
        <ele>172.9</ele>
        <time>2015-12-14T10:19:27.451Z</time>
      </trkpt>
      <trkpt lat="43.56665" lon="2.95632">
        <ele>173.1</ele>
        <time>2015-12-14T10:19:28.133Z</time>
      </trkpt>
      <trkpt lat="43.56665" lon="2.95644">
        <ele>173.2</ele>
        <time>2015-12-14T10:19:30.164Z</time>
      </trkpt>
      <trkpt lat="43.56665" lon="2.9565">
        <ele>173.1</ele>
        <time>2015-12-14T10:19:31.136Z</time>
      </trkpt>
      <trkpt lat="43.56665" lon="2.95656">
        <ele>173.3</ele>
        <time>2015-12-14T10:19:32.165Z</time>
      </trkpt>
      <trkpt lat="43.56664" lon="2.95662">
        <ele>173.3</ele>
        <time>2015-12-14T10:19:33.134Z</time>
      </trkpt>
      <trkpt lat="43.56664" lon="2.95674">
        <ele>173.5</ele>
        <time>2015-12-14T10:19:35.179Z</time>
      </trkpt>
      <trkpt lat="43.56663" lon="2.95679">
        <ele>173.3</ele>
        <time>2015-12-14T10:19:36.139Z</time>
      </trkpt>
      <trkpt lat="43.56663" lon="2.95691">
        <ele>173.6</ele>
        <time>2015-12-14T10:19:38.196Z</time>
      </trkpt>
      <trkpt lat="43.56663" lon="2.95696">
        <ele>173.9</ele>
        <time>2015-12-14T10:19:39.140Z</time>
      </trkpt>
      <trkpt lat="43.56663" lon="2.95708">
        <ele>173.8</ele>
        <time>2015-12-14T10:19:41.168Z</time>
      </trkpt>
      <trkpt lat="43.56663" lon="2.95714">
        <ele>173.8</ele>
        <time>2015-12-14T10:19:42.133Z</time>
      </trkpt>
      <trkpt lat="43.56662" lon="2.95726">
        <ele>173.7</ele>
        <time>2015-12-14T10:19:44.183Z</time>
      </trkpt>
      <trkpt lat="43.56662" lon="2.95733">
        <ele>173.6</ele>
        <time>2015-12-14T10:19:45.137Z</time>
      </trkpt>
      <trkpt lat="43.56662" lon="2.95744">
        <ele>174</ele>
        <time>2015-12-14T10:19:47.184Z</time>
      </trkpt>
      <trkpt lat="43.56662" lon="2.95749">
        <ele>173.5</ele>
        <time>2015-12-14T10:19:48.133Z</time>
      </trkpt>
      <trkpt lat="43.56662" lon="2.95759">
        <ele>172.6</ele>
        <time>2015-12-14T10:19:50.559Z</time>
      </trkpt>
      <trkpt lat="43.56662" lon="2.95765">
        <ele>172.3</ele>
        <time>2015-12-14T10:19:51.137Z</time>
      </trkpt>
      <trkpt lat="43.56662" lon="2.95776">
        <ele>172</ele>
        <time>2015-12-14T10:19:53.352Z</time>
      </trkpt>
      <trkpt lat="43.56661" lon="2.95782">
        <ele>171</ele>
        <time>2015-12-14T10:19:54.137Z</time>
      </trkpt>
      <trkpt lat="43.56662" lon="2.95792">
        <ele>172.5</ele>
        <time>2015-12-14T10:19:56.176Z</time>
      </trkpt>
      <trkpt lat="43.56663" lon="2.95798">
        <ele>172.6</ele>
        <time>2015-12-14T10:19:57.140Z</time>
      </trkpt>
      <trkpt lat="43.56663" lon="2.95804">
        <ele>172.7</ele>
        <time>2015-12-14T10:19:58.179Z</time>
      </trkpt>
      <trkpt lat="43.56663" lon="2.95811">
        <ele>172.7</ele>
        <time>2015-12-14T10:19:59.132Z</time>
      </trkpt>
      <trkpt lat="43.56663" lon="2.95817">
        <ele>173</ele>
        <time>2015-12-14T10:20:00.160Z</time>
      </trkpt>
      <trkpt lat="43.56663" lon="2.95824">
        <ele>172.9</ele>
        <time>2015-12-14T10:20:01.136Z</time>
      </trkpt>
      <trkpt lat="43.56663" lon="2.9583">
        <ele>173</ele>
        <time>2015-12-14T10:20:02.164Z</time>
      </trkpt>
      <trkpt lat="43.56663" lon="2.95836">
        <ele>172.9</ele>
        <time>2015-12-14T10:20:03.135Z</time>
      </trkpt>
      <trkpt lat="43.56663" lon="2.95849">
        <ele>172.7</ele>
        <time>2015-12-14T10:20:05.163Z</time>
      </trkpt>
      <trkpt lat="43.56663" lon="2.95855">
        <ele>172.6</ele>
        <time>2015-12-14T10:20:06.132Z</time>
      </trkpt>
      <trkpt lat="43.56663" lon="2.95862">
        <ele>173.1</ele>
        <time>2015-12-14T10:20:07.644Z</time>
      </trkpt>
      <trkpt lat="43.56663" lon="2.95869">
        <ele>173.4</ele>
        <time>2015-12-14T10:20:08.131Z</time>
      </trkpt>
      <trkpt lat="43.56663" lon="2.9588">
        <ele>173.6</ele>
        <time>2015-12-14T10:20:10.164Z</time>
      </trkpt>
      <trkpt lat="43.56664" lon="2.95885">
        <ele>173.5</ele>
        <time>2015-12-14T10:20:11.134Z</time>
      </trkpt>
      <trkpt lat="43.56664" lon="2.95895">
        <ele>173.7</ele>
        <time>2015-12-14T10:20:13.192Z</time>
      </trkpt>
      <trkpt lat="43.56664" lon="2.959">
        <ele>173.8</ele>
        <time>2015-12-14T10:20:14.135Z</time>
      </trkpt>
      <trkpt lat="43.56665" lon="2.95911">
        <ele>174.5</ele>
        <time>2015-12-14T10:20:16.186Z</time>
      </trkpt>
      <trkpt lat="43.56666" lon="2.95915">
        <ele>174.9</ele>
        <time>2015-12-14T10:20:17.134Z</time>
      </trkpt>
      <trkpt lat="43.56667" lon="2.95925">
        <ele>175.4</ele>
        <time>2015-12-14T10:20:19.169Z</time>
      </trkpt>
      <trkpt lat="43.56667" lon="2.95929">
        <ele>175.7</ele>
        <time>2015-12-14T10:20:20.134Z</time>
      </trkpt>
      <trkpt lat="43.56668" lon="2.9594">
        <ele>176.4</ele>
        <time>2015-12-14T10:20:23.171Z</time>
      </trkpt>
      <trkpt lat="43.56669" lon="2.95943">
        <ele>175.7</ele>
        <time>2015-12-14T10:20:24.133Z</time>
      </trkpt>
      <trkpt lat="43.56671" lon="2.95954">
        <ele>176.2</ele>
        <time>2015-12-14T10:20:29.196Z</time>
      </trkpt>
      <trkpt lat="43.56672" lon="2.95956">
        <ele>176.3</ele>
        <time>2015-12-14T10:20:30.132Z</time>
      </trkpt>
      <trkpt lat="43.5668" lon="2.9596">
        <ele>178.5</ele>
        <time>2015-12-14T10:20:36.606Z</time>
      </trkpt>
      <trkpt lat="43.56681" lon="2.95962">
        <ele>179</ele>
        <time>2015-12-14T10:20:37.137Z</time>
      </trkpt>
      <trkpt lat="43.56687" lon="2.95971">
        <ele>179.6</ele>
        <time>2015-12-14T10:20:41.184Z</time>
      </trkpt>
      <trkpt lat="43.56688" lon="2.95974">
        <ele>179.1</ele>
        <time>2015-12-14T10:20:42.134Z</time>
      </trkpt>
      <trkpt lat="43.56693" lon="2.95983">
        <ele>179.6</ele>
        <time>2015-12-14T10:20:46.172Z</time>
      </trkpt>
      <trkpt lat="43.56694" lon="2.95985">
        <ele>179.5</ele>
        <time>2015-12-14T10:20:47.133Z</time>
      </trkpt>
      <trkpt lat="43.56699" lon="2.95994">
        <ele>178.6</ele>
        <time>2015-12-14T10:20:50.169Z</time>
      </trkpt>
      <trkpt lat="43.567" lon="2.95998">
        <ele>178.4</ele>
        <time>2015-12-14T10:20:51.137Z</time>
      </trkpt>
      <trkpt lat="43.56703" lon="2.96005">
        <ele>178.3</ele>
        <time>2015-12-14T10:20:53.170Z</time>
      </trkpt>
      <trkpt lat="43.56704" lon="2.96009">
        <ele>178.4</ele>
        <time>2015-12-14T10:20:54.132Z</time>
      </trkpt>
      <trkpt lat="43.56707" lon="2.96018">
        <ele>178.4</ele>
        <time>2015-12-14T10:20:56.173Z</time>
      </trkpt>
      <trkpt lat="43.56709" lon="2.96023">
        <ele>178.5</ele>
        <time>2015-12-14T10:20:57.138Z</time>
      </trkpt>
      <trkpt lat="43.56711" lon="2.96031">
        <ele>178.3</ele>
        <time>2015-12-14T10:20:59.195Z</time>
      </trkpt>
      <trkpt lat="43.56713" lon="2.96035">
        <ele>178.4</ele>
        <time>2015-12-14T10:21:00.205Z</time>
      </trkpt>
      <trkpt lat="43.56719" lon="2.96044">
        <ele>178.4</ele>
        <time>2015-12-14T10:21:03.184Z</time>
      </trkpt>
      <trkpt lat="43.56721" lon="2.96049">
        <ele>178.3</ele>
        <time>2015-12-14T10:21:04.133Z</time>
      </trkpt>
      <trkpt lat="43.56725" lon="2.9606">
        <ele>178.1</ele>
        <time>2015-12-14T10:21:07.175Z</time>
      </trkpt>
      <trkpt lat="43.56727" lon="2.96063">
        <ele>178</ele>
        <time>2015-12-14T10:21:08.132Z</time>
      </trkpt>
      <trkpt lat="43.56731" lon="2.96071">
        <ele>177.8</ele>
        <time>2015-12-14T10:21:10.188Z</time>
      </trkpt>
      <trkpt lat="43.56734" lon="2.96075">
        <ele>177.9</ele>
        <time>2015-12-14T10:21:11.139Z</time>
      </trkpt>
      <trkpt lat="43.56738" lon="2.96083">
        <ele>178.2</ele>
        <time>2015-12-14T10:21:13.170Z</time>
      </trkpt>
      <trkpt lat="43.5674" lon="2.96087">
        <ele>178.3</ele>
        <time>2015-12-14T10:21:14.133Z</time>
      </trkpt>
      <trkpt lat="43.56745" lon="2.96097">
        <ele>179.3</ele>
        <time>2015-12-14T10:21:17.182Z</time>
      </trkpt>
      <trkpt lat="43.56747" lon="2.96101">
        <ele>179.1</ele>
        <time>2015-12-14T10:21:18.136Z</time>
      </trkpt>
      <trkpt lat="43.5675" lon="2.9611">
        <ele>179.3</ele>
        <time>2015-12-14T10:21:20.167Z</time>
      </trkpt>
      <trkpt lat="43.56752" lon="2.96115">
        <ele>179.4</ele>
        <time>2015-12-14T10:21:21.138Z</time>
      </trkpt>
      <trkpt lat="43.56755" lon="2.96122">
        <ele>180</ele>
        <time>2015-12-14T10:21:23.577Z</time>
      </trkpt>
      <trkpt lat="43.56757" lon="2.96127">
        <ele>179.8</ele>
        <time>2015-12-14T10:21:24.131Z</time>
      </trkpt>
      <trkpt lat="43.56761" lon="2.96135">
        <ele>180.5</ele>
        <time>2015-12-14T10:21:26.162Z</time>
      </trkpt>
      <trkpt lat="43.56763" lon="2.96141">
        <ele>180.9</ele>
        <time>2015-12-14T10:21:27.129Z</time>
      </trkpt>
      <trkpt lat="43.56765" lon="2.96149">
        <ele>181.1</ele>
        <time>2015-12-14T10:21:29.178Z</time>
      </trkpt>
      <trkpt lat="43.56768" lon="2.96153">
        <ele>180.9</ele>
        <time>2015-12-14T10:21:30.135Z</time>
      </trkpt>
      <trkpt lat="43.56772" lon="2.96162">
        <ele>180.6</ele>
        <time>2015-12-14T10:21:32.187Z</time>
      </trkpt>
      <trkpt lat="43.56774" lon="2.96167">
        <ele>180.8</ele>
        <time>2015-12-14T10:21:33.131Z</time>
      </trkpt>
      <trkpt lat="43.56779" lon="2.96175">
        <ele>180.9</ele>
        <time>2015-12-14T10:21:35.167Z</time>
      </trkpt>
      <trkpt lat="43.56782" lon="2.9618">
        <ele>181.1</ele>
        <time>2015-12-14T10:21:36.134Z</time>
      </trkpt>
      <trkpt lat="43.56786" lon="2.96187">
        <ele>181.1</ele>
        <time>2015-12-14T10:21:38.174Z</time>
      </trkpt>
      <trkpt lat="43.56788" lon="2.96191">
        <ele>180.7</ele>
        <time>2015-12-14T10:21:39.138Z</time>
      </trkpt>
      <trkpt lat="43.56792" lon="2.962">
        <ele>181.1</ele>
        <time>2015-12-14T10:21:41.171Z</time>
      </trkpt>
      <trkpt lat="43.56794" lon="2.96204">
        <ele>181.3</ele>
        <time>2015-12-14T10:21:42.133Z</time>
      </trkpt>
      <trkpt lat="43.56798" lon="2.96212">
        <ele>181.6</ele>
        <time>2015-12-14T10:21:44.184Z</time>
      </trkpt>
      <trkpt lat="43.568" lon="2.96216">
        <ele>181.6</ele>
        <time>2015-12-14T10:21:45.132Z</time>
      </trkpt>
      <trkpt lat="43.56803" lon="2.96225">
        <ele>181.8</ele>
        <time>2015-12-14T10:21:47.176Z</time>
      </trkpt>
      <trkpt lat="43.56805" lon="2.96229">
        <ele>181.3</ele>
        <time>2015-12-14T10:21:48.130Z</time>
      </trkpt>
      <trkpt lat="43.56808" lon="2.96237">
        <ele>181.7</ele>
        <time>2015-12-14T10:21:50.189Z</time>
      </trkpt>
      <trkpt lat="43.5681" lon="2.96241">
        <ele>181.7</ele>
        <time>2015-12-14T10:21:51.134Z</time>
      </trkpt>
      <trkpt lat="43.56814" lon="2.96249">
        <ele>182.2</ele>
        <time>2015-12-14T10:21:53.163Z</time>
      </trkpt>
      <trkpt lat="43.56816" lon="2.96254">
        <ele>182.3</ele>
        <time>2015-12-14T10:21:54.133Z</time>
      </trkpt>
      <trkpt lat="43.5682" lon="2.96262">
        <ele>182.4</ele>
        <time>2015-12-14T10:21:56.229Z</time>
      </trkpt>
      <trkpt lat="43.56821" lon="2.96267">
        <ele>182.4</ele>
        <time>2015-12-14T10:21:57.131Z</time>
      </trkpt>
      <trkpt lat="43.56825" lon="2.96276">
        <ele>182.9</ele>
        <time>2015-12-14T10:21:59.162Z</time>
      </trkpt>
      <trkpt lat="43.56827" lon="2.96281">
        <ele>183.4</ele>
        <time>2015-12-14T10:22:00.132Z</time>
      </trkpt>
      <trkpt lat="43.5683" lon="2.9629">
        <ele>182.8</ele>
        <time>2015-12-14T10:22:02.164Z</time>
      </trkpt>
      <trkpt lat="43.56833" lon="2.96294">
        <ele>182.9</ele>
        <time>2015-12-14T10:22:03.133Z</time>
      </trkpt>
      <trkpt lat="43.56836" lon="2.96302">
        <ele>182.5</ele>
        <time>2015-12-14T10:22:05.187Z</time>
      </trkpt>
      <trkpt lat="43.56838" lon="2.96306">
        <ele>182.6</ele>
        <time>2015-12-14T10:22:06.131Z</time>
      </trkpt>
      <trkpt lat="43.56842" lon="2.96315">
        <ele>182.3</ele>
        <time>2015-12-14T10:22:08.166Z</time>
      </trkpt>
      <trkpt lat="43.56844" lon="2.9632">
        <ele>182.4</ele>
        <time>2015-12-14T10:22:09.130Z</time>
      </trkpt>
      <trkpt lat="43.56847" lon="2.96329">
        <ele>182.7</ele>
        <time>2015-12-14T10:22:11.189Z</time>
      </trkpt>
      <trkpt lat="43.56848" lon="2.96333">
        <ele>182.6</ele>
        <time>2015-12-14T10:22:12.134Z</time>
      </trkpt>
      <trkpt lat="43.56852" lon="2.96343">
        <ele>183.9</ele>
        <time>2015-12-14T10:22:15.164Z</time>
      </trkpt>
      <trkpt lat="43.56854" lon="2.96346">
        <ele>184.6</ele>
        <time>2015-12-14T10:22:16.132Z</time>
      </trkpt>
      <trkpt lat="43.56858" lon="2.96353">
        <ele>184.7</ele>
        <time>2015-12-14T10:22:18.197Z</time>
      </trkpt>
      <trkpt lat="43.5686" lon="2.96356">
        <ele>184.8</ele>
        <time>2015-12-14T10:22:19.141Z</time>
      </trkpt>
      <trkpt lat="43.56863" lon="2.96363">
        <ele>185.1</ele>
        <time>2015-12-14T10:22:21.186Z</time>
      </trkpt>
      <trkpt lat="43.56865" lon="2.96367">
        <ele>185.3</ele>
        <time>2015-12-14T10:22:22.135Z</time>
      </trkpt>
      <trkpt lat="43.56868" lon="2.96375">
        <ele>185.7</ele>
        <time>2015-12-14T10:22:24.163Z</time>
      </trkpt>
      <trkpt lat="43.56871" lon="2.96378">
        <ele>185.8</ele>
        <time>2015-12-14T10:22:25.136Z</time>
      </trkpt>
      <trkpt lat="43.56875" lon="2.96388">
        <ele>186.3</ele>
        <time>2015-12-14T10:22:28.204Z</time>
      </trkpt>
      <trkpt lat="43.56878" lon="2.96392">
        <ele>186.4</ele>
        <time>2015-12-14T10:22:29.139Z</time>
      </trkpt>
      <trkpt lat="43.56881" lon="2.964">
        <ele>186.8</ele>
        <time>2015-12-14T10:22:31.206Z</time>
      </trkpt>
      <trkpt lat="43.56883" lon="2.96404">
        <ele>187.2</ele>
        <time>2015-12-14T10:22:32.138Z</time>
      </trkpt>
      <trkpt lat="43.56887" lon="2.96411">
        <ele>187.6</ele>
        <time>2015-12-14T10:22:34.194Z</time>
      </trkpt>
      <trkpt lat="43.56888" lon="2.96415">
        <ele>187.9</ele>
        <time>2015-12-14T10:22:35.131Z</time>
      </trkpt>
      <trkpt lat="43.56893" lon="2.96424">
        <ele>188.9</ele>
        <time>2015-12-14T10:22:38.216Z</time>
      </trkpt>
      <trkpt lat="43.56895" lon="2.96428">
        <ele>189.2</ele>
        <time>2015-12-14T10:22:39.140Z</time>
      </trkpt>
      <trkpt lat="43.56898" lon="2.96436">
        <ele>189.8</ele>
        <time>2015-12-14T10:22:41.185Z</time>
      </trkpt>
      <trkpt lat="43.569" lon="2.9644">
        <ele>189.7</ele>
        <time>2015-12-14T10:22:42.137Z</time>
      </trkpt>
      <trkpt lat="43.56904" lon="2.96449">
        <ele>189.5</ele>
        <time>2015-12-14T10:22:44.165Z</time>
      </trkpt>
      <trkpt lat="43.56906" lon="2.96453">
        <ele>189.7</ele>
        <time>2015-12-14T10:22:45.135Z</time>
      </trkpt>
      <trkpt lat="43.56909" lon="2.9646">
        <ele>190.6</ele>
        <time>2015-12-14T10:22:47.184Z</time>
      </trkpt>
      <trkpt lat="43.56911" lon="2.96464">
        <ele>190.6</ele>
        <time>2015-12-14T10:22:48.133Z</time>
      </trkpt>
      <trkpt lat="43.56915" lon="2.96473">
        <ele>190.4</ele>
        <time>2015-12-14T10:22:50.177Z</time>
      </trkpt>
      <trkpt lat="43.56917" lon="2.96477">
        <ele>190.3</ele>
        <time>2015-12-14T10:22:51.134Z</time>
      </trkpt>
      <trkpt lat="43.56922" lon="2.96486">
        <ele>189.7</ele>
        <time>2015-12-14T10:22:53.182Z</time>
      </trkpt>
      <trkpt lat="43.56925" lon="2.9649">
        <ele>189.3</ele>
        <time>2015-12-14T10:22:54.130Z</time>
      </trkpt>
      <trkpt lat="43.56929" lon="2.96499">
        <ele>189.2</ele>
        <time>2015-12-14T10:22:56.358Z</time>
      </trkpt>
      <trkpt lat="43.56931" lon="2.96504">
        <ele>188.7</ele>
        <time>2015-12-14T10:22:57.140Z</time>
      </trkpt>
      <trkpt lat="43.56935" lon="2.96514">
        <ele>188.8</ele>
        <time>2015-12-14T10:22:59.195Z</time>
      </trkpt>
      <trkpt lat="43.56938" lon="2.9652">
        <ele>188.9</ele>
        <time>2015-12-14T10:23:00.142Z</time>
      </trkpt>
      <trkpt lat="43.56941" lon="2.96526">
        <ele>188.2</ele>
        <time>2015-12-14T10:23:01.206Z</time>
      </trkpt>
      <trkpt lat="43.56943" lon="2.96531">
        <ele>188.2</ele>
        <time>2015-12-14T10:23:02.134Z</time>
      </trkpt>
      <trkpt lat="43.56944" lon="2.9654">
        <ele>188.1</ele>
        <time>2015-12-14T10:23:04.181Z</time>
      </trkpt>
      <trkpt lat="43.56944" lon="2.96542">
        <ele>188.1</ele>
        <time>2015-12-14T10:23:05.310Z</time>
      </trkpt>
      <trkpt lat="43.56946" lon="2.96544">
        <ele>187.9</ele>
        <time>2015-12-14T10:23:34.191Z</time>
      </trkpt>
      <trkpt lat="43.56946" lon="2.96546">
        <ele>188.9</ele>
        <time>2015-12-14T10:23:35.135Z</time>
      </trkpt>
      <trkpt lat="43.56951" lon="2.96553">
        <ele>188.8</ele>
        <time>2015-12-14T10:23:39.197Z</time>
      </trkpt>
      <trkpt lat="43.56952" lon="2.96556">
        <ele>188.9</ele>
        <time>2015-12-14T10:23:40.139Z</time>
      </trkpt>
      <trkpt lat="43.56957" lon="2.96564">
        <ele>188.5</ele>
        <time>2015-12-14T10:23:43.185Z</time>
      </trkpt>
      <trkpt lat="43.56958" lon="2.96567">
        <ele>188.4</ele>
        <time>2015-12-14T10:23:44.149Z</time>
      </trkpt>
      <trkpt lat="43.56962" lon="2.96575">
        <ele>187.7</ele>
        <time>2015-12-14T10:23:47.173Z</time>
      </trkpt>
      <trkpt lat="43.56964" lon="2.96578">
        <ele>187.7</ele>
        <time>2015-12-14T10:23:48.131Z</time>
      </trkpt>
      <trkpt lat="43.56968" lon="2.96588">
        <ele>188.3</ele>
        <time>2015-12-14T10:23:52.165Z</time>
      </trkpt>
      <trkpt lat="43.56969" lon="2.96591">
        <ele>188.3</ele>
        <time>2015-12-14T10:23:53.140Z</time>
      </trkpt>
      <trkpt lat="43.56974" lon="2.96601">
        <ele>188.6</ele>
        <time>2015-12-14T10:23:56.164Z</time>
      </trkpt>
      <trkpt lat="43.56975" lon="2.96603">
        <ele>189.2</ele>
        <time>2015-12-14T10:23:57.136Z</time>
      </trkpt>
      <trkpt lat="43.5698" lon="2.96613">
        <ele>189.8</ele>
        <time>2015-12-14T10:24:00.177Z</time>
      </trkpt>
      <trkpt lat="43.56982" lon="2.96616">
        <ele>189.9</ele>
        <time>2015-12-14T10:24:01.134Z</time>
      </trkpt>
      <trkpt lat="43.56986" lon="2.96626">
        <ele>190.3</ele>
        <time>2015-12-14T10:24:04.165Z</time>
      </trkpt>
      <trkpt lat="43.56988" lon="2.96629">
        <ele>190.4</ele>
        <time>2015-12-14T10:24:05.132Z</time>
      </trkpt>
      <trkpt lat="43.56992" lon="2.9664">
        <ele>190.3</ele>
        <time>2015-12-14T10:24:08.179Z</time>
      </trkpt>
      <trkpt lat="43.56993" lon="2.96643">
        <ele>190.5</ele>
        <time>2015-12-14T10:24:09.140Z</time>
      </trkpt>
      <trkpt lat="43.56996" lon="2.9665">
        <ele>191.1</ele>
        <time>2015-12-14T10:24:11.194Z</time>
      </trkpt>
      <trkpt lat="43.56998" lon="2.96654">
        <ele>191.3</ele>
        <time>2015-12-14T10:24:12.137Z</time>
      </trkpt>
      <trkpt lat="43.57003" lon="2.96664">
        <ele>192.3</ele>
        <time>2015-12-14T10:24:15.176Z</time>
      </trkpt>
      <trkpt lat="43.57004" lon="2.96668">
        <ele>192.4</ele>
        <time>2015-12-14T10:24:16.133Z</time>
      </trkpt>
      <trkpt lat="43.57009" lon="2.96678">
        <ele>192.7</ele>
        <time>2015-12-14T10:24:19.196Z</time>
      </trkpt>
      <trkpt lat="43.5701" lon="2.96681">
        <ele>192.9</ele>
        <time>2015-12-14T10:24:20.132Z</time>
      </trkpt>
      <trkpt lat="43.57018" lon="2.96686">
        <ele>192.7</ele>
        <time>2015-12-14T10:24:23.167Z</time>
      </trkpt>
      <trkpt lat="43.5702" lon="2.96686">
        <ele>193</ele>
        <time>2015-12-14T10:24:24.138Z</time>
      </trkpt>
      <trkpt lat="43.57028" lon="2.96686">
        <ele>192.4</ele>
        <time>2015-12-14T10:24:27.196Z</time>
      </trkpt>
      <trkpt lat="43.5703" lon="2.96685">
        <ele>192.1</ele>
        <time>2015-12-14T10:24:28.137Z</time>
      </trkpt>
      <trkpt lat="43.57037" lon="2.96682">
        <ele>191.8</ele>
        <time>2015-12-14T10:24:31.183Z</time>
      </trkpt>
      <trkpt lat="43.57039" lon="2.96681">
        <ele>191.1</ele>
        <time>2015-12-14T10:24:32.134Z</time>
      </trkpt>
      <trkpt lat="43.57046" lon="2.96675">
        <ele>191.7</ele>
        <time>2015-12-14T10:24:35.218Z</time>
      </trkpt>
      <trkpt lat="43.57048" lon="2.96674">
        <ele>191.9</ele>
        <time>2015-12-14T10:24:36.129Z</time>
      </trkpt>
      <trkpt lat="43.57054" lon="2.96667">
        <ele>192.9</ele>
        <time>2015-12-14T10:24:39.174Z</time>
      </trkpt>
      <trkpt lat="43.57056" lon="2.96664">
        <ele>193.1</ele>
        <time>2015-12-14T10:24:40.134Z</time>
      </trkpt>
      <trkpt lat="43.57062" lon="2.96658">
        <ele>193.4</ele>
        <time>2015-12-14T10:24:43.187Z</time>
      </trkpt>
      <trkpt lat="43.57064" lon="2.96656">
        <ele>193.3</ele>
        <time>2015-12-14T10:24:44.132Z</time>
      </trkpt>
      <trkpt lat="43.5707" lon="2.96648">
        <ele>193.6</ele>
        <time>2015-12-14T10:24:47.205Z</time>
      </trkpt>
      <trkpt lat="43.57072" lon="2.96646">
        <ele>193.7</ele>
        <time>2015-12-14T10:24:48.136Z</time>
      </trkpt>
      <trkpt lat="43.57078" lon="2.96641">
        <ele>194.4</ele>
        <time>2015-12-14T10:24:51.206Z</time>
      </trkpt>
      <trkpt lat="43.5708" lon="2.96639">
        <ele>194.6</ele>
        <time>2015-12-14T10:24:52.136Z</time>
      </trkpt>
      <trkpt lat="43.57088" lon="2.96635">
        <ele>195.2</ele>
        <time>2015-12-14T10:24:56.191Z</time>
      </trkpt>
      <trkpt lat="43.5709" lon="2.96634">
        <ele>195.5</ele>
        <time>2015-12-14T10:24:57.133Z</time>
      </trkpt>
      <trkpt lat="43.57098" lon="2.96634">
        <ele>196.4</ele>
        <time>2015-12-14T10:25:01.195Z</time>
      </trkpt>
      <trkpt lat="43.571" lon="2.96634">
        <ele>196.4</ele>
        <time>2015-12-14T10:25:02.133Z</time>
      </trkpt>
      <trkpt lat="43.57107" lon="2.96636">
        <ele>196.9</ele>
        <time>2015-12-14T10:25:06.185Z</time>
      </trkpt>
      <trkpt lat="43.57109" lon="2.96637">
        <ele>196.6</ele>
        <time>2015-12-14T10:25:07.134Z</time>
      </trkpt>
      <trkpt lat="43.57117" lon="2.96641">
        <ele>195.1</ele>
        <time>2015-12-14T10:25:11.177Z</time>
      </trkpt>
      <trkpt lat="43.5712" lon="2.96642">
        <ele>194.8</ele>
        <time>2015-12-14T10:25:12.133Z</time>
      </trkpt>
      <trkpt lat="43.57127" lon="2.96646">
        <ele>194.4</ele>
        <time>2015-12-14T10:25:15.193Z</time>
      </trkpt>
      <trkpt lat="43.5713" lon="2.96647">
        <ele>194.4</ele>
        <time>2015-12-14T10:25:16.138Z</time>
      </trkpt>
      <trkpt lat="43.57136" lon="2.9665">
        <ele>194.5</ele>
        <time>2015-12-14T10:25:18.197Z</time>
      </trkpt>
      <trkpt lat="43.57139" lon="2.9665">
        <ele>194.1</ele>
        <time>2015-12-14T10:25:19.143Z</time>
      </trkpt>
      <trkpt lat="43.57143" lon="2.96652">
        <ele>193.6</ele>
        <time>2015-12-14T10:25:20.175Z</time>
      </trkpt>
      <trkpt lat="43.57148" lon="2.96654">
        <ele>193</ele>
        <time>2015-12-14T10:25:21.134Z</time>
      </trkpt>
      <trkpt lat="43.57153" lon="2.96655">
        <ele>192.2</ele>
        <time>2015-12-14T10:25:22.183Z</time>
      </trkpt>
      <trkpt lat="43.57159" lon="2.96657">
        <ele>191.7</ele>
        <time>2015-12-14T10:25:23.140Z</time>
      </trkpt>
      <trkpt lat="43.57165" lon="2.96657">
        <ele>191.3</ele>
        <time>2015-12-14T10:25:24.176Z</time>
      </trkpt>
      <trkpt lat="43.57172" lon="2.96655">
        <ele>191.2</ele>
        <time>2015-12-14T10:25:25.140Z</time>
      </trkpt>
      <trkpt lat="43.57177" lon="2.96654">
        <ele>190.9</ele>
        <time>2015-12-14T10:25:26.198Z</time>
      </trkpt>
      <trkpt lat="43.57182" lon="2.96653">
        <ele>190.6</ele>
        <time>2015-12-14T10:25:27.139Z</time>
      </trkpt>
      <trkpt lat="43.5719" lon="2.96652">
        <ele>190.1</ele>
        <time>2015-12-14T10:25:29.534Z</time>
      </trkpt>
      <trkpt lat="43.57193" lon="2.96652">
        <ele>189.8</ele>
        <time>2015-12-14T10:25:30.134Z</time>
      </trkpt>
      <trkpt lat="43.57202" lon="2.9665">
        <ele>189.1</ele>
        <time>2015-12-14T10:25:33.202Z</time>
      </trkpt>
      <trkpt lat="43.57205" lon="2.9665">
        <ele>188.9</ele>
        <time>2015-12-14T10:25:34.135Z</time>
      </trkpt>
      <trkpt lat="43.57213" lon="2.96653">
        <ele>188.3</ele>
        <time>2015-12-14T10:25:38.512Z</time>
      </trkpt>
      <trkpt lat="43.57215" lon="2.96654">
        <ele>188.1</ele>
        <time>2015-12-14T10:25:39.130Z</time>
      </trkpt>
      <trkpt lat="43.57222" lon="2.96657">
        <ele>188.5</ele>
        <time>2015-12-14T10:25:42.190Z</time>
      </trkpt>
      <trkpt lat="43.57225" lon="2.96659">
        <ele>188.5</ele>
        <time>2015-12-14T10:25:43.139Z</time>
      </trkpt>
      <trkpt lat="43.5723" lon="2.96663">
        <ele>188.8</ele>
        <time>2015-12-14T10:25:45.176Z</time>
      </trkpt>
      <trkpt lat="43.57233" lon="2.96666">
        <ele>189.1</ele>
        <time>2015-12-14T10:25:46.131Z</time>
      </trkpt>
      <trkpt lat="43.5724" lon="2.96671">
        <ele>189.1</ele>
        <time>2015-12-14T10:25:49.587Z</time>
      </trkpt>
      <trkpt lat="43.57242" lon="2.96673">
        <ele>189.2</ele>
        <time>2015-12-14T10:25:50.134Z</time>
      </trkpt>
      <trkpt lat="43.57248" lon="2.96677">
        <ele>189.6</ele>
        <time>2015-12-14T10:25:52.162Z</time>
      </trkpt>
      <trkpt lat="43.5725" lon="2.9668">
        <ele>189.6</ele>
        <time>2015-12-14T10:25:53.130Z</time>
      </trkpt>
      <trkpt lat="43.57257" lon="2.96688">
        <ele>190.4</ele>
        <time>2015-12-14T10:25:56.185Z</time>
      </trkpt>
      <trkpt lat="43.5726" lon="2.9669">
        <ele>190.6</ele>
        <time>2015-12-14T10:25:57.148Z</time>
      </trkpt>
      <trkpt lat="43.57266" lon="2.96695">
        <ele>190.8</ele>
        <time>2015-12-14T10:25:59.166Z</time>
      </trkpt>
      <trkpt lat="43.57268" lon="2.96697">
        <ele>190.7</ele>
        <time>2015-12-14T10:26:00.134Z</time>
      </trkpt>
      <trkpt lat="43.57274" lon="2.96701">
        <ele>190.8</ele>
        <time>2015-12-14T10:26:02.178Z</time>
      </trkpt>
      <trkpt lat="43.57277" lon="2.96702">
        <ele>190.9</ele>
        <time>2015-12-14T10:26:03.136Z</time>
      </trkpt>
      <trkpt lat="43.57285" lon="2.96704">
        <ele>191.1</ele>
        <time>2015-12-14T10:26:06.169Z</time>
      </trkpt>
      <trkpt lat="43.57287" lon="2.96705">
        <ele>191.2</ele>
        <time>2015-12-14T10:26:07.136Z</time>
      </trkpt>
      <trkpt lat="43.57295" lon="2.96707">
        <ele>191</ele>
        <time>2015-12-14T10:26:10.164Z</time>
      </trkpt>
      <trkpt lat="43.57297" lon="2.96708">
        <ele>190.9</ele>
        <time>2015-12-14T10:26:11.131Z</time>
      </trkpt>
      <trkpt lat="43.57305" lon="2.96711">
        <ele>190.9</ele>
        <time>2015-12-14T10:26:15.187Z</time>
      </trkpt>
      <trkpt lat="43.57307" lon="2.96712">
        <ele>190.8</ele>
        <time>2015-12-14T10:26:16.135Z</time>
      </trkpt>
      <trkpt lat="43.57316" lon="2.96715">
        <ele>190.5</ele>
        <time>2015-12-14T10:26:19.188Z</time>
      </trkpt>
      <trkpt lat="43.57318" lon="2.96716">
        <ele>190.5</ele>
        <time>2015-12-14T10:26:20.132Z</time>
      </trkpt>
      <trkpt lat="43.57326" lon="2.96718">
        <ele>190.6</ele>
        <time>2015-12-14T10:26:22.180Z</time>
      </trkpt>
      <trkpt lat="43.57329" lon="2.9672">
        <ele>190.6</ele>
        <time>2015-12-14T10:26:23.136Z</time>
      </trkpt>
      <trkpt lat="43.57337" lon="2.96721">
        <ele>190.8</ele>
        <time>2015-12-14T10:26:25.200Z</time>
      </trkpt>
      <trkpt lat="43.5734" lon="2.96722">
        <ele>190.8</ele>
        <time>2015-12-14T10:26:26.133Z</time>
      </trkpt>
      <trkpt lat="43.57349" lon="2.96724">
        <ele>191.6</ele>
        <time>2015-12-14T10:26:30.371Z</time>
      </trkpt>
      <trkpt lat="43.5735" lon="2.96723">
        <ele>192.3</ele>
        <time>2015-12-14T10:26:31.146Z</time>
      </trkpt>
      <trkpt lat="43.57359" lon="2.9672">
        <ele>194.6</ele>
        <time>2015-12-14T10:26:35.184Z</time>
      </trkpt>
      <trkpt lat="43.57361" lon="2.96718">
        <ele>195.2</ele>
        <time>2015-12-14T10:26:36.137Z</time>
      </trkpt>
      <trkpt lat="43.57368" lon="2.96714">
        <ele>196.7</ele>
        <time>2015-12-14T10:26:39.166Z</time>
      </trkpt>
      <trkpt lat="43.5737" lon="2.96712">
        <ele>197</ele>
        <time>2015-12-14T10:26:40.137Z</time>
      </trkpt>
      <trkpt lat="43.57378" lon="2.96711">
        <ele>197.7</ele>
        <time>2015-12-14T10:26:44.173Z</time>
      </trkpt>
      <trkpt lat="43.57381" lon="2.96711">
        <ele>197.9</ele>
        <time>2015-12-14T10:26:45.134Z</time>
      </trkpt>
      <trkpt lat="43.57389" lon="2.9671">
        <ele>198.7</ele>
        <time>2015-12-14T10:26:49.210Z</time>
      </trkpt>
      <trkpt lat="43.57391" lon="2.96709">
        <ele>198.9</ele>
        <time>2015-12-14T10:26:50.134Z</time>
      </trkpt>
      <trkpt lat="43.57398" lon="2.96707">
        <ele>199.9</ele>
        <time>2015-12-14T10:26:53.194Z</time>
      </trkpt>
      <trkpt lat="43.574" lon="2.96706">
        <ele>200.7</ele>
        <time>2015-12-14T10:26:54.133Z</time>
      </trkpt>
      <trkpt lat="43.57407" lon="2.967">
        <ele>201.7</ele>
        <time>2015-12-14T10:26:57.587Z</time>
      </trkpt>
      <trkpt lat="43.5741" lon="2.96698">
        <ele>202.1</ele>
        <time>2015-12-14T10:26:58.132Z</time>
      </trkpt>
      <trkpt lat="43.57414" lon="2.96689">
        <ele>204.4</ele>
        <time>2015-12-14T10:27:02.209Z</time>
      </trkpt>
      <trkpt lat="43.57415" lon="2.96688">
        <ele>205.2</ele>
        <time>2015-12-14T10:27:03.133Z</time>
      </trkpt>
      <trkpt lat="43.5742" lon="2.96678">
        <ele>209</ele>
        <time>2015-12-14T10:27:09.167Z</time>
      </trkpt>
      <trkpt lat="43.57421" lon="2.96676">
        <ele>209.3</ele>
        <time>2015-12-14T10:27:10.131Z</time>
      </trkpt>
      <trkpt lat="43.57427" lon="2.96668">
        <ele>212.7</ele>
        <time>2015-12-14T10:27:17.174Z</time>
      </trkpt>
      <trkpt lat="43.57427" lon="2.96667">
        <ele>213.3</ele>
        <time>2015-12-14T10:27:18.133Z</time>
      </trkpt>
      <trkpt lat="43.57428" lon="2.96667">
        <ele>213.1</ele>
        <time>2015-12-14T10:27:25.183Z</time>
      </trkpt>
      <trkpt lat="43.57428" lon="2.96665">
        <ele>212.7</ele>
        <time>2015-12-14T10:27:26.132Z</time>
      </trkpt>
      <trkpt lat="43.57429" lon="2.96664">
        <ele>212.9</ele>
        <time>2015-12-14T10:27:47.186Z</time>
      </trkpt>
      <trkpt lat="43.57431" lon="2.96666">
        <ele>209.5</ele>
        <time>2015-12-14T10:27:48.131Z</time>
      </trkpt>
      <trkpt lat="43.57438" lon="2.96658">
        <ele>208</ele>
        <time>2015-12-14T10:30:12.198Z</time>
      </trkpt>
      <trkpt lat="43.57439" lon="2.96656">
        <ele>207.9</ele>
        <time>2015-12-14T10:30:13.134Z</time>
      </trkpt>
      <trkpt lat="43.57447" lon="2.96651">
        <ele>207.5</ele>
        <time>2015-12-14T10:30:17.197Z</time>
      </trkpt>
      <trkpt lat="43.5745" lon="2.96651">
        <ele>207.4</ele>
        <time>2015-12-14T10:30:18.131Z</time>
      </trkpt>
      <trkpt lat="43.57458" lon="2.9665">
        <ele>207.1</ele>
        <time>2015-12-14T10:30:21.179Z</time>
      </trkpt>
      <trkpt lat="43.57461" lon="2.96648">
        <ele>207</ele>
        <time>2015-12-14T10:30:22.137Z</time>
      </trkpt>
      <trkpt lat="43.57466" lon="2.96643">
        <ele>206.9</ele>
        <time>2015-12-14T10:30:24.167Z</time>
      </trkpt>
      <trkpt lat="43.5747" lon="2.96641">
        <ele>206.7</ele>
        <time>2015-12-14T10:30:25.135Z</time>
      </trkpt>
      <trkpt lat="43.57477" lon="2.96636">
        <ele>206.4</ele>
        <time>2015-12-14T10:30:27.194Z</time>
      </trkpt>
      <trkpt lat="43.57481" lon="2.96635">
        <ele>206.3</ele>
        <time>2015-12-14T10:30:28.135Z</time>
      </trkpt>
      <trkpt lat="43.5749" lon="2.96631">
        <ele>206.2</ele>
        <time>2015-12-14T10:30:30.168Z</time>
      </trkpt>
      <trkpt lat="43.57493" lon="2.96628">
        <ele>206.1</ele>
        <time>2015-12-14T10:30:31.135Z</time>
      </trkpt>
      <trkpt lat="43.57501" lon="2.96626">
        <ele>205.8</ele>
        <time>2015-12-14T10:30:33.198Z</time>
      </trkpt>
      <trkpt lat="43.57505" lon="2.96626">
        <ele>205.7</ele>
        <time>2015-12-14T10:30:34.136Z</time>
      </trkpt>
      <trkpt lat="43.5751" lon="2.96625">
        <ele>205.5</ele>
        <time>2015-12-14T10:30:35.167Z</time>
      </trkpt>
      <trkpt lat="43.57515" lon="2.96624">
        <ele>205.3</ele>
        <time>2015-12-14T10:30:36.140Z</time>
      </trkpt>
      <trkpt lat="43.57521" lon="2.96623">
        <ele>205.2</ele>
        <time>2015-12-14T10:30:37.162Z</time>
      </trkpt>
      <trkpt lat="43.57527" lon="2.96621">
        <ele>205.2</ele>
        <time>2015-12-14T10:30:38.134Z</time>
      </trkpt>
      <trkpt lat="43.57534" lon="2.9662">
        <ele>205.2</ele>
        <time>2015-12-14T10:30:39.168Z</time>
      </trkpt>
      <trkpt lat="43.57541" lon="2.96618">
        <ele>205.2</ele>
        <time>2015-12-14T10:30:40.134Z</time>
      </trkpt>
      <trkpt lat="43.5755" lon="2.96614">
        <ele>205.5</ele>
        <time>2015-12-14T10:30:41.159Z</time>
      </trkpt>
      <trkpt lat="43.57555" lon="2.9661">
        <ele>205.4</ele>
        <time>2015-12-14T10:30:42.132Z</time>
      </trkpt>
      <trkpt lat="43.5756" lon="2.96605">
        <ele>205.4</ele>
        <time>2015-12-14T10:30:43.174Z</time>
      </trkpt>
      <trkpt lat="43.57565" lon="2.96599">
        <ele>205.3</ele>
        <time>2015-12-14T10:30:44.136Z</time>
      </trkpt>
      <trkpt lat="43.57568" lon="2.96595">
        <ele>205.3</ele>
        <time>2015-12-14T10:30:45.180Z</time>
      </trkpt>
      <trkpt lat="43.57571" lon="2.9659">
        <ele>205.3</ele>
        <time>2015-12-14T10:30:46.134Z</time>
      </trkpt>
      <trkpt lat="43.57577" lon="2.96586">
        <ele>204.9</ele>
        <time>2015-12-14T10:30:48.166Z</time>
      </trkpt>
      <trkpt lat="43.5758" lon="2.96584">
        <ele>204.7</ele>
        <time>2015-12-14T10:30:49.135Z</time>
      </trkpt>
      <trkpt lat="43.57587" lon="2.96578">
        <ele>204.5</ele>
        <time>2015-12-14T10:30:53.182Z</time>
      </trkpt>
      <trkpt lat="43.57589" lon="2.96576">
        <ele>204.5</ele>
        <time>2015-12-14T10:30:54.138Z</time>
      </trkpt>
      <trkpt lat="43.57596" lon="2.96571">
        <ele>204.2</ele>
        <time>2015-12-14T10:30:58.181Z</time>
      </trkpt>
      <trkpt lat="43.57598" lon="2.96571">
        <ele>204.1</ele>
        <time>2015-12-14T10:30:59.134Z</time>
      </trkpt>
      <trkpt lat="43.57606" lon="2.96568">
        <ele>204.1</ele>
        <time>2015-12-14T10:31:04.180Z</time>
      </trkpt>
      <trkpt lat="43.57608" lon="2.96567">
        <ele>204.1</ele>
        <time>2015-12-14T10:31:05.135Z</time>
      </trkpt>
      <trkpt lat="43.57616" lon="2.96567">
        <ele>204.1</ele>
        <time>2015-12-14T10:31:09.163Z</time>
      </trkpt>
      <trkpt lat="43.57619" lon="2.96566">
        <ele>204</ele>
        <time>2015-12-14T10:31:10.138Z</time>
      </trkpt>
      <trkpt lat="43.57628" lon="2.96567">
        <ele>204.3</ele>
        <time>2015-12-14T10:31:14.180Z</time>
      </trkpt>
      <trkpt lat="43.5763" lon="2.96566">
        <ele>204.3</ele>
        <time>2015-12-14T10:31:15.135Z</time>
      </trkpt>
      <trkpt lat="43.57636" lon="2.96563">
        <ele>204.1</ele>
        <time>2015-12-14T10:31:18.159Z</time>
      </trkpt>
      <trkpt lat="43.57637" lon="2.9656">
        <ele>204</ele>
        <time>2015-12-14T10:31:19.137Z</time>
      </trkpt>
      <trkpt lat="43.57639" lon="2.96559">
        <ele>203.9</ele>
        <time>2015-12-14T10:31:20.162Z</time>
      </trkpt>
      <trkpt lat="43.57642" lon="2.96559">
        <ele>203.9</ele>
        <time>2015-12-14T10:31:21.132Z</time>
      </trkpt>
      <trkpt lat="43.5765" lon="2.96557">
        <ele>204</ele>
        <time>2015-12-14T10:31:25.185Z</time>
      </trkpt>
      <trkpt lat="43.57652" lon="2.96557">
        <ele>204</ele>
        <time>2015-12-14T10:31:26.135Z</time>
      </trkpt>
      <trkpt lat="43.57659" lon="2.96555">
        <ele>203.7</ele>
        <time>2015-12-14T10:31:30.189Z</time>
      </trkpt>
      <trkpt lat="43.57661" lon="2.96557">
        <ele>203.6</ele>
        <time>2015-12-14T10:31:31.140Z</time>
      </trkpt>
      <trkpt lat="43.57668" lon="2.96559">
        <ele>204.1</ele>
        <time>2015-12-14T10:31:35.168Z</time>
      </trkpt>
      <trkpt lat="43.57671" lon="2.96558">
        <ele>205.4</ele>
        <time>2015-12-14T10:31:36.140Z</time>
      </trkpt>
      <trkpt lat="43.57678" lon="2.96553">
        <ele>205.5</ele>
        <time>2015-12-14T10:31:38.164Z</time>
      </trkpt>
      <trkpt lat="43.57681" lon="2.96551">
        <ele>205.4</ele>
        <time>2015-12-14T10:31:39.129Z</time>
      </trkpt>
      <trkpt lat="43.57687" lon="2.96546">
        <ele>205.7</ele>
        <time>2015-12-14T10:31:42.172Z</time>
      </trkpt>
      <trkpt lat="43.57688" lon="2.96545">
        <ele>205.9</ele>
        <time>2015-12-14T10:31:43.140Z</time>
      </trkpt>
      <trkpt lat="43.57696" lon="2.96538">
        <ele>206.3</ele>
        <time>2015-12-14T10:31:47.515Z</time>
      </trkpt>
      <trkpt lat="43.57697" lon="2.96536">
        <ele>206.3</ele>
        <time>2015-12-14T10:31:48.134Z</time>
      </trkpt>
      <trkpt lat="43.57703" lon="2.9653">
        <ele>206.2</ele>
        <time>2015-12-14T10:31:52.167Z</time>
      </trkpt>
      <trkpt lat="43.57705" lon="2.96529">
        <ele>206.2</ele>
        <time>2015-12-14T10:31:53.129Z</time>
      </trkpt>
      <trkpt lat="43.57713" lon="2.96534">
        <ele>207.6</ele>
        <time>2015-12-14T10:31:57.160Z</time>
      </trkpt>
      <trkpt lat="43.57714" lon="2.96536">
        <ele>208.1</ele>
        <time>2015-12-14T10:31:58.130Z</time>
      </trkpt>
      <trkpt lat="43.5772" lon="2.96544">
        <ele>208.7</ele>
        <time>2015-12-14T10:32:02.185Z</time>
      </trkpt>
      <trkpt lat="43.57721" lon="2.96546">
        <ele>208.4</ele>
        <time>2015-12-14T10:32:03.130Z</time>
      </trkpt>
      <trkpt lat="43.57725" lon="2.96556">
        <ele>209.7</ele>
        <time>2015-12-14T10:32:07.171Z</time>
      </trkpt>
      <trkpt lat="43.57725" lon="2.96559">
        <ele>210.1</ele>
        <time>2015-12-14T10:32:08.132Z</time>
      </trkpt>
      <trkpt lat="43.5773" lon="2.9657">
        <ele>210</ele>
        <time>2015-12-14T10:32:12.179Z</time>
      </trkpt>
      <trkpt lat="43.57731" lon="2.96572">
        <ele>209.8</ele>
        <time>2015-12-14T10:32:13.138Z</time>
      </trkpt>
      <trkpt lat="43.57736" lon="2.9658">
        <ele>209.4</ele>
        <time>2015-12-14T10:32:19.175Z</time>
      </trkpt>
      <trkpt lat="43.57737" lon="2.96581">
        <ele>209.4</ele>
        <time>2015-12-14T10:32:20.131Z</time>
      </trkpt>
      <trkpt lat="43.57743" lon="2.96588">
        <ele>210.5</ele>
        <time>2015-12-14T10:32:26.396Z</time>
      </trkpt>
      <trkpt lat="43.57744" lon="2.96591">
        <ele>210.6</ele>
        <time>2015-12-14T10:32:27.133Z</time>
      </trkpt>
      <trkpt lat="43.57751" lon="2.96599">
        <ele>211</ele>
        <time>2015-12-14T10:32:33.182Z</time>
      </trkpt>
      <trkpt lat="43.57752" lon="2.966">
        <ele>211</ele>
        <time>2015-12-14T10:32:34.134Z</time>
      </trkpt>
      <trkpt lat="43.57759" lon="2.96603">
        <ele>211.6</ele>
        <time>2015-12-14T10:32:39.168Z</time>
      </trkpt>
      <trkpt lat="43.57761" lon="2.96605">
        <ele>211.7</ele>
        <time>2015-12-14T10:32:40.138Z</time>
      </trkpt>
      <trkpt lat="43.57768" lon="2.96611">
        <ele>212</ele>
        <time>2015-12-14T10:32:44.165Z</time>
      </trkpt>
      <trkpt lat="43.57769" lon="2.96612">
        <ele>212.3</ele>
        <time>2015-12-14T10:32:45.137Z</time>
      </trkpt>
      <trkpt lat="43.57777" lon="2.96618">
        <ele>212.5</ele>
        <time>2015-12-14T10:32:50.167Z</time>
      </trkpt>
      <trkpt lat="43.57778" lon="2.96619">
        <ele>212.5</ele>
        <time>2015-12-14T10:32:51.134Z</time>
      </trkpt>
      <trkpt lat="43.57786" lon="2.96623">
        <ele>212.5</ele>
        <time>2015-12-14T10:32:56.172Z</time>
      </trkpt>
      <trkpt lat="43.57787" lon="2.96623">
        <ele>212.3</ele>
        <time>2015-12-14T10:32:57.133Z</time>
      </trkpt>
      <trkpt lat="43.57795" lon="2.96626">
        <ele>212.3</ele>
        <time>2015-12-14T10:33:04.166Z</time>
      </trkpt>
      <trkpt lat="43.57797" lon="2.96626">
        <ele>212.3</ele>
        <time>2015-12-14T10:33:05.134Z</time>
      </trkpt>
      <trkpt lat="43.57805" lon="2.96623">
        <ele>215.8</ele>
        <time>2015-12-14T10:33:11.188Z</time>
      </trkpt>
      <trkpt lat="43.57806" lon="2.96622">
        <ele>216.1</ele>
        <time>2015-12-14T10:33:12.129Z</time>
      </trkpt>
      <trkpt lat="43.57815" lon="2.96622">
        <ele>217.3</ele>
        <time>2015-12-14T10:33:17.166Z</time>
      </trkpt>
      <trkpt lat="43.57816" lon="2.96622">
        <ele>217.6</ele>
        <time>2015-12-14T10:33:18.133Z</time>
      </trkpt>
      <trkpt lat="43.57816" lon="2.96622">
        <ele>217.9</ele>
        <time>2015-12-14T10:33:19.182Z</time>
      </trkpt>
      <trkpt lat="43.57817" lon="2.96622">
        <ele>218.4</ele>
        <time>2015-12-14T10:33:20.134Z</time>
      </trkpt>
      <trkpt lat="43.57819" lon="2.96616">
        <ele>219.9</ele>
        <time>2015-12-14T10:33:24.161Z</time>
      </trkpt>
      <trkpt lat="43.5782" lon="2.96614">
        <ele>220.6</ele>
        <time>2015-12-14T10:33:25.155Z</time>
      </trkpt>
      <trkpt lat="43.57826" lon="2.96606">
        <ele>221.6</ele>
        <time>2015-12-14T10:33:29.166Z</time>
      </trkpt>
      <trkpt lat="43.57828" lon="2.96605">
        <ele>221.5</ele>
        <time>2015-12-14T10:33:30.133Z</time>
      </trkpt>
      <trkpt lat="43.57834" lon="2.96598">
        <ele>222.4</ele>
        <time>2015-12-14T10:33:35.164Z</time>
      </trkpt>
      <trkpt lat="43.57835" lon="2.96596">
        <ele>222.6</ele>
        <time>2015-12-14T10:33:36.134Z</time>
      </trkpt>
      <trkpt lat="43.57843" lon="2.96592">
        <ele>223.9</ele>
        <time>2015-12-14T10:33:41.187Z</time>
      </trkpt>
      <trkpt lat="43.57845" lon="2.96591">
        <ele>224.1</ele>
        <time>2015-12-14T10:33:42.130Z</time>
      </trkpt>
      <trkpt lat="43.57852" lon="2.96584">
        <ele>225.5</ele>
        <time>2015-12-14T10:33:47.171Z</time>
      </trkpt>
      <trkpt lat="43.57853" lon="2.96583">
        <ele>225.8</ele>
        <time>2015-12-14T10:33:48.137Z</time>
      </trkpt>
      <trkpt lat="43.57861" lon="2.96579">
        <ele>226.8</ele>
        <time>2015-12-14T10:33:53.163Z</time>
      </trkpt>
      <trkpt lat="43.57862" lon="2.96578">
        <ele>227</ele>
        <time>2015-12-14T10:33:54.137Z</time>
      </trkpt>
      <trkpt lat="43.57871" lon="2.96575">
        <ele>227.7</ele>
        <time>2015-12-14T10:34:00.185Z</time>
      </trkpt>
      <trkpt lat="43.57872" lon="2.96575">
        <ele>227.9</ele>
        <time>2015-12-14T10:34:01.139Z</time>
      </trkpt>
      <trkpt lat="43.5788" lon="2.96568">
        <ele>229</ele>
        <time>2015-12-14T10:34:06.191Z</time>
      </trkpt>
      <trkpt lat="43.57881" lon="2.96567">
        <ele>229.3</ele>
        <time>2015-12-14T10:34:07.140Z</time>
      </trkpt>
      <trkpt lat="43.57884" lon="2.96556">
        <ele>230.3</ele>
        <time>2015-12-14T10:34:12.191Z</time>
      </trkpt>
      <trkpt lat="43.57885" lon="2.96555">
        <ele>230.4</ele>
        <time>2015-12-14T10:34:13.139Z</time>
      </trkpt>
      <trkpt lat="43.57889" lon="2.96545">
        <ele>231.1</ele>
        <time>2015-12-14T10:34:18.205Z</time>
      </trkpt>
      <trkpt lat="43.57889" lon="2.96543">
        <ele>231.1</ele>
        <time>2015-12-14T10:34:19.137Z</time>
      </trkpt>
      <trkpt lat="43.57893" lon="2.96533">
        <ele>232</ele>
        <time>2015-12-14T10:34:24.162Z</time>
      </trkpt>
      <trkpt lat="43.57893" lon="2.9653">
        <ele>232.2</ele>
        <time>2015-12-14T10:34:25.134Z</time>
      </trkpt>
      <trkpt lat="43.57896" lon="2.96518">
        <ele>232.8</ele>
        <time>2015-12-14T10:34:29.182Z</time>
      </trkpt>
      <trkpt lat="43.57897" lon="2.96516">
        <ele>232.9</ele>
        <time>2015-12-14T10:34:30.138Z</time>
      </trkpt>
      <trkpt lat="43.57904" lon="2.96508">
        <ele>233.6</ele>
        <time>2015-12-14T10:34:35.165Z</time>
      </trkpt>
      <trkpt lat="43.57904" lon="2.96506">
        <ele>233.7</ele>
        <time>2015-12-14T10:34:36.136Z</time>
      </trkpt>
      <trkpt lat="43.57909" lon="2.96497">
        <ele>233.8</ele>
        <time>2015-12-14T10:34:41.192Z</time>
      </trkpt>
      <trkpt lat="43.5791" lon="2.96496">
        <ele>233.9</ele>
        <time>2015-12-14T10:34:42.134Z</time>
      </trkpt>
      <trkpt lat="43.57915" lon="2.96487">
        <ele>234.5</ele>
        <time>2015-12-14T10:34:48.166Z</time>
      </trkpt>
      <trkpt lat="43.57916" lon="2.96486">
        <ele>234.6</ele>
        <time>2015-12-14T10:34:49.134Z</time>
      </trkpt>
      <trkpt lat="43.5792" lon="2.96477">
        <ele>235.1</ele>
        <time>2015-12-14T10:34:55.184Z</time>
      </trkpt>
      <trkpt lat="43.57925" lon="2.96477">
        <ele>235.9</ele>
        <time>2015-12-14T10:34:56.134Z</time>
      </trkpt>
      <trkpt lat="43.57933" lon="2.96472">
        <ele>237.2</ele>
        <time>2015-12-14T10:34:59.164Z</time>
      </trkpt>
      <trkpt lat="43.57934" lon="2.9647">
        <ele>237.2</ele>
        <time>2015-12-14T10:35:00.161Z</time>
      </trkpt>
      <trkpt lat="43.57939" lon="2.96462">
        <ele>237.4</ele>
        <time>2015-12-14T10:35:05.189Z</time>
      </trkpt>
      <trkpt lat="43.57941" lon="2.96462">
        <ele>237.3</ele>
        <time>2015-12-14T10:35:06.137Z</time>
      </trkpt>
      <trkpt lat="43.57949" lon="2.96463">
        <ele>237</ele>
        <time>2015-12-14T10:35:12.441Z</time>
      </trkpt>
      <trkpt lat="43.57951" lon="2.96463">
        <ele>236.9</ele>
        <time>2015-12-14T10:35:13.136Z</time>
      </trkpt>
      <trkpt lat="43.57958" lon="2.96463">
        <ele>236.6</ele>
        <time>2015-12-14T10:35:17.207Z</time>
      </trkpt>
      <trkpt lat="43.57961" lon="2.96463">
        <ele>236.6</ele>
        <time>2015-12-14T10:35:18.490Z</time>
      </trkpt>
      <trkpt lat="43.57969" lon="2.9646">
        <ele>236.4</ele>
        <time>2015-12-14T10:35:24.173Z</time>
      </trkpt>
      <trkpt lat="43.5797" lon="2.96459">
        <ele>236.5</ele>
        <time>2015-12-14T10:35:25.134Z</time>
      </trkpt>
      <trkpt lat="43.57977" lon="2.96459">
        <ele>236.2</ele>
        <time>2015-12-14T10:35:29.169Z</time>
      </trkpt>
      <trkpt lat="43.57979" lon="2.9646">
        <ele>236.2</ele>
        <time>2015-12-14T10:35:30.138Z</time>
      </trkpt>
      <trkpt lat="43.57987" lon="2.96459">
        <ele>235.8</ele>
        <time>2015-12-14T10:35:35.189Z</time>
      </trkpt>
      <trkpt lat="43.57989" lon="2.96458">
        <ele>235.7</ele>
        <time>2015-12-14T10:35:36.161Z</time>
      </trkpt>
      <trkpt lat="43.57996" lon="2.96462">
        <ele>233.6</ele>
        <time>2015-12-14T10:35:40.181Z</time>
      </trkpt>
      <trkpt lat="43.57998" lon="2.96464">
        <ele>232.9</ele>
        <time>2015-12-14T10:35:41.133Z</time>
      </trkpt>
      <trkpt lat="43.58003" lon="2.9647">
        <ele>231.3</ele>
        <time>2015-12-14T10:35:45.192Z</time>
      </trkpt>
      <trkpt lat="43.58005" lon="2.96473">
        <ele>230.7</ele>
        <time>2015-12-14T10:35:46.133Z</time>
      </trkpt>
      <trkpt lat="43.58013" lon="2.96478">
        <ele>229.5</ele>
        <time>2015-12-14T10:35:50.166Z</time>
      </trkpt>
      <trkpt lat="43.58015" lon="2.96479">
        <ele>229.2</ele>
        <time>2015-12-14T10:35:51.137Z</time>
      </trkpt>
      <trkpt lat="43.58022" lon="2.96482">
        <ele>227.5</ele>
        <time>2015-12-14T10:35:55.167Z</time>
      </trkpt>
      <trkpt lat="43.58024" lon="2.96483">
        <ele>227.3</ele>
        <time>2015-12-14T10:35:56.135Z</time>
      </trkpt>
      <trkpt lat="43.5803" lon="2.96491">
        <ele>226.4</ele>
        <time>2015-12-14T10:36:03.175Z</time>
      </trkpt>
      <trkpt lat="43.58031" lon="2.96492">
        <ele>226</ele>
        <time>2015-12-14T10:36:04.137Z</time>
      </trkpt>
      <trkpt lat="43.58037" lon="2.96498">
        <ele>226.2</ele>
        <time>2015-12-14T10:36:09.158Z</time>
      </trkpt>
      <trkpt lat="43.58039" lon="2.96499">
        <ele>226.1</ele>
        <time>2015-12-14T10:36:10.131Z</time>
      </trkpt>
      <trkpt lat="43.58047" lon="2.965">
        <ele>225.9</ele>
        <time>2015-12-14T10:36:16.158Z</time>
      </trkpt>
      <trkpt lat="43.58048" lon="2.965">
        <ele>225.6</ele>
        <time>2015-12-14T10:36:17.132Z</time>
      </trkpt>
      <trkpt lat="43.58056" lon="2.96498">
        <ele>226.2</ele>
        <time>2015-12-14T10:36:21.167Z</time>
      </trkpt>
      <trkpt lat="43.58057" lon="2.96499">
        <ele>225.5</ele>
        <time>2015-12-14T10:36:22.130Z</time>
      </trkpt>
      <trkpt lat="43.58063" lon="2.96508">
        <ele>225.1</ele>
        <time>2015-12-14T10:36:27.182Z</time>
      </trkpt>
      <trkpt lat="43.58064" lon="2.96509">
        <ele>225.2</ele>
        <time>2015-12-14T10:36:28.133Z</time>
      </trkpt>
      <trkpt lat="43.58071" lon="2.96516">
        <ele>226.3</ele>
        <time>2015-12-14T10:36:33.193Z</time>
      </trkpt>
      <trkpt lat="43.58073" lon="2.96518">
        <ele>226.7</ele>
        <time>2015-12-14T10:36:34.137Z</time>
      </trkpt>
      <trkpt lat="43.58079" lon="2.9652">
        <ele>230.1</ele>
        <time>2015-12-14T10:36:46.525Z</time>
      </trkpt>
      <trkpt lat="43.58084" lon="2.9652">
        <ele>232.3</ele>
        <time>2015-12-14T10:36:47.132Z</time>
      </trkpt>
      <trkpt lat="43.58084" lon="2.9652">
        <ele>232.3</ele>
        <time>2015-12-14T10:36:47.164Z</time>
      </trkpt>
      <trkpt lat="43.58094" lon="2.96523">
        <ele>234</ele>
        <time>2015-12-14T10:36:48.133Z</time>
      </trkpt>
      <trkpt lat="43.58101" lon="2.96517">
        <ele>238</ele>
        <time>2015-12-14T10:36:54.174Z</time>
      </trkpt>
      <trkpt lat="43.58102" lon="2.96516">
        <ele>238.5</ele>
        <time>2015-12-14T10:36:55.138Z</time>
      </trkpt>
      <trkpt lat="43.5811" lon="2.96513">
        <ele>241.9</ele>
        <time>2015-12-14T10:37:02.165Z</time>
      </trkpt>
      <trkpt lat="43.58111" lon="2.96512">
        <ele>242.3</ele>
        <time>2015-12-14T10:37:03.133Z</time>
      </trkpt>
      <trkpt lat="43.58118" lon="2.96504">
        <ele>245.3</ele>
        <time>2015-12-14T10:37:09.170Z</time>
      </trkpt>
      <trkpt lat="43.58119" lon="2.96502">
        <ele>245.5</ele>
        <time>2015-12-14T10:37:10.140Z</time>
      </trkpt>
      <trkpt lat="43.58123" lon="2.96492">
        <ele>247.6</ele>
        <time>2015-12-14T10:37:15.174Z</time>
      </trkpt>
      <trkpt lat="43.58125" lon="2.9649">
        <ele>248.1</ele>
        <time>2015-12-14T10:37:16.134Z</time>
      </trkpt>
      <trkpt lat="43.58131" lon="2.96483">
        <ele>250.3</ele>
        <time>2015-12-14T10:37:21.179Z</time>
      </trkpt>
      <trkpt lat="43.58131" lon="2.9648">
        <ele>250.7</ele>
        <time>2015-12-14T10:37:22.137Z</time>
      </trkpt>
      <trkpt lat="43.58137" lon="2.96472">
        <ele>253.3</ele>
        <time>2015-12-14T10:37:27.184Z</time>
      </trkpt>
      <trkpt lat="43.58138" lon="2.9647">
        <ele>253.6</ele>
        <time>2015-12-14T10:37:28.488Z</time>
      </trkpt>
      <trkpt lat="43.58144" lon="2.96461">
        <ele>256.2</ele>
        <time>2015-12-14T10:37:34.178Z</time>
      </trkpt>
      <trkpt lat="43.58145" lon="2.9646">
        <ele>256.6</ele>
        <time>2015-12-14T10:37:35.140Z</time>
      </trkpt>
      <trkpt lat="43.58146" lon="2.96447">
        <ele>260</ele>
        <time>2015-12-14T10:37:46.185Z</time>
      </trkpt>
      <trkpt lat="43.58145" lon="2.96446">
        <ele>260.1</ele>
        <time>2015-12-14T10:37:47.133Z</time>
      </trkpt>
      <trkpt lat="43.58144" lon="2.96441">
        <ele>259.6</ele>
        <time>2015-12-14T10:37:55.180Z</time>
      </trkpt>
      <trkpt lat="43.58143" lon="2.96431">
        <ele>260</ele>
        <time>2015-12-14T10:37:56.138Z</time>
      </trkpt>
      <trkpt lat="43.58147" lon="2.96423">
        <ele>261.1</ele>
        <time>2015-12-14T10:38:02.180Z</time>
      </trkpt>
      <trkpt lat="43.58149" lon="2.96421">
        <ele>261.2</ele>
        <time>2015-12-14T10:38:03.132Z</time>
      </trkpt>
      <trkpt lat="43.58157" lon="2.96422">
        <ele>262.5</ele>
        <time>2015-12-14T10:38:08.172Z</time>
      </trkpt>
      <trkpt lat="43.58159" lon="2.96425">
        <ele>262.8</ele>
        <time>2015-12-14T10:38:09.136Z</time>
      </trkpt>
      <trkpt lat="43.58165" lon="2.96433">
        <ele>263.1</ele>
        <time>2015-12-14T10:38:11.190Z</time>
      </trkpt>
      <trkpt lat="43.58168" lon="2.96437">
        <ele>263.2</ele>
        <time>2015-12-14T10:38:12.139Z</time>
      </trkpt>
      <trkpt lat="43.58173" lon="2.96442">
        <ele>263.7</ele>
        <time>2015-12-14T10:38:14.184Z</time>
      </trkpt>
      <trkpt lat="43.58175" lon="2.96444">
        <ele>263.7</ele>
        <time>2015-12-14T10:38:15.137Z</time>
      </trkpt>
      <trkpt lat="43.58182" lon="2.9645">
        <ele>264</ele>
        <time>2015-12-14T10:38:18.175Z</time>
      </trkpt>
      <trkpt lat="43.58185" lon="2.96451">
        <ele>264.1</ele>
        <time>2015-12-14T10:38:19.135Z</time>
      </trkpt>
      <trkpt lat="43.58192" lon="2.96452">
        <ele>265</ele>
        <time>2015-12-14T10:38:23.161Z</time>
      </trkpt>
      <trkpt lat="43.58194" lon="2.96451">
        <ele>265.2</ele>
        <time>2015-12-14T10:38:24.141Z</time>
      </trkpt>
      <trkpt lat="43.58202" lon="2.96449">
        <ele>265.4</ele>
        <time>2015-12-14T10:38:28.165Z</time>
      </trkpt>
      <trkpt lat="43.58203" lon="2.96448">
        <ele>265.4</ele>
        <time>2015-12-14T10:38:29.138Z</time>
      </trkpt>
      <trkpt lat="43.58211" lon="2.96447">
        <ele>267.2</ele>
        <time>2015-12-14T10:38:33.178Z</time>
      </trkpt>
      <trkpt lat="43.58213" lon="2.96446">
        <ele>268</ele>
        <time>2015-12-14T10:38:34.139Z</time>
      </trkpt>
      <trkpt lat="43.5822" lon="2.96439">
        <ele>270.4</ele>
        <time>2015-12-14T10:38:39.164Z</time>
      </trkpt>
      <trkpt lat="43.58221" lon="2.96439">
        <ele>270.8</ele>
        <time>2015-12-14T10:38:40.134Z</time>
      </trkpt>
      <trkpt lat="43.58229" lon="2.96439">
        <ele>273.2</ele>
        <time>2015-12-14T10:38:45.167Z</time>
      </trkpt>
      <trkpt lat="43.5823" lon="2.96439">
        <ele>273.7</ele>
        <time>2015-12-14T10:38:46.135Z</time>
      </trkpt>
      <trkpt lat="43.58238" lon="2.96434">
        <ele>275</ele>
        <time>2015-12-14T10:38:53.204Z</time>
      </trkpt>
      <trkpt lat="43.5824" lon="2.96433">
        <ele>275.1</ele>
        <time>2015-12-14T10:38:54.132Z</time>
      </trkpt>
      <trkpt lat="43.58247" lon="2.96429">
        <ele>275.5</ele>
        <time>2015-12-14T10:39:01.171Z</time>
      </trkpt>
      <trkpt lat="43.58248" lon="2.96429">
        <ele>275.7</ele>
        <time>2015-12-14T10:39:02.137Z</time>
      </trkpt>
      <trkpt lat="43.58256" lon="2.9643">
        <ele>276.5</ele>
        <time>2015-12-14T10:39:06.586Z</time>
      </trkpt>
      <trkpt lat="43.58257" lon="2.9643">
        <ele>276.5</ele>
        <time>2015-12-14T10:39:07.137Z</time>
      </trkpt>
      <trkpt lat="43.58265" lon="2.96428">
        <ele>277.3</ele>
        <time>2015-12-14T10:39:13.180Z</time>
      </trkpt>
      <trkpt lat="43.58267" lon="2.96427">
        <ele>277.4</ele>
        <time>2015-12-14T10:39:14.136Z</time>
      </trkpt>
      <trkpt lat="43.58274" lon="2.96421">
        <ele>278</ele>
        <time>2015-12-14T10:39:20.195Z</time>
      </trkpt>
      <trkpt lat="43.58275" lon="2.96419">
        <ele>278.4</ele>
        <time>2015-12-14T10:39:21.187Z</time>
      </trkpt>
      <trkpt lat="43.58284" lon="2.96418">
        <ele>280.1</ele>
        <time>2015-12-14T10:39:29.169Z</time>
      </trkpt>
      <trkpt lat="43.58285" lon="2.96418">
        <ele>280.3</ele>
        <time>2015-12-14T10:39:30.140Z</time>
      </trkpt>
      <trkpt lat="43.58294" lon="2.96417">
        <ele>281.4</ele>
        <time>2015-12-14T10:39:36.167Z</time>
      </trkpt>
      <trkpt lat="43.58295" lon="2.96418">
        <ele>281.4</ele>
        <time>2015-12-14T10:39:37.136Z</time>
      </trkpt>
      <trkpt lat="43.58299" lon="2.96408">
        <ele>281.3</ele>
        <time>2015-12-14T10:39:48.177Z</time>
      </trkpt>
      <trkpt lat="43.58299" lon="2.96405">
        <ele>281.4</ele>
        <time>2015-12-14T10:39:49.143Z</time>
      </trkpt>
      <trkpt lat="43.58298" lon="2.96393">
        <ele>281.8</ele>
        <time>2015-12-14T10:39:53.174Z</time>
      </trkpt>
      <trkpt lat="43.58298" lon="2.9639">
        <ele>281.9</ele>
        <time>2015-12-14T10:39:54.134Z</time>
      </trkpt>
      <trkpt lat="43.58301" lon="2.96379">
        <ele>282.2</ele>
        <time>2015-12-14T10:39:59.168Z</time>
      </trkpt>
      <trkpt lat="43.58303" lon="2.96378">
        <ele>282.4</ele>
        <time>2015-12-14T10:40:00.137Z</time>
      </trkpt>
      <trkpt lat="43.58307" lon="2.96368">
        <ele>282.9</ele>
        <time>2015-12-14T10:40:06.185Z</time>
      </trkpt>
      <trkpt lat="43.58308" lon="2.96367">
        <ele>283.1</ele>
        <time>2015-12-14T10:40:07.140Z</time>
      </trkpt>
      <trkpt lat="43.5831" lon="2.96357">
        <ele>283.4</ele>
        <time>2015-12-14T10:40:11.174Z</time>
      </trkpt>
      <trkpt lat="43.58312" lon="2.96355">
        <ele>283.5</ele>
        <time>2015-12-14T10:40:12.140Z</time>
      </trkpt>
      <trkpt lat="43.58316" lon="2.96346">
        <ele>283.2</ele>
        <time>2015-12-14T10:40:16.531Z</time>
      </trkpt>
      <trkpt lat="43.58318" lon="2.96343">
        <ele>283.1</ele>
        <time>2015-12-14T10:40:17.137Z</time>
      </trkpt>
      <trkpt lat="43.58321" lon="2.96334">
        <ele>283.1</ele>
        <time>2015-12-14T10:40:20.176Z</time>
      </trkpt>
      <trkpt lat="43.58321" lon="2.96331">
        <ele>283</ele>
        <time>2015-12-14T10:40:21.138Z</time>
      </trkpt>
      <trkpt lat="43.58325" lon="2.96319">
        <ele>282.9</ele>
        <time>2015-12-14T10:40:25.203Z</time>
      </trkpt>
      <trkpt lat="43.58325" lon="2.96317">
        <ele>282.9</ele>
        <time>2015-12-14T10:40:26.137Z</time>
      </trkpt>
      <trkpt lat="43.5833" lon="2.96309">
        <ele>282.7</ele>
        <time>2015-12-14T10:40:29.163Z</time>
      </trkpt>
      <trkpt lat="43.58331" lon="2.96306">
        <ele>282.6</ele>
        <time>2015-12-14T10:40:30.139Z</time>
      </trkpt>
      <trkpt lat="43.58335" lon="2.96298">
        <ele>282.4</ele>
        <time>2015-12-14T10:40:33.194Z</time>
      </trkpt>
      <trkpt lat="43.58336" lon="2.96295">
        <ele>282.3</ele>
        <time>2015-12-14T10:40:34.138Z</time>
      </trkpt>
      <trkpt lat="43.58337" lon="2.96286">
        <ele>282.1</ele>
        <time>2015-12-14T10:40:37.603Z</time>
      </trkpt>
      <trkpt lat="43.58338" lon="2.96283">
        <ele>282</ele>
        <time>2015-12-14T10:40:38.137Z</time>
      </trkpt>
      <trkpt lat="43.58343" lon="2.96277">
        <ele>281.6</ele>
        <time>2015-12-14T10:40:41.179Z</time>
      </trkpt>
      <trkpt lat="43.58345" lon="2.96275">
        <ele>281.6</ele>
        <time>2015-12-14T10:40:42.138Z</time>
      </trkpt>
      <trkpt lat="43.58351" lon="2.96269">
        <ele>281.3</ele>
        <time>2015-12-14T10:40:45.164Z</time>
      </trkpt>
      <trkpt lat="43.58353" lon="2.96267">
        <ele>281.2</ele>
        <time>2015-12-14T10:40:46.142Z</time>
      </trkpt>
      <trkpt lat="43.58358" lon="2.96258">
        <ele>280.7</ele>
        <time>2015-12-14T10:40:51.159Z</time>
      </trkpt>
      <trkpt lat="43.58358" lon="2.96255">
        <ele>280.6</ele>
        <time>2015-12-14T10:40:52.132Z</time>
      </trkpt>
      <trkpt lat="43.58362" lon="2.96245">
        <ele>280.1</ele>
        <time>2015-12-14T10:40:56.177Z</time>
      </trkpt>
      <trkpt lat="43.58363" lon="2.96244">
        <ele>280.2</ele>
        <time>2015-12-14T10:40:57.138Z</time>
      </trkpt>
      <trkpt lat="43.58367" lon="2.96233">
        <ele>280.1</ele>
        <time>2015-12-14T10:41:01.186Z</time>
      </trkpt>
      <trkpt lat="43.58368" lon="2.96231">
        <ele>280</ele>
        <time>2015-12-14T10:41:02.138Z</time>
      </trkpt>
      <trkpt lat="43.58372" lon="2.9622">
        <ele>279.8</ele>
        <time>2015-12-14T10:41:06.185Z</time>
      </trkpt>
      <trkpt lat="43.58373" lon="2.96218">
        <ele>279.9</ele>
        <time>2015-12-14T10:41:07.131Z</time>
      </trkpt>
      <trkpt lat="43.58375" lon="2.96206">
        <ele>279.7</ele>
        <time>2015-12-14T10:41:11.183Z</time>
      </trkpt>
      <trkpt lat="43.58376" lon="2.96203">
        <ele>279.7</ele>
        <time>2015-12-14T10:41:12.130Z</time>
      </trkpt>
      <trkpt lat="43.58378" lon="2.96192">
        <ele>279.8</ele>
        <time>2015-12-14T10:41:16.179Z</time>
      </trkpt>
      <trkpt lat="43.58378" lon="2.9619">
        <ele>279.8</ele>
        <time>2015-12-14T10:41:17.132Z</time>
      </trkpt>
      <trkpt lat="43.58378" lon="2.96179">
        <ele>279.8</ele>
        <time>2015-12-14T10:41:22.180Z</time>
      </trkpt>
      <trkpt lat="43.58378" lon="2.96176">
        <ele>279.8</ele>
        <time>2015-12-14T10:41:23.134Z</time>
      </trkpt>
      <trkpt lat="43.58378" lon="2.96165">
        <ele>280.5</ele>
        <time>2015-12-14T10:41:28.170Z</time>
      </trkpt>
      <trkpt lat="43.58378" lon="2.96162">
        <ele>280.7</ele>
        <time>2015-12-14T10:41:29.129Z</time>
      </trkpt>
      <trkpt lat="43.58379" lon="2.9615">
        <ele>281.5</ele>
        <time>2015-12-14T10:41:34.188Z</time>
      </trkpt>
      <trkpt lat="43.5838" lon="2.96148">
        <ele>281.6</ele>
        <time>2015-12-14T10:41:35.137Z</time>
      </trkpt>
      <trkpt lat="43.58385" lon="2.96138">
        <ele>281.5</ele>
        <time>2015-12-14T10:41:39.166Z</time>
      </trkpt>
      <trkpt lat="43.58385" lon="2.96136">
        <ele>281.5</ele>
        <time>2015-12-14T10:41:40.135Z</time>
      </trkpt>
      <trkpt lat="43.58384" lon="2.96126">
        <ele>281.7</ele>
        <time>2015-12-14T10:41:44.179Z</time>
      </trkpt>
      <trkpt lat="43.58384" lon="2.96123">
        <ele>281.8</ele>
        <time>2015-12-14T10:41:45.136Z</time>
      </trkpt>
      <trkpt lat="43.58382" lon="2.96112">
        <ele>281.9</ele>
        <time>2015-12-14T10:41:49.161Z</time>
      </trkpt>
      <trkpt lat="43.58382" lon="2.96109">
        <ele>282</ele>
        <time>2015-12-14T10:41:50.134Z</time>
      </trkpt>
      <trkpt lat="43.58383" lon="2.96099">
        <ele>282.7</ele>
        <time>2015-12-14T10:41:54.181Z</time>
      </trkpt>
      <trkpt lat="43.58384" lon="2.96097">
        <ele>282.7</ele>
        <time>2015-12-14T10:41:55.134Z</time>
      </trkpt>
      <trkpt lat="43.58388" lon="2.96086">
        <ele>283.1</ele>
        <time>2015-12-14T10:42:00.215Z</time>
      </trkpt>
      <trkpt lat="43.58388" lon="2.96083">
        <ele>283</ele>
        <time>2015-12-14T10:42:01.138Z</time>
      </trkpt>
      <trkpt lat="43.58389" lon="2.96072">
        <ele>283.5</ele>
        <time>2015-12-14T10:42:07.189Z</time>
      </trkpt>
      <trkpt lat="43.58388" lon="2.96069">
        <ele>283.5</ele>
        <time>2015-12-14T10:42:08.136Z</time>
      </trkpt>
      <trkpt lat="43.58386" lon="2.96057">
        <ele>284.6</ele>
        <time>2015-12-14T10:42:16.201Z</time>
      </trkpt>
      <trkpt lat="43.58385" lon="2.96055">
        <ele>284.6</ele>
        <time>2015-12-14T10:42:17.138Z</time>
      </trkpt>
      <trkpt lat="43.5839" lon="2.96045">
        <ele>285.4</ele>
        <time>2015-12-14T10:42:24.187Z</time>
      </trkpt>
      <trkpt lat="43.58391" lon="2.96044">
        <ele>285.5</ele>
        <time>2015-12-14T10:42:25.132Z</time>
      </trkpt>
      <trkpt lat="43.58397" lon="2.96036">
        <ele>285.8</ele>
        <time>2015-12-14T10:42:30.169Z</time>
      </trkpt>
      <trkpt lat="43.58398" lon="2.96033">
        <ele>285.8</ele>
        <time>2015-12-14T10:42:31.139Z</time>
      </trkpt>
      <trkpt lat="43.58399" lon="2.96023">
        <ele>285.8</ele>
        <time>2015-12-14T10:42:36.171Z</time>
      </trkpt>
      <trkpt lat="43.58398" lon="2.9602">
        <ele>285.7</ele>
        <time>2015-12-14T10:42:37.133Z</time>
      </trkpt>
      <trkpt lat="43.584" lon="2.96008">
        <ele>285.4</ele>
        <time>2015-12-14T10:42:43.201Z</time>
      </trkpt>
      <trkpt lat="43.584" lon="2.96007">
        <ele>285.6</ele>
        <time>2015-12-14T10:42:44.150Z</time>
      </trkpt>
      <trkpt lat="43.58405" lon="2.95999">
        <ele>285.5</ele>
        <time>2015-12-14T10:42:49.222Z</time>
      </trkpt>
      <trkpt lat="43.58405" lon="2.95996">
        <ele>285.5</ele>
        <time>2015-12-14T10:42:50.135Z</time>
      </trkpt>
      <trkpt lat="43.58409" lon="2.95985">
        <ele>285.6</ele>
        <time>2015-12-14T10:42:55.203Z</time>
      </trkpt>
      <trkpt lat="43.58409" lon="2.95983">
        <ele>285.5</ele>
        <time>2015-12-14T10:42:56.152Z</time>
      </trkpt>
      <trkpt lat="43.58413" lon="2.95973">
        <ele>284.4</ele>
        <time>2015-12-14T10:43:02.172Z</time>
      </trkpt>
      <trkpt lat="43.58414" lon="2.95972">
        <ele>284.3</ele>
        <time>2015-12-14T10:43:03.134Z</time>
      </trkpt>
      <trkpt lat="43.58421" lon="2.95965">
        <ele>283.3</ele>
        <time>2015-12-14T10:43:09.171Z</time>
      </trkpt>
      <trkpt lat="43.58424" lon="2.95965">
        <ele>283.1</ele>
        <time>2015-12-14T10:43:10.175Z</time>
      </trkpt>
      <trkpt lat="43.58432" lon="2.95965">
        <ele>282.8</ele>
        <time>2015-12-14T10:43:13.179Z</time>
      </trkpt>
      <trkpt lat="43.58434" lon="2.95965">
        <ele>282.6</ele>
        <time>2015-12-14T10:43:14.136Z</time>
      </trkpt>
      <trkpt lat="43.58442" lon="2.95966">
        <ele>281.8</ele>
        <time>2015-12-14T10:43:28.168Z</time>
      </trkpt>
      <trkpt lat="43.58451" lon="2.9597">
        <ele>281.7</ele>
        <time>2015-12-14T10:43:29.134Z</time>
      </trkpt>
      <trkpt lat="43.5846" lon="2.95974">
        <ele>282.1</ele>
        <time>2015-12-14T10:43:43.191Z</time>
      </trkpt>
      <trkpt lat="43.5846" lon="2.95974">
        <ele>282.3</ele>
        <time>2015-12-14T10:43:44.133Z</time>
      </trkpt>
      <trkpt lat="43.58464" lon="2.95963">
        <ele>285.4</ele>
        <time>2015-12-14T10:43:53.185Z</time>
      </trkpt>
      <trkpt lat="43.58466" lon="2.95962">
        <ele>285.6</ele>
        <time>2015-12-14T10:43:54.159Z</time>
      </trkpt>
      <trkpt lat="43.58471" lon="2.95956">
        <ele>286.4</ele>
        <time>2015-12-14T10:43:57.529Z</time>
      </trkpt>
      <trkpt lat="43.58473" lon="2.95954">
        <ele>286.9</ele>
        <time>2015-12-14T10:43:58.140Z</time>
      </trkpt>
      <trkpt lat="43.58478" lon="2.95953">
        <ele>287.9</ele>
        <time>2015-12-14T10:43:59.191Z</time>
      </trkpt>
      <trkpt lat="43.58483" lon="2.95952">
        <ele>289</ele>
        <time>2015-12-14T10:44:00.174Z</time>
      </trkpt>
      <trkpt lat="43.58492" lon="2.95949">
        <ele>290.4</ele>
        <time>2015-12-14T10:44:03.165Z</time>
      </trkpt>
      <trkpt lat="43.58494" lon="2.95948">
        <ele>290.8</ele>
        <time>2015-12-14T10:44:04.135Z</time>
      </trkpt>
      <trkpt lat="43.585" lon="2.95941">
        <ele>292</ele>
        <time>2015-12-14T10:44:07.662Z</time>
      </trkpt>
      <trkpt lat="43.58502" lon="2.95939">
        <ele>292.4</ele>
        <time>2015-12-14T10:44:08.136Z</time>
      </trkpt>
      <trkpt lat="43.5851" lon="2.95934">
        <ele>293.8</ele>
        <time>2015-12-14T10:44:11.171Z</time>
      </trkpt>
      <trkpt lat="43.58513" lon="2.95933">
        <ele>294.2</ele>
        <time>2015-12-14T10:44:12.139Z</time>
      </trkpt>
      <trkpt lat="43.5852" lon="2.95932">
        <ele>295.2</ele>
        <time>2015-12-14T10:44:15.169Z</time>
      </trkpt>
      <trkpt lat="43.58523" lon="2.95932">
        <ele>295.5</ele>
        <time>2015-12-14T10:44:16.135Z</time>
      </trkpt>
      <trkpt lat="43.58531" lon="2.95932">
        <ele>296.7</ele>
        <time>2015-12-14T10:44:19.214Z</time>
      </trkpt>
      <trkpt lat="43.58533" lon="2.9593">
        <ele>297.1</ele>
        <time>2015-12-14T10:44:20.139Z</time>
      </trkpt>
      <trkpt lat="43.58541" lon="2.95928">
        <ele>297.8</ele>
        <time>2015-12-14T10:44:23.167Z</time>
      </trkpt>
      <trkpt lat="43.58543" lon="2.95928">
        <ele>298.1</ele>
        <time>2015-12-14T10:44:24.131Z</time>
      </trkpt>
      <trkpt lat="43.58549" lon="2.95923">
        <ele>299.2</ele>
        <time>2015-12-14T10:44:27.170Z</time>
      </trkpt>
      <trkpt lat="43.58551" lon="2.95921">
        <ele>299.4</ele>
        <time>2015-12-14T10:44:28.136Z</time>
      </trkpt>
      <trkpt lat="43.58557" lon="2.95913">
        <ele>300.4</ele>
        <time>2015-12-14T10:44:32.512Z</time>
      </trkpt>
      <trkpt lat="43.58559" lon="2.95911">
        <ele>300.6</ele>
        <time>2015-12-14T10:44:33.134Z</time>
      </trkpt>
      <trkpt lat="43.58562" lon="2.95901">
        <ele>301.6</ele>
        <time>2015-12-14T10:44:37.184Z</time>
      </trkpt>
      <trkpt lat="43.58562" lon="2.95899">
        <ele>301.7</ele>
        <time>2015-12-14T10:44:38.144Z</time>
      </trkpt>
      <trkpt lat="43.58564" lon="2.95888">
        <ele>303.1</ele>
        <time>2015-12-14T10:44:43.254Z</time>
      </trkpt>
      <trkpt lat="43.58565" lon="2.95886">
        <ele>303.3</ele>
        <time>2015-12-14T10:44:44.134Z</time>
      </trkpt>
      <trkpt lat="43.58567" lon="2.95875">
        <ele>305.5</ele>
        <time>2015-12-14T10:44:50.184Z</time>
      </trkpt>
      <trkpt lat="43.58567" lon="2.95872">
        <ele>306</ele>
        <time>2015-12-14T10:44:51.143Z</time>
      </trkpt>
      <trkpt lat="43.5857" lon="2.95861">
        <ele>307.6</ele>
        <time>2015-12-14T10:44:56.204Z</time>
      </trkpt>
      <trkpt lat="43.58571" lon="2.95859">
        <ele>307.8</ele>
        <time>2015-12-14T10:44:57.138Z</time>
      </trkpt>
      <trkpt lat="43.58577" lon="2.95852">
        <ele>309.1</ele>
        <time>2015-12-14T10:45:03.168Z</time>
      </trkpt>
      <trkpt lat="43.58578" lon="2.95851">
        <ele>309.3</ele>
        <time>2015-12-14T10:45:04.136Z</time>
      </trkpt>
      <trkpt lat="43.58584" lon="2.95845">
        <ele>310.6</ele>
        <time>2015-12-14T10:45:10.167Z</time>
      </trkpt>
      <trkpt lat="43.58585" lon="2.95843">
        <ele>310.8</ele>
        <time>2015-12-14T10:45:11.140Z</time>
      </trkpt>
      <trkpt lat="43.58592" lon="2.95838">
        <ele>311.7</ele>
        <time>2015-12-14T10:45:16.201Z</time>
      </trkpt>
      <trkpt lat="43.58593" lon="2.95838">
        <ele>311.8</ele>
        <time>2015-12-14T10:45:17.139Z</time>
      </trkpt>
      <trkpt lat="43.58596" lon="2.95838">
        <ele>311.9</ele>
        <time>2015-12-14T10:45:19.174Z</time>
      </trkpt>
      <trkpt lat="43.58597" lon="2.95837">
        <ele>312</ele>
        <time>2015-12-14T10:45:20.137Z</time>
      </trkpt>
      <trkpt lat="43.58604" lon="2.95833">
        <ele>312.6</ele>
        <time>2015-12-14T10:45:26.172Z</time>
      </trkpt>
      <trkpt lat="43.58606" lon="2.95832">
        <ele>312.6</ele>
        <time>2015-12-14T10:45:27.139Z</time>
      </trkpt>
      <trkpt lat="43.58606" lon="2.95832">
        <ele>312.6</ele>
        <time>2015-12-14T10:45:27.177Z</time>
      </trkpt>
      <trkpt lat="43.58608" lon="2.9583">
        <ele>312.9</ele>
        <time>2015-12-14T10:45:29.537Z</time>
      </trkpt>
      <trkpt lat="43.58609" lon="2.95829">
        <ele>313.1</ele>
        <time>2015-12-14T10:45:30.133Z</time>
      </trkpt>
      <trkpt lat="43.58617" lon="2.95823">
        <ele>314.2</ele>
        <time>2015-12-14T10:45:35.167Z</time>
      </trkpt>
      <trkpt lat="43.58618" lon="2.95822">
        <ele>314.3</ele>
        <time>2015-12-14T10:45:36.135Z</time>
      </trkpt>
      <trkpt lat="43.58623" lon="2.95814">
        <ele>315.4</ele>
        <time>2015-12-14T10:45:42.194Z</time>
      </trkpt>
      <trkpt lat="43.58624" lon="2.95812">
        <ele>315.7</ele>
        <time>2015-12-14T10:45:43.140Z</time>
      </trkpt>
      <trkpt lat="43.5863" lon="2.95804">
        <ele>317.4</ele>
        <time>2015-12-14T10:45:49.206Z</time>
      </trkpt>
      <trkpt lat="43.58632" lon="2.95804">
        <ele>317.6</ele>
        <time>2015-12-14T10:45:50.134Z</time>
      </trkpt>
      <trkpt lat="43.58639" lon="2.95796">
        <ele>318.7</ele>
        <time>2015-12-14T10:45:57.187Z</time>
      </trkpt>
      <trkpt lat="43.58638" lon="2.95793">
        <ele>319.3</ele>
        <time>2015-12-14T10:45:58.137Z</time>
      </trkpt>
      <trkpt lat="43.58644" lon="2.95783">
        <ele>321.2</ele>
        <time>2015-12-14T10:46:05.217Z</time>
      </trkpt>
      <trkpt lat="43.58645" lon="2.95782">
        <ele>321.4</ele>
        <time>2015-12-14T10:46:06.133Z</time>
      </trkpt>
      <trkpt lat="43.5865" lon="2.95773">
        <ele>322.8</ele>
        <time>2015-12-14T10:46:12.192Z</time>
      </trkpt>
      <trkpt lat="43.5865" lon="2.95771">
        <ele>322.8</ele>
        <time>2015-12-14T10:46:13.146Z</time>
      </trkpt>
      <trkpt lat="43.58655" lon="2.95763">
        <ele>324.1</ele>
        <time>2015-12-14T10:46:19.172Z</time>
      </trkpt>
      <trkpt lat="43.58657" lon="2.95762">
        <ele>324.5</ele>
        <time>2015-12-14T10:46:20.133Z</time>
      </trkpt>
      <trkpt lat="43.58665" lon="2.95756">
        <ele>325.9</ele>
        <time>2015-12-14T10:46:27.192Z</time>
      </trkpt>
      <trkpt lat="43.58665" lon="2.95755">
        <ele>326.1</ele>
        <time>2015-12-14T10:46:28.140Z</time>
      </trkpt>
      <trkpt lat="43.58669" lon="2.95744">
        <ele>327.1</ele>
        <time>2015-12-14T10:46:34.193Z</time>
      </trkpt>
      <trkpt lat="43.58669" lon="2.95741">
        <ele>327.3</ele>
        <time>2015-12-14T10:46:35.144Z</time>
      </trkpt>
      <trkpt lat="43.58672" lon="2.95731">
        <ele>328</ele>
        <time>2015-12-14T10:46:40.156Z</time>
      </trkpt>
      <trkpt lat="43.58672" lon="2.95729">
        <ele>328.1</ele>
        <time>2015-12-14T10:46:41.135Z</time>
      </trkpt>
      <trkpt lat="43.58679" lon="2.95723">
        <ele>328.7</ele>
        <time>2015-12-14T10:46:51.177Z</time>
      </trkpt>
      <trkpt lat="43.5868" lon="2.95724">
        <ele>328.7</ele>
        <time>2015-12-14T10:46:52.187Z</time>
      </trkpt>
      <trkpt lat="43.58683" lon="2.95716">
        <ele>328.7</ele>
        <time>2015-12-14T10:46:58.175Z</time>
      </trkpt>
      <trkpt lat="43.58684" lon="2.95713">
        <ele>328.7</ele>
        <time>2015-12-14T10:46:59.134Z</time>
      </trkpt>
      <trkpt lat="43.58687" lon="2.95709">
        <ele>328.8</ele>
        <time>2015-12-14T10:47:02.197Z</time>
      </trkpt>
      <trkpt lat="43.58688" lon="2.95708">
        <ele>328.8</ele>
        <time>2015-12-14T10:47:03.146Z</time>
      </trkpt>
      <trkpt lat="43.58692" lon="2.95704">
        <ele>328.7</ele>
        <time>2015-12-14T10:51:59.167Z</time>
      </trkpt>
      <trkpt lat="43.58694" lon="2.95706">
        <ele>314.5</ele>
        <time>2015-12-14T10:52:00.191Z</time>
      </trkpt>
      <trkpt lat="43.58701" lon="2.95698">
        <ele>314.5</ele>
        <time>2015-12-14T10:52:09.181Z</time>
      </trkpt>
      <trkpt lat="43.58702" lon="2.95698">
        <ele>314.5</ele>
        <time>2015-12-14T10:52:10.133Z</time>
      </trkpt>
      <trkpt lat="43.58709" lon="2.95694">
        <ele>314.6</ele>
        <time>2015-12-14T10:52:14.199Z</time>
      </trkpt>
      <trkpt lat="43.58711" lon="2.95695">
        <ele>314.6</ele>
        <time>2015-12-14T10:52:15.132Z</time>
      </trkpt>
      <trkpt lat="43.5872" lon="2.95696">
        <ele>314.7</ele>
        <time>2015-12-14T10:52:21.177Z</time>
      </trkpt>
      <trkpt lat="43.58721" lon="2.95695">
        <ele>314.8</ele>
        <time>2015-12-14T10:52:22.144Z</time>
      </trkpt>
      <trkpt lat="43.5873" lon="2.95693">
        <ele>315.3</ele>
        <time>2015-12-14T10:52:29.180Z</time>
      </trkpt>
      <trkpt lat="43.58731" lon="2.95693">
        <ele>315.3</ele>
        <time>2015-12-14T10:52:30.136Z</time>
      </trkpt>
      <trkpt lat="43.5874" lon="2.95696">
        <ele>315.9</ele>
        <time>2015-12-14T10:52:38.160Z</time>
      </trkpt>
      <trkpt lat="43.58741" lon="2.95696">
        <ele>316</ele>
        <time>2015-12-14T10:52:39.130Z</time>
      </trkpt>
      <trkpt lat="43.58746" lon="2.95703">
        <ele>316.5</ele>
        <time>2015-12-14T10:52:43.168Z</time>
      </trkpt>
      <trkpt lat="43.58748" lon="2.95704">
        <ele>316.5</ele>
        <time>2015-12-14T10:52:44.132Z</time>
      </trkpt>
      <trkpt lat="43.58757" lon="2.95705">
        <ele>319</ele>
        <time>2015-12-14T10:52:52.176Z</time>
      </trkpt>
      <trkpt lat="43.58758" lon="2.95705">
        <ele>319.1</ele>
        <time>2015-12-14T10:52:53.134Z</time>
      </trkpt>
      <trkpt lat="43.58767" lon="2.95705">
        <ele>318.9</ele>
        <time>2015-12-14T10:53:00.215Z</time>
      </trkpt>
      <trkpt lat="43.58768" lon="2.95705">
        <ele>318.9</ele>
        <time>2015-12-14T10:53:01.136Z</time>
      </trkpt>
      <trkpt lat="43.58776" lon="2.95705">
        <ele>319.6</ele>
        <time>2015-12-14T10:53:06.179Z</time>
      </trkpt>
      <trkpt lat="43.58777" lon="2.95705">
        <ele>319.7</ele>
        <time>2015-12-14T10:53:07.136Z</time>
      </trkpt>
      <trkpt lat="43.58785" lon="2.95698">
        <ele>321</ele>
        <time>2015-12-14T10:53:14.165Z</time>
      </trkpt>
      <trkpt lat="43.58786" lon="2.95696">
        <ele>321.3</ele>
        <time>2015-12-14T10:53:15.135Z</time>
      </trkpt>
      <trkpt lat="43.58794" lon="2.95692">
        <ele>323.1</ele>
        <time>2015-12-14T10:53:23.188Z</time>
      </trkpt>
      <trkpt lat="43.58795" lon="2.95692">
        <ele>323.4</ele>
        <time>2015-12-14T10:53:24.136Z</time>
      </trkpt>
      <trkpt lat="43.58804" lon="2.95693">
        <ele>328.3</ele>
        <time>2015-12-14T10:53:32.177Z</time>
      </trkpt>
      <trkpt lat="43.58805" lon="2.95693">
        <ele>328.8</ele>
        <time>2015-12-14T10:53:33.138Z</time>
      </trkpt>
      <trkpt lat="43.58814" lon="2.95689">
        <ele>330.4</ele>
        <time>2015-12-14T10:53:41.276Z</time>
      </trkpt>
      <trkpt lat="43.58815" lon="2.95689">
        <ele>330.7</ele>
        <time>2015-12-14T10:53:42.133Z</time>
      </trkpt>
      <trkpt lat="43.58823" lon="2.95688">
        <ele>333.6</ele>
        <time>2015-12-14T10:53:49.175Z</time>
      </trkpt>
      <trkpt lat="43.58826" lon="2.95689">
        <ele>334.5</ele>
        <time>2015-12-14T10:53:50.132Z</time>
      </trkpt>
      <trkpt lat="43.58834" lon="2.95691">
        <ele>337.8</ele>
        <time>2015-12-14T10:53:56.192Z</time>
      </trkpt>
      <trkpt lat="43.58835" lon="2.95692">
        <ele>338.5</ele>
        <time>2015-12-14T10:53:57.134Z</time>
      </trkpt>
      <trkpt lat="43.58844" lon="2.95692">
        <ele>339.6</ele>
        <time>2015-12-14T10:54:05.171Z</time>
      </trkpt>
      <trkpt lat="43.58845" lon="2.95691">
        <ele>340</ele>
        <time>2015-12-14T10:54:06.138Z</time>
      </trkpt>
      <trkpt lat="43.58853" lon="2.95688">
        <ele>342.6</ele>
        <time>2015-12-14T10:54:14.188Z</time>
      </trkpt>
      <trkpt lat="43.58854" lon="2.95688">
        <ele>342.7</ele>
        <time>2015-12-14T10:54:15.135Z</time>
      </trkpt>
      <trkpt lat="43.58861" lon="2.95688">
        <ele>343.5</ele>
        <time>2015-12-14T10:54:20.179Z</time>
      </trkpt>
      <trkpt lat="43.58863" lon="2.95688">
        <ele>343.7</ele>
        <time>2015-12-14T10:54:21.131Z</time>
      </trkpt>
      <trkpt lat="43.58872" lon="2.95686">
        <ele>343.8</ele>
        <time>2015-12-14T10:54:27.589Z</time>
      </trkpt>
      <trkpt lat="43.58873" lon="2.95685">
        <ele>344.1</ele>
        <time>2015-12-14T10:54:28.139Z</time>
      </trkpt>
      <trkpt lat="43.58875" lon="2.95673">
        <ele>346</ele>
        <time>2015-12-14T10:54:35.169Z</time>
      </trkpt>
      <trkpt lat="43.58875" lon="2.95671">
        <ele>346.1</ele>
        <time>2015-12-14T10:54:36.139Z</time>
      </trkpt>
      <trkpt lat="43.58878" lon="2.95661">
        <ele>346.7</ele>
        <time>2015-12-14T10:54:42.191Z</time>
      </trkpt>
      <trkpt lat="43.58879" lon="2.9566">
        <ele>346.8</ele>
        <time>2015-12-14T10:54:43.138Z</time>
      </trkpt>
      <trkpt lat="43.58884" lon="2.95651">
        <ele>347.1</ele>
        <time>2015-12-14T10:54:48.183Z</time>
      </trkpt>
      <trkpt lat="43.58884" lon="2.95649">
        <ele>347.1</ele>
        <time>2015-12-14T10:54:49.141Z</time>
      </trkpt>
      <trkpt lat="43.58887" lon="2.95637">
        <ele>349.4</ele>
        <time>2015-12-14T10:54:58.168Z</time>
      </trkpt>
      <trkpt lat="43.58886" lon="2.95636">
        <ele>349.8</ele>
        <time>2015-12-14T10:54:59.136Z</time>
      </trkpt>
      <trkpt lat="43.58881" lon="2.95627">
        <ele>352.6</ele>
        <time>2015-12-14T10:55:06.168Z</time>
      </trkpt>
      <trkpt lat="43.58881" lon="2.95626">
        <ele>352.9</ele>
        <time>2015-12-14T10:55:07.137Z</time>
      </trkpt>
      <trkpt lat="43.58876" lon="2.95615">
        <ele>354.7</ele>
        <time>2015-12-14T10:55:14.188Z</time>
      </trkpt>
      <trkpt lat="43.58875" lon="2.95613">
        <ele>354.7</ele>
        <time>2015-12-14T10:55:15.133Z</time>
      </trkpt>
      <trkpt lat="43.58871" lon="2.95604">
        <ele>355.3</ele>
        <time>2015-12-14T10:55:20.174Z</time>
      </trkpt>
      <trkpt lat="43.5887" lon="2.95602">
        <ele>355.4</ele>
        <time>2015-12-14T10:55:21.136Z</time>
      </trkpt>
      <trkpt lat="43.58863" lon="2.95595">
        <ele>356.1</ele>
        <time>2015-12-14T10:55:28.165Z</time>
      </trkpt>
      <trkpt lat="43.58862" lon="2.95595">
        <ele>356.3</ele>
        <time>2015-12-14T10:55:29.132Z</time>
      </trkpt>
      <trkpt lat="43.58858" lon="2.95587">
        <ele>357.5</ele>
        <time>2015-12-14T10:55:36.330Z</time>
      </trkpt>
      <trkpt lat="43.58857" lon="2.95585">
        <ele>357.5</ele>
        <time>2015-12-14T10:55:37.142Z</time>
      </trkpt>
      <trkpt lat="43.58853" lon="2.95574">
        <ele>357.5</ele>
        <time>2015-12-14T10:55:44.184Z</time>
      </trkpt>
      <trkpt lat="43.58853" lon="2.95573">
        <ele>357.4</ele>
        <time>2015-12-14T10:55:45.143Z</time>
      </trkpt>
      <trkpt lat="43.58854" lon="2.95561">
        <ele>356.9</ele>
        <time>2015-12-14T10:55:54.176Z</time>
      </trkpt>
      <trkpt lat="43.58855" lon="2.95559">
        <ele>357</ele>
        <time>2015-12-14T10:55:55.135Z</time>
      </trkpt>
      <trkpt lat="43.58856" lon="2.95547">
        <ele>356.8</ele>
        <time>2015-12-14T10:56:01.194Z</time>
      </trkpt>
      <trkpt lat="43.58856" lon="2.95545">
        <ele>356.7</ele>
        <time>2015-12-14T10:56:02.139Z</time>
      </trkpt>
      <trkpt lat="43.58854" lon="2.95536">
        <ele>355.8</ele>
        <time>2015-12-14T10:56:07.202Z</time>
      </trkpt>
      <trkpt lat="43.58853" lon="2.95533">
        <ele>355.7</ele>
        <time>2015-12-14T10:56:08.141Z</time>
      </trkpt>
      <trkpt lat="43.58846" lon="2.95526">
        <ele>353.5</ele>
        <time>2015-12-14T10:56:20.186Z</time>
      </trkpt>
      <trkpt lat="43.58845" lon="2.95525">
        <ele>353.4</ele>
        <time>2015-12-14T10:56:21.136Z</time>
      </trkpt>
      <trkpt lat="43.58838" lon="2.9552">
        <ele>353.3</ele>
        <time>2015-12-14T10:56:27.168Z</time>
      </trkpt>
      <trkpt lat="43.58837" lon="2.95519">
        <ele>353.3</ele>
        <time>2015-12-14T10:56:28.136Z</time>
      </trkpt>
      <trkpt lat="43.58831" lon="2.95511">
        <ele>353.3</ele>
        <time>2015-12-14T10:56:33.172Z</time>
      </trkpt>
      <trkpt lat="43.5883" lon="2.9551">
        <ele>353.3</ele>
        <time>2015-12-14T10:56:34.131Z</time>
      </trkpt>
      <trkpt lat="43.58826" lon="2.95499">
        <ele>353.6</ele>
        <time>2015-12-14T10:56:40.177Z</time>
      </trkpt>
      <trkpt lat="43.58826" lon="2.95497">
        <ele>353.6</ele>
        <time>2015-12-14T10:56:41.137Z</time>
      </trkpt>
      <trkpt lat="43.58821" lon="2.95488">
        <ele>353.6</ele>
        <time>2015-12-14T10:56:46.180Z</time>
      </trkpt>
      <trkpt lat="43.5882" lon="2.95486">
        <ele>353.6</ele>
        <time>2015-12-14T10:56:47.145Z</time>
      </trkpt>
      <trkpt lat="43.58818" lon="2.95476">
        <ele>353.5</ele>
        <time>2015-12-14T10:56:51.178Z</time>
      </trkpt>
      <trkpt lat="43.58817" lon="2.95473">
        <ele>353.5</ele>
        <time>2015-12-14T10:56:52.140Z</time>
      </trkpt>
      <trkpt lat="43.58815" lon="2.95463">
        <ele>353.3</ele>
        <time>2015-12-14T10:56:56.193Z</time>
      </trkpt>
      <trkpt lat="43.58814" lon="2.95461">
        <ele>353.2</ele>
        <time>2015-12-14T10:56:57.137Z</time>
      </trkpt>
      <trkpt lat="43.58811" lon="2.95452">
        <ele>352.8</ele>
        <time>2015-12-14T10:57:01.185Z</time>
      </trkpt>
      <trkpt lat="43.5881" lon="2.9545">
        <ele>352.5</ele>
        <time>2015-12-14T10:57:02.140Z</time>
      </trkpt>
      <trkpt lat="43.58805" lon="2.95441">
        <ele>351.9</ele>
        <time>2015-12-14T10:57:07.191Z</time>
      </trkpt>
      <trkpt lat="43.58804" lon="2.95439">
        <ele>351.9</ele>
        <time>2015-12-14T10:57:08.140Z</time>
      </trkpt>
      <trkpt lat="43.58799" lon="2.95429">
        <ele>351.4</ele>
        <time>2015-12-14T10:57:13.200Z</time>
      </trkpt>
      <trkpt lat="43.58798" lon="2.95427">
        <ele>351.3</ele>
        <time>2015-12-14T10:57:14.146Z</time>
      </trkpt>
      <trkpt lat="43.58793" lon="2.95418">
        <ele>351.1</ele>
        <time>2015-12-14T10:57:19.195Z</time>
      </trkpt>
      <trkpt lat="43.58792" lon="2.95416">
        <ele>350.9</ele>
        <time>2015-12-14T10:57:20.141Z</time>
      </trkpt>
      <trkpt lat="43.5879" lon="2.95406">
        <ele>350.8</ele>
        <time>2015-12-14T10:57:24.185Z</time>
      </trkpt>
      <trkpt lat="43.5879" lon="2.95404">
        <ele>350.8</ele>
        <time>2015-12-14T10:57:25.137Z</time>
      </trkpt>
      <trkpt lat="43.58787" lon="2.95394">
        <ele>350.3</ele>
        <time>2015-12-14T10:57:30.176Z</time>
      </trkpt>
      <trkpt lat="43.58786" lon="2.95392">
        <ele>350.1</ele>
        <time>2015-12-14T10:57:31.144Z</time>
      </trkpt>
      <trkpt lat="43.58785" lon="2.95382">
        <ele>349.9</ele>
        <time>2015-12-14T10:57:36.177Z</time>
      </trkpt>
      <trkpt lat="43.58785" lon="2.95379">
        <ele>350</ele>
        <time>2015-12-14T10:57:37.137Z</time>
      </trkpt>
      <trkpt lat="43.58784" lon="2.95368">
        <ele>349.8</ele>
        <time>2015-12-14T10:57:41.178Z</time>
      </trkpt>
      <trkpt lat="43.58784" lon="2.95366">
        <ele>349.8</ele>
        <time>2015-12-14T10:57:42.145Z</time>
      </trkpt>
      <trkpt lat="43.58783" lon="2.95355">
        <ele>349.5</ele>
        <time>2015-12-14T10:57:47.185Z</time>
      </trkpt>
      <trkpt lat="43.58783" lon="2.95353">
        <ele>349.4</ele>
        <time>2015-12-14T10:57:48.136Z</time>
      </trkpt>
      <trkpt lat="43.58781" lon="2.95344">
        <ele>349.3</ele>
        <time>2015-12-14T10:57:52.193Z</time>
      </trkpt>
      <trkpt lat="43.58782" lon="2.95339">
        <ele>349.2</ele>
        <time>2015-12-14T10:57:53.135Z</time>
      </trkpt>
      <trkpt lat="43.58781" lon="2.95328">
        <ele>349</ele>
        <time>2015-12-14T10:57:56.194Z</time>
      </trkpt>
      <trkpt lat="43.58781" lon="2.95324">
        <ele>348.9</ele>
        <time>2015-12-14T10:57:57.137Z</time>
      </trkpt>
      <trkpt lat="43.58779" lon="2.95313">
        <ele>348.6</ele>
        <time>2015-12-14T10:58:02.171Z</time>
      </trkpt>
      <trkpt lat="43.58779" lon="2.95311">
        <ele>348.7</ele>
        <time>2015-12-14T10:58:03.135Z</time>
      </trkpt>
      <trkpt lat="43.58776" lon="2.95302">
        <ele>350.4</ele>
        <time>2015-12-14T10:58:07.184Z</time>
      </trkpt>
      <trkpt lat="43.58776" lon="2.95299">
        <ele>350.5</ele>
        <time>2015-12-14T10:58:08.139Z</time>
      </trkpt>
      <trkpt lat="43.58775" lon="2.95287">
        <ele>350.9</ele>
        <time>2015-12-14T10:58:12.206Z</time>
      </trkpt>
      <trkpt lat="43.58775" lon="2.95284">
        <ele>351.2</ele>
        <time>2015-12-14T10:58:13.139Z</time>
      </trkpt>
      <trkpt lat="43.58774" lon="2.95272">
        <ele>352.7</ele>
        <time>2015-12-14T10:58:18.180Z</time>
      </trkpt>
      <trkpt lat="43.58775" lon="2.95269">
        <ele>353.2</ele>
        <time>2015-12-14T10:58:19.139Z</time>
      </trkpt>
      <trkpt lat="43.58776" lon="2.95258">
        <ele>354</ele>
        <time>2015-12-14T10:58:23.168Z</time>
      </trkpt>
      <trkpt lat="43.58778" lon="2.95254">
        <ele>354.1</ele>
        <time>2015-12-14T10:58:24.134Z</time>
      </trkpt>
      <trkpt lat="43.58779" lon="2.95243">
        <ele>354.3</ele>
        <time>2015-12-14T10:58:29.158Z</time>
      </trkpt>
      <trkpt lat="43.5878" lon="2.9524">
        <ele>354.5</ele>
        <time>2015-12-14T10:58:30.132Z</time>
      </trkpt>
      <trkpt lat="43.58781" lon="2.95231">
        <ele>355.1</ele>
        <time>2015-12-14T10:58:34.167Z</time>
      </trkpt>
      <trkpt lat="43.58781" lon="2.95228">
        <ele>355.2</ele>
        <time>2015-12-14T10:58:35.132Z</time>
      </trkpt>
      <trkpt lat="43.58782" lon="2.95216">
        <ele>355.8</ele>
        <time>2015-12-14T10:58:40.176Z</time>
      </trkpt>
      <trkpt lat="43.58782" lon="2.95213">
        <ele>355.9</ele>
        <time>2015-12-14T10:58:41.418Z</time>
      </trkpt>
      <trkpt lat="43.58782" lon="2.95203">
        <ele>356.4</ele>
        <time>2015-12-14T10:58:45.170Z</time>
      </trkpt>
      <trkpt lat="43.58782" lon="2.952">
        <ele>356.6</ele>
        <time>2015-12-14T10:58:46.133Z</time>
      </trkpt>
      <trkpt lat="43.58782" lon="2.95189">
        <ele>357.2</ele>
        <time>2015-12-14T10:58:50.167Z</time>
      </trkpt>
      <trkpt lat="43.58782" lon="2.95186">
        <ele>357.3</ele>
        <time>2015-12-14T10:58:51.132Z</time>
      </trkpt>
      <trkpt lat="43.58783" lon="2.95175">
        <ele>358</ele>
        <time>2015-12-14T10:58:55.174Z</time>
      </trkpt>
      <trkpt lat="43.58784" lon="2.95173">
        <ele>358.1</ele>
        <time>2015-12-14T10:58:56.136Z</time>
      </trkpt>
      <trkpt lat="43.58784" lon="2.95162">
        <ele>360</ele>
        <time>2015-12-14T10:59:02.187Z</time>
      </trkpt>
      <trkpt lat="43.58785" lon="2.9516">
        <ele>360.2</ele>
        <time>2015-12-14T10:59:03.139Z</time>
      </trkpt>
      <trkpt lat="43.58789" lon="2.95149">
        <ele>361.1</ele>
        <time>2015-12-14T10:59:09.169Z</time>
      </trkpt>
      <trkpt lat="43.5879" lon="2.95147">
        <ele>361.2</ele>
        <time>2015-12-14T10:59:10.134Z</time>
      </trkpt>
      <trkpt lat="43.58795" lon="2.95138">
        <ele>361.4</ele>
        <time>2015-12-14T10:59:15.170Z</time>
      </trkpt>
      <trkpt lat="43.58797" lon="2.95137">
        <ele>361.6</ele>
        <time>2015-12-14T10:59:16.129Z</time>
      </trkpt>
      <trkpt lat="43.58805" lon="2.95135">
        <ele>362.4</ele>
        <time>2015-12-14T10:59:20.230Z</time>
      </trkpt>
      <trkpt lat="43.58807" lon="2.95135">
        <ele>362.6</ele>
        <time>2015-12-14T10:59:21.134Z</time>
      </trkpt>
      <trkpt lat="43.58813" lon="2.95132">
        <ele>363.5</ele>
        <time>2015-12-14T10:59:25.193Z</time>
      </trkpt>
      <trkpt lat="43.58817" lon="2.95132">
        <ele>363.8</ele>
        <time>2015-12-14T10:59:26.140Z</time>
      </trkpt>
      <trkpt lat="43.58825" lon="2.9513">
        <ele>364.6</ele>
        <time>2015-12-14T10:59:30.189Z</time>
      </trkpt>
      <trkpt lat="43.58827" lon="2.9513">
        <ele>364.8</ele>
        <time>2015-12-14T10:59:31.135Z</time>
      </trkpt>
      <trkpt lat="43.58836" lon="2.95128">
        <ele>365.9</ele>
        <time>2015-12-14T10:59:36.164Z</time>
      </trkpt>
      <trkpt lat="43.58838" lon="2.95128">
        <ele>366.3</ele>
        <time>2015-12-14T10:59:37.134Z</time>
      </trkpt>
      <trkpt lat="43.58845" lon="2.95126">
        <ele>368.1</ele>
        <time>2015-12-14T10:59:42.168Z</time>
      </trkpt>
      <trkpt lat="43.58847" lon="2.95126">
        <ele>368.3</ele>
        <time>2015-12-14T10:59:43.136Z</time>
      </trkpt>
      <trkpt lat="43.58854" lon="2.95123">
        <ele>369.4</ele>
        <time>2015-12-14T10:59:47.187Z</time>
      </trkpt>
      <trkpt lat="43.58856" lon="2.95123">
        <ele>369.8</ele>
        <time>2015-12-14T10:59:48.132Z</time>
      </trkpt>
      <trkpt lat="43.58864" lon="2.95121">
        <ele>370.6</ele>
        <time>2015-12-14T10:59:52.187Z</time>
      </trkpt>
      <trkpt lat="43.58866" lon="2.95121">
        <ele>370.7</ele>
        <time>2015-12-14T10:59:53.138Z</time>
      </trkpt>
      <trkpt lat="43.58871" lon="2.95121">
        <ele>371.2</ele>
        <time>2015-12-14T10:59:56.192Z</time>
      </trkpt>
      <trkpt lat="43.58875" lon="2.95122">
        <ele>371.4</ele>
        <time>2015-12-14T10:59:57.141Z</time>
      </trkpt>
      <trkpt lat="43.58883" lon="2.9512">
        <ele>372.2</ele>
        <time>2015-12-14T11:00:02.184Z</time>
      </trkpt>
      <trkpt lat="43.58885" lon="2.9512">
        <ele>372.5</ele>
        <time>2015-12-14T11:00:03.134Z</time>
      </trkpt>
      <trkpt lat="43.58892" lon="2.95117">
        <ele>373.4</ele>
        <time>2015-12-14T11:00:07.531Z</time>
      </trkpt>
      <trkpt lat="43.58894" lon="2.95116">
        <ele>373.5</ele>
        <time>2015-12-14T11:00:08.133Z</time>
      </trkpt>
      <trkpt lat="43.58901" lon="2.95113">
        <ele>374.2</ele>
        <time>2015-12-14T11:00:12.191Z</time>
      </trkpt>
      <trkpt lat="43.58903" lon="2.95112">
        <ele>374.5</ele>
        <time>2015-12-14T11:00:13.141Z</time>
      </trkpt>
      <trkpt lat="43.58909" lon="2.95109">
        <ele>374.6</ele>
        <time>2015-12-14T11:00:16.176Z</time>
      </trkpt>
      <trkpt lat="43.58912" lon="2.95109">
        <ele>374.8</ele>
        <time>2015-12-14T11:00:17.133Z</time>
      </trkpt>
      <trkpt lat="43.58919" lon="2.95107">
        <ele>375</ele>
        <time>2015-12-14T11:00:20.168Z</time>
      </trkpt>
      <trkpt lat="43.5892" lon="2.95106">
        <ele>375.1</ele>
        <time>2015-12-14T11:00:21.133Z</time>
      </trkpt>
      <trkpt lat="43.58927" lon="2.95103">
        <ele>375.8</ele>
        <time>2015-12-14T11:00:24.189Z</time>
      </trkpt>
      <trkpt lat="43.58929" lon="2.95102">
        <ele>376.1</ele>
        <time>2015-12-14T11:00:25.136Z</time>
      </trkpt>
      <trkpt lat="43.58937" lon="2.95098">
        <ele>376.9</ele>
        <time>2015-12-14T11:00:29.160Z</time>
      </trkpt>
      <trkpt lat="43.58939" lon="2.95097">
        <ele>377.3</ele>
        <time>2015-12-14T11:00:30.137Z</time>
      </trkpt>
      <trkpt lat="43.58946" lon="2.95095">
        <ele>378.1</ele>
        <time>2015-12-14T11:00:33.156Z</time>
      </trkpt>
      <trkpt lat="43.58948" lon="2.95094">
        <ele>378.4</ele>
        <time>2015-12-14T11:00:34.264Z</time>
      </trkpt>
      <trkpt lat="43.58956" lon="2.95091">
        <ele>380.1</ele>
        <time>2015-12-14T11:00:38.176Z</time>
      </trkpt>
      <trkpt lat="43.58958" lon="2.95091">
        <ele>380.4</ele>
        <time>2015-12-14T11:00:39.138Z</time>
      </trkpt>
      <trkpt lat="43.58965" lon="2.95091">
        <ele>381</ele>
        <time>2015-12-14T11:00:43.168Z</time>
      </trkpt>
      <trkpt lat="43.58968" lon="2.95091">
        <ele>381.2</ele>
        <time>2015-12-14T11:00:44.148Z</time>
      </trkpt>
      <trkpt lat="43.58976" lon="2.9509">
        <ele>381.6</ele>
        <time>2015-12-14T11:00:47.165Z</time>
      </trkpt>
      <trkpt lat="43.58978" lon="2.9509">
        <ele>381.5</ele>
        <time>2015-12-14T11:00:48.132Z</time>
      </trkpt>
      <trkpt lat="43.58986" lon="2.9509">
        <ele>382</ele>
        <time>2015-12-14T11:00:51.179Z</time>
      </trkpt>
      <trkpt lat="43.58988" lon="2.9509">
        <ele>382.1</ele>
        <time>2015-12-14T11:00:52.141Z</time>
      </trkpt>
      <trkpt lat="43.58996" lon="2.95089">
        <ele>382.9</ele>
        <time>2015-12-14T11:00:56.181Z</time>
      </trkpt>
      <trkpt lat="43.58998" lon="2.9509">
        <ele>383.3</ele>
        <time>2015-12-14T11:00:57.134Z</time>
      </trkpt>
      <trkpt lat="43.59005" lon="2.9509">
        <ele>384.4</ele>
        <time>2015-12-14T11:01:01.161Z</time>
      </trkpt>
      <trkpt lat="43.59007" lon="2.95091">
        <ele>384.7</ele>
        <time>2015-12-14T11:01:02.133Z</time>
      </trkpt>
      <trkpt lat="43.59015" lon="2.95094">
        <ele>385.8</ele>
        <time>2015-12-14T11:01:05.161Z</time>
      </trkpt>
      <trkpt lat="43.59017" lon="2.95095">
        <ele>386.1</ele>
        <time>2015-12-14T11:01:06.135Z</time>
      </trkpt>
      <trkpt lat="43.59026" lon="2.95097">
        <ele>387.2</ele>
        <time>2015-12-14T11:01:10.179Z</time>
      </trkpt>
      <trkpt lat="43.59028" lon="2.95098">
        <ele>387.2</ele>
        <time>2015-12-14T11:01:11.137Z</time>
      </trkpt>
      <trkpt lat="43.59036" lon="2.95098">
        <ele>388.9</ele>
        <time>2015-12-14T11:01:15.167Z</time>
      </trkpt>
      <trkpt lat="43.59038" lon="2.95099">
        <ele>389.3</ele>
        <time>2015-12-14T11:01:16.141Z</time>
      </trkpt>
      <trkpt lat="43.59046" lon="2.951">
        <ele>389.6</ele>
        <time>2015-12-14T11:01:20.179Z</time>
      </trkpt>
      <trkpt lat="43.59048" lon="2.951">
        <ele>389.4</ele>
        <time>2015-12-14T11:01:21.136Z</time>
      </trkpt>
      <trkpt lat="43.59056" lon="2.95101">
        <ele>388.9</ele>
        <time>2015-12-14T11:01:20.851Z</time>
      </trkpt>
      <trkpt lat="43.59059" lon="2.95101">
        <ele>388.6</ele>
        <time>2015-12-14T11:01:26.131Z</time>
      </trkpt>
      <trkpt lat="43.59065" lon="2.95101">
        <ele>388.5</ele>
        <time>2015-12-14T11:01:29.186Z</time>
      </trkpt>
      <trkpt lat="43.59069" lon="2.95101">
        <ele>388.6</ele>
        <time>2015-12-14T11:01:30.493Z</time>
      </trkpt>
      <trkpt lat="43.59077" lon="2.95099">
        <ele>388.5</ele>
        <time>2015-12-14T11:01:34.178Z</time>
      </trkpt>
      <trkpt lat="43.59079" lon="2.95099">
        <ele>388.6</ele>
        <time>2015-12-14T11:01:35.135Z</time>
      </trkpt>
      <trkpt lat="43.59086" lon="2.95093">
        <ele>389.1</ele>
        <time>2015-12-14T11:01:40.187Z</time>
      </trkpt>
      <trkpt lat="43.59087" lon="2.95092">
        <ele>389.1</ele>
        <time>2015-12-14T11:01:41.142Z</time>
      </trkpt>
      <trkpt lat="43.59093" lon="2.95085">
        <ele>389.9</ele>
        <time>2015-12-14T11:01:45.465Z</time>
      </trkpt>
      <trkpt lat="43.59095" lon="2.95082">
        <ele>390.2</ele>
        <time>2015-12-14T11:01:46.129Z</time>
      </trkpt>
      <trkpt lat="43.591" lon="2.95076">
        <ele>390.3</ele>
        <time>2015-12-14T11:01:49.178Z</time>
      </trkpt>
      <trkpt lat="43.59102" lon="2.95074">
        <ele>390.4</ele>
        <time>2015-12-14T11:01:50.135Z</time>
      </trkpt>
      <trkpt lat="43.59107" lon="2.95068">
        <ele>390.8</ele>
        <time>2015-12-14T11:01:53.170Z</time>
      </trkpt>
      <trkpt lat="43.59109" lon="2.95066">
        <ele>391</ele>
        <time>2015-12-14T11:01:54.141Z</time>
      </trkpt>
      <trkpt lat="43.59114" lon="2.95059">
        <ele>391.6</ele>
        <time>2015-12-14T11:01:57.163Z</time>
      </trkpt>
      <trkpt lat="43.59115" lon="2.95056">
        <ele>391.7</ele>
        <time>2015-12-14T11:01:58.129Z</time>
      </trkpt>
      <trkpt lat="43.59121" lon="2.95047">
        <ele>391.9</ele>
        <time>2015-12-14T11:02:01.204Z</time>
      </trkpt>
      <trkpt lat="43.59123" lon="2.95044">
        <ele>392</ele>
        <time>2015-12-14T11:02:02.135Z</time>
      </trkpt>
      <trkpt lat="43.59129" lon="2.95035">
        <ele>392.1</ele>
        <time>2015-12-14T11:02:06.169Z</time>
      </trkpt>
      <trkpt lat="43.5913" lon="2.95033">
        <ele>392.2</ele>
        <time>2015-12-14T11:02:07.131Z</time>
      </trkpt>
      <trkpt lat="43.59136" lon="2.95023">
        <ele>392.2</ele>
        <time>2015-12-14T11:02:11.173Z</time>
      </trkpt>
      <trkpt lat="43.59137" lon="2.9502">
        <ele>392.1</ele>
        <time>2015-12-14T11:02:12.151Z</time>
      </trkpt>
      <trkpt lat="43.59141" lon="2.95013">
        <ele>391.9</ele>
        <time>2015-12-14T11:02:15.171Z</time>
      </trkpt>
      <trkpt lat="43.59143" lon="2.95011">
        <ele>391.7</ele>
        <time>2015-12-14T11:02:16.139Z</time>
      </trkpt>
      <trkpt lat="43.59149" lon="2.95004">
        <ele>391.5</ele>
        <time>2015-12-14T11:02:19.207Z</time>
      </trkpt>
      <trkpt lat="43.59151" lon="2.95003">
        <ele>391.5</ele>
        <time>2015-12-14T11:02:20.147Z</time>
      </trkpt>
      <trkpt lat="43.59156" lon="2.94997">
        <ele>391.6</ele>
        <time>2015-12-14T11:02:23.166Z</time>
      </trkpt>
      <trkpt lat="43.59158" lon="2.94994">
        <ele>391.8</ele>
        <time>2015-12-14T11:02:24.135Z</time>
      </trkpt>
      <trkpt lat="43.59163" lon="2.94988">
        <ele>392</ele>
        <time>2015-12-14T11:02:27.190Z</time>
      </trkpt>
      <trkpt lat="43.59165" lon="2.94986">
        <ele>392</ele>
        <time>2015-12-14T11:02:28.142Z</time>
      </trkpt>
      <trkpt lat="43.59172" lon="2.94978">
        <ele>392.3</ele>
        <time>2015-12-14T11:02:32.524Z</time>
      </trkpt>
      <trkpt lat="43.59173" lon="2.94977">
        <ele>392.4</ele>
        <time>2015-12-14T11:02:33.135Z</time>
      </trkpt>
      <trkpt lat="43.59179" lon="2.9497">
        <ele>393</ele>
        <time>2015-12-14T11:02:37.206Z</time>
      </trkpt>
      <trkpt lat="43.5918" lon="2.94968">
        <ele>393.1</ele>
        <time>2015-12-14T11:02:38.142Z</time>
      </trkpt>
      <trkpt lat="43.59187" lon="2.94963">
        <ele>393.7</ele>
        <time>2015-12-14T11:02:43.586Z</time>
      </trkpt>
      <trkpt lat="43.59189" lon="2.94962">
        <ele>393.9</ele>
        <time>2015-12-14T11:02:44.130Z</time>
      </trkpt>
      <trkpt lat="43.59198" lon="2.94961">
        <ele>395</ele>
        <time>2015-12-14T11:02:49.198Z</time>
      </trkpt>
      <trkpt lat="43.59199" lon="2.94961">
        <ele>395.3</ele>
        <time>2015-12-14T11:02:50.136Z</time>
      </trkpt>
      <trkpt lat="43.59207" lon="2.94963">
        <ele>395.9</ele>
        <time>2015-12-14T11:02:55.201Z</time>
      </trkpt>
      <trkpt lat="43.59209" lon="2.94963">
        <ele>396</ele>
        <time>2015-12-14T11:02:56.136Z</time>
      </trkpt>
      <trkpt lat="43.59217" lon="2.94964">
        <ele>396.8</ele>
        <time>2015-12-14T11:03:01.173Z</time>
      </trkpt>
      <trkpt lat="43.59218" lon="2.94965">
        <ele>397.2</ele>
        <time>2015-12-14T11:03:02.133Z</time>
      </trkpt>
      <trkpt lat="43.59227" lon="2.94967">
        <ele>398.1</ele>
        <time>2015-12-14T11:03:06.160Z</time>
      </trkpt>
      <trkpt lat="43.59229" lon="2.94968">
        <ele>398.5</ele>
        <time>2015-12-14T11:03:07.134Z</time>
      </trkpt>
      <trkpt lat="43.59237" lon="2.94969">
        <ele>399.2</ele>
        <time>2015-12-14T11:03:11.167Z</time>
      </trkpt>
      <trkpt lat="43.59239" lon="2.94969">
        <ele>399.4</ele>
        <time>2015-12-14T11:03:12.135Z</time>
      </trkpt>
      <trkpt lat="43.59246" lon="2.94968">
        <ele>400.4</ele>
        <time>2015-12-14T11:03:17.172Z</time>
      </trkpt>
      <trkpt lat="43.59248" lon="2.94969">
        <ele>400.8</ele>
        <time>2015-12-14T11:03:18.145Z</time>
      </trkpt>
      <trkpt lat="43.59255" lon="2.94968">
        <ele>401.5</ele>
        <time>2015-12-14T11:03:22.161Z</time>
      </trkpt>
      <trkpt lat="43.59257" lon="2.94968">
        <ele>401.8</ele>
        <time>2015-12-14T11:03:23.132Z</time>
      </trkpt>
      <trkpt lat="43.59264" lon="2.94971">
        <ele>401.8</ele>
        <time>2015-12-14T11:03:28.184Z</time>
      </trkpt>
      <trkpt lat="43.59266" lon="2.94971">
        <ele>402</ele>
        <time>2015-12-14T11:03:29.137Z</time>
      </trkpt>
      <trkpt lat="43.59273" lon="2.94976">
        <ele>400.9</ele>
        <time>2015-12-14T11:03:34.185Z</time>
      </trkpt>
      <trkpt lat="43.59274" lon="2.94978">
        <ele>400.3</ele>
        <time>2015-12-14T11:03:35.137Z</time>
      </trkpt>
      <trkpt lat="43.59282" lon="2.94984">
        <ele>399.4</ele>
        <time>2015-12-14T11:03:41.174Z</time>
      </trkpt>
      <trkpt lat="43.59283" lon="2.94986">
        <ele>399.2</ele>
        <time>2015-12-14T11:03:42.141Z</time>
      </trkpt>
      <trkpt lat="43.59288" lon="2.94995">
        <ele>398.8</ele>
        <time>2015-12-14T11:03:47.173Z</time>
      </trkpt>
      <trkpt lat="43.59289" lon="2.94997">
        <ele>398.8</ele>
        <time>2015-12-14T11:03:48.139Z</time>
      </trkpt>
      <trkpt lat="43.59295" lon="2.95004">
        <ele>398.7</ele>
        <time>2015-12-14T11:03:52.174Z</time>
      </trkpt>
      <trkpt lat="43.59296" lon="2.95006">
        <ele>398.6</ele>
        <time>2015-12-14T11:03:53.137Z</time>
      </trkpt>
      <trkpt lat="43.593" lon="2.95014">
        <ele>398.3</ele>
        <time>2015-12-14T11:03:57.170Z</time>
      </trkpt>
      <trkpt lat="43.59302" lon="2.95016">
        <ele>398.2</ele>
        <time>2015-12-14T11:03:58.132Z</time>
      </trkpt>
      <trkpt lat="43.59307" lon="2.95023">
        <ele>397.9</ele>
        <time>2015-12-14T11:04:02.187Z</time>
      </trkpt>
      <trkpt lat="43.59308" lon="2.95026">
        <ele>397.8</ele>
        <time>2015-12-14T11:04:03.137Z</time>
      </trkpt>
      <trkpt lat="43.59314" lon="2.95035">
        <ele>397.3</ele>
        <time>2015-12-14T11:04:07.193Z</time>
      </trkpt>
      <trkpt lat="43.59315" lon="2.95037">
        <ele>397.3</ele>
        <time>2015-12-14T11:04:08.142Z</time>
      </trkpt>
      <trkpt lat="43.5932" lon="2.95047">
        <ele>396.9</ele>
        <time>2015-12-14T11:04:12.169Z</time>
      </trkpt>
      <trkpt lat="43.59321" lon="2.95049">
        <ele>397.1</ele>
        <time>2015-12-14T11:04:13.140Z</time>
      </trkpt>
      <trkpt lat="43.59326" lon="2.95058">
        <ele>396.9</ele>
        <time>2015-12-14T11:04:18.192Z</time>
      </trkpt>
      <trkpt lat="43.59327" lon="2.9506">
        <ele>396.8</ele>
        <time>2015-12-14T11:04:19.137Z</time>
      </trkpt>
      <trkpt lat="43.59331" lon="2.95069">
        <ele>396.1</ele>
        <time>2015-12-14T11:04:23.161Z</time>
      </trkpt>
      <trkpt lat="43.59332" lon="2.95071">
        <ele>395.9</ele>
        <time>2015-12-14T11:04:24.131Z</time>
      </trkpt>
      <trkpt lat="43.59339" lon="2.95077">
        <ele>395.3</ele>
        <time>2015-12-14T11:04:28.166Z</time>
      </trkpt>
      <trkpt lat="43.5934" lon="2.95078">
        <ele>394.9</ele>
        <time>2015-12-14T11:04:29.133Z</time>
      </trkpt>
      <trkpt lat="43.59347" lon="2.95086">
        <ele>394.2</ele>
        <time>2015-12-14T11:04:33.180Z</time>
      </trkpt>
      <trkpt lat="43.59349" lon="2.95089">
        <ele>394.2</ele>
        <time>2015-12-14T11:04:34.138Z</time>
      </trkpt>
      <trkpt lat="43.59355" lon="2.95096">
        <ele>392.6</ele>
        <time>2015-12-14T11:04:38.170Z</time>
      </trkpt>
      <trkpt lat="43.59357" lon="2.95096">
        <ele>392.6</ele>
        <time>2015-12-14T11:04:39.133Z</time>
      </trkpt>
      <trkpt lat="43.59365" lon="2.95098">
        <ele>392.4</ele>
        <time>2015-12-14T11:04:43.210Z</time>
      </trkpt>
      <trkpt lat="43.59367" lon="2.95098">
        <ele>392.3</ele>
        <time>2015-12-14T11:04:44.133Z</time>
      </trkpt>
      <trkpt lat="43.59375" lon="2.95098">
        <ele>391.8</ele>
        <time>2015-12-14T11:04:49.202Z</time>
      </trkpt>
      <trkpt lat="43.59377" lon="2.95099">
        <ele>391.7</ele>
        <time>2015-12-14T11:04:50.145Z</time>
      </trkpt>
      <trkpt lat="43.59384" lon="2.95099">
        <ele>391.3</ele>
        <time>2015-12-14T11:04:54.172Z</time>
      </trkpt>
      <trkpt lat="43.59386" lon="2.95099">
        <ele>391.2</ele>
        <time>2015-12-14T11:04:55.138Z</time>
      </trkpt>
      <trkpt lat="43.59395" lon="2.95098">
        <ele>390.7</ele>
        <time>2015-12-14T11:04:59.164Z</time>
      </trkpt>
      <trkpt lat="43.59397" lon="2.95097">
        <ele>391</ele>
        <time>2015-12-14T11:05:00.412Z</time>
      </trkpt>
      <trkpt lat="43.59405" lon="2.95097">
        <ele>391</ele>
        <time>2015-12-14T11:05:04.177Z</time>
      </trkpt>
      <trkpt lat="43.59407" lon="2.95096">
        <ele>391</ele>
        <time>2015-12-14T11:05:05.134Z</time>
      </trkpt>
      <trkpt lat="43.59415" lon="2.95095">
        <ele>390.7</ele>
        <time>2015-12-14T11:05:08.168Z</time>
      </trkpt>
      <trkpt lat="43.59417" lon="2.95094">
        <ele>390.8</ele>
        <time>2015-12-14T11:05:09.132Z</time>
      </trkpt>
      <trkpt lat="43.59425" lon="2.95092">
        <ele>390.6</ele>
        <time>2015-12-14T11:05:12.170Z</time>
      </trkpt>
      <trkpt lat="43.59428" lon="2.95091">
        <ele>390.7</ele>
        <time>2015-12-14T11:05:13.135Z</time>
      </trkpt>
      <trkpt lat="43.59435" lon="2.95086">
        <ele>390.4</ele>
        <time>2015-12-14T11:05:16.188Z</time>
      </trkpt>
      <trkpt lat="43.59437" lon="2.95085">
        <ele>390.3</ele>
        <time>2015-12-14T11:05:17.130Z</time>
      </trkpt>
      <trkpt lat="43.59443" lon="2.9508">
        <ele>390.6</ele>
        <time>2015-12-14T11:05:20.203Z</time>
      </trkpt>
      <trkpt lat="43.59446" lon="2.95078">
        <ele>390.8</ele>
        <time>2015-12-14T11:05:21.137Z</time>
      </trkpt>
      <trkpt lat="43.59452" lon="2.95073">
        <ele>391</ele>
        <time>2015-12-14T11:05:24.174Z</time>
      </trkpt>
      <trkpt lat="43.59454" lon="2.95071">
        <ele>391.2</ele>
        <time>2015-12-14T11:05:25.505Z</time>
      </trkpt>
      <trkpt lat="43.59461" lon="2.95067">
        <ele>391.9</ele>
        <time>2015-12-14T11:05:28.161Z</time>
      </trkpt>
      <trkpt lat="43.59463" lon="2.95066">
        <ele>391.9</ele>
        <time>2015-12-14T11:05:29.132Z</time>
      </trkpt>
      <trkpt lat="43.5947" lon="2.95064">
        <ele>392.4</ele>
        <time>2015-12-14T11:05:33.176Z</time>
      </trkpt>
      <trkpt lat="43.59472" lon="2.95064">
        <ele>392.3</ele>
        <time>2015-12-14T11:05:34.136Z</time>
      </trkpt>
      <trkpt lat="43.5948" lon="2.9506">
        <ele>392.5</ele>
        <time>2015-12-14T11:05:39.171Z</time>
      </trkpt>
      <trkpt lat="43.59482" lon="2.9506">
        <ele>392.6</ele>
        <time>2015-12-14T11:05:40.201Z</time>
      </trkpt>
      <trkpt lat="43.5949" lon="2.95061">
        <ele>393.2</ele>
        <time>2015-12-14T11:05:44.557Z</time>
      </trkpt>
      <trkpt lat="43.59491" lon="2.95061">
        <ele>393.3</ele>
        <time>2015-12-14T11:05:45.138Z</time>
      </trkpt>
      <trkpt lat="43.595" lon="2.95062">
        <ele>394.3</ele>
        <time>2015-12-14T11:05:50.168Z</time>
      </trkpt>
      <trkpt lat="43.59501" lon="2.95061">
        <ele>394.7</ele>
        <time>2015-12-14T11:05:51.132Z</time>
      </trkpt>
      <trkpt lat="43.59507" lon="2.95054">
        <ele>396</ele>
        <time>2015-12-14T11:05:58.166Z</time>
      </trkpt>
      <trkpt lat="43.59509" lon="2.95051">
        <ele>396.3</ele>
        <time>2015-12-14T11:05:59.133Z</time>
      </trkpt>
      <trkpt lat="43.59515" lon="2.95045">
        <ele>399.1</ele>
        <time>2015-12-14T11:06:04.184Z</time>
      </trkpt>
      <trkpt lat="43.59516" lon="2.95044">
        <ele>399.7</ele>
        <time>2015-12-14T11:06:05.136Z</time>
      </trkpt>
      <trkpt lat="43.59524" lon="2.95045">
        <ele>401.9</ele>
        <time>2015-12-14T11:06:09.184Z</time>
      </trkpt>
      <trkpt lat="43.59525" lon="2.95043">
        <ele>402.4</ele>
        <time>2015-12-14T11:06:10.163Z</time>
      </trkpt>
      <trkpt lat="43.59534" lon="2.95041">
        <ele>405.9</ele>
        <time>2015-12-14T11:06:16.164Z</time>
      </trkpt>
      <trkpt lat="43.59535" lon="2.95041">
        <ele>406.3</ele>
        <time>2015-12-14T11:06:17.131Z</time>
      </trkpt>
      <trkpt lat="43.59543" lon="2.95038">
        <ele>408.3</ele>
        <time>2015-12-14T11:06:23.158Z</time>
      </trkpt>
      <trkpt lat="43.59544" lon="2.95037">
        <ele>408.5</ele>
        <time>2015-12-14T11:06:24.134Z</time>
      </trkpt>
      <trkpt lat="43.59552" lon="2.95033">
        <ele>409.8</ele>
        <time>2015-12-14T11:06:29.170Z</time>
      </trkpt>
      <trkpt lat="43.59554" lon="2.95032">
        <ele>410</ele>
        <time>2015-12-14T11:06:30.131Z</time>
      </trkpt>
      <trkpt lat="43.5956" lon="2.95031">
        <ele>411.8</ele>
        <time>2015-12-14T11:06:35.165Z</time>
      </trkpt>
      <trkpt lat="43.59563" lon="2.95031">
        <ele>412.3</ele>
        <time>2015-12-14T11:06:37.353Z</time>
      </trkpt>
      <trkpt lat="43.59571" lon="2.95029">
        <ele>413.4</ele>
        <time>2015-12-14T11:06:41.165Z</time>
      </trkpt>
      <trkpt lat="43.59573" lon="2.95029">
        <ele>413.6</ele>
        <time>2015-12-14T11:06:42.131Z</time>
      </trkpt>
      <trkpt lat="43.59581" lon="2.95025">
        <ele>413.7</ele>
        <time>2015-12-14T11:06:49.192Z</time>
      </trkpt>
      <trkpt lat="43.59582" lon="2.95024">
        <ele>413.7</ele>
        <time>2015-12-14T11:06:50.133Z</time>
      </trkpt>
      <trkpt lat="43.59588" lon="2.95019">
        <ele>414.7</ele>
        <time>2015-12-14T11:06:55.209Z</time>
      </trkpt>
      <trkpt lat="43.5959" lon="2.95018">
        <ele>414.9</ele>
        <time>2015-12-14T11:06:56.135Z</time>
      </trkpt>
      <trkpt lat="43.59597" lon="2.95012">
        <ele>416</ele>
        <time>2015-12-14T11:07:02.163Z</time>
      </trkpt>
      <trkpt lat="43.59599" lon="2.95011">
        <ele>416.1</ele>
        <time>2015-12-14T11:07:03.134Z</time>
      </trkpt>
      <trkpt lat="43.59606" lon="2.95007">
        <ele>418.3</ele>
        <time>2015-12-14T11:07:09.184Z</time>
      </trkpt>
      <trkpt lat="43.59608" lon="2.95007">
        <ele>418.5</ele>
        <time>2015-12-14T11:07:10.139Z</time>
      </trkpt>
      <trkpt lat="43.59616" lon="2.95005">
        <ele>420.2</ele>
        <time>2015-12-14T11:07:16.184Z</time>
      </trkpt>
      <trkpt lat="43.59618" lon="2.95004">
        <ele>420.3</ele>
        <time>2015-12-14T11:07:17.131Z</time>
      </trkpt>
      <trkpt lat="43.59626" lon="2.95001">
        <ele>421.6</ele>
        <time>2015-12-14T11:07:23.174Z</time>
      </trkpt>
      <trkpt lat="43.59627" lon="2.95">
        <ele>421.9</ele>
        <time>2015-12-14T11:07:24.134Z</time>
      </trkpt>
      <trkpt lat="43.59635" lon="2.94997">
        <ele>423.6</ele>
        <time>2015-12-14T11:07:31.166Z</time>
      </trkpt>
      <trkpt lat="43.59636" lon="2.94996">
        <ele>423.8</ele>
        <time>2015-12-14T11:07:32.129Z</time>
      </trkpt>
      <trkpt lat="43.59645" lon="2.94996">
        <ele>424.9</ele>
        <time>2015-12-14T11:07:37.174Z</time>
      </trkpt>
      <trkpt lat="43.59646" lon="2.94996">
        <ele>425.3</ele>
        <time>2015-12-14T11:07:38.132Z</time>
      </trkpt>
      <trkpt lat="43.59654" lon="2.94997">
        <ele>426.5</ele>
        <time>2015-12-14T11:07:43.165Z</time>
      </trkpt>
      <trkpt lat="43.59656" lon="2.94998">
        <ele>426.7</ele>
        <time>2015-12-14T11:07:44.128Z</time>
      </trkpt>
      <trkpt lat="43.59663" lon="2.95001">
        <ele>427.8</ele>
        <time>2015-12-14T11:07:50.190Z</time>
      </trkpt>
      <trkpt lat="43.59665" lon="2.95001">
        <ele>427.9</ele>
        <time>2015-12-14T11:07:51.133Z</time>
      </trkpt>
      <trkpt lat="43.59673" lon="2.95004">
        <ele>428.8</ele>
        <time>2015-12-14T11:07:57.168Z</time>
      </trkpt>
      <trkpt lat="43.59675" lon="2.95004">
        <ele>429.3</ele>
        <time>2015-12-14T11:07:58.131Z</time>
      </trkpt>
      <trkpt lat="43.59683" lon="2.95008">
        <ele>429.9</ele>
        <time>2015-12-14T11:08:04.165Z</time>
      </trkpt>
      <trkpt lat="43.59684" lon="2.95009">
        <ele>430.1</ele>
        <time>2015-12-14T11:08:05.132Z</time>
      </trkpt>
      <trkpt lat="43.59692" lon="2.95014">
        <ele>430.9</ele>
        <time>2015-12-14T11:08:10.186Z</time>
      </trkpt>
      <trkpt lat="43.59693" lon="2.95015">
        <ele>431</ele>
        <time>2015-12-14T11:08:11.137Z</time>
      </trkpt>
      <trkpt lat="43.59697" lon="2.95025">
        <ele>431.3</ele>
        <time>2015-12-14T11:08:25.165Z</time>
      </trkpt>
      <trkpt lat="43.59698" lon="2.95026">
        <ele>431.3</ele>
        <time>2015-12-14T11:08:26.137Z</time>
      </trkpt>
      <trkpt lat="43.59703" lon="2.95034">
        <ele>431.3</ele>
        <time>2015-12-14T11:08:35.179Z</time>
      </trkpt>
      <trkpt lat="43.59704" lon="2.95035">
        <ele>431.3</ele>
        <time>2015-12-14T11:08:36.135Z</time>
      </trkpt>
      <trkpt lat="43.59706" lon="2.95046">
        <ele>431.4</ele>
        <time>2015-12-14T11:08:45.188Z</time>
      </trkpt>
      <trkpt lat="43.59707" lon="2.95047">
        <ele>431.5</ele>
        <time>2015-12-14T11:08:46.137Z</time>
      </trkpt>
      <trkpt lat="43.59712" lon="2.95057">
        <ele>432</ele>
        <time>2015-12-14T11:08:55.190Z</time>
      </trkpt>
      <trkpt lat="43.59713" lon="2.95057">
        <ele>432.2</ele>
        <time>2015-12-14T11:08:56.130Z</time>
      </trkpt>
      <trkpt lat="43.5972" lon="2.95065">
        <ele>433.3</ele>
        <time>2015-12-14T11:09:04.175Z</time>
      </trkpt>
      <trkpt lat="43.5972" lon="2.95067">
        <ele>433.6</ele>
        <time>2015-12-14T11:09:05.132Z</time>
      </trkpt>
      <trkpt lat="43.59725" lon="2.95077">
        <ele>435.5</ele>
        <time>2015-12-14T11:09:15.176Z</time>
      </trkpt>
      <trkpt lat="43.59725" lon="2.95077">
        <ele>435.7</ele>
        <time>2015-12-14T11:09:16.137Z</time>
      </trkpt>
      <trkpt lat="43.59718" lon="2.95083">
        <ele>437</ele>
        <time>2015-12-14T11:09:34.170Z</time>
      </trkpt>
      <trkpt lat="43.59717" lon="2.95082">
        <ele>437.2</ele>
        <time>2015-12-14T11:09:35.134Z</time>
      </trkpt>
      <trkpt lat="43.5971" lon="2.95079">
        <ele>437.7</ele>
        <time>2015-12-14T11:09:42.550Z</time>
      </trkpt>
      <trkpt lat="43.59708" lon="2.95078">
        <ele>437.8</ele>
        <time>2015-12-14T11:09:43.152Z</time>
      </trkpt>
      <trkpt lat="43.597" lon="2.95073">
        <ele>438.5</ele>
        <time>2015-12-14T11:09:50.184Z</time>
      </trkpt>
      <trkpt lat="43.59699" lon="2.95073">
        <ele>438.6</ele>
        <time>2015-12-14T11:09:51.139Z</time>
      </trkpt>
      <trkpt lat="43.59691" lon="2.9507">
        <ele>439.3</ele>
        <time>2015-12-14T11:09:59.184Z</time>
      </trkpt>
      <trkpt lat="43.5969" lon="2.95069">
        <ele>439.4</ele>
        <time>2015-12-14T11:10:00.141Z</time>
      </trkpt>
      <trkpt lat="43.59682" lon="2.95067">
        <ele>440.4</ele>
        <time>2015-12-14T11:10:08.179Z</time>
      </trkpt>
      <trkpt lat="43.59681" lon="2.95067">
        <ele>440.7</ele>
        <time>2015-12-14T11:10:09.139Z</time>
      </trkpt>
      <trkpt lat="43.59673" lon="2.95066">
        <ele>441.4</ele>
        <time>2015-12-14T11:10:16.360Z</time>
      </trkpt>
      <trkpt lat="43.59672" lon="2.95065">
        <ele>441.5</ele>
        <time>2015-12-14T11:10:17.131Z</time>
      </trkpt>
      <trkpt lat="43.59664" lon="2.9506">
        <ele>442.7</ele>
        <time>2015-12-14T11:10:24.197Z</time>
      </trkpt>
      <trkpt lat="43.59662" lon="2.95059">
        <ele>442.8</ele>
        <time>2015-12-14T11:10:25.135Z</time>
      </trkpt>
      <trkpt lat="43.59655" lon="2.95053">
        <ele>443.6</ele>
        <time>2015-12-14T11:10:32.202Z</time>
      </trkpt>
      <trkpt lat="43.59654" lon="2.95053">
        <ele>443.7</ele>
        <time>2015-12-14T11:10:33.138Z</time>
      </trkpt>
      <trkpt lat="43.59646" lon="2.95054">
        <ele>444.1</ele>
        <time>2015-12-14T11:10:40.203Z</time>
      </trkpt>
      <trkpt lat="43.59645" lon="2.95055">
        <ele>444.3</ele>
        <time>2015-12-14T11:10:41.136Z</time>
      </trkpt>
      <trkpt lat="43.59649" lon="2.95064">
        <ele>445</ele>
        <time>2015-12-14T11:10:50.173Z</time>
      </trkpt>
      <trkpt lat="43.59652" lon="2.95065">
        <ele>445.1</ele>
        <time>2015-12-14T11:10:51.134Z</time>
      </trkpt>
      <trkpt lat="43.59659" lon="2.9507">
        <ele>445</ele>
        <time>2015-12-14T11:10:56.172Z</time>
      </trkpt>
      <trkpt lat="43.5966" lon="2.9507">
        <ele>445.1</ele>
        <time>2015-12-14T11:10:57.137Z</time>
      </trkpt>
      <trkpt lat="43.59667" lon="2.95076">
        <ele>445.7</ele>
        <time>2015-12-14T11:11:04.179Z</time>
      </trkpt>
      <trkpt lat="43.59668" lon="2.95077">
        <ele>445.7</ele>
        <time>2015-12-14T11:11:05.140Z</time>
      </trkpt>
      <trkpt lat="43.59674" lon="2.95083">
        <ele>446.7</ele>
        <time>2015-12-14T11:11:12.169Z</time>
      </trkpt>
      <trkpt lat="43.59676" lon="2.95083">
        <ele>446.8</ele>
        <time>2015-12-14T11:11:13.138Z</time>
      </trkpt>
      <trkpt lat="43.59684" lon="2.95087">
        <ele>448.2</ele>
        <time>2015-12-14T11:11:21.161Z</time>
      </trkpt>
      <trkpt lat="43.59685" lon="2.95088">
        <ele>448.4</ele>
        <time>2015-12-14T11:11:22.132Z</time>
      </trkpt>
      <trkpt lat="43.59692" lon="2.95092">
        <ele>449.1</ele>
        <time>2015-12-14T11:11:29.189Z</time>
      </trkpt>
      <trkpt lat="43.59694" lon="2.95093">
        <ele>449.3</ele>
        <time>2015-12-14T11:11:30.139Z</time>
      </trkpt>
      <trkpt lat="43.59701" lon="2.95099">
        <ele>450.7</ele>
        <time>2015-12-14T11:11:38.167Z</time>
      </trkpt>
      <trkpt lat="43.59701" lon="2.951">
        <ele>450.8</ele>
        <time>2015-12-14T11:11:39.136Z</time>
      </trkpt>
      <trkpt lat="43.59708" lon="2.95108">
        <ele>452.4</ele>
        <time>2015-12-14T11:11:47.170Z</time>
      </trkpt>
      <trkpt lat="43.59709" lon="2.95108">
        <ele>452.6</ele>
        <time>2015-12-14T11:11:48.134Z</time>
      </trkpt>
      <trkpt lat="43.59716" lon="2.95112">
        <ele>454.3</ele>
        <time>2015-12-14T11:11:57.195Z</time>
      </trkpt>
      <trkpt lat="43.59718" lon="2.95114">
        <ele>454.5</ele>
        <time>2015-12-14T11:11:58.134Z</time>
      </trkpt>
      <trkpt lat="43.59723" lon="2.95122">
        <ele>455.2</ele>
        <time>2015-12-14T11:12:03.184Z</time>
      </trkpt>
      <trkpt lat="43.59724" lon="2.95124">
        <ele>455.3</ele>
        <time>2015-12-14T11:12:04.141Z</time>
      </trkpt>
      <trkpt lat="43.59729" lon="2.95134">
        <ele>455.9</ele>
        <time>2015-12-14T11:12:10.202Z</time>
      </trkpt>
      <trkpt lat="43.5973" lon="2.95135">
        <ele>456.1</ele>
        <time>2015-12-14T11:12:11.136Z</time>
      </trkpt>
      <trkpt lat="43.59736" lon="2.95142">
        <ele>456.7</ele>
        <time>2015-12-14T11:12:19.192Z</time>
      </trkpt>
      <trkpt lat="43.59737" lon="2.95143">
        <ele>456.7</ele>
        <time>2015-12-14T11:12:20.139Z</time>
      </trkpt>
      <trkpt lat="43.59743" lon="2.95151">
        <ele>457.7</ele>
        <time>2015-12-14T11:12:28.167Z</time>
      </trkpt>
      <trkpt lat="43.59744" lon="2.95151">
        <ele>457.8</ele>
        <time>2015-12-14T11:12:29.132Z</time>
      </trkpt>
      <trkpt lat="43.59752" lon="2.95154">
        <ele>458</ele>
        <time>2015-12-14T11:12:34.172Z</time>
      </trkpt>
      <trkpt lat="43.59753" lon="2.95156">
        <ele>458.1</ele>
        <time>2015-12-14T11:12:35.132Z</time>
      </trkpt>
      <trkpt lat="43.5976" lon="2.95163">
        <ele>459.1</ele>
        <time>2015-12-14T11:12:42.184Z</time>
      </trkpt>
      <trkpt lat="43.5976" lon="2.95163">
        <ele>459.2</ele>
        <time>2015-12-14T11:12:43.133Z</time>
      </trkpt>
      <trkpt lat="43.59765" lon="2.95172">
        <ele>460.3</ele>
        <time>2015-12-14T11:12:52.178Z</time>
      </trkpt>
      <trkpt lat="43.59765" lon="2.95174">
        <ele>460.4</ele>
        <time>2015-12-14T11:12:53.133Z</time>
      </trkpt>
      <trkpt lat="43.59769" lon="2.95184">
        <ele>461.8</ele>
        <time>2015-12-14T11:13:03.164Z</time>
      </trkpt>
      <trkpt lat="43.5977" lon="2.95185">
        <ele>461.9</ele>
        <time>2015-12-14T11:13:04.135Z</time>
      </trkpt>
      <trkpt lat="43.59775" lon="2.95194">
        <ele>462.4</ele>
        <time>2015-12-14T11:13:11.185Z</time>
      </trkpt>
      <trkpt lat="43.59775" lon="2.95195">
        <ele>462.4</ele>
        <time>2015-12-14T11:13:12.144Z</time>
      </trkpt>
      <trkpt lat="43.5978" lon="2.95204">
        <ele>463.1</ele>
        <time>2015-12-14T11:13:20.192Z</time>
      </trkpt>
      <trkpt lat="43.59781" lon="2.95205">
        <ele>463.3</ele>
        <time>2015-12-14T11:13:21.130Z</time>
      </trkpt>
      <trkpt lat="43.59786" lon="2.95214">
        <ele>464.3</ele>
        <time>2015-12-14T11:13:29.167Z</time>
      </trkpt>
      <trkpt lat="43.59786" lon="2.95216">
        <ele>464.5</ele>
        <time>2015-12-14T11:13:30.132Z</time>
      </trkpt>
      <trkpt lat="43.59791" lon="2.95224">
        <ele>465.1</ele>
        <time>2015-12-14T11:13:38.189Z</time>
      </trkpt>
      <trkpt lat="43.59792" lon="2.95225">
        <ele>465.1</ele>
        <time>2015-12-14T11:13:39.135Z</time>
      </trkpt>
      <trkpt lat="43.59798" lon="2.95232">
        <ele>466.3</ele>
        <time>2015-12-14T11:13:46.218Z</time>
      </trkpt>
      <trkpt lat="43.59799" lon="2.95233">
        <ele>466.5</ele>
        <time>2015-12-14T11:13:47.133Z</time>
      </trkpt>
      <trkpt lat="43.59807" lon="2.9524">
        <ele>467.5</ele>
        <time>2015-12-14T11:13:54.188Z</time>
      </trkpt>
      <trkpt lat="43.59808" lon="2.9524">
        <ele>467.6</ele>
        <time>2015-12-14T11:13:55.139Z</time>
      </trkpt>
      <trkpt lat="43.59815" lon="2.95245">
        <ele>468.4</ele>
        <time>2015-12-14T11:14:02.197Z</time>
      </trkpt>
      <trkpt lat="43.59816" lon="2.95245">
        <ele>468.6</ele>
        <time>2015-12-14T11:14:03.135Z</time>
      </trkpt>
      <trkpt lat="43.59824" lon="2.9525">
        <ele>469.8</ele>
        <time>2015-12-14T11:14:10.178Z</time>
      </trkpt>
      <trkpt lat="43.59825" lon="2.95251">
        <ele>469.8</ele>
        <time>2015-12-14T11:14:11.140Z</time>
      </trkpt>
      <trkpt lat="43.59831" lon="2.95258">
        <ele>471</ele>
        <time>2015-12-14T11:14:20.191Z</time>
      </trkpt>
      <trkpt lat="43.59832" lon="2.95259">
        <ele>471</ele>
        <time>2015-12-14T11:14:21.135Z</time>
      </trkpt>
      <trkpt lat="43.59838" lon="2.95265">
        <ele>471.8</ele>
        <time>2015-12-14T11:14:32.189Z</time>
      </trkpt>
      <trkpt lat="43.59839" lon="2.95267">
        <ele>471.9</ele>
        <time>2015-12-14T11:14:33.136Z</time>
      </trkpt>
      <trkpt lat="43.59845" lon="2.95274">
        <ele>472.9</ele>
        <time>2015-12-14T11:14:39.168Z</time>
      </trkpt>
      <trkpt lat="43.59846" lon="2.95276">
        <ele>473.1</ele>
        <time>2015-12-14T11:14:40.129Z</time>
      </trkpt>
      <trkpt lat="43.59852" lon="2.95284">
        <ele>473.8</ele>
        <time>2015-12-14T11:14:45.182Z</time>
      </trkpt>
      <trkpt lat="43.59853" lon="2.95285">
        <ele>473.9</ele>
        <time>2015-12-14T11:14:46.143Z</time>
      </trkpt>
      <trkpt lat="43.59857" lon="2.95296">
        <ele>474.3</ele>
        <time>2015-12-14T11:14:51.196Z</time>
      </trkpt>
      <trkpt lat="43.59857" lon="2.95297">
        <ele>474.4</ele>
        <time>2015-12-14T11:14:52.137Z</time>
      </trkpt>
      <trkpt lat="43.59861" lon="2.95308">
        <ele>475.3</ele>
        <time>2015-12-14T11:14:59.182Z</time>
      </trkpt>
      <trkpt lat="43.59861" lon="2.95309">
        <ele>475.4</ele>
        <time>2015-12-14T11:15:00.132Z</time>
      </trkpt>
      <trkpt lat="43.59861" lon="2.9532">
        <ele>475.7</ele>
        <time>2015-12-14T11:15:05.166Z</time>
      </trkpt>
      <trkpt lat="43.59861" lon="2.95322">
        <ele>475.7</ele>
        <time>2015-12-14T11:15:06.487Z</time>
      </trkpt>
      <trkpt lat="43.59862" lon="2.95333">
        <ele>475.5</ele>
        <time>2015-12-14T11:15:13.163Z</time>
      </trkpt>
      <trkpt lat="43.59863" lon="2.95334">
        <ele>475.5</ele>
        <time>2015-12-14T11:15:14.134Z</time>
      </trkpt>
      <trkpt lat="43.59865" lon="2.95347">
        <ele>476</ele>
        <time>2015-12-14T11:15:22.177Z</time>
      </trkpt>
      <trkpt lat="43.59865" lon="2.95348">
        <ele>476.1</ele>
        <time>2015-12-14T11:15:23.133Z</time>
      </trkpt>
      <trkpt lat="43.59868" lon="2.95359">
        <ele>477</ele>
        <time>2015-12-14T11:15:30.199Z</time>
      </trkpt>
      <trkpt lat="43.59868" lon="2.95362">
        <ele>476.8</ele>
        <time>2015-12-14T11:15:31.141Z</time>
      </trkpt>
      <trkpt lat="43.5987" lon="2.95372">
        <ele>477</ele>
        <time>2015-12-14T11:15:36.178Z</time>
      </trkpt>
      <trkpt lat="43.5987" lon="2.95374">
        <ele>476.9</ele>
        <time>2015-12-14T11:15:37.135Z</time>
      </trkpt>
      <trkpt lat="43.59871" lon="2.95385">
        <ele>476.8</ele>
        <time>2015-12-14T11:15:42.165Z</time>
      </trkpt>
      <trkpt lat="43.59871" lon="2.95387">
        <ele>476.8</ele>
        <time>2015-12-14T11:15:43.131Z</time>
      </trkpt>
      <trkpt lat="43.59874" lon="2.95399">
        <ele>477.5</ele>
        <time>2015-12-14T11:15:48.191Z</time>
      </trkpt>
      <trkpt lat="43.59874" lon="2.954">
        <ele>477.7</ele>
        <time>2015-12-14T11:15:49.141Z</time>
      </trkpt>
      <trkpt lat="43.59877" lon="2.95411">
        <ele>478.3</ele>
        <time>2015-12-14T11:15:54.164Z</time>
      </trkpt>
      <trkpt lat="43.59878" lon="2.95413">
        <ele>478.4</ele>
        <time>2015-12-14T11:15:55.134Z</time>
      </trkpt>
      <trkpt lat="43.59882" lon="2.95423">
        <ele>478.8</ele>
        <time>2015-12-14T11:16:00.190Z</time>
      </trkpt>
      <trkpt lat="43.59882" lon="2.95425">
        <ele>478.9</ele>
        <time>2015-12-14T11:16:01.133Z</time>
      </trkpt>
      <trkpt lat="43.59885" lon="2.95437">
        <ele>479.3</ele>
        <time>2015-12-14T11:16:05.203Z</time>
      </trkpt>
      <trkpt lat="43.59885" lon="2.95439">
        <ele>479.4</ele>
        <time>2015-12-14T11:16:06.135Z</time>
      </trkpt>
      <trkpt lat="43.59885" lon="2.95451">
        <ele>479.7</ele>
        <time>2015-12-14T11:16:10.214Z</time>
      </trkpt>
      <trkpt lat="43.59886" lon="2.95453">
        <ele>479.7</ele>
        <time>2015-12-14T11:16:11.134Z</time>
      </trkpt>
      <trkpt lat="43.5989" lon="2.95464">
        <ele>479.9</ele>
        <time>2015-12-14T11:16:17.398Z</time>
      </trkpt>
      <trkpt lat="43.5989" lon="2.95466">
        <ele>480</ele>
        <time>2015-12-14T11:16:18.137Z</time>
      </trkpt>
      <trkpt lat="43.59892" lon="2.95478">
        <ele>480.5</ele>
        <time>2015-12-14T11:16:23.167Z</time>
      </trkpt>
      <trkpt lat="43.59891" lon="2.9548">
        <ele>480.7</ele>
        <time>2015-12-14T11:16:24.131Z</time>
      </trkpt>
      <trkpt lat="43.59889" lon="2.9549">
        <ele>481.4</ele>
        <time>2015-12-14T11:16:28.188Z</time>
      </trkpt>
      <trkpt lat="43.59889" lon="2.95493">
        <ele>481.6</ele>
        <time>2015-12-14T11:16:29.151Z</time>
      </trkpt>
      <trkpt lat="43.59889" lon="2.95505">
        <ele>482.3</ele>
        <time>2015-12-14T11:16:33.182Z</time>
      </trkpt>
      <trkpt lat="43.5989" lon="2.95507">
        <ele>482.5</ele>
        <time>2015-12-14T11:16:34.139Z</time>
      </trkpt>
      <trkpt lat="43.59894" lon="2.95516">
        <ele>483.4</ele>
        <time>2015-12-14T11:16:38.190Z</time>
      </trkpt>
      <trkpt lat="43.59895" lon="2.95519">
        <ele>483.6</ele>
        <time>2015-12-14T11:16:39.142Z</time>
      </trkpt>
      <trkpt lat="43.59899" lon="2.95528">
        <ele>484</ele>
        <time>2015-12-14T11:16:43.184Z</time>
      </trkpt>
      <trkpt lat="43.599" lon="2.95531">
        <ele>484.1</ele>
        <time>2015-12-14T11:16:44.138Z</time>
      </trkpt>
      <trkpt lat="43.59903" lon="2.95541">
        <ele>484.7</ele>
        <time>2015-12-14T11:16:49.180Z</time>
      </trkpt>
      <trkpt lat="43.59903" lon="2.95543">
        <ele>484.7</ele>
        <time>2015-12-14T11:16:50.137Z</time>
      </trkpt>
      <trkpt lat="43.59906" lon="2.95554">
        <ele>485.2</ele>
        <time>2015-12-14T11:16:55.186Z</time>
      </trkpt>
      <trkpt lat="43.59907" lon="2.95556">
        <ele>485.3</ele>
        <time>2015-12-14T11:16:56.133Z</time>
      </trkpt>
      <trkpt lat="43.59912" lon="2.95565">
        <ele>486.6</ele>
        <time>2015-12-14T11:17:02.178Z</time>
      </trkpt>
      <trkpt lat="43.59913" lon="2.95566">
        <ele>486.8</ele>
        <time>2015-12-14T11:17:03.133Z</time>
      </trkpt>
      <trkpt lat="43.59918" lon="2.95575">
        <ele>487.9</ele>
        <time>2015-12-14T11:17:09.188Z</time>
      </trkpt>
      <trkpt lat="43.59919" lon="2.95576">
        <ele>488</ele>
        <time>2015-12-14T11:17:10.138Z</time>
      </trkpt>
      <trkpt lat="43.59925" lon="2.95582">
        <ele>488.7</ele>
        <time>2015-12-14T11:17:15.168Z</time>
      </trkpt>
      <trkpt lat="43.59927" lon="2.95583">
        <ele>488.8</ele>
        <time>2015-12-14T11:17:16.131Z</time>
      </trkpt>
      <trkpt lat="43.59933" lon="2.95591">
        <ele>489.9</ele>
        <time>2015-12-14T11:17:21.519Z</time>
      </trkpt>
      <trkpt lat="43.59934" lon="2.95592">
        <ele>490.2</ele>
        <time>2015-12-14T11:17:22.136Z</time>
      </trkpt>
      <trkpt lat="43.59943" lon="2.95595">
        <ele>491.1</ele>
        <time>2015-12-14T11:17:27.180Z</time>
      </trkpt>
      <trkpt lat="43.59944" lon="2.95595">
        <ele>491.3</ele>
        <time>2015-12-14T11:17:28.142Z</time>
      </trkpt>
      <trkpt lat="43.59951" lon="2.95588">
        <ele>492</ele>
        <time>2015-12-14T11:17:34.167Z</time>
      </trkpt>
      <trkpt lat="43.59953" lon="2.95588">
        <ele>492.3</ele>
        <time>2015-12-14T11:17:35.135Z</time>
      </trkpt>
      <trkpt lat="43.59961" lon="2.95588">
        <ele>494.4</ele>
        <time>2015-12-14T11:17:49.174Z</time>
      </trkpt>
      <trkpt lat="43.59965" lon="2.9559">
        <ele>494.9</ele>
        <time>2015-12-14T11:17:50.131Z</time>
      </trkpt>
      <trkpt lat="43.59973" lon="2.95596">
        <ele>496.3</ele>
        <time>2015-12-14T11:17:55.182Z</time>
      </trkpt>
      <trkpt lat="43.59973" lon="2.95597">
        <ele>496.6</ele>
        <time>2015-12-14T11:17:56.140Z</time>
      </trkpt>
      <trkpt lat="43.59973" lon="2.95585">
        <ele>499.2</ele>
        <time>2015-12-14T11:18:11.178Z</time>
      </trkpt>
      <trkpt lat="43.59971" lon="2.95584">
        <ele>499.4</ele>
        <time>2015-12-14T11:18:12.129Z</time>
      </trkpt>
      <trkpt lat="43.59964" lon="2.95578">
        <ele>500.7</ele>
        <time>2015-12-14T11:18:20.405Z</time>
      </trkpt>
      <trkpt lat="43.59964" lon="2.95578">
        <ele>501.1</ele>
        <time>2015-12-14T11:18:21.148Z</time>
      </trkpt>
      <trkpt lat="43.59958" lon="2.95568">
        <ele>503.2</ele>
        <time>2015-12-14T11:18:35.201Z</time>
      </trkpt>
      <trkpt lat="43.59958" lon="2.95567">
        <ele>503.3</ele>
        <time>2015-12-14T11:18:36.139Z</time>
      </trkpt>
      <trkpt lat="43.59952" lon="2.95557">
        <ele>504.8</ele>
        <time>2015-12-14T11:18:52.162Z</time>
      </trkpt>
      <trkpt lat="43.59951" lon="2.95557">
        <ele>504.8</ele>
        <time>2015-12-14T11:18:53.133Z</time>
      </trkpt>
      <trkpt lat="43.59959" lon="2.9556">
        <ele>508.9</ele>
        <time>2015-12-14T11:27:21.172Z</time>
      </trkpt>
      <trkpt lat="43.5996" lon="2.95559">
        <ele>509.2</ele>
        <time>2015-12-14T11:27:22.135Z</time>
      </trkpt>
      <trkpt lat="43.59965" lon="2.95569">
        <ele>509.5</ele>
        <time>2015-12-14T11:27:35.175Z</time>
      </trkpt>
      <trkpt lat="43.59966" lon="2.95571">
        <ele>509.5</ele>
        <time>2015-12-14T11:27:36.135Z</time>
      </trkpt>
      <trkpt lat="43.59971" lon="2.9558">
        <ele>510.1</ele>
        <time>2015-12-14T11:27:41.169Z</time>
      </trkpt>
      <trkpt lat="43.59972" lon="2.95582">
        <ele>510.1</ele>
        <time>2015-12-14T11:27:42.132Z</time>
      </trkpt>
      <trkpt lat="43.59978" lon="2.9559">
        <ele>509.8</ele>
        <time>2015-12-14T11:27:48.168Z</time>
      </trkpt>
      <trkpt lat="43.59979" lon="2.95592">
        <ele>509.7</ele>
        <time>2015-12-14T11:27:49.142Z</time>
      </trkpt>
      <trkpt lat="43.5997" lon="2.95595">
        <ele>510.1</ele>
        <time>2015-12-14T11:28:00.203Z</time>
      </trkpt>
      <trkpt lat="43.59969" lon="2.95593">
        <ele>510.2</ele>
        <time>2015-12-14T11:28:01.137Z</time>
      </trkpt>
      <trkpt lat="43.5996" lon="2.95591">
        <ele>510.7</ele>
        <time>2015-12-14T11:28:05.188Z</time>
      </trkpt>
      <trkpt lat="43.59958" lon="2.95592">
        <ele>510.7</ele>
        <time>2015-12-14T11:28:06.140Z</time>
      </trkpt>
      <trkpt lat="43.59951" lon="2.95596">
        <ele>511</ele>
        <time>2015-12-14T11:28:09.424Z</time>
      </trkpt>
      <trkpt lat="43.59949" lon="2.95596">
        <ele>511.1</ele>
        <time>2015-12-14T11:28:10.140Z</time>
      </trkpt>
      <trkpt lat="43.59941" lon="2.95598">
        <ele>512</ele>
        <time>2015-12-14T11:28:13.177Z</time>
      </trkpt>
      <trkpt lat="43.59938" lon="2.95597">
        <ele>512</ele>
        <time>2015-12-14T11:28:14.129Z</time>
      </trkpt>
      <trkpt lat="43.59932" lon="2.95594">
        <ele>512.1</ele>
        <time>2015-12-14T11:28:16.165Z</time>
      </trkpt>
      <trkpt lat="43.5993" lon="2.95591">
        <ele>512</ele>
        <time>2015-12-14T11:28:17.132Z</time>
      </trkpt>
      <trkpt lat="43.59924" lon="2.95586">
        <ele>512</ele>
        <time>2015-12-14T11:28:19.176Z</time>
      </trkpt>
      <trkpt lat="43.59921" lon="2.95583">
        <ele>512.1</ele>
        <time>2015-12-14T11:28:20.140Z</time>
      </trkpt>
      <trkpt lat="43.59916" lon="2.95577">
        <ele>512</ele>
        <time>2015-12-14T11:28:22.181Z</time>
      </trkpt>
      <trkpt lat="43.59915" lon="2.95572">
        <ele>512</ele>
        <time>2015-12-14T11:28:23.136Z</time>
      </trkpt>
      <trkpt lat="43.5991" lon="2.95565">
        <ele>512.1</ele>
        <time>2015-12-14T11:28:25.207Z</time>
      </trkpt>
      <trkpt lat="43.59906" lon="2.95562">
        <ele>512.2</ele>
        <time>2015-12-14T11:28:26.137Z</time>
      </trkpt>
      <trkpt lat="43.59902" lon="2.95553">
        <ele>511.9</ele>
        <time>2015-12-14T11:28:28.182Z</time>
      </trkpt>
      <trkpt lat="43.59899" lon="2.95549">
        <ele>511.7</ele>
        <time>2015-12-14T11:28:29.136Z</time>
      </trkpt>
      <trkpt lat="43.59897" lon="2.95541">
        <ele>511.5</ele>
        <time>2015-12-14T11:28:31.166Z</time>
      </trkpt>
      <trkpt lat="43.59896" lon="2.95536">
        <ele>511.3</ele>
        <time>2015-12-14T11:28:32.132Z</time>
      </trkpt>
      <trkpt lat="43.59892" lon="2.95527">
        <ele>510.9</ele>
        <time>2015-12-14T11:28:34.187Z</time>
      </trkpt>
      <trkpt lat="43.59889" lon="2.95523">
        <ele>510.7</ele>
        <time>2015-12-14T11:28:35.136Z</time>
      </trkpt>
      <trkpt lat="43.59884" lon="2.95515">
        <ele>510.3</ele>
        <time>2015-12-14T11:28:37.178Z</time>
      </trkpt>
      <trkpt lat="43.59883" lon="2.95509">
        <ele>510.1</ele>
        <time>2015-12-14T11:28:38.133Z</time>
      </trkpt>
      <trkpt lat="43.59882" lon="2.95497">
        <ele>509.8</ele>
        <time>2015-12-14T11:28:40.188Z</time>
      </trkpt>
      <trkpt lat="43.59883" lon="2.95491">
        <ele>509.7</ele>
        <time>2015-12-14T11:28:41.136Z</time>
      </trkpt>
      <trkpt lat="43.59887" lon="2.95482">
        <ele>509.3</ele>
        <time>2015-12-14T11:28:43.210Z</time>
      </trkpt>
      <trkpt lat="43.59888" lon="2.95476">
        <ele>509</ele>
        <time>2015-12-14T11:28:44.136Z</time>
      </trkpt>
      <trkpt lat="43.59887" lon="2.95464">
        <ele>508.4</ele>
        <time>2015-12-14T11:28:47.173Z</time>
      </trkpt>
      <trkpt lat="43.59886" lon="2.95461">
        <ele>508.2</ele>
        <time>2015-12-14T11:28:48.133Z</time>
      </trkpt>
      <trkpt lat="43.59886" lon="2.9545">
        <ele>507.7</ele>
        <time>2015-12-14T11:28:52.199Z</time>
      </trkpt>
      <trkpt lat="43.59885" lon="2.95448">
        <ele>507.4</ele>
        <time>2015-12-14T11:28:53.134Z</time>
      </trkpt>
      <trkpt lat="43.59882" lon="2.95439">
        <ele>507</ele>
        <time>2015-12-14T11:28:55.178Z</time>
      </trkpt>
      <trkpt lat="43.5988" lon="2.95435">
        <ele>506.8</ele>
        <time>2015-12-14T11:28:56.134Z</time>
      </trkpt>
      <trkpt lat="43.59877" lon="2.95427">
        <ele>506.2</ele>
        <time>2015-12-14T11:28:58.579Z</time>
      </trkpt>
      <trkpt lat="43.59877" lon="2.95422">
        <ele>506.1</ele>
        <time>2015-12-14T11:28:59.133Z</time>
      </trkpt>
      <trkpt lat="43.59874" lon="2.95411">
        <ele>505.7</ele>
        <time>2015-12-14T11:29:02.166Z</time>
      </trkpt>
      <trkpt lat="43.59873" lon="2.95407">
        <ele>505.6</ele>
        <time>2015-12-14T11:29:03.139Z</time>
      </trkpt>
      <trkpt lat="43.59872" lon="2.95397">
        <ele>505.2</ele>
        <time>2015-12-14T11:29:05.182Z</time>
      </trkpt>
      <trkpt lat="43.59871" lon="2.95392">
        <ele>505</ele>
        <time>2015-12-14T11:29:06.146Z</time>
      </trkpt>
      <trkpt lat="43.59869" lon="2.95382">
        <ele>504.5</ele>
        <time>2015-12-14T11:29:08.169Z</time>
      </trkpt>
      <trkpt lat="43.59868" lon="2.95378">
        <ele>504.1</ele>
        <time>2015-12-14T11:29:09.136Z</time>
      </trkpt>
      <trkpt lat="43.59866" lon="2.95369">
        <ele>503.6</ele>
        <time>2015-12-14T11:29:11.164Z</time>
      </trkpt>
      <trkpt lat="43.59865" lon="2.95363">
        <ele>503.4</ele>
        <time>2015-12-14T11:29:12.141Z</time>
      </trkpt>
      <trkpt lat="43.59864" lon="2.95353">
        <ele>503</ele>
        <time>2015-12-14T11:29:14.181Z</time>
      </trkpt>
      <trkpt lat="43.59863" lon="2.95347">
        <ele>502.8</ele>
        <time>2015-12-14T11:29:15.140Z</time>
      </trkpt>
      <trkpt lat="43.59863" lon="2.95337">
        <ele>502.6</ele>
        <time>2015-12-14T11:29:17.174Z</time>
      </trkpt>
      <trkpt lat="43.59862" lon="2.9533">
        <ele>502.5</ele>
        <time>2015-12-14T11:29:18.370Z</time>
      </trkpt>
      <trkpt lat="43.59862" lon="2.95323">
        <ele>502.3</ele>
        <time>2015-12-14T11:29:19.166Z</time>
      </trkpt>
      <trkpt lat="43.59861" lon="2.95317">
        <ele>502</ele>
        <time>2015-12-14T11:29:20.132Z</time>
      </trkpt>
      <trkpt lat="43.59858" lon="2.95306">
        <ele>501.5</ele>
        <time>2015-12-14T11:29:22.162Z</time>
      </trkpt>
      <trkpt lat="43.59856" lon="2.95301">
        <ele>501.3</ele>
        <time>2015-12-14T11:29:23.145Z</time>
      </trkpt>
      <trkpt lat="43.59853" lon="2.95291">
        <ele>500.7</ele>
        <time>2015-12-14T11:29:25.176Z</time>
      </trkpt>
      <trkpt lat="43.59851" lon="2.95285">
        <ele>500.9</ele>
        <time>2015-12-14T11:29:26.134Z</time>
      </trkpt>
      <trkpt lat="43.59845" lon="2.95277">
        <ele>500.2</ele>
        <time>2015-12-14T11:29:28.162Z</time>
      </trkpt>
      <trkpt lat="43.59843" lon="2.95272">
        <ele>500.2</ele>
        <time>2015-12-14T11:29:29.134Z</time>
      </trkpt>
      <trkpt lat="43.59837" lon="2.95264">
        <ele>500</ele>
        <time>2015-12-14T11:29:31.185Z</time>
      </trkpt>
      <trkpt lat="43.59833" lon="2.9526">
        <ele>499.8</ele>
        <time>2015-12-14T11:29:32.140Z</time>
      </trkpt>
      <trkpt lat="43.59826" lon="2.95254">
        <ele>499.4</ele>
        <time>2015-12-14T11:29:34.190Z</time>
      </trkpt>
      <trkpt lat="43.59821" lon="2.95251">
        <ele>499.1</ele>
        <time>2015-12-14T11:29:35.139Z</time>
      </trkpt>
      <trkpt lat="43.59815" lon="2.95245">
        <ele>498</ele>
        <time>2015-12-14T11:29:37.161Z</time>
      </trkpt>
      <trkpt lat="43.59812" lon="2.95242">
        <ele>497.5</ele>
        <time>2015-12-14T11:29:38.132Z</time>
      </trkpt>
      <trkpt lat="43.59805" lon="2.95235">
        <ele>497</ele>
        <time>2015-12-14T11:29:40.185Z</time>
      </trkpt>
      <trkpt lat="43.59801" lon="2.95232">
        <ele>496.7</ele>
        <time>2015-12-14T11:29:41.143Z</time>
      </trkpt>
      <trkpt lat="43.59798" lon="2.95227">
        <ele>496.1</ele>
        <time>2015-12-14T11:29:42.180Z</time>
      </trkpt>
      <trkpt lat="43.59794" lon="2.95223">
        <ele>495.8</ele>
        <time>2015-12-14T11:29:43.140Z</time>
      </trkpt>
      <trkpt lat="43.59787" lon="2.95216">
        <ele>495.2</ele>
        <time>2015-12-14T11:29:45.185Z</time>
      </trkpt>
      <trkpt lat="43.59783" lon="2.95212">
        <ele>494.7</ele>
        <time>2015-12-14T11:29:46.132Z</time>
      </trkpt>
      <trkpt lat="43.59778" lon="2.95204">
        <ele>493.8</ele>
        <time>2015-12-14T11:29:48.173Z</time>
      </trkpt>
      <trkpt lat="43.59776" lon="2.95201">
        <ele>493.5</ele>
        <time>2015-12-14T11:29:49.135Z</time>
      </trkpt>
      <trkpt lat="43.59772" lon="2.95193">
        <ele>492.7</ele>
        <time>2015-12-14T11:29:51.179Z</time>
      </trkpt>
      <trkpt lat="43.59771" lon="2.95191">
        <ele>492.4</ele>
        <time>2015-12-14T11:29:52.135Z</time>
      </trkpt>
      <trkpt lat="43.59766" lon="2.95183">
        <ele>491.6</ele>
        <time>2015-12-14T11:29:55.175Z</time>
      </trkpt>
      <trkpt lat="43.59765" lon="2.95179">
        <ele>491.2</ele>
        <time>2015-12-14T11:29:56.132Z</time>
      </trkpt>
      <trkpt lat="43.59762" lon="2.95172">
        <ele>490.7</ele>
        <time>2015-12-14T11:29:58.158Z</time>
      </trkpt>
      <trkpt lat="43.59759" lon="2.95169">
        <ele>490</ele>
        <time>2015-12-14T11:29:59.132Z</time>
      </trkpt>
      <trkpt lat="43.59753" lon="2.95164">
        <ele>489.5</ele>
        <time>2015-12-14T11:30:01.186Z</time>
      </trkpt>
      <trkpt lat="43.5975" lon="2.95162">
        <ele>489.2</ele>
        <time>2015-12-14T11:30:02.135Z</time>
      </trkpt>
      <trkpt lat="43.59745" lon="2.95157">
        <ele>488.9</ele>
        <time>2015-12-14T11:30:04.166Z</time>
      </trkpt>
      <trkpt lat="43.59742" lon="2.95155">
        <ele>488.7</ele>
        <time>2015-12-14T11:30:05.139Z</time>
      </trkpt>
      <trkpt lat="43.59737" lon="2.95148">
        <ele>488</ele>
        <time>2015-12-14T11:30:07.167Z</time>
      </trkpt>
      <trkpt lat="43.59734" lon="2.95145">
        <ele>487.8</ele>
        <time>2015-12-14T11:30:08.135Z</time>
      </trkpt>
      <trkpt lat="43.59727" lon="2.95139">
        <ele>487.3</ele>
        <time>2015-12-14T11:30:10.174Z</time>
      </trkpt>
      <trkpt lat="43.59723" lon="2.95137">
        <ele>487.1</ele>
        <time>2015-12-14T11:30:11.152Z</time>
      </trkpt>
      <trkpt lat="43.59717" lon="2.95131">
        <ele>486.7</ele>
        <time>2015-12-14T11:30:13.167Z</time>
      </trkpt>
      <trkpt lat="43.59714" lon="2.95126">
        <ele>486.6</ele>
        <time>2015-12-14T11:30:14.133Z</time>
      </trkpt>
      <trkpt lat="43.59707" lon="2.9512">
        <ele>486.3</ele>
        <time>2015-12-14T11:30:16.197Z</time>
      </trkpt>
      <trkpt lat="43.59704" lon="2.95117">
        <ele>485.9</ele>
        <time>2015-12-14T11:30:17.131Z</time>
      </trkpt>
      <trkpt lat="43.59698" lon="2.95111">
        <ele>485.6</ele>
        <time>2015-12-14T11:30:20.182Z</time>
      </trkpt>
      <trkpt lat="43.59695" lon="2.95107">
        <ele>485.5</ele>
        <time>2015-12-14T11:30:21.139Z</time>
      </trkpt>
      <trkpt lat="43.59689" lon="2.95101">
        <ele>484.9</ele>
        <time>2015-12-14T11:30:23.172Z</time>
      </trkpt>
      <trkpt lat="43.59687" lon="2.95099">
        <ele>484.6</ele>
        <time>2015-12-14T11:30:24.137Z</time>
      </trkpt>
      <trkpt lat="43.5968" lon="2.95092">
        <ele>484</ele>
        <time>2015-12-14T11:30:26.240Z</time>
      </trkpt>
      <trkpt lat="43.59677" lon="2.95088">
        <ele>483.7</ele>
        <time>2015-12-14T11:30:27.139Z</time>
      </trkpt>
      <trkpt lat="43.59671" lon="2.95082">
        <ele>483.1</ele>
        <time>2015-12-14T11:30:29.204Z</time>
      </trkpt>
      <trkpt lat="43.59669" lon="2.95079">
        <ele>482.7</ele>
        <time>2015-12-14T11:30:30.132Z</time>
      </trkpt>
      <trkpt lat="43.59664" lon="2.95076">
        <ele>481.9</ele>
        <time>2015-12-14T11:30:32.197Z</time>
      </trkpt>
      <trkpt lat="43.5966" lon="2.95072">
        <ele>481.6</ele>
        <time>2015-12-14T11:30:33.473Z</time>
      </trkpt>
      <trkpt lat="43.59668" lon="2.95069">
        <ele>476.5</ele>
        <time>2015-12-14T11:30:44.164Z</time>
      </trkpt>
      <trkpt lat="43.59669" lon="2.9507">
        <ele>476.3</ele>
        <time>2015-12-14T11:30:45.134Z</time>
      </trkpt>
      <trkpt lat="43.59677" lon="2.95074">
        <ele>475.7</ele>
        <time>2015-12-14T11:30:48.192Z</time>
      </trkpt>
      <trkpt lat="43.5968" lon="2.95074">
        <ele>475.6</ele>
        <time>2015-12-14T11:30:49.139Z</time>
      </trkpt>
      <trkpt lat="43.59686" lon="2.95074">
        <ele>475.5</ele>
        <time>2015-12-14T11:30:51.181Z</time>
      </trkpt>
      <trkpt lat="43.5969" lon="2.95074">
        <ele>475.3</ele>
        <time>2015-12-14T11:30:52.137Z</time>
      </trkpt>
      <trkpt lat="43.59695" lon="2.95077">
        <ele>474.8</ele>
        <time>2015-12-14T11:30:54.162Z</time>
      </trkpt>
      <trkpt lat="43.59699" lon="2.95077">
        <ele>474.6</ele>
        <time>2015-12-14T11:30:55.134Z</time>
      </trkpt>
      <trkpt lat="43.59707" lon="2.9508">
        <ele>474.1</ele>
        <time>2015-12-14T11:30:58.173Z</time>
      </trkpt>
      <trkpt lat="43.5971" lon="2.95081">
        <ele>473.9</ele>
        <time>2015-12-14T11:30:59.136Z</time>
      </trkpt>
      <trkpt lat="43.59719" lon="2.95082">
        <ele>473</ele>
        <time>2015-12-14T11:31:03.606Z</time>
      </trkpt>
      <trkpt lat="43.59721" lon="2.9508">
        <ele>472.5</ele>
        <time>2015-12-14T11:31:04.133Z</time>
      </trkpt>
      <trkpt lat="43.59722" lon="2.95068">
        <ele>469.3</ele>
        <time>2015-12-14T11:31:11.178Z</time>
      </trkpt>
      <trkpt lat="43.5972" lon="2.95066">
        <ele>468.8</ele>
        <time>2015-12-14T11:31:12.139Z</time>
      </trkpt>
      <trkpt lat="43.59713" lon="2.95059">
        <ele>467.2</ele>
        <time>2015-12-14T11:31:15.165Z</time>
      </trkpt>
      <trkpt lat="43.5971" lon="2.95054">
        <ele>466.8</ele>
        <time>2015-12-14T11:31:16.135Z</time>
      </trkpt>
      <trkpt lat="43.59705" lon="2.95046">
        <ele>465.8</ele>
        <time>2015-12-14T11:31:18.164Z</time>
      </trkpt>
      <trkpt lat="43.59703" lon="2.95041">
        <ele>465.2</ele>
        <time>2015-12-14T11:31:19.142Z</time>
      </trkpt>
      <trkpt lat="43.59699" lon="2.95032">
        <ele>464.1</ele>
        <time>2015-12-14T11:31:21.180Z</time>
      </trkpt>
      <trkpt lat="43.59696" lon="2.95028">
        <ele>463.3</ele>
        <time>2015-12-14T11:31:22.137Z</time>
      </trkpt>
      <trkpt lat="43.59693" lon="2.95023">
        <ele>462.6</ele>
        <time>2015-12-14T11:31:23.572Z</time>
      </trkpt>
      <trkpt lat="43.59689" lon="2.9502">
        <ele>461.8</ele>
        <time>2015-12-14T11:31:24.133Z</time>
      </trkpt>
      <trkpt lat="43.59684" lon="2.95017">
        <ele>461.1</ele>
        <time>2015-12-14T11:31:25.176Z</time>
      </trkpt>
      <trkpt lat="43.5968" lon="2.95014">
        <ele>460.3</ele>
        <time>2015-12-14T11:31:26.132Z</time>
      </trkpt>
      <trkpt lat="43.59675" lon="2.95012">
        <ele>459.6</ele>
        <time>2015-12-14T11:31:27.165Z</time>
      </trkpt>
      <trkpt lat="43.59671" lon="2.9501">
        <ele>458.7</ele>
        <time>2015-12-14T11:31:28.135Z</time>
      </trkpt>
      <trkpt lat="43.59666" lon="2.95009">
        <ele>457.9</ele>
        <time>2015-12-14T11:31:29.177Z</time>
      </trkpt>
      <trkpt lat="43.59662" lon="2.95006">
        <ele>457.1</ele>
        <time>2015-12-14T11:31:30.138Z</time>
      </trkpt>
      <trkpt lat="43.59657" lon="2.95005">
        <ele>456.3</ele>
        <time>2015-12-14T11:31:31.184Z</time>
      </trkpt>
      <trkpt lat="43.59652" lon="2.95004">
        <ele>455.5</ele>
        <time>2015-12-14T11:31:32.139Z</time>
      </trkpt>
      <trkpt lat="43.59647" lon="2.95003">
        <ele>454.9</ele>
        <time>2015-12-14T11:31:33.166Z</time>
      </trkpt>
      <trkpt lat="43.59642" lon="2.95003">
        <ele>454.2</ele>
        <time>2015-12-14T11:31:34.132Z</time>
      </trkpt>
      <trkpt lat="43.59638" lon="2.95003">
        <ele>453.6</ele>
        <time>2015-12-14T11:31:35.175Z</time>
      </trkpt>
      <trkpt lat="43.59632" lon="2.95004">
        <ele>453.1</ele>
        <time>2015-12-14T11:31:36.134Z</time>
      </trkpt>
      <trkpt lat="43.59626" lon="2.95007">
        <ele>452.6</ele>
        <time>2015-12-14T11:31:37.180Z</time>
      </trkpt>
      <trkpt lat="43.5962" lon="2.95009">
        <ele>452</ele>
        <time>2015-12-14T11:31:38.136Z</time>
      </trkpt>
      <trkpt lat="43.59615" lon="2.95012">
        <ele>451.6</ele>
        <time>2015-12-14T11:31:39.200Z</time>
      </trkpt>
      <trkpt lat="43.5961" lon="2.95015">
        <ele>451.1</ele>
        <time>2015-12-14T11:31:40.164Z</time>
      </trkpt>
      <trkpt lat="43.59605" lon="2.95018">
        <ele>450.7</ele>
        <time>2015-12-14T11:31:41.196Z</time>
      </trkpt>
      <trkpt lat="43.59602" lon="2.95021">
        <ele>450.4</ele>
        <time>2015-12-14T11:31:42.133Z</time>
      </trkpt>
      <trkpt lat="43.59595" lon="2.95026">
        <ele>449.5</ele>
        <time>2015-12-14T11:31:44.174Z</time>
      </trkpt>
      <trkpt lat="43.59591" lon="2.95028">
        <ele>449</ele>
        <time>2015-12-14T11:31:45.134Z</time>
      </trkpt>
      <trkpt lat="43.59587" lon="2.95031">
        <ele>448.6</ele>
        <time>2015-12-14T11:31:46.167Z</time>
      </trkpt>
      <trkpt lat="43.59583" lon="2.95033">
        <ele>448.2</ele>
        <time>2015-12-14T11:31:47.142Z</time>
      </trkpt>
      <trkpt lat="43.59579" lon="2.95035">
        <ele>447.7</ele>
        <time>2015-12-14T11:31:48.186Z</time>
      </trkpt>
      <trkpt lat="43.59573" lon="2.95035">
        <ele>447.2</ele>
        <time>2015-12-14T11:31:49.137Z</time>
      </trkpt>
      <trkpt lat="43.59568" lon="2.95035">
        <ele>446.7</ele>
        <time>2015-12-14T11:31:50.173Z</time>
      </trkpt>
      <trkpt lat="43.59563" lon="2.95035">
        <ele>446.2</ele>
        <time>2015-12-14T11:31:51.134Z</time>
      </trkpt>
      <trkpt lat="43.59555" lon="2.95036">
        <ele>445.4</ele>
        <time>2015-12-14T11:31:53.180Z</time>
      </trkpt>
      <trkpt lat="43.59551" lon="2.95037">
        <ele>445</ele>
        <time>2015-12-14T11:31:54.139Z</time>
      </trkpt>
      <trkpt lat="43.59544" lon="2.9504">
        <ele>444</ele>
        <time>2015-12-14T11:31:56.207Z</time>
      </trkpt>
      <trkpt lat="43.59539" lon="2.95042">
        <ele>443.4</ele>
        <time>2015-12-14T11:31:57.130Z</time>
      </trkpt>
      <trkpt lat="43.59532" lon="2.95044">
        <ele>442.4</ele>
        <time>2015-12-14T11:31:59.515Z</time>
      </trkpt>
      <trkpt lat="43.59528" lon="2.95045">
        <ele>441.9</ele>
        <time>2015-12-14T11:32:00.132Z</time>
      </trkpt>
      <trkpt lat="43.59523" lon="2.95046">
        <ele>441.5</ele>
        <time>2015-12-14T11:32:01.176Z</time>
      </trkpt>
      <trkpt lat="43.59519" lon="2.95047">
        <ele>441.1</ele>
        <time>2015-12-14T11:32:02.131Z</time>
      </trkpt>
      <trkpt lat="43.59511" lon="2.95051">
        <ele>440.2</ele>
        <time>2015-12-14T11:32:04.164Z</time>
      </trkpt>
      <trkpt lat="43.59508" lon="2.95053">
        <ele>440</ele>
        <time>2015-12-14T11:32:05.134Z</time>
      </trkpt>
      <trkpt lat="43.59501" lon="2.95058">
        <ele>439</ele>
        <time>2015-12-14T11:32:07.202Z</time>
      </trkpt>
      <trkpt lat="43.59497" lon="2.95059">
        <ele>438.7</ele>
        <time>2015-12-14T11:32:08.138Z</time>
      </trkpt>
      <trkpt lat="43.59493" lon="2.95061">
        <ele>438.2</ele>
        <time>2015-12-14T11:32:09.168Z</time>
      </trkpt>
      <trkpt lat="43.59488" lon="2.95063">
        <ele>437.7</ele>
        <time>2015-12-14T11:32:10.134Z</time>
      </trkpt>
      <trkpt lat="43.59483" lon="2.95065">
        <ele>437.4</ele>
        <time>2015-12-14T11:32:11.176Z</time>
      </trkpt>
      <trkpt lat="43.59478" lon="2.95067">
        <ele>436.8</ele>
        <time>2015-12-14T11:32:12.133Z</time>
      </trkpt>
      <trkpt lat="43.59473" lon="2.95069">
        <ele>436.3</ele>
        <time>2015-12-14T11:32:13.199Z</time>
      </trkpt>
      <trkpt lat="43.59467" lon="2.95071">
        <ele>435.9</ele>
        <time>2015-12-14T11:32:14.137Z</time>
      </trkpt>
      <trkpt lat="43.59462" lon="2.95073">
        <ele>435.5</ele>
        <time>2015-12-14T11:32:15.178Z</time>
      </trkpt>
      <trkpt lat="43.59456" lon="2.95076">
        <ele>435.2</ele>
        <time>2015-12-14T11:32:16.141Z</time>
      </trkpt>
      <trkpt lat="43.5945" lon="2.9508">
        <ele>434.8</ele>
        <time>2015-12-14T11:32:17.179Z</time>
      </trkpt>
      <trkpt lat="43.59444" lon="2.95083">
        <ele>434.5</ele>
        <time>2015-12-14T11:32:18.141Z</time>
      </trkpt>
      <trkpt lat="43.59438" lon="2.95085">
        <ele>434</ele>
        <time>2015-12-14T11:32:19.169Z</time>
      </trkpt>
      <trkpt lat="43.59434" lon="2.95088">
        <ele>433.6</ele>
        <time>2015-12-14T11:32:20.134Z</time>
      </trkpt>
      <trkpt lat="43.59426" lon="2.95091">
        <ele>433</ele>
        <time>2015-12-14T11:32:22.178Z</time>
      </trkpt>
      <trkpt lat="43.59424" lon="2.95094">
        <ele>432.6</ele>
        <time>2015-12-14T11:32:23.131Z</time>
      </trkpt>
      <trkpt lat="43.59418" lon="2.95097">
        <ele>432.2</ele>
        <time>2015-12-14T11:32:25.172Z</time>
      </trkpt>
      <trkpt lat="43.59415" lon="2.95099">
        <ele>431.9</ele>
        <time>2015-12-14T11:32:26.140Z</time>
      </trkpt>
      <trkpt lat="43.59408" lon="2.95101">
        <ele>431.7</ele>
        <time>2015-12-14T11:32:28.158Z</time>
      </trkpt>
      <trkpt lat="43.59405" lon="2.95101">
        <ele>431.6</ele>
        <time>2015-12-14T11:32:29.135Z</time>
      </trkpt>
      <trkpt lat="43.59399" lon="2.95103">
        <ele>431.7</ele>
        <time>2015-12-14T11:32:31.177Z</time>
      </trkpt>
      <trkpt lat="43.59396" lon="2.95103">
        <ele>431.9</ele>
        <time>2015-12-14T11:32:32.137Z</time>
      </trkpt>
      <trkpt lat="43.59389" lon="2.95103">
        <ele>432.1</ele>
        <time>2015-12-14T11:32:34.168Z</time>
      </trkpt>
      <trkpt lat="43.59386" lon="2.95104">
        <ele>432.2</ele>
        <time>2015-12-14T11:32:35.134Z</time>
      </trkpt>
      <trkpt lat="43.59378" lon="2.95103">
        <ele>432.5</ele>
        <time>2015-12-14T11:32:37.188Z</time>
      </trkpt>
      <trkpt lat="43.59375" lon="2.95102">
        <ele>432.5</ele>
        <time>2015-12-14T11:32:38.133Z</time>
      </trkpt>
      <trkpt lat="43.59368" lon="2.95101">
        <ele>432.4</ele>
        <time>2015-12-14T11:32:40.173Z</time>
      </trkpt>
      <trkpt lat="43.59364" lon="2.95099">
        <ele>432.3</ele>
        <time>2015-12-14T11:32:41.134Z</time>
      </trkpt>
      <trkpt lat="43.5936" lon="2.95098">
        <ele>432.4</ele>
        <time>2015-12-14T11:32:42.196Z</time>
      </trkpt>
      <trkpt lat="43.59356" lon="2.95096">
        <ele>432.3</ele>
        <time>2015-12-14T11:32:43.140Z</time>
      </trkpt>
      <trkpt lat="43.59351" lon="2.95093">
        <ele>432.2</ele>
        <time>2015-12-14T11:32:44.191Z</time>
      </trkpt>
      <trkpt lat="43.59346" lon="2.95091">
        <ele>432.3</ele>
        <time>2015-12-14T11:32:45.132Z</time>
      </trkpt>
      <trkpt lat="43.59339" lon="2.95085">
        <ele>432.2</ele>
        <time>2015-12-14T11:32:47.177Z</time>
      </trkpt>
      <trkpt lat="43.59335" lon="2.95081">
        <ele>432.3</ele>
        <time>2015-12-14T11:32:48.136Z</time>
      </trkpt>
      <trkpt lat="43.59329" lon="2.95073">
        <ele>431.9</ele>
        <time>2015-12-14T11:32:50.204Z</time>
      </trkpt>
      <trkpt lat="43.59326" lon="2.9507">
        <ele>431.7</ele>
        <time>2015-12-14T11:32:51.134Z</time>
      </trkpt>
      <trkpt lat="43.59321" lon="2.95062">
        <ele>430.8</ele>
        <time>2015-12-14T11:32:53.182Z</time>
      </trkpt>
      <trkpt lat="43.59319" lon="2.95058">
        <ele>430.5</ele>
        <time>2015-12-14T11:32:54.138Z</time>
      </trkpt>
      <trkpt lat="43.59315" lon="2.95051">
        <ele>428.9</ele>
        <time>2015-12-14T11:32:56.165Z</time>
      </trkpt>
      <trkpt lat="43.59312" lon="2.95046">
        <ele>428.1</ele>
        <time>2015-12-14T11:32:57.134Z</time>
      </trkpt>
      <trkpt lat="43.5931" lon="2.95041">
        <ele>427.9</ele>
        <time>2015-12-14T11:32:58.174Z</time>
      </trkpt>
      <trkpt lat="43.59307" lon="2.95036">
        <ele>427.6</ele>
        <time>2015-12-14T11:32:59.136Z</time>
      </trkpt>
      <trkpt lat="43.59304" lon="2.9503">
        <ele>427.4</ele>
        <time>2015-12-14T11:33:00.178Z</time>
      </trkpt>
      <trkpt lat="43.59301" lon="2.95025">
        <ele>427.5</ele>
        <time>2015-12-14T11:33:01.136Z</time>
      </trkpt>
      <trkpt lat="43.59298" lon="2.9502">
        <ele>427.6</ele>
        <time>2015-12-14T11:33:02.176Z</time>
      </trkpt>
      <trkpt lat="43.59295" lon="2.95015">
        <ele>427.5</ele>
        <time>2015-12-14T11:33:03.134Z</time>
      </trkpt>
      <trkpt lat="43.59291" lon="2.95009">
        <ele>427.1</ele>
        <time>2015-12-14T11:33:04.170Z</time>
      </trkpt>
      <trkpt lat="43.59288" lon="2.95003">
        <ele>426.8</ele>
        <time>2015-12-14T11:33:05.137Z</time>
      </trkpt>
      <trkpt lat="43.59284" lon="2.94998">
        <ele>426.3</ele>
        <time>2015-12-14T11:33:06.162Z</time>
      </trkpt>
      <trkpt lat="43.59281" lon="2.94992">
        <ele>426</ele>
        <time>2015-12-14T11:33:07.135Z</time>
      </trkpt>
      <trkpt lat="43.59277" lon="2.94987">
        <ele>425.6</ele>
        <time>2015-12-14T11:33:08.166Z</time>
      </trkpt>
      <trkpt lat="43.59273" lon="2.94984">
        <ele>425.3</ele>
        <time>2015-12-14T11:33:09.129Z</time>
      </trkpt>
      <trkpt lat="43.59265" lon="2.94981">
        <ele>424.1</ele>
        <time>2015-12-14T11:33:11.172Z</time>
      </trkpt>
      <trkpt lat="43.59261" lon="2.94981">
        <ele>423.4</ele>
        <time>2015-12-14T11:33:12.132Z</time>
      </trkpt>
      <trkpt lat="43.59256" lon="2.94981">
        <ele>422.9</ele>
        <time>2015-12-14T11:33:13.183Z</time>
      </trkpt>
      <trkpt lat="43.59251" lon="2.9498">
        <ele>422.5</ele>
        <time>2015-12-14T11:33:14.133Z</time>
      </trkpt>
      <trkpt lat="43.59243" lon="2.9498">
        <ele>422</ele>
        <time>2015-12-14T11:33:16.184Z</time>
      </trkpt>
      <trkpt lat="43.59237" lon="2.94978">
        <ele>421.6</ele>
        <time>2015-12-14T11:33:17.140Z</time>
      </trkpt>
      <trkpt lat="43.59232" lon="2.94976">
        <ele>421.3</ele>
        <time>2015-12-14T11:33:18.190Z</time>
      </trkpt>
      <trkpt lat="43.59227" lon="2.94975">
        <ele>421.1</ele>
        <time>2015-12-14T11:33:19.145Z</time>
      </trkpt>
      <trkpt lat="43.59223" lon="2.94975">
        <ele>421</ele>
        <time>2015-12-14T11:33:20.169Z</time>
      </trkpt>
      <trkpt lat="43.59218" lon="2.94975">
        <ele>420.8</ele>
        <time>2015-12-14T11:33:21.135Z</time>
      </trkpt>
      <trkpt lat="43.59213" lon="2.94974">
        <ele>420.5</ele>
        <time>2015-12-14T11:33:22.170Z</time>
      </trkpt>
      <trkpt lat="43.59207" lon="2.94973">
        <ele>420.1</ele>
        <time>2015-12-14T11:33:23.138Z</time>
      </trkpt>
      <trkpt lat="43.59201" lon="2.94973">
        <ele>419.7</ele>
        <time>2015-12-14T11:33:24.178Z</time>
      </trkpt>
      <trkpt lat="43.59196" lon="2.94973">
        <ele>419.4</ele>
        <time>2015-12-14T11:33:25.139Z</time>
      </trkpt>
      <trkpt lat="43.5919" lon="2.94975">
        <ele>419.2</ele>
        <time>2015-12-14T11:33:26.170Z</time>
      </trkpt>
      <trkpt lat="43.59184" lon="2.94978">
        <ele>418.8</ele>
        <time>2015-12-14T11:33:27.135Z</time>
      </trkpt>
      <trkpt lat="43.59178" lon="2.9498">
        <ele>418.5</ele>
        <time>2015-12-14T11:33:28.164Z</time>
      </trkpt>
      <trkpt lat="43.59172" lon="2.94984">
        <ele>418</ele>
        <time>2015-12-14T11:33:29.130Z</time>
      </trkpt>
      <trkpt lat="43.59166" lon="2.94989">
        <ele>417.6</ele>
        <time>2015-12-14T11:33:30.171Z</time>
      </trkpt>
      <trkpt lat="43.59161" lon="2.94995">
        <ele>417.2</ele>
        <time>2015-12-14T11:33:31.137Z</time>
      </trkpt>
      <trkpt lat="43.59156" lon="2.95001">
        <ele>416.8</ele>
        <time>2015-12-14T11:33:32.171Z</time>
      </trkpt>
      <trkpt lat="43.59151" lon="2.95007">
        <ele>416.2</ele>
        <time>2015-12-14T11:33:33.129Z</time>
      </trkpt>
      <trkpt lat="43.59146" lon="2.95013">
        <ele>415.8</ele>
        <time>2015-12-14T11:33:34.180Z</time>
      </trkpt>
      <trkpt lat="43.59141" lon="2.95019">
        <ele>415.4</ele>
        <time>2015-12-14T11:33:35.140Z</time>
      </trkpt>
      <trkpt lat="43.59137" lon="2.95024">
        <ele>415.1</ele>
        <time>2015-12-14T11:33:36.183Z</time>
      </trkpt>
      <trkpt lat="43.59132" lon="2.9503">
        <ele>414.8</ele>
        <time>2015-12-14T11:33:37.146Z</time>
      </trkpt>
      <trkpt lat="43.59128" lon="2.95037">
        <ele>414.4</ele>
        <time>2015-12-14T11:33:38.168Z</time>
      </trkpt>
      <trkpt lat="43.59124" lon="2.95044">
        <ele>414.2</ele>
        <time>2015-12-14T11:33:39.141Z</time>
      </trkpt>
      <trkpt lat="43.5912" lon="2.95051">
        <ele>413.9</ele>
        <time>2015-12-14T11:33:40.447Z</time>
      </trkpt>
      <trkpt lat="43.59117" lon="2.95058">
        <ele>413.5</ele>
        <time>2015-12-14T11:33:41.128Z</time>
      </trkpt>
      <trkpt lat="43.59113" lon="2.95065">
        <ele>413.3</ele>
        <time>2015-12-14T11:33:42.174Z</time>
      </trkpt>
      <trkpt lat="43.59109" lon="2.9507">
        <ele>413</ele>
        <time>2015-12-14T11:33:43.132Z</time>
      </trkpt>
      <trkpt lat="43.59106" lon="2.95076">
        <ele>412.8</ele>
        <time>2015-12-14T11:33:44.191Z</time>
      </trkpt>
      <trkpt lat="43.59102" lon="2.95081">
        <ele>412.6</ele>
        <time>2015-12-14T11:33:45.166Z</time>
      </trkpt>
      <trkpt lat="43.59096" lon="2.9509">
        <ele>412.1</ele>
        <time>2015-12-14T11:33:47.175Z</time>
      </trkpt>
      <trkpt lat="43.59092" lon="2.95094">
        <ele>412</ele>
        <time>2015-12-14T11:33:48.133Z</time>
      </trkpt>
      <trkpt lat="43.59087" lon="2.95099">
        <ele>411.8</ele>
        <time>2015-12-14T11:33:49.183Z</time>
      </trkpt>
      <trkpt lat="43.59083" lon="2.95103">
        <ele>411.7</ele>
        <time>2015-12-14T11:33:50.140Z</time>
      </trkpt>
      <trkpt lat="43.59078" lon="2.95105">
        <ele>411.5</ele>
        <time>2015-12-14T11:33:51.189Z</time>
      </trkpt>
      <trkpt lat="43.59073" lon="2.95107">
        <ele>411.3</ele>
        <time>2015-12-14T11:33:52.138Z</time>
      </trkpt>
      <trkpt lat="43.59069" lon="2.95109">
        <ele>411.1</ele>
        <time>2015-12-14T11:33:53.182Z</time>
      </trkpt>
      <trkpt lat="43.59064" lon="2.9511">
        <ele>411</ele>
        <time>2015-12-14T11:33:54.131Z</time>
      </trkpt>
      <trkpt lat="43.5906" lon="2.95111">
        <ele>410.9</ele>
        <time>2015-12-14T11:33:55.187Z</time>
      </trkpt>
      <trkpt lat="43.59054" lon="2.95111">
        <ele>410.7</ele>
        <time>2015-12-14T11:33:56.137Z</time>
      </trkpt>
      <trkpt lat="43.59048" lon="2.95111">
        <ele>410.5</ele>
        <time>2015-12-14T11:33:57.550Z</time>
      </trkpt>
      <trkpt lat="43.59042" lon="2.95111">
        <ele>410.4</ele>
        <time>2015-12-14T11:33:58.131Z</time>
      </trkpt>
      <trkpt lat="43.59035" lon="2.9511">
        <ele>410.3</ele>
        <time>2015-12-14T11:33:59.165Z</time>
      </trkpt>
      <trkpt lat="43.59029" lon="2.9511">
        <ele>410.1</ele>
        <time>2015-12-14T11:34:00.127Z</time>
      </trkpt>
      <trkpt lat="43.59024" lon="2.95108">
        <ele>409.9</ele>
        <time>2015-12-14T11:34:01.176Z</time>
      </trkpt>
      <trkpt lat="43.59017" lon="2.95105">
        <ele>409.8</ele>
        <time>2015-12-14T11:34:02.154Z</time>
      </trkpt>
      <trkpt lat="43.5901" lon="2.95103">
        <ele>409.6</ele>
        <time>2015-12-14T11:34:03.187Z</time>
      </trkpt>
      <trkpt lat="43.59003" lon="2.95102">
        <ele>409.4</ele>
        <time>2015-12-14T11:34:04.133Z</time>
      </trkpt>
      <trkpt lat="43.58996" lon="2.95101">
        <ele>409.2</ele>
        <time>2015-12-14T11:34:05.180Z</time>
      </trkpt>
      <trkpt lat="43.58989" lon="2.951">
        <ele>409</ele>
        <time>2015-12-14T11:34:06.131Z</time>
      </trkpt>
      <trkpt lat="43.58982" lon="2.951">
        <ele>408.9</ele>
        <time>2015-12-14T11:34:07.179Z</time>
      </trkpt>
      <trkpt lat="43.58976" lon="2.951">
        <ele>408.6</ele>
        <time>2015-12-14T11:34:08.135Z</time>
      </trkpt>
      <trkpt lat="43.58969" lon="2.951">
        <ele>408.4</ele>
        <time>2015-12-14T11:34:09.184Z</time>
      </trkpt>
      <trkpt lat="43.58962" lon="2.95101">
        <ele>408.1</ele>
        <time>2015-12-14T11:34:10.142Z</time>
      </trkpt>
      <trkpt lat="43.58956" lon="2.95102">
        <ele>407.7</ele>
        <time>2015-12-14T11:34:11.177Z</time>
      </trkpt>
      <trkpt lat="43.5895" lon="2.95102">
        <ele>407.4</ele>
        <time>2015-12-14T11:34:12.130Z</time>
      </trkpt>
      <trkpt lat="43.58944" lon="2.95103">
        <ele>407.2</ele>
        <time>2015-12-14T11:34:13.537Z</time>
      </trkpt>
      <trkpt lat="43.5894" lon="2.95104">
        <ele>407</ele>
        <time>2015-12-14T11:34:14.129Z</time>
      </trkpt>
      <trkpt lat="43.58934" lon="2.95105">
        <ele>406.8</ele>
        <time>2015-12-14T11:34:15.186Z</time>
      </trkpt>
      <trkpt lat="43.5893" lon="2.95106">
        <ele>406.6</ele>
        <time>2015-12-14T11:34:16.140Z</time>
      </trkpt>
      <trkpt lat="43.58922" lon="2.95108">
        <ele>406.4</ele>
        <time>2015-12-14T11:34:18.187Z</time>
      </trkpt>
      <trkpt lat="43.58917" lon="2.95108">
        <ele>406.4</ele>
        <time>2015-12-14T11:34:19.141Z</time>
      </trkpt>
      <trkpt lat="43.58912" lon="2.95109">
        <ele>406.3</ele>
        <time>2015-12-14T11:34:20.302Z</time>
      </trkpt>
      <trkpt lat="43.58908" lon="2.9511">
        <ele>406.3</ele>
        <time>2015-12-14T11:34:21.135Z</time>
      </trkpt>
      <trkpt lat="43.58899" lon="2.95114">
        <ele>406.3</ele>
        <time>2015-12-14T11:34:23.169Z</time>
      </trkpt>
      <trkpt lat="43.58895" lon="2.95116">
        <ele>406.3</ele>
        <time>2015-12-14T11:34:24.137Z</time>
      </trkpt>
      <trkpt lat="43.58887" lon="2.9512">
        <ele>406.5</ele>
        <time>2015-12-14T11:34:26.179Z</time>
      </trkpt>
      <trkpt lat="43.58883" lon="2.95121">
        <ele>406.5</ele>
        <time>2015-12-14T11:34:27.140Z</time>
      </trkpt>
      <trkpt lat="43.58878" lon="2.95122">
        <ele>406.5</ele>
        <time>2015-12-14T11:34:28.406Z</time>
      </trkpt>
      <trkpt lat="43.58873" lon="2.95123">
        <ele>406.4</ele>
        <time>2015-12-14T11:34:29.129Z</time>
      </trkpt>
      <trkpt lat="43.58866" lon="2.95125">
        <ele>406.4</ele>
        <time>2015-12-14T11:34:31.178Z</time>
      </trkpt>
      <trkpt lat="43.58861" lon="2.95126">
        <ele>406.4</ele>
        <time>2015-12-14T11:34:32.127Z</time>
      </trkpt>
      <trkpt lat="43.58853" lon="2.95129">
        <ele>406.4</ele>
        <time>2015-12-14T11:34:34.184Z</time>
      </trkpt>
      <trkpt lat="43.58849" lon="2.9513">
        <ele>406.4</ele>
        <time>2015-12-14T11:34:35.141Z</time>
      </trkpt>
      <trkpt lat="43.5884" lon="2.95132">
        <ele>406.3</ele>
        <time>2015-12-14T11:34:37.187Z</time>
      </trkpt>
      <trkpt lat="43.58835" lon="2.95133">
        <ele>406.3</ele>
        <time>2015-12-14T11:34:38.133Z</time>
      </trkpt>
      <trkpt lat="43.58831" lon="2.95134">
        <ele>406.1</ele>
        <time>2015-12-14T11:34:39.200Z</time>
      </trkpt>
      <trkpt lat="43.58826" lon="2.95136">
        <ele>405.9</ele>
        <time>2015-12-14T11:34:40.141Z</time>
      </trkpt>
      <trkpt lat="43.5882" lon="2.95137">
        <ele>405.9</ele>
        <time>2015-12-14T11:34:41.181Z</time>
      </trkpt>
      <trkpt lat="43.58814" lon="2.95138">
        <ele>405.6</ele>
        <time>2015-12-14T11:34:42.135Z</time>
      </trkpt>
      <trkpt lat="43.58808" lon="2.95139">
        <ele>405.3</ele>
        <time>2015-12-14T11:34:43.195Z</time>
      </trkpt>
      <trkpt lat="43.58804" lon="2.9514">
        <ele>405.2</ele>
        <time>2015-12-14T11:34:44.129Z</time>
      </trkpt>
      <trkpt lat="43.58799" lon="2.95142">
        <ele>405</ele>
        <time>2015-12-14T11:34:45.190Z</time>
      </trkpt>
      <trkpt lat="43.58795" lon="2.95145">
        <ele>404.8</ele>
        <time>2015-12-14T11:34:46.131Z</time>
      </trkpt>
      <trkpt lat="43.5879" lon="2.95155">
        <ele>404.5</ele>
        <time>2015-12-14T11:34:48.175Z</time>
      </trkpt>
      <trkpt lat="43.58789" lon="2.95163">
        <ele>404.1</ele>
        <time>2015-12-14T11:34:49.136Z</time>
      </trkpt>
      <trkpt lat="43.58789" lon="2.95172">
        <ele>403.8</ele>
        <time>2015-12-14T11:34:50.168Z</time>
      </trkpt>
      <trkpt lat="43.58789" lon="2.9518">
        <ele>403.5</ele>
        <time>2015-12-14T11:34:51.133Z</time>
      </trkpt>
      <trkpt lat="43.5879" lon="2.95187">
        <ele>403.3</ele>
        <time>2015-12-14T11:34:52.173Z</time>
      </trkpt>
      <trkpt lat="43.5879" lon="2.95194">
        <ele>403.2</ele>
        <time>2015-12-14T11:34:53.131Z</time>
      </trkpt>
      <trkpt lat="43.58791" lon="2.952">
        <ele>403</ele>
        <time>2015-12-14T11:34:54.170Z</time>
      </trkpt>
      <trkpt lat="43.58791" lon="2.95207">
        <ele>402.7</ele>
        <time>2015-12-14T11:34:55.140Z</time>
      </trkpt>
      <trkpt lat="43.58791" lon="2.95214">
        <ele>402.6</ele>
        <time>2015-12-14T11:34:56.179Z</time>
      </trkpt>
      <trkpt lat="43.58791" lon="2.95221">
        <ele>402.4</ele>
        <time>2015-12-14T11:34:57.136Z</time>
      </trkpt>
      <trkpt lat="43.5879" lon="2.95231">
        <ele>402.3</ele>
        <time>2015-12-14T11:34:58.181Z</time>
      </trkpt>
      <trkpt lat="43.58789" lon="2.9524">
        <ele>402.1</ele>
        <time>2015-12-14T11:34:59.135Z</time>
      </trkpt>
      <trkpt lat="43.58788" lon="2.95249">
        <ele>401.9</ele>
        <time>2015-12-14T11:35:00.181Z</time>
      </trkpt>
      <trkpt lat="43.58787" lon="2.9526">
        <ele>401.7</ele>
        <time>2015-12-14T11:35:01.134Z</time>
      </trkpt>
      <trkpt lat="43.58786" lon="2.9527">
        <ele>401.5</ele>
        <time>2015-12-14T11:35:02.165Z</time>
      </trkpt>
      <trkpt lat="43.58786" lon="2.9528">
        <ele>401.3</ele>
        <time>2015-12-14T11:35:03.135Z</time>
      </trkpt>
      <trkpt lat="43.58785" lon="2.9529">
        <ele>401</ele>
        <time>2015-12-14T11:35:04.173Z</time>
      </trkpt>
      <trkpt lat="43.58785" lon="2.953">
        <ele>400.4</ele>
        <time>2015-12-14T11:35:05.136Z</time>
      </trkpt>
      <trkpt lat="43.58785" lon="2.9531">
        <ele>399.9</ele>
        <time>2015-12-14T11:35:06.178Z</time>
      </trkpt>
      <trkpt lat="43.58786" lon="2.95319">
        <ele>399.5</ele>
        <time>2015-12-14T11:35:07.137Z</time>
      </trkpt>
      <trkpt lat="43.58787" lon="2.95328">
        <ele>399.3</ele>
        <time>2015-12-14T11:35:08.211Z</time>
      </trkpt>
      <trkpt lat="43.58789" lon="2.95336">
        <ele>398.8</ele>
        <time>2015-12-14T11:35:09.132Z</time>
      </trkpt>
      <trkpt lat="43.58789" lon="2.95343">
        <ele>398.5</ele>
        <time>2015-12-14T11:35:10.165Z</time>
      </trkpt>
      <trkpt lat="43.58791" lon="2.95352">
        <ele>398.1</ele>
        <time>2015-12-14T11:35:11.132Z</time>
      </trkpt>
      <trkpt lat="43.58792" lon="2.95362">
        <ele>397.7</ele>
        <time>2015-12-14T11:35:12.165Z</time>
      </trkpt>
      <trkpt lat="43.58792" lon="2.9537">
        <ele>397.3</ele>
        <time>2015-12-14T11:35:13.145Z</time>
      </trkpt>
      <trkpt lat="43.58793" lon="2.95377">
        <ele>397</ele>
        <time>2015-12-14T11:35:14.188Z</time>
      </trkpt>
      <trkpt lat="43.58794" lon="2.95385">
        <ele>396.7</ele>
        <time>2015-12-14T11:35:15.136Z</time>
      </trkpt>
      <trkpt lat="43.58794" lon="2.95392">
        <ele>396.5</ele>
        <time>2015-12-14T11:35:16.168Z</time>
      </trkpt>
      <trkpt lat="43.58797" lon="2.95399">
        <ele>396.3</ele>
        <time>2015-12-14T11:35:17.134Z</time>
      </trkpt>
      <trkpt lat="43.58799" lon="2.95406">
        <ele>395.9</ele>
        <time>2015-12-14T11:35:18.184Z</time>
      </trkpt>
      <trkpt lat="43.58803" lon="2.95414">
        <ele>395.6</ele>
        <time>2015-12-14T11:35:19.134Z</time>
      </trkpt>
      <trkpt lat="43.58807" lon="2.95422">
        <ele>395.2</ele>
        <time>2015-12-14T11:35:20.172Z</time>
      </trkpt>
      <trkpt lat="43.58811" lon="2.95428">
        <ele>394.9</ele>
        <time>2015-12-14T11:35:21.133Z</time>
      </trkpt>
      <trkpt lat="43.58815" lon="2.95434">
        <ele>394.6</ele>
        <time>2015-12-14T11:35:22.171Z</time>
      </trkpt>
      <trkpt lat="43.58819" lon="2.95441">
        <ele>394.3</ele>
        <time>2015-12-14T11:35:23.145Z</time>
      </trkpt>
      <trkpt lat="43.58822" lon="2.95448">
        <ele>393.7</ele>
        <time>2015-12-14T11:35:24.191Z</time>
      </trkpt>
      <trkpt lat="43.58824" lon="2.95455">
        <ele>393.3</ele>
        <time>2015-12-14T11:35:25.141Z</time>
      </trkpt>
      <trkpt lat="43.58826" lon="2.95462">
        <ele>392.8</ele>
        <time>2015-12-14T11:35:26.166Z</time>
      </trkpt>
      <trkpt lat="43.58827" lon="2.95469">
        <ele>391.9</ele>
        <time>2015-12-14T11:35:27.132Z</time>
      </trkpt>
      <trkpt lat="43.58829" lon="2.95476">
        <ele>391.2</ele>
        <time>2015-12-14T11:35:28.166Z</time>
      </trkpt>
      <trkpt lat="43.58831" lon="2.95484">
        <ele>390.6</ele>
        <time>2015-12-14T11:35:29.133Z</time>
      </trkpt>
      <trkpt lat="43.58833" lon="2.95491">
        <ele>389.9</ele>
        <time>2015-12-14T11:35:30.180Z</time>
      </trkpt>
      <trkpt lat="43.58836" lon="2.95499">
        <ele>389.6</ele>
        <time>2015-12-14T11:35:31.136Z</time>
      </trkpt>
      <trkpt lat="43.58838" lon="2.95506">
        <ele>388.8</ele>
        <time>2015-12-14T11:35:32.170Z</time>
      </trkpt>
      <trkpt lat="43.58841" lon="2.95513">
        <ele>388.1</ele>
        <time>2015-12-14T11:35:33.136Z</time>
      </trkpt>
      <trkpt lat="43.58845" lon="2.95519">
        <ele>387.5</ele>
        <time>2015-12-14T11:35:34.184Z</time>
      </trkpt>
      <trkpt lat="43.58848" lon="2.95525">
        <ele>387.1</ele>
        <time>2015-12-14T11:35:35.140Z</time>
      </trkpt>
      <trkpt lat="43.58851" lon="2.9553">
        <ele>386.7</ele>
        <time>2015-12-14T11:35:36.181Z</time>
      </trkpt>
      <trkpt lat="43.58854" lon="2.95535">
        <ele>386.1</ele>
        <time>2015-12-14T11:35:37.136Z</time>
      </trkpt>
      <trkpt lat="43.58858" lon="2.95542">
        <ele>384.4</ele>
        <time>2015-12-14T11:35:39.523Z</time>
      </trkpt>
      <trkpt lat="43.5886" lon="2.95546">
        <ele>383.3</ele>
        <time>2015-12-14T11:35:40.131Z</time>
      </trkpt>
      <trkpt lat="43.58861" lon="2.95555">
        <ele>381.2</ele>
        <time>2015-12-14T11:35:42.177Z</time>
      </trkpt>
      <trkpt lat="43.5886" lon="2.95559">
        <ele>380.2</ele>
        <time>2015-12-14T11:35:43.137Z</time>
      </trkpt>
      <trkpt lat="43.58859" lon="2.9557">
        <ele>378.5</ele>
        <time>2015-12-14T11:35:46.166Z</time>
      </trkpt>
      <trkpt lat="43.58859" lon="2.95574">
        <ele>377.5</ele>
        <time>2015-12-14T11:35:47.138Z</time>
      </trkpt>
      <trkpt lat="43.58858" lon="2.95585">
        <ele>375.4</ele>
        <time>2015-12-14T11:35:50.182Z</time>
      </trkpt>
      <trkpt lat="43.5886" lon="2.95588">
        <ele>374.5</ele>
        <time>2015-12-14T11:35:51.133Z</time>
      </trkpt>
      <trkpt lat="43.58867" lon="2.95595">
        <ele>373.2</ele>
        <time>2015-12-14T11:35:54.194Z</time>
      </trkpt>
      <trkpt lat="43.5887" lon="2.95595">
        <ele>372.6</ele>
        <time>2015-12-14T11:35:55.141Z</time>
      </trkpt>
      <trkpt lat="43.58876" lon="2.95602">
        <ele>371.6</ele>
        <time>2015-12-14T11:35:58.184Z</time>
      </trkpt>
      <trkpt lat="43.58878" lon="2.95606">
        <ele>371.3</ele>
        <time>2015-12-14T11:35:59.136Z</time>
      </trkpt>
      <trkpt lat="43.58881" lon="2.95614">
        <ele>370.9</ele>
        <time>2015-12-14T11:36:01.186Z</time>
      </trkpt>
      <trkpt lat="43.58883" lon="2.95619">
        <ele>370.8</ele>
        <time>2015-12-14T11:36:02.128Z</time>
      </trkpt>
      <trkpt lat="43.58885" lon="2.95626">
        <ele>370.7</ele>
        <time>2015-12-14T11:36:04.185Z</time>
      </trkpt>
      <trkpt lat="43.58885" lon="2.95631">
        <ele>370.6</ele>
        <time>2015-12-14T11:36:05.155Z</time>
      </trkpt>
      <trkpt lat="43.58885" lon="2.95642">
        <ele>370.4</ele>
        <time>2015-12-14T11:36:07.206Z</time>
      </trkpt>
      <trkpt lat="43.58884" lon="2.95649">
        <ele>370.7</ele>
        <time>2015-12-14T11:36:08.128Z</time>
      </trkpt>
      <trkpt lat="43.58882" lon="2.95655">
        <ele>370.5</ele>
        <time>2015-12-14T11:36:09.572Z</time>
      </trkpt>
      <trkpt lat="43.5888" lon="2.9566">
        <ele>370.5</ele>
        <time>2015-12-14T11:36:10.151Z</time>
      </trkpt>
      <trkpt lat="43.58877" lon="2.95669">
        <ele>370.2</ele>
        <time>2015-12-14T11:36:12.196Z</time>
      </trkpt>
      <trkpt lat="43.58875" lon="2.95673">
        <ele>370</ele>
        <time>2015-12-14T11:36:13.159Z</time>
      </trkpt>
      <trkpt lat="43.5887" lon="2.95678">
        <ele>369.4</ele>
        <time>2015-12-14T11:36:15.199Z</time>
      </trkpt>
      <trkpt lat="43.58866" lon="2.9568">
        <ele>369.2</ele>
        <time>2015-12-14T11:36:16.157Z</time>
      </trkpt>
      <trkpt lat="43.58861" lon="2.95682">
        <ele>369</ele>
        <time>2015-12-14T11:36:17.205Z</time>
      </trkpt>
      <trkpt lat="43.58857" lon="2.95684">
        <ele>368.7</ele>
        <time>2015-12-14T11:36:18.153Z</time>
      </trkpt>
      <trkpt lat="43.58851" lon="2.95685">
        <ele>368.3</ele>
        <time>2015-12-14T11:36:19.545Z</time>
      </trkpt>
      <trkpt lat="43.58844" lon="2.95687">
        <ele>367.8</ele>
        <time>2015-12-14T11:36:20.135Z</time>
      </trkpt>
      <trkpt lat="43.58836" lon="2.95688">
        <ele>367.3</ele>
        <time>2015-12-14T11:36:21.175Z</time>
      </trkpt>
      <trkpt lat="43.5883" lon="2.95689">
        <ele>366.9</ele>
        <time>2015-12-14T11:36:22.132Z</time>
      </trkpt>
      <trkpt lat="43.58825" lon="2.95691">
        <ele>366.5</ele>
        <time>2015-12-14T11:36:23.189Z</time>
      </trkpt>
      <trkpt lat="43.5882" lon="2.95691">
        <ele>366.3</ele>
        <time>2015-12-14T11:36:24.136Z</time>
      </trkpt>
      <trkpt lat="43.58814" lon="2.95691">
        <ele>366</ele>
        <time>2015-12-14T11:36:25.193Z</time>
      </trkpt>
      <trkpt lat="43.58808" lon="2.95691">
        <ele>365.7</ele>
        <time>2015-12-14T11:36:26.135Z</time>
      </trkpt>
      <trkpt lat="43.58803" lon="2.95691">
        <ele>365.3</ele>
        <time>2015-12-14T11:36:27.176Z</time>
      </trkpt>
      <trkpt lat="43.58797" lon="2.95693">
        <ele>364.9</ele>
        <time>2015-12-14T11:36:28.128Z</time>
      </trkpt>
      <trkpt lat="43.58791" lon="2.95695">
        <ele>364.5</ele>
        <time>2015-12-14T11:36:29.172Z</time>
      </trkpt>
      <trkpt lat="43.58786" lon="2.95697">
        <ele>364.1</ele>
        <time>2015-12-14T11:36:30.138Z</time>
      </trkpt>
      <trkpt lat="43.58781" lon="2.95699">
        <ele>363.6</ele>
        <time>2015-12-14T11:36:31.199Z</time>
      </trkpt>
      <trkpt lat="43.58776" lon="2.95702">
        <ele>363.3</ele>
        <time>2015-12-14T11:36:32.133Z</time>
      </trkpt>
      <trkpt lat="43.58771" lon="2.95704">
        <ele>362.9</ele>
        <time>2015-12-14T11:36:33.194Z</time>
      </trkpt>
      <trkpt lat="43.58766" lon="2.95706">
        <ele>362.5</ele>
        <time>2015-12-14T11:36:34.140Z</time>
      </trkpt>
      <trkpt lat="43.58759" lon="2.95707">
        <ele>361.9</ele>
        <time>2015-12-14T11:36:35.201Z</time>
      </trkpt>
      <trkpt lat="43.58753" lon="2.95708">
        <ele>361.4</ele>
        <time>2015-12-14T11:36:36.136Z</time>
      </trkpt>
      <trkpt lat="43.58747" lon="2.95709">
        <ele>361</ele>
        <time>2015-12-14T11:36:37.198Z</time>
      </trkpt>
      <trkpt lat="43.5874" lon="2.95708">
        <ele>360.5</ele>
        <time>2015-12-14T11:36:38.133Z</time>
      </trkpt>
      <trkpt lat="43.58734" lon="2.95706">
        <ele>360.1</ele>
        <time>2015-12-14T11:36:39.184Z</time>
      </trkpt>
      <trkpt lat="43.58727" lon="2.95704">
        <ele>359.7</ele>
        <time>2015-12-14T11:36:40.134Z</time>
      </trkpt>
      <trkpt lat="43.58721" lon="2.95702">
        <ele>359.4</ele>
        <time>2015-12-14T11:36:41.191Z</time>
      </trkpt>
      <trkpt lat="43.58714" lon="2.957">
        <ele>359</ele>
        <time>2015-12-14T11:36:42.134Z</time>
      </trkpt>
      <trkpt lat="43.58709" lon="2.957">
        <ele>358.6</ele>
        <time>2015-12-14T11:36:43.197Z</time>
      </trkpt>
      <trkpt lat="43.58704" lon="2.957">
        <ele>358.2</ele>
        <time>2015-12-14T11:36:44.135Z</time>
      </trkpt>
      <trkpt lat="43.58696" lon="2.95701">
        <ele>357.3</ele>
        <time>2015-12-14T11:36:46.162Z</time>
      </trkpt>
      <trkpt lat="43.58693" lon="2.95701">
        <ele>357</ele>
        <time>2015-12-14T11:36:47.135Z</time>
      </trkpt>
      <trkpt lat="43.58687" lon="2.9571">
        <ele>353.8</ele>
        <time>2015-12-14T11:36:51.183Z</time>
      </trkpt>
      <trkpt lat="43.5869" lon="2.95714">
        <ele>352.9</ele>
        <time>2015-12-14T11:36:52.139Z</time>
      </trkpt>
      <trkpt lat="43.58686" lon="2.95725">
        <ele>332</ele>
        <time>2015-12-14T11:38:28.165Z</time>
      </trkpt>
      <trkpt lat="43.58684" lon="2.95727">
        <ele>331.9</ele>
        <time>2015-12-14T11:38:29.140Z</time>
      </trkpt>
      <trkpt lat="43.5868" lon="2.95738">
        <ele>331.8</ele>
        <time>2015-12-14T11:38:33.178Z</time>
      </trkpt>
      <trkpt lat="43.58679" lon="2.95741">
        <ele>331.7</ele>
        <time>2015-12-14T11:38:34.139Z</time>
      </trkpt>
      <trkpt lat="43.58675" lon="2.95751">
        <ele>331.8</ele>
        <time>2015-12-14T11:38:39.175Z</time>
      </trkpt>
      <trkpt lat="43.58674" lon="2.95754">
        <ele>331.8</ele>
        <time>2015-12-14T11:38:40.136Z</time>
      </trkpt>
      <trkpt lat="43.5867" lon="2.95761">
        <ele>331.8</ele>
        <time>2015-12-14T11:38:43.191Z</time>
      </trkpt>
      <trkpt lat="43.58667" lon="2.95763">
        <ele>331.8</ele>
        <time>2015-12-14T11:38:44.138Z</time>
      </trkpt>
      <trkpt lat="43.58661" lon="2.95767">
        <ele>331.7</ele>
        <time>2015-12-14T11:38:46.183Z</time>
      </trkpt>
      <trkpt lat="43.58659" lon="2.9577">
        <ele>331.7</ele>
        <time>2015-12-14T11:38:47.133Z</time>
      </trkpt>
      <trkpt lat="43.58653" lon="2.95775">
        <ele>331.5</ele>
        <time>2015-12-14T11:38:49.175Z</time>
      </trkpt>
      <trkpt lat="43.58651" lon="2.95779">
        <ele>331.5</ele>
        <time>2015-12-14T11:38:50.139Z</time>
      </trkpt>
      <trkpt lat="43.58647" lon="2.95786">
        <ele>331.4</ele>
        <time>2015-12-14T11:38:52.176Z</time>
      </trkpt>
      <trkpt lat="43.58646" lon="2.9579">
        <ele>331.2</ele>
        <time>2015-12-14T11:38:53.139Z</time>
      </trkpt>
      <trkpt lat="43.58642" lon="2.95797">
        <ele>331</ele>
        <time>2015-12-14T11:38:55.172Z</time>
      </trkpt>
      <trkpt lat="43.58638" lon="2.95801">
        <ele>331</ele>
        <time>2015-12-14T11:38:56.134Z</time>
      </trkpt>
      <trkpt lat="43.58635" lon="2.95805">
        <ele>330.7</ele>
        <time>2015-12-14T11:38:57.182Z</time>
      </trkpt>
      <trkpt lat="43.58632" lon="2.9581">
        <ele>330.5</ele>
        <time>2015-12-14T11:38:58.135Z</time>
      </trkpt>
      <trkpt lat="43.58626" lon="2.95817">
        <ele>330.1</ele>
        <time>2015-12-14T11:39:00.163Z</time>
      </trkpt>
      <trkpt lat="43.58624" lon="2.95821">
        <ele>329.9</ele>
        <time>2015-12-14T11:39:01.134Z</time>
      </trkpt>
      <trkpt lat="43.58618" lon="2.95828">
        <ele>329.5</ele>
        <time>2015-12-14T11:39:03.225Z</time>
      </trkpt>
      <trkpt lat="43.58615" lon="2.95831">
        <ele>329.3</ele>
        <time>2015-12-14T11:39:04.135Z</time>
      </trkpt>
      <trkpt lat="43.58609" lon="2.95836">
        <ele>328.9</ele>
        <time>2015-12-14T11:39:06.170Z</time>
      </trkpt>
      <trkpt lat="43.58605" lon="2.95839">
        <ele>328.4</ele>
        <time>2015-12-14T11:39:07.137Z</time>
      </trkpt>
      <trkpt lat="43.58597" lon="2.95843">
        <ele>327.6</ele>
        <time>2015-12-14T11:39:09.177Z</time>
      </trkpt>
      <trkpt lat="43.58593" lon="2.95845">
        <ele>327.2</ele>
        <time>2015-12-14T11:39:10.137Z</time>
      </trkpt>
      <trkpt lat="43.58586" lon="2.95851">
        <ele>326.5</ele>
        <time>2015-12-14T11:39:12.195Z</time>
      </trkpt>
      <trkpt lat="43.58583" lon="2.95854">
        <ele>326.4</ele>
        <time>2015-12-14T11:39:13.130Z</time>
      </trkpt>
      <trkpt lat="43.58579" lon="2.9586">
        <ele>325.8</ele>
        <time>2015-12-14T11:39:15.199Z</time>
      </trkpt>
      <trkpt lat="43.58576" lon="2.95863">
        <ele>325.5</ele>
        <time>2015-12-14T11:39:16.138Z</time>
      </trkpt>
      <trkpt lat="43.58571" lon="2.9587">
        <ele>325</ele>
        <time>2015-12-14T11:39:18.361Z</time>
      </trkpt>
      <trkpt lat="43.5857" lon="2.95874">
        <ele>324.7</ele>
        <time>2015-12-14T11:39:19.130Z</time>
      </trkpt>
      <trkpt lat="43.5857" lon="2.95884">
        <ele>324</ele>
        <time>2015-12-14T11:39:21.185Z</time>
      </trkpt>
      <trkpt lat="43.58569" lon="2.95889">
        <ele>323.8</ele>
        <time>2015-12-14T11:39:22.135Z</time>
      </trkpt>
      <trkpt lat="43.58567" lon="2.95899">
        <ele>323.3</ele>
        <time>2015-12-14T11:39:24.199Z</time>
      </trkpt>
      <trkpt lat="43.58565" lon="2.95904">
        <ele>323</ele>
        <time>2015-12-14T11:39:25.142Z</time>
      </trkpt>
      <trkpt lat="43.58563" lon="2.95912">
        <ele>322.6</ele>
        <time>2015-12-14T11:39:27.173Z</time>
      </trkpt>
      <trkpt lat="43.58562" lon="2.95916">
        <ele>322.2</ele>
        <time>2015-12-14T11:39:28.131Z</time>
      </trkpt>
      <trkpt lat="43.5856" lon="2.95924">
        <ele>321.7</ele>
        <time>2015-12-14T11:39:30.164Z</time>
      </trkpt>
      <trkpt lat="43.58557" lon="2.95927">
        <ele>321.4</ele>
        <time>2015-12-14T11:39:31.135Z</time>
      </trkpt>
      <trkpt lat="43.58551" lon="2.95934">
        <ele>320.7</ele>
        <time>2015-12-14T11:39:33.186Z</time>
      </trkpt>
      <trkpt lat="43.58547" lon="2.95938">
        <ele>320.1</ele>
        <time>2015-12-14T11:39:34.136Z</time>
      </trkpt>
      <trkpt lat="43.58542" lon="2.95941">
        <ele>319.7</ele>
        <time>2015-12-14T11:39:35.166Z</time>
      </trkpt>
      <trkpt lat="43.58537" lon="2.95942">
        <ele>319.5</ele>
        <time>2015-12-14T11:39:36.133Z</time>
      </trkpt>
      <trkpt lat="43.58531" lon="2.95944">
        <ele>319.1</ele>
        <time>2015-12-14T11:39:37.177Z</time>
      </trkpt>
      <trkpt lat="43.58526" lon="2.95947">
        <ele>318.7</ele>
        <time>2015-12-14T11:39:38.133Z</time>
      </trkpt>
      <trkpt lat="43.58521" lon="2.95948">
        <ele>318.3</ele>
        <time>2015-12-14T11:39:39.201Z</time>
      </trkpt>
      <trkpt lat="43.58517" lon="2.9595">
        <ele>317.9</ele>
        <time>2015-12-14T11:39:40.138Z</time>
      </trkpt>
      <trkpt lat="43.58508" lon="2.95954">
        <ele>317.4</ele>
        <time>2015-12-14T11:39:42.168Z</time>
      </trkpt>
      <trkpt lat="43.58505" lon="2.95956">
        <ele>317.1</ele>
        <time>2015-12-14T11:39:43.142Z</time>
      </trkpt>
      <trkpt lat="43.58499" lon="2.95957">
        <ele>316.5</ele>
        <time>2015-12-14T11:39:46.162Z</time>
      </trkpt>
      <trkpt lat="43.58498" lon="2.95958">
        <ele>316.3</ele>
        <time>2015-12-14T11:39:47.129Z</time>
      </trkpt>
      <trkpt lat="43.58493" lon="2.95959">
        <ele>315.7</ele>
        <time>2015-12-14T11:39:57.163Z</time>
      </trkpt>
      <trkpt lat="43.58491" lon="2.95959">
        <ele>315.6</ele>
        <time>2015-12-14T11:39:58.138Z</time>
      </trkpt>
      <trkpt lat="43.58485" lon="2.95961">
        <ele>315.4</ele>
        <time>2015-12-14T11:40:00.204Z</time>
      </trkpt>
      <trkpt lat="43.58482" lon="2.95963">
        <ele>315.4</ele>
        <time>2015-12-14T11:40:01.141Z</time>
      </trkpt>
      <trkpt lat="43.58474" lon="2.95969">
        <ele>315.1</ele>
        <time>2015-12-14T11:40:03.163Z</time>
      </trkpt>
      <trkpt lat="43.58471" lon="2.95971">
        <ele>315</ele>
        <time>2015-12-14T11:40:04.133Z</time>
      </trkpt>
      <trkpt lat="43.58463" lon="2.95974">
        <ele>314.7</ele>
        <time>2015-12-14T11:40:06.191Z</time>
      </trkpt>
      <trkpt lat="43.5846" lon="2.95976">
        <ele>314.6</ele>
        <time>2015-12-14T11:40:07.139Z</time>
      </trkpt>
      <trkpt lat="43.58455" lon="2.95977">
        <ele>314.5</ele>
        <time>2015-12-14T11:40:08.174Z</time>
      </trkpt>
      <trkpt lat="43.58451" lon="2.95978">
        <ele>314.6</ele>
        <time>2015-12-14T11:40:09.140Z</time>
      </trkpt>
      <trkpt lat="43.58442" lon="2.95978">
        <ele>314.6</ele>
        <time>2015-12-14T11:40:11.198Z</time>
      </trkpt>
      <trkpt lat="43.58438" lon="2.95978">
        <ele>314.5</ele>
        <time>2015-12-14T11:40:12.135Z</time>
      </trkpt>
      <trkpt lat="43.5843" lon="2.95983">
        <ele>314.6</ele>
        <time>2015-12-14T11:40:14.165Z</time>
      </trkpt>
      <trkpt lat="43.58427" lon="2.95985">
        <ele>314.6</ele>
        <time>2015-12-14T11:40:15.134Z</time>
      </trkpt>
      <trkpt lat="43.5842" lon="2.95991">
        <ele>314.6</ele>
        <time>2015-12-14T11:40:17.177Z</time>
      </trkpt>
      <trkpt lat="43.58417" lon="2.95996">
        <ele>314.7</ele>
        <time>2015-12-14T11:40:18.135Z</time>
      </trkpt>
      <trkpt lat="43.58413" lon="2.96006">
        <ele>314.8</ele>
        <time>2015-12-14T11:40:20.175Z</time>
      </trkpt>
      <trkpt lat="43.58411" lon="2.96011">
        <ele>314.7</ele>
        <time>2015-12-14T11:40:21.139Z</time>
      </trkpt>
      <trkpt lat="43.58408" lon="2.96021">
        <ele>314.7</ele>
        <time>2015-12-14T11:40:23.182Z</time>
      </trkpt>
      <trkpt lat="43.58407" lon="2.96026">
        <ele>314.8</ele>
        <time>2015-12-14T11:40:24.133Z</time>
      </trkpt>
      <trkpt lat="43.58406" lon="2.96038">
        <ele>314.8</ele>
        <time>2015-12-14T11:40:26.166Z</time>
      </trkpt>
      <trkpt lat="43.58406" lon="2.96043">
        <ele>314.8</ele>
        <time>2015-12-14T11:40:27.138Z</time>
      </trkpt>
      <trkpt lat="43.58403" lon="2.96054">
        <ele>314.9</ele>
        <time>2015-12-14T11:40:29.176Z</time>
      </trkpt>
      <trkpt lat="43.58403" lon="2.9606">
        <ele>315</ele>
        <time>2015-12-14T11:40:30.137Z</time>
      </trkpt>
      <trkpt lat="43.58401" lon="2.96072">
        <ele>314.9</ele>
        <time>2015-12-14T11:40:32.202Z</time>
      </trkpt>
      <trkpt lat="43.58397" lon="2.96077">
        <ele>314.9</ele>
        <time>2015-12-14T11:40:33.135Z</time>
      </trkpt>
      <trkpt lat="43.58395" lon="2.96084">
        <ele>314.7</ele>
        <time>2015-12-14T11:40:34.174Z</time>
      </trkpt>
      <trkpt lat="43.58393" lon="2.9609">
        <ele>314.5</ele>
        <time>2015-12-14T11:40:35.136Z</time>
      </trkpt>
      <trkpt lat="43.58392" lon="2.96096">
        <ele>314.4</ele>
        <time>2015-12-14T11:40:36.166Z</time>
      </trkpt>
      <trkpt lat="43.58392" lon="2.96103">
        <ele>314.1</ele>
        <time>2015-12-14T11:40:37.140Z</time>
      </trkpt>
      <trkpt lat="43.58391" lon="2.9611">
        <ele>314.1</ele>
        <time>2015-12-14T11:40:38.171Z</time>
      </trkpt>
      <trkpt lat="43.58392" lon="2.96117">
        <ele>313.8</ele>
        <time>2015-12-14T11:40:39.128Z</time>
      </trkpt>
      <trkpt lat="43.58392" lon="2.96123">
        <ele>313.6</ele>
        <time>2015-12-14T11:40:40.181Z</time>
      </trkpt>
      <trkpt lat="43.58392" lon="2.9613">
        <ele>313.3</ele>
        <time>2015-12-14T11:40:41.140Z</time>
      </trkpt>
      <trkpt lat="43.58392" lon="2.96137">
        <ele>313</ele>
        <time>2015-12-14T11:40:42.206Z</time>
      </trkpt>
      <trkpt lat="43.58392" lon="2.96144">
        <ele>312.5</ele>
        <time>2015-12-14T11:40:43.145Z</time>
      </trkpt>
      <trkpt lat="43.58391" lon="2.96151">
        <ele>312.4</ele>
        <time>2015-12-14T11:40:44.170Z</time>
      </trkpt>
      <trkpt lat="43.5839" lon="2.96158">
        <ele>312.4</ele>
        <time>2015-12-14T11:40:45.136Z</time>
      </trkpt>
      <trkpt lat="43.58389" lon="2.96165">
        <ele>312.4</ele>
        <time>2015-12-14T11:40:46.162Z</time>
      </trkpt>
      <trkpt lat="43.58388" lon="2.96172">
        <ele>312.4</ele>
        <time>2015-12-14T11:40:47.134Z</time>
      </trkpt>
      <trkpt lat="43.58387" lon="2.96179">
        <ele>312.3</ele>
        <time>2015-12-14T11:40:48.187Z</time>
      </trkpt>
      <trkpt lat="43.58387" lon="2.96185">
        <ele>311.9</ele>
        <time>2015-12-14T11:40:49.141Z</time>
      </trkpt>
      <trkpt lat="43.58386" lon="2.96197">
        <ele>311.5</ele>
        <time>2015-12-14T11:40:51.207Z</time>
      </trkpt>
      <trkpt lat="43.58386" lon="2.96203">
        <ele>311.3</ele>
        <time>2015-12-14T11:40:52.132Z</time>
      </trkpt>
      <trkpt lat="43.58385" lon="2.96215">
        <ele>311.2</ele>
        <time>2015-12-14T11:40:54.163Z</time>
      </trkpt>
      <trkpt lat="43.58383" lon="2.96221">
        <ele>311.2</ele>
        <time>2015-12-14T11:40:55.144Z</time>
      </trkpt>
      <trkpt lat="43.58382" lon="2.96228">
        <ele>311.3</ele>
        <time>2015-12-14T11:40:56.165Z</time>
      </trkpt>
      <trkpt lat="43.5838" lon="2.96234">
        <ele>311.3</ele>
        <time>2015-12-14T11:40:57.135Z</time>
      </trkpt>
      <trkpt lat="43.58377" lon="2.96239">
        <ele>311.2</ele>
        <time>2015-12-14T11:40:58.370Z</time>
      </trkpt>
      <trkpt lat="43.58374" lon="2.96245">
        <ele>311</ele>
        <time>2015-12-14T11:40:59.135Z</time>
      </trkpt>
      <trkpt lat="43.58371" lon="2.96251">
        <ele>310.8</ele>
        <time>2015-12-14T11:41:00.189Z</time>
      </trkpt>
      <trkpt lat="43.58369" lon="2.96257">
        <ele>310.6</ele>
        <time>2015-12-14T11:41:01.146Z</time>
      </trkpt>
      <trkpt lat="43.58365" lon="2.96266">
        <ele>310.4</ele>
        <time>2015-12-14T11:41:03.167Z</time>
      </trkpt>
      <trkpt lat="43.58359" lon="2.96272">
        <ele>310.2</ele>
        <time>2015-12-14T11:41:04.133Z</time>
      </trkpt>
      <trkpt lat="43.58355" lon="2.96278">
        <ele>310.1</ele>
        <time>2015-12-14T11:41:05.165Z</time>
      </trkpt>
      <trkpt lat="43.58349" lon="2.96285">
        <ele>309.9</ele>
        <time>2015-12-14T11:41:06.140Z</time>
      </trkpt>
      <trkpt lat="43.58345" lon="2.96292">
        <ele>309.7</ele>
        <time>2015-12-14T11:41:07.172Z</time>
      </trkpt>
      <trkpt lat="43.5834" lon="2.96299">
        <ele>309.6</ele>
        <time>2015-12-14T11:41:08.141Z</time>
      </trkpt>
      <trkpt lat="43.58336" lon="2.96307">
        <ele>309.5</ele>
        <time>2015-12-14T11:41:09.190Z</time>
      </trkpt>
      <trkpt lat="43.58334" lon="2.96315">
        <ele>309.4</ele>
        <time>2015-12-14T11:41:10.136Z</time>
      </trkpt>
      <trkpt lat="43.58331" lon="2.96322">
        <ele>309.2</ele>
        <time>2015-12-14T11:41:11.172Z</time>
      </trkpt>
      <trkpt lat="43.58329" lon="2.9633">
        <ele>309.1</ele>
        <time>2015-12-14T11:41:12.136Z</time>
      </trkpt>
      <trkpt lat="43.58327" lon="2.96337">
        <ele>308.9</ele>
        <time>2015-12-14T11:41:13.169Z</time>
      </trkpt>
      <trkpt lat="43.58324" lon="2.96344">
        <ele>308.7</ele>
        <time>2015-12-14T11:41:14.133Z</time>
      </trkpt>
      <trkpt lat="43.58321" lon="2.96351">
        <ele>308.4</ele>
        <time>2015-12-14T11:41:15.178Z</time>
      </trkpt>
      <trkpt lat="43.58317" lon="2.96356">
        <ele>308</ele>
        <time>2015-12-14T11:41:16.135Z</time>
      </trkpt>
      <trkpt lat="43.58313" lon="2.96361">
        <ele>307.6</ele>
        <time>2015-12-14T11:41:17.167Z</time>
      </trkpt>
      <trkpt lat="43.58311" lon="2.96366">
        <ele>307.3</ele>
        <time>2015-12-14T11:41:18.134Z</time>
      </trkpt>
      <trkpt lat="43.58306" lon="2.96376">
        <ele>306.9</ele>
        <time>2015-12-14T11:41:20.167Z</time>
      </trkpt>
      <trkpt lat="43.58304" lon="2.96381">
        <ele>306.8</ele>
        <time>2015-12-14T11:41:21.133Z</time>
      </trkpt>
      <trkpt lat="43.58301" lon="2.96389">
        <ele>306.6</ele>
        <time>2015-12-14T11:41:23.175Z</time>
      </trkpt>
      <trkpt lat="43.58299" lon="2.96393">
        <ele>306.5</ele>
        <time>2015-12-14T11:41:24.131Z</time>
      </trkpt>
      <trkpt lat="43.58298" lon="2.96402">
        <ele>306.1</ele>
        <time>2015-12-14T11:41:26.202Z</time>
      </trkpt>
      <trkpt lat="43.58297" lon="2.96407">
        <ele>305.9</ele>
        <time>2015-12-14T11:41:27.132Z</time>
      </trkpt>
      <trkpt lat="43.58296" lon="2.96416">
        <ele>305.2</ele>
        <time>2015-12-14T11:41:30.164Z</time>
      </trkpt>
      <trkpt lat="43.58295" lon="2.96419">
        <ele>305</ele>
        <time>2015-12-14T11:41:31.135Z</time>
      </trkpt>
      <trkpt lat="43.58289" lon="2.96428">
        <ele>304.2</ele>
        <time>2015-12-14T11:41:34.178Z</time>
      </trkpt>
      <trkpt lat="43.58285" lon="2.96429">
        <ele>304</ele>
        <time>2015-12-14T11:41:35.138Z</time>
      </trkpt>
      <trkpt lat="43.58278" lon="2.96433">
        <ele>303.6</ele>
        <time>2015-12-14T11:41:37.196Z</time>
      </trkpt>
      <trkpt lat="43.58276" lon="2.96435">
        <ele>303.4</ele>
        <time>2015-12-14T11:41:38.139Z</time>
      </trkpt>
      <trkpt lat="43.58268" lon="2.9644">
        <ele>302.7</ele>
        <time>2015-12-14T11:41:40.164Z</time>
      </trkpt>
      <trkpt lat="43.58265" lon="2.96443">
        <ele>302.6</ele>
        <time>2015-12-14T11:41:41.132Z</time>
      </trkpt>
      <trkpt lat="43.58257" lon="2.96447">
        <ele>302.5</ele>
        <time>2015-12-14T11:41:43.175Z</time>
      </trkpt>
      <trkpt lat="43.58253" lon="2.96449">
        <ele>302.4</ele>
        <time>2015-12-14T11:41:44.135Z</time>
      </trkpt>
      <trkpt lat="43.58247" lon="2.96449">
        <ele>302.4</ele>
        <time>2015-12-14T11:41:46.173Z</time>
      </trkpt>
      <trkpt lat="43.58243" lon="2.96449">
        <ele>302.5</ele>
        <time>2015-12-14T11:41:47.132Z</time>
      </trkpt>
      <trkpt lat="43.58238" lon="2.96448">
        <ele>302.4</ele>
        <time>2015-12-14T11:41:48.165Z</time>
      </trkpt>
      <trkpt lat="43.58233" lon="2.96447">
        <ele>302.1</ele>
        <time>2015-12-14T11:41:49.135Z</time>
      </trkpt>
      <trkpt lat="43.58228" lon="2.96448">
        <ele>301.4</ele>
        <time>2015-12-14T11:41:50.160Z</time>
      </trkpt>
      <trkpt lat="43.58223" lon="2.96448">
        <ele>301</ele>
        <time>2015-12-14T11:41:51.139Z</time>
      </trkpt>
      <trkpt lat="43.58215" lon="2.96451">
        <ele>299.8</ele>
        <time>2015-12-14T11:41:53.179Z</time>
      </trkpt>
      <trkpt lat="43.5821" lon="2.96454">
        <ele>299.4</ele>
        <time>2015-12-14T11:41:54.130Z</time>
      </trkpt>
      <trkpt lat="43.58205" lon="2.96458">
        <ele>298.9</ele>
        <time>2015-12-14T11:41:55.195Z</time>
      </trkpt>
      <trkpt lat="43.58201" lon="2.96461">
        <ele>298.5</ele>
        <time>2015-12-14T11:41:56.169Z</time>
      </trkpt>
      <trkpt lat="43.58197" lon="2.96464">
        <ele>298.1</ele>
        <time>2015-12-14T11:41:57.165Z</time>
      </trkpt>
      <trkpt lat="43.58194" lon="2.96467">
        <ele>297.6</ele>
        <time>2015-12-14T11:41:58.135Z</time>
      </trkpt>
      <trkpt lat="43.58188" lon="2.96473">
        <ele>297.5</ele>
        <time>2015-12-14T11:42:00.165Z</time>
      </trkpt>
      <trkpt lat="43.58184" lon="2.96475">
        <ele>297.4</ele>
        <time>2015-12-14T11:42:01.137Z</time>
      </trkpt>
      <trkpt lat="43.58175" lon="2.96475">
        <ele>297.2</ele>
        <time>2015-12-14T11:42:03.170Z</time>
      </trkpt>
      <trkpt lat="43.58171" lon="2.96473">
        <ele>297</ele>
        <time>2015-12-14T11:42:04.132Z</time>
      </trkpt>
      <trkpt lat="43.58163" lon="2.96472">
        <ele>296.7</ele>
        <time>2015-12-14T11:42:06.170Z</time>
      </trkpt>
      <trkpt lat="43.58159" lon="2.96472">
        <ele>296.6</ele>
        <time>2015-12-14T11:42:07.154Z</time>
      </trkpt>
      <trkpt lat="43.58151" lon="2.96472">
        <ele>296.2</ele>
        <time>2015-12-14T11:42:09.171Z</time>
      </trkpt>
      <trkpt lat="43.58147" lon="2.96473">
        <ele>295.8</ele>
        <time>2015-12-14T11:42:10.135Z</time>
      </trkpt>
      <trkpt lat="43.58139" lon="2.96476">
        <ele>295.3</ele>
        <time>2015-12-14T11:42:12.186Z</time>
      </trkpt>
      <trkpt lat="43.58134" lon="2.96478">
        <ele>295</ele>
        <time>2015-12-14T11:42:13.147Z</time>
      </trkpt>
      <trkpt lat="43.58126" lon="2.96482">
        <ele>294.6</ele>
        <time>2015-12-14T11:42:15.505Z</time>
      </trkpt>
      <trkpt lat="43.58123" lon="2.96484">
        <ele>294.5</ele>
        <time>2015-12-14T11:42:16.134Z</time>
      </trkpt>
      <trkpt lat="43.58116" lon="2.96486">
        <ele>293.5</ele>
        <time>2015-12-14T11:42:25.178Z</time>
      </trkpt>
      <trkpt lat="43.58114" lon="2.96488">
        <ele>293</ele>
        <time>2015-12-14T11:42:26.130Z</time>
      </trkpt>
      <trkpt lat="43.58114" lon="2.96488">
        <ele>293</ele>
        <time>2015-12-14T11:42:26.174Z</time>
      </trkpt>
      <trkpt lat="43.58113" lon="2.9649">
        <ele>292.9</ele>
        <time>2015-12-14T11:42:28.168Z</time>
      </trkpt>
      <trkpt lat="43.58112" lon="2.96492">
        <ele>292.8</ele>
        <time>2015-12-14T11:42:29.132Z</time>
      </trkpt>
      <trkpt lat="43.58107" lon="2.96502">
        <ele>292</ele>
        <time>2015-12-14T11:42:33.166Z</time>
      </trkpt>
      <trkpt lat="43.58106" lon="2.96505">
        <ele>291.9</ele>
        <time>2015-12-14T11:42:34.135Z</time>
      </trkpt>
      <trkpt lat="43.581" lon="2.96511">
        <ele>291.5</ele>
        <time>2015-12-14T11:42:38.195Z</time>
      </trkpt>
      <trkpt lat="43.58097" lon="2.96513">
        <ele>291.4</ele>
        <time>2015-12-14T11:42:39.144Z</time>
      </trkpt>
      <trkpt lat="43.58091" lon="2.96515">
        <ele>291.5</ele>
        <time>2015-12-14T11:42:41.193Z</time>
      </trkpt>
      <trkpt lat="43.58087" lon="2.96515">
        <ele>291.4</ele>
        <time>2015-12-14T11:42:42.139Z</time>
      </trkpt>
      <trkpt lat="43.58079" lon="2.96516">
        <ele>291.6</ele>
        <time>2015-12-14T11:42:44.171Z</time>
      </trkpt>
      <trkpt lat="43.58075" lon="2.96516">
        <ele>291.6</ele>
        <time>2015-12-14T11:42:45.137Z</time>
      </trkpt>
      <trkpt lat="43.58067" lon="2.96514">
        <ele>291.6</ele>
        <time>2015-12-14T11:42:47.517Z</time>
      </trkpt>
      <trkpt lat="43.58063" lon="2.96513">
        <ele>291.6</ele>
        <time>2015-12-14T11:42:48.134Z</time>
      </trkpt>
      <trkpt lat="43.58056" lon="2.96508">
        <ele>291.2</ele>
        <time>2015-12-14T11:42:50.185Z</time>
      </trkpt>
      <trkpt lat="43.58054" lon="2.96505">
        <ele>291.1</ele>
        <time>2015-12-14T11:42:51.132Z</time>
      </trkpt>
      <trkpt lat="43.58049" lon="2.96498">
        <ele>290.8</ele>
        <time>2015-12-14T11:42:53.186Z</time>
      </trkpt>
      <trkpt lat="43.58046" lon="2.96496">
        <ele>290.8</ele>
        <time>2015-12-14T11:42:54.140Z</time>
      </trkpt>
      <trkpt lat="43.58038" lon="2.96493">
        <ele>290.7</ele>
        <time>2015-12-14T11:42:57.163Z</time>
      </trkpt>
      <trkpt lat="43.58036" lon="2.96493">
        <ele>290.7</ele>
        <time>2015-12-14T11:42:58.133Z</time>
      </trkpt>
      <trkpt lat="43.58028" lon="2.96489">
        <ele>290.1</ele>
        <time>2015-12-14T11:43:01.194Z</time>
      </trkpt>
      <trkpt lat="43.58025" lon="2.96486">
        <ele>289.9</ele>
        <time>2015-12-14T11:43:02.136Z</time>
      </trkpt>
      <trkpt lat="43.58019" lon="2.96482">
        <ele>289.6</ele>
        <time>2015-12-14T11:43:04.197Z</time>
      </trkpt>
      <trkpt lat="43.58016" lon="2.96479">
        <ele>289.5</ele>
        <time>2015-12-14T11:43:05.137Z</time>
      </trkpt>
      <trkpt lat="43.58011" lon="2.96474">
        <ele>289.2</ele>
        <time>2015-12-14T11:43:07.190Z</time>
      </trkpt>
      <trkpt lat="43.58008" lon="2.96472">
        <ele>289.1</ele>
        <time>2015-12-14T11:43:08.136Z</time>
      </trkpt>
      <trkpt lat="43.58002" lon="2.96466">
        <ele>288.9</ele>
        <time>2015-12-14T11:43:10.170Z</time>
      </trkpt>
      <trkpt lat="43.57999" lon="2.96463">
        <ele>288.9</ele>
        <time>2015-12-14T11:43:11.133Z</time>
      </trkpt>
      <trkpt lat="43.57994" lon="2.96458">
        <ele>289</ele>
        <time>2015-12-14T11:43:13.212Z</time>
      </trkpt>
      <trkpt lat="43.5799" lon="2.96457">
        <ele>289</ele>
        <time>2015-12-14T11:43:14.132Z</time>
      </trkpt>
      <trkpt lat="43.57984" lon="2.96455">
        <ele>288.8</ele>
        <time>2015-12-14T11:43:16.165Z</time>
      </trkpt>
      <trkpt lat="43.57981" lon="2.96456">
        <ele>288.7</ele>
        <time>2015-12-14T11:43:17.132Z</time>
      </trkpt>
      <trkpt lat="43.57977" lon="2.96457">
        <ele>288.6</ele>
        <time>2015-12-14T11:43:18.187Z</time>
      </trkpt>
      <trkpt lat="43.57971" lon="2.9646">
        <ele>287.6</ele>
        <time>2015-12-14T11:43:19.138Z</time>
      </trkpt>
      <trkpt lat="43.57966" lon="2.96463">
        <ele>286.6</ele>
        <time>2015-12-14T11:43:20.162Z</time>
      </trkpt>
      <trkpt lat="43.57961" lon="2.96466">
        <ele>285.4</ele>
        <time>2015-12-14T11:43:21.133Z</time>
      </trkpt>
      <trkpt lat="43.57956" lon="2.96466">
        <ele>284.7</ele>
        <time>2015-12-14T11:43:22.164Z</time>
      </trkpt>
      <trkpt lat="43.57951" lon="2.96467">
        <ele>284</ele>
        <time>2015-12-14T11:43:23.133Z</time>
      </trkpt>
      <trkpt lat="43.57943" lon="2.9647">
        <ele>282.5</ele>
        <time>2015-12-14T11:43:25.187Z</time>
      </trkpt>
      <trkpt lat="43.5794" lon="2.96471">
        <ele>281.6</ele>
        <time>2015-12-14T11:43:26.133Z</time>
      </trkpt>
      <trkpt lat="43.57932" lon="2.96474">
        <ele>279.6</ele>
        <time>2015-12-14T11:43:28.167Z</time>
      </trkpt>
      <trkpt lat="43.57929" lon="2.96477">
        <ele>278.9</ele>
        <time>2015-12-14T11:43:29.133Z</time>
      </trkpt>
      <trkpt lat="43.57922" lon="2.96484">
        <ele>278</ele>
        <time>2015-12-14T11:43:31.194Z</time>
      </trkpt>
      <trkpt lat="43.5792" lon="2.96489">
        <ele>277.6</ele>
        <time>2015-12-14T11:43:32.138Z</time>
      </trkpt>
      <trkpt lat="43.57915" lon="2.96499">
        <ele>276.7</ele>
        <time>2015-12-14T11:43:34.180Z</time>
      </trkpt>
      <trkpt lat="43.57914" lon="2.96503">
        <ele>275.9</ele>
        <time>2015-12-14T11:43:35.133Z</time>
      </trkpt>
      <trkpt lat="43.5791" lon="2.96512">
        <ele>274.3</ele>
        <time>2015-12-14T11:43:37.414Z</time>
      </trkpt>
      <trkpt lat="43.57907" lon="2.96516">
        <ele>273.6</ele>
        <time>2015-12-14T11:43:38.134Z</time>
      </trkpt>
      <trkpt lat="43.579" lon="2.96523">
        <ele>272</ele>
        <time>2015-12-14T11:43:40.165Z</time>
      </trkpt>
      <trkpt lat="43.57896" lon="2.96526">
        <ele>271.3</ele>
        <time>2015-12-14T11:43:41.132Z</time>
      </trkpt>
      <trkpt lat="43.57889" lon="2.96533">
        <ele>269.7</ele>
        <time>2015-12-14T11:43:43.185Z</time>
      </trkpt>
      <trkpt lat="43.57887" lon="2.96538">
        <ele>269</ele>
        <time>2015-12-14T11:43:44.138Z</time>
      </trkpt>
      <trkpt lat="43.57883" lon="2.96547">
        <ele>267.8</ele>
        <time>2015-12-14T11:43:46.169Z</time>
      </trkpt>
      <trkpt lat="43.57882" lon="2.96552">
        <ele>267.2</ele>
        <time>2015-12-14T11:43:47.136Z</time>
      </trkpt>
      <trkpt lat="43.5788" lon="2.96563">
        <ele>266.3</ele>
        <time>2015-12-14T11:43:49.201Z</time>
      </trkpt>
      <trkpt lat="43.57879" lon="2.96567">
        <ele>265.8</ele>
        <time>2015-12-14T11:43:50.146Z</time>
      </trkpt>
      <trkpt lat="43.57874" lon="2.96575">
        <ele>264.8</ele>
        <time>2015-12-14T11:43:52.158Z</time>
      </trkpt>
      <trkpt lat="43.57871" lon="2.9658">
        <ele>264.2</ele>
        <time>2015-12-14T11:43:53.128Z</time>
      </trkpt>
      <trkpt lat="43.57863" lon="2.96584">
        <ele>262.9</ele>
        <time>2015-12-14T11:43:55.192Z</time>
      </trkpt>
      <trkpt lat="43.57859" lon="2.96586">
        <ele>262.2</ele>
        <time>2015-12-14T11:43:56.137Z</time>
      </trkpt>
      <trkpt lat="43.57851" lon="2.96587">
        <ele>260.5</ele>
        <time>2015-12-14T11:43:58.166Z</time>
      </trkpt>
      <trkpt lat="43.57848" lon="2.96589">
        <ele>259.8</ele>
        <time>2015-12-14T11:43:59.133Z</time>
      </trkpt>
      <trkpt lat="43.57842" lon="2.96592">
        <ele>258.3</ele>
        <time>2015-12-14T11:44:01.174Z</time>
      </trkpt>
      <trkpt lat="43.57839" lon="2.96595">
        <ele>257.6</ele>
        <time>2015-12-14T11:44:02.133Z</time>
      </trkpt>
      <trkpt lat="43.57832" lon="2.96601">
        <ele>256.3</ele>
        <time>2015-12-14T11:44:04.164Z</time>
      </trkpt>
      <trkpt lat="43.57828" lon="2.96603">
        <ele>255.5</ele>
        <time>2015-12-14T11:44:05.134Z</time>
      </trkpt>
      <trkpt lat="43.57821" lon="2.96607">
        <ele>254.2</ele>
        <time>2015-12-14T11:44:07.170Z</time>
      </trkpt>
      <trkpt lat="43.57817" lon="2.9661">
        <ele>253.5</ele>
        <time>2015-12-14T11:44:08.140Z</time>
      </trkpt>
      <trkpt lat="43.57811" lon="2.96615">
        <ele>252.4</ele>
        <time>2015-12-14T11:44:10.186Z</time>
      </trkpt>
      <trkpt lat="43.57808" lon="2.96618">
        <ele>251.8</ele>
        <time>2015-12-14T11:44:11.131Z</time>
      </trkpt>
      <trkpt lat="43.57799" lon="2.96621">
        <ele>250.5</ele>
        <time>2015-12-14T11:44:13.547Z</time>
      </trkpt>
      <trkpt lat="43.57795" lon="2.96621">
        <ele>249.8</ele>
        <time>2015-12-14T11:44:14.134Z</time>
      </trkpt>
      <trkpt lat="43.57788" lon="2.96622">
        <ele>248.7</ele>
        <time>2015-12-14T11:44:16.173Z</time>
      </trkpt>
      <trkpt lat="43.57784" lon="2.96622">
        <ele>248.2</ele>
        <time>2015-12-14T11:44:17.132Z</time>
      </trkpt>
      <trkpt lat="43.57778" lon="2.96624">
        <ele>247.3</ele>
        <time>2015-12-14T11:44:19.175Z</time>
      </trkpt>
      <trkpt lat="43.57774" lon="2.96625">
        <ele>246.9</ele>
        <time>2015-12-14T11:44:20.141Z</time>
      </trkpt>
      <trkpt lat="43.57767" lon="2.96624">
        <ele>246</ele>
        <time>2015-12-14T11:44:22.169Z</time>
      </trkpt>
      <trkpt lat="43.57764" lon="2.96624">
        <ele>245.5</ele>
        <time>2015-12-14T11:44:23.133Z</time>
      </trkpt>
      <trkpt lat="43.57757" lon="2.96619">
        <ele>244.1</ele>
        <time>2015-12-14T11:44:25.173Z</time>
      </trkpt>
      <trkpt lat="43.57754" lon="2.96616">
        <ele>243.5</ele>
        <time>2015-12-14T11:44:26.133Z</time>
      </trkpt>
      <trkpt lat="43.57746" lon="2.96611">
        <ele>242.1</ele>
        <time>2015-12-14T11:44:28.178Z</time>
      </trkpt>
      <trkpt lat="43.57743" lon="2.96609">
        <ele>241.6</ele>
        <time>2015-12-14T11:44:29.138Z</time>
      </trkpt>
      <trkpt lat="43.57737" lon="2.96606">
        <ele>240.4</ele>
        <time>2015-12-14T11:44:31.179Z</time>
      </trkpt>
      <trkpt lat="43.57734" lon="2.96603">
        <ele>239.9</ele>
        <time>2015-12-14T11:44:32.136Z</time>
      </trkpt>
      <trkpt lat="43.57729" lon="2.96598">
        <ele>239.1</ele>
        <time>2015-12-14T11:44:34.168Z</time>
      </trkpt>
      <trkpt lat="43.57726" lon="2.96596">
        <ele>238.6</ele>
        <time>2015-12-14T11:44:35.132Z</time>
      </trkpt>
      <trkpt lat="43.57719" lon="2.9659">
        <ele>237.3</ele>
        <time>2015-12-14T11:44:38.186Z</time>
      </trkpt>
      <trkpt lat="43.57718" lon="2.96588">
        <ele>236.9</ele>
        <time>2015-12-14T11:44:39.134Z</time>
      </trkpt>
      <trkpt lat="43.57718" lon="2.96588">
        <ele>236.9</ele>
        <time>2015-12-14T11:44:39.193Z</time>
      </trkpt>
      <trkpt lat="43.57718" lon="2.96586">
        <ele>236.4</ele>
        <time>2015-12-14T11:44:40.140Z</time>
      </trkpt>
      <trkpt lat="43.57718" lon="2.96584">
        <ele>234.7</ele>
        <time>2015-12-14T11:45:21.180Z</time>
      </trkpt>
      <trkpt lat="43.57715" lon="2.9658">
        <ele>236.4</ele>
        <time>2015-12-14T11:45:22.136Z</time>
      </trkpt>
      <trkpt lat="43.57714" lon="2.96569">
        <ele>235.9</ele>
        <time>2015-12-14T11:45:26.165Z</time>
      </trkpt>
      <trkpt lat="43.57713" lon="2.96566">
        <ele>235.9</ele>
        <time>2015-12-14T11:45:27.138Z</time>
      </trkpt>
      <trkpt lat="43.5771" lon="2.96556">
        <ele>235.8</ele>
        <time>2015-12-14T11:45:30.177Z</time>
      </trkpt>
      <trkpt lat="43.57709" lon="2.96552">
        <ele>235.8</ele>
        <time>2015-12-14T11:45:31.136Z</time>
      </trkpt>
      <trkpt lat="43.57703" lon="2.96546">
        <ele>235.5</ele>
        <time>2015-12-14T11:45:33.174Z</time>
      </trkpt>
      <trkpt lat="43.577" lon="2.96544">
        <ele>235.3</ele>
        <time>2015-12-14T11:45:34.134Z</time>
      </trkpt>
      <trkpt lat="43.57694" lon="2.96541">
        <ele>234.8</ele>
        <time>2015-12-14T11:45:36.160Z</time>
      </trkpt>
      <trkpt lat="43.5769" lon="2.96543">
        <ele>234.5</ele>
        <time>2015-12-14T11:45:37.130Z</time>
      </trkpt>
      <trkpt lat="43.57685" lon="2.96545">
        <ele>234.2</ele>
        <time>2015-12-14T11:45:38.165Z</time>
      </trkpt>
      <trkpt lat="43.57682" lon="2.96551">
        <ele>233.9</ele>
        <time>2015-12-14T11:45:39.136Z</time>
      </trkpt>
      <trkpt lat="43.57675" lon="2.96555">
        <ele>233.4</ele>
        <time>2015-12-14T11:45:41.188Z</time>
      </trkpt>
      <trkpt lat="43.57672" lon="2.96556">
        <ele>233.2</ele>
        <time>2015-12-14T11:45:42.137Z</time>
      </trkpt>
      <trkpt lat="43.57666" lon="2.96559">
        <ele>232.9</ele>
        <time>2015-12-14T11:45:44.164Z</time>
      </trkpt>
      <trkpt lat="43.57663" lon="2.96561">
        <ele>232.8</ele>
        <time>2015-12-14T11:45:45.133Z</time>
      </trkpt>
      <trkpt lat="43.57658" lon="2.96564">
        <ele>232.2</ele>
        <time>2015-12-14T11:45:47.161Z</time>
      </trkpt>
      <trkpt lat="43.57654" lon="2.96566">
        <ele>232</ele>
        <time>2015-12-14T11:45:48.137Z</time>
      </trkpt>
      <trkpt lat="43.57647" lon="2.9657">
        <ele>231.4</ele>
        <time>2015-12-14T11:45:50.176Z</time>
      </trkpt>
      <trkpt lat="43.57644" lon="2.96573">
        <ele>231.2</ele>
        <time>2015-12-14T11:45:51.130Z</time>
      </trkpt>
      <trkpt lat="43.57637" lon="2.96578">
        <ele>230.7</ele>
        <time>2015-12-14T11:45:53.173Z</time>
      </trkpt>
      <trkpt lat="43.57635" lon="2.96578">
        <ele>230.4</ele>
        <time>2015-12-14T11:45:54.134Z</time>
      </trkpt>
      <trkpt lat="43.57629" lon="2.96581">
        <ele>229.6</ele>
        <time>2015-12-14T11:45:57.182Z</time>
      </trkpt>
      <trkpt lat="43.57625" lon="2.9658">
        <ele>229.2</ele>
        <time>2015-12-14T11:45:58.140Z</time>
      </trkpt>
      <trkpt lat="43.57618" lon="2.96582">
        <ele>228.6</ele>
        <time>2015-12-14T11:46:00.183Z</time>
      </trkpt>
      <trkpt lat="43.57614" lon="2.96584">
        <ele>228.3</ele>
        <time>2015-12-14T11:46:01.339Z</time>
      </trkpt>
      <trkpt lat="43.57606" lon="2.96586">
        <ele>227.6</ele>
        <time>2015-12-14T11:46:03.177Z</time>
      </trkpt>
      <trkpt lat="43.57603" lon="2.96587">
        <ele>227.2</ele>
        <time>2015-12-14T11:46:04.128Z</time>
      </trkpt>
      <trkpt lat="43.57595" lon="2.9659">
        <ele>226.5</ele>
        <time>2015-12-14T11:46:06.181Z</time>
      </trkpt>
      <trkpt lat="43.57591" lon="2.96592">
        <ele>226.1</ele>
        <time>2015-12-14T11:46:07.136Z</time>
      </trkpt>
      <trkpt lat="43.57583" lon="2.96595">
        <ele>225.3</ele>
        <time>2015-12-14T11:46:09.187Z</time>
      </trkpt>
      <trkpt lat="43.57579" lon="2.96597">
        <ele>224.9</ele>
        <time>2015-12-14T11:46:10.137Z</time>
      </trkpt>
      <trkpt lat="43.57572" lon="2.96602">
        <ele>224.2</ele>
        <time>2015-12-14T11:46:12.172Z</time>
      </trkpt>
      <trkpt lat="43.57568" lon="2.96604">
        <ele>223.8</ele>
        <time>2015-12-14T11:46:13.134Z</time>
      </trkpt>
      <trkpt lat="43.57562" lon="2.96608">
        <ele>223.1</ele>
        <time>2015-12-14T11:46:15.159Z</time>
      </trkpt>
      <trkpt lat="43.5756" lon="2.9661">
        <ele>222.7</ele>
        <time>2015-12-14T11:46:16.134Z</time>
      </trkpt>
      <trkpt lat="43.57553" lon="2.96617">
        <ele>221.7</ele>
        <time>2015-12-14T11:46:19.183Z</time>
      </trkpt>
      <trkpt lat="43.57551" lon="2.96618">
        <ele>221.4</ele>
        <time>2015-12-14T11:46:20.139Z</time>
      </trkpt>
      <trkpt lat="43.57544" lon="2.96626">
        <ele>219.9</ele>
        <time>2015-12-14T11:46:25.173Z</time>
      </trkpt>
      <trkpt lat="43.57543" lon="2.96627">
        <ele>219.6</ele>
        <time>2015-12-14T11:46:26.138Z</time>
      </trkpt>
      <trkpt lat="43.57548" lon="2.96638">
        <ele>217</ele>
        <time>2015-12-14T11:47:17.176Z</time>
      </trkpt>
      <trkpt lat="43.57548" lon="2.96638">
        <ele>217</ele>
        <time>2015-12-14T11:47:18.135Z</time>
      </trkpt>
      <trkpt lat="43.57557" lon="2.96639">
        <ele>216.2</ele>
        <time>2015-12-14T11:47:29.166Z</time>
      </trkpt>
      <trkpt lat="43.57558" lon="2.96639">
        <ele>216.2</ele>
        <time>2015-12-14T11:47:30.134Z</time>
      </trkpt>
      <trkpt lat="43.57561" lon="2.96633">
        <ele>215</ele>
        <time>2015-12-14T11:48:08.192Z</time>
      </trkpt>
      <trkpt lat="43.57566" lon="2.96629">
        <ele>213.8</ele>
        <time>2015-12-14T11:48:09.137Z</time>
      </trkpt>
      <trkpt lat="43.57567" lon="2.96629">
        <ele>213.7</ele>
        <time>2015-12-14T11:48:29.391Z</time>
      </trkpt>
      <trkpt lat="43.57575" lon="2.96632">
        <ele>212.5</ele>
        <time>2015-12-14T11:48:30.133Z</time>
      </trkpt>
      <trkpt lat="43.5758" lon="2.96623">
        <ele>207.5</ele>
        <time>2015-12-14T11:49:37.175Z</time>
      </trkpt>
      <trkpt lat="43.57581" lon="2.96621">
        <ele>207.4</ele>
        <time>2015-12-14T11:49:38.132Z</time>
      </trkpt>
      <trkpt lat="43.57577" lon="2.96632">
        <ele>205.1</ele>
        <time>2015-12-14T11:50:30.192Z</time>
      </trkpt>
      <trkpt lat="43.57576" lon="2.96632">
        <ele>205.1</ele>
        <time>2015-12-14T11:50:31.132Z</time>
      </trkpt>
      <trkpt lat="43.57567" lon="2.96633">
        <ele>204.5</ele>
        <time>2015-12-14T11:50:45.188Z</time>
      </trkpt>
      <trkpt lat="43.57567" lon="2.96634">
        <ele>204.4</ele>
        <time>2015-12-14T11:50:46.136Z</time>
      </trkpt>
      <trkpt lat="43.57559" lon="2.96638">
        <ele>204</ele>
        <time>2015-12-14T11:51:00.183Z</time>
      </trkpt>
      <trkpt lat="43.57558" lon="2.9664">
        <ele>203.9</ele>
        <time>2015-12-14T11:51:01.140Z</time>
      </trkpt>
      <trkpt lat="43.57549" lon="2.96644">
        <ele>203</ele>
        <time>2015-12-14T11:51:20.182Z</time>
      </trkpt>
      <trkpt lat="43.57549" lon="2.96644">
        <ele>203</ele>
        <time>2015-12-14T11:51:21.139Z</time>
      </trkpt>
      <trkpt lat="43.57549" lon="2.96644">
        <ele>202.9</ele>
        <time>2015-12-14T11:51:35.344Z</time>
      </trkpt>
      <trkpt lat="43.57535" lon="2.96644">
        <ele>203.9</ele>
        <time>2015-12-14T12:16:29.815Z</time>
      </trkpt>
      <trkpt lat="43.57539" lon="2.96634">
        <ele>205.9</ele>
        <time>2015-12-14T12:17:43.255Z</time>
      </trkpt>
      <trkpt lat="43.57547" lon="2.96642">
        <ele>204.5</ele>
        <time>2015-12-14T12:17:44.212Z</time>
      </trkpt>
      <trkpt lat="43.57549" lon="2.96632">
        <ele>204.1</ele>
        <time>2015-12-14T12:18:47.268Z</time>
      </trkpt>
      <trkpt lat="43.57548" lon="2.96625">
        <ele>204.9</ele>
        <time>2015-12-14T12:18:48.217Z</time>
      </trkpt>
      <trkpt lat="43.57539" lon="2.96622">
        <ele>204.9</ele>
        <time>2015-12-14T12:18:54.274Z</time>
      </trkpt>
      <trkpt lat="43.57537" lon="2.96621">
        <ele>204.9</ele>
        <time>2015-12-14T12:18:55.211Z</time>
      </trkpt>
      <trkpt lat="43.5753" lon="2.96623">
        <ele>204.7</ele>
        <time>2015-12-14T12:18:58.237Z</time>
      </trkpt>
      <trkpt lat="43.57528" lon="2.96624">
        <ele>204.7</ele>
        <time>2015-12-14T12:18:59.210Z</time>
      </trkpt>
      <trkpt lat="43.57521" lon="2.96629">
        <ele>204.7</ele>
        <time>2015-12-14T12:19:02.255Z</time>
      </trkpt>
      <trkpt lat="43.5752" lon="2.96631">
        <ele>204.7</ele>
        <time>2015-12-14T12:19:03.206Z</time>
      </trkpt>
      <trkpt lat="43.57512" lon="2.96635">
        <ele>204.9</ele>
        <time>2015-12-14T12:19:06.264Z</time>
      </trkpt>
      <trkpt lat="43.57509" lon="2.96636">
        <ele>204.8</ele>
        <time>2015-12-14T12:19:07.221Z</time>
      </trkpt>
      <trkpt lat="43.57501" lon="2.96639">
        <ele>204.7</ele>
        <time>2015-12-14T12:19:10.255Z</time>
      </trkpt>
      <trkpt lat="43.57498" lon="2.9664">
        <ele>204.7</ele>
        <time>2015-12-14T12:19:11.213Z</time>
      </trkpt>
      <trkpt lat="43.57492" lon="2.96646">
        <ele>204.7</ele>
        <time>2015-12-14T12:19:14.262Z</time>
      </trkpt>
      <trkpt lat="43.57489" lon="2.96648">
        <ele>204.7</ele>
        <time>2015-12-14T12:19:15.216Z</time>
      </trkpt>
      <trkpt lat="43.57482" lon="2.96652">
        <ele>205</ele>
        <time>2015-12-14T12:19:18.256Z</time>
      </trkpt>
      <trkpt lat="43.5748" lon="2.96652">
        <ele>205</ele>
        <time>2015-12-14T12:19:19.208Z</time>
      </trkpt>
      <trkpt lat="43.57473" lon="2.96658">
        <ele>205.6</ele>
        <time>2015-12-14T12:19:23.240Z</time>
      </trkpt>
      <trkpt lat="43.57471" lon="2.96659">
        <ele>205.8</ele>
        <time>2015-12-14T12:19:24.212Z</time>
      </trkpt>
      <trkpt lat="43.57464" lon="2.96663">
        <ele>206.1</ele>
        <time>2015-12-14T12:19:27.258Z</time>
      </trkpt>
      <trkpt lat="43.57462" lon="2.96664">
        <ele>206.2</ele>
        <time>2015-12-14T12:19:28.219Z</time>
      </trkpt>
      <trkpt lat="43.57455" lon="2.96666">
        <ele>206.4</ele>
        <time>2015-12-14T12:19:31.262Z</time>
      </trkpt>
      <trkpt lat="43.57453" lon="2.96667">
        <ele>206.6</ele>
        <time>2015-12-14T12:19:32.215Z</time>
      </trkpt>
      <trkpt lat="43.57446" lon="2.96672">
        <ele>207.1</ele>
        <time>2015-12-14T12:19:35.248Z</time>
      </trkpt>
      <trkpt lat="43.57444" lon="2.96673">
        <ele>207.3</ele>
        <time>2015-12-14T12:19:36.213Z</time>
      </trkpt>
      <trkpt lat="43.57436" lon="2.96679">
        <ele>208.3</ele>
        <time>2015-12-14T12:19:41.271Z</time>
      </trkpt>
      <trkpt lat="43.57435" lon="2.96681">
        <ele>208.3</ele>
        <time>2015-12-14T12:19:42.217Z</time>
      </trkpt>
      <trkpt lat="43.5743" lon="2.96689">
        <ele>207.9</ele>
        <time>2015-12-14T12:19:46.247Z</time>
      </trkpt>
      <trkpt lat="43.57428" lon="2.96692">
        <ele>208</ele>
        <time>2015-12-14T12:19:47.221Z</time>
      </trkpt>
      <trkpt lat="43.57422" lon="2.96698">
        <ele>208.1</ele>
        <time>2015-12-14T12:19:50.261Z</time>
      </trkpt>
      <trkpt lat="43.5742" lon="2.967">
        <ele>208.1</ele>
        <time>2015-12-14T12:19:51.208Z</time>
      </trkpt>
      <trkpt lat="43.57414" lon="2.96705">
        <ele>208.4</ele>
        <time>2015-12-14T12:19:53.240Z</time>
      </trkpt>
      <trkpt lat="43.5741" lon="2.96707">
        <ele>208.5</ele>
        <time>2015-12-14T12:19:54.212Z</time>
      </trkpt>
      <trkpt lat="43.57406" lon="2.96709">
        <ele>208.5</ele>
        <time>2015-12-14T12:19:55.263Z</time>
      </trkpt>
      <trkpt lat="43.57402" lon="2.96712">
        <ele>208.5</ele>
        <time>2015-12-14T12:19:56.220Z</time>
      </trkpt>
      <trkpt lat="43.57394" lon="2.96715">
        <ele>208.7</ele>
        <time>2015-12-14T12:19:58.259Z</time>
      </trkpt>
      <trkpt lat="43.57389" lon="2.96718">
        <ele>208.8</ele>
        <time>2015-12-14T12:19:59.214Z</time>
      </trkpt>
      <trkpt lat="43.57383" lon="2.9672">
        <ele>208.8</ele>
        <time>2015-12-14T12:20:00.288Z</time>
      </trkpt>
      <trkpt lat="43.57377" lon="2.96722">
        <ele>208.5</ele>
        <time>2015-12-14T12:20:01.214Z</time>
      </trkpt>
      <trkpt lat="43.57372" lon="2.96723">
        <ele>208.2</ele>
        <time>2015-12-14T12:20:02.248Z</time>
      </trkpt>
      <trkpt lat="43.57367" lon="2.96725">
        <ele>207.9</ele>
        <time>2015-12-14T12:20:03.206Z</time>
      </trkpt>
      <trkpt lat="43.57363" lon="2.96726">
        <ele>207.5</ele>
        <time>2015-12-14T12:20:04.240Z</time>
      </trkpt>
      <trkpt lat="43.57358" lon="2.96728">
        <ele>207.1</ele>
        <time>2015-12-14T12:20:05.212Z</time>
      </trkpt>
      <trkpt lat="43.57349" lon="2.96731">
        <ele>206.8</ele>
        <time>2015-12-14T12:20:07.268Z</time>
      </trkpt>
      <trkpt lat="43.57345" lon="2.96732">
        <ele>206.8</ele>
        <time>2015-12-14T12:20:08.209Z</time>
      </trkpt>
      <trkpt lat="43.57338" lon="2.96733">
        <ele>206.3</ele>
        <time>2015-12-14T12:20:10.255Z</time>
      </trkpt>
      <trkpt lat="43.57335" lon="2.96732">
        <ele>206</ele>
        <time>2015-12-14T12:20:11.207Z</time>
      </trkpt>
      <trkpt lat="43.5733" lon="2.96732">
        <ele>205.6</ele>
        <time>2015-12-14T12:20:12.242Z</time>
      </trkpt>
      <trkpt lat="43.57326" lon="2.96729">
        <ele>205.4</ele>
        <time>2015-12-14T12:20:13.213Z</time>
      </trkpt>
      <trkpt lat="43.57317" lon="2.96726">
        <ele>205.5</ele>
        <time>2015-12-14T12:20:15.265Z</time>
      </trkpt>
      <trkpt lat="43.57313" lon="2.96724">
        <ele>205.5</ele>
        <time>2015-12-14T12:20:16.217Z</time>
      </trkpt>
      <trkpt lat="43.57306" lon="2.9672">
        <ele>205.7</ele>
        <time>2015-12-14T12:20:18.247Z</time>
      </trkpt>
      <trkpt lat="43.57302" lon="2.96718">
        <ele>205.7</ele>
        <time>2015-12-14T12:20:19.212Z</time>
      </trkpt>
      <trkpt lat="43.57294" lon="2.96715">
        <ele>205.6</ele>
        <time>2015-12-14T12:20:21.255Z</time>
      </trkpt>
      <trkpt lat="43.57291" lon="2.96713">
        <ele>205.3</ele>
        <time>2015-12-14T12:20:22.214Z</time>
      </trkpt>
      <trkpt lat="43.57283" lon="2.96709">
        <ele>205</ele>
        <time>2015-12-14T12:20:24.247Z</time>
      </trkpt>
      <trkpt lat="43.57279" lon="2.96706">
        <ele>205.1</ele>
        <time>2015-12-14T12:20:25.212Z</time>
      </trkpt>
      <trkpt lat="43.57274" lon="2.96703">
        <ele>204.6</ele>
        <time>2015-12-14T12:20:26.252Z</time>
      </trkpt>
      <trkpt lat="43.5727" lon="2.96701">
        <ele>204.6</ele>
        <time>2015-12-14T12:20:27.214Z</time>
      </trkpt>
      <trkpt lat="43.57262" lon="2.96695">
        <ele>203.2</ele>
        <time>2015-12-14T12:20:29.252Z</time>
      </trkpt>
      <trkpt lat="43.57259" lon="2.96692">
        <ele>202.2</ele>
        <time>2015-12-14T12:20:30.213Z</time>
      </trkpt>
      <trkpt lat="43.57253" lon="2.96687">
        <ele>200.9</ele>
        <time>2015-12-14T12:20:32.242Z</time>
      </trkpt>
      <trkpt lat="43.57249" lon="2.96684">
        <ele>200.2</ele>
        <time>2015-12-14T12:20:33.210Z</time>
      </trkpt>
      <trkpt lat="43.57243" lon="2.96677">
        <ele>199.1</ele>
        <time>2015-12-14T12:20:35.259Z</time>
      </trkpt>
      <trkpt lat="43.5724" lon="2.96674">
        <ele>198.7</ele>
        <time>2015-12-14T12:20:36.214Z</time>
      </trkpt>
      <trkpt lat="43.57235" lon="2.96667">
        <ele>197.4</ele>
        <time>2015-12-14T12:20:38.259Z</time>
      </trkpt>
      <trkpt lat="43.57232" lon="2.96664">
        <ele>196.9</ele>
        <time>2015-12-14T12:20:39.215Z</time>
      </trkpt>
      <trkpt lat="43.57226" lon="2.96658">
        <ele>196.3</ele>
        <time>2015-12-14T12:20:41.277Z</time>
      </trkpt>
      <trkpt lat="43.57223" lon="2.96655">
        <ele>195.8</ele>
        <time>2015-12-14T12:20:42.206Z</time>
      </trkpt>
      <trkpt lat="43.57217" lon="2.96652">
        <ele>195.2</ele>
        <time>2015-12-14T12:20:44.242Z</time>
      </trkpt>
      <trkpt lat="43.57213" lon="2.96651">
        <ele>194.9</ele>
        <time>2015-12-14T12:20:45.214Z</time>
      </trkpt>
      <trkpt lat="43.57205" lon="2.96651">
        <ele>194.3</ele>
        <time>2015-12-14T12:20:47.246Z</time>
      </trkpt>
      <trkpt lat="43.57202" lon="2.96652">
        <ele>194.1</ele>
        <time>2015-12-14T12:20:48.216Z</time>
      </trkpt>
      <trkpt lat="43.57197" lon="2.96654">
        <ele>193.9</ele>
        <time>2015-12-14T12:20:49.261Z</time>
      </trkpt>
      <trkpt lat="43.57193" lon="2.96656">
        <ele>193.6</ele>
        <time>2015-12-14T12:20:50.212Z</time>
      </trkpt>
      <trkpt lat="43.57188" lon="2.96658">
        <ele>193.2</ele>
        <time>2015-12-14T12:20:51.252Z</time>
      </trkpt>
      <trkpt lat="43.57184" lon="2.96659">
        <ele>192.9</ele>
        <time>2015-12-14T12:20:52.211Z</time>
      </trkpt>
      <trkpt lat="43.57179" lon="2.9666">
        <ele>192.6</ele>
        <time>2015-12-14T12:20:53.247Z</time>
      </trkpt>
      <trkpt lat="43.57174" lon="2.96661">
        <ele>192.2</ele>
        <time>2015-12-14T12:20:54.215Z</time>
      </trkpt>
      <trkpt lat="43.57169" lon="2.96662">
        <ele>191.8</ele>
        <time>2015-12-14T12:20:55.259Z</time>
      </trkpt>
      <trkpt lat="43.57164" lon="2.96661">
        <ele>191.5</ele>
        <time>2015-12-14T12:20:56.215Z</time>
      </trkpt>
      <trkpt lat="43.57157" lon="2.9666">
        <ele>191.4</ele>
        <time>2015-12-14T12:20:58.237Z</time>
      </trkpt>
      <trkpt lat="43.57153" lon="2.96659">
        <ele>191.5</ele>
        <time>2015-12-14T12:20:59.208Z</time>
      </trkpt>
      <trkpt lat="43.57145" lon="2.96655">
        <ele>191.3</ele>
        <time>2015-12-14T12:21:02.251Z</time>
      </trkpt>
      <trkpt lat="43.57143" lon="2.96655">
        <ele>191.1</ele>
        <time>2015-12-14T12:21:03.229Z</time>
      </trkpt>
      <trkpt lat="43.57135" lon="2.96652">
        <ele>192.9</ele>
        <time>2015-12-14T12:21:07.255Z</time>
      </trkpt>
      <trkpt lat="43.57133" lon="2.96651">
        <ele>193.3</ele>
        <time>2015-12-14T12:21:08.210Z</time>
      </trkpt>
      <trkpt lat="43.57126" lon="2.96646">
        <ele>194.6</ele>
        <time>2015-12-14T12:21:11.241Z</time>
      </trkpt>
      <trkpt lat="43.57125" lon="2.96645">
        <ele>195.9</ele>
        <time>2015-12-14T12:21:12.211Z</time>
      </trkpt>
      <trkpt lat="43.5712" lon="2.96641">
        <ele>196.7</ele>
        <time>2015-12-14T12:21:14.256Z</time>
      </trkpt>
      <trkpt lat="43.57116" lon="2.96639">
        <ele>196.9</ele>
        <time>2015-12-14T12:21:15.215Z</time>
      </trkpt>
      <trkpt lat="43.57109" lon="2.96636">
        <ele>196.7</ele>
        <time>2015-12-14T12:21:17.266Z</time>
      </trkpt>
      <trkpt lat="43.57105" lon="2.96634">
        <ele>196.7</ele>
        <time>2015-12-14T12:21:18.220Z</time>
      </trkpt>
      <trkpt lat="43.57101" lon="2.96633">
        <ele>196.8</ele>
        <time>2015-12-14T12:21:19.280Z</time>
      </trkpt>
      <trkpt lat="43.57096" lon="2.96632">
        <ele>196.4</ele>
        <time>2015-12-14T12:21:20.214Z</time>
      </trkpt>
      <trkpt lat="43.57091" lon="2.96633">
        <ele>196.2</ele>
        <time>2015-12-14T12:21:21.251Z</time>
      </trkpt>
      <trkpt lat="43.57087" lon="2.96636">
        <ele>195.9</ele>
        <time>2015-12-14T12:21:22.220Z</time>
      </trkpt>
      <trkpt lat="43.57082" lon="2.9664">
        <ele>195.9</ele>
        <time>2015-12-14T12:21:23.246Z</time>
      </trkpt>
      <trkpt lat="43.57078" lon="2.96644">
        <ele>196.1</ele>
        <time>2015-12-14T12:21:24.214Z</time>
      </trkpt>
      <trkpt lat="43.57073" lon="2.9665">
        <ele>195.9</ele>
        <time>2015-12-14T12:21:25.242Z</time>
      </trkpt>
      <trkpt lat="43.57068" lon="2.96655">
        <ele>195.8</ele>
        <time>2015-12-14T12:21:26.209Z</time>
      </trkpt>
      <trkpt lat="43.57064" lon="2.9666">
        <ele>195.3</ele>
        <time>2015-12-14T12:21:27.591Z</time>
      </trkpt>
      <trkpt lat="43.57059" lon="2.96666">
        <ele>194.7</ele>
        <time>2015-12-14T12:21:28.210Z</time>
      </trkpt>
      <trkpt lat="43.57055" lon="2.9667">
        <ele>194.2</ele>
        <time>2015-12-14T12:21:29.256Z</time>
      </trkpt>
      <trkpt lat="43.5705" lon="2.96675">
        <ele>193.8</ele>
        <time>2015-12-14T12:21:30.219Z</time>
      </trkpt>
      <trkpt lat="43.57045" lon="2.96679">
        <ele>193.3</ele>
        <time>2015-12-14T12:21:31.260Z</time>
      </trkpt>
      <trkpt lat="43.57041" lon="2.96682">
        <ele>191.1</ele>
        <time>2015-12-14T12:21:32.214Z</time>
      </trkpt>
      <trkpt lat="43.57036" lon="2.96684">
        <ele>190.2</ele>
        <time>2015-12-14T12:21:33.245Z</time>
      </trkpt>
      <trkpt lat="43.57031" lon="2.96686">
        <ele>189.6</ele>
        <time>2015-12-14T12:21:34.215Z</time>
      </trkpt>
      <trkpt lat="43.57023" lon="2.96687">
        <ele>188.4</ele>
        <time>2015-12-14T12:21:36.262Z</time>
      </trkpt>
      <trkpt lat="43.57019" lon="2.96688">
        <ele>188.2</ele>
        <time>2015-12-14T12:21:37.221Z</time>
      </trkpt>
      <trkpt lat="43.57012" lon="2.96683">
        <ele>187.6</ele>
        <time>2015-12-14T12:21:39.247Z</time>
      </trkpt>
      <trkpt lat="43.5701" lon="2.96678">
        <ele>187.3</ele>
        <time>2015-12-14T12:21:40.218Z</time>
      </trkpt>
      <trkpt lat="43.57005" lon="2.96668">
        <ele>186.4</ele>
        <time>2015-12-14T12:21:42.263Z</time>
      </trkpt>
      <trkpt lat="43.57003" lon="2.96663">
        <ele>185.7</ele>
        <time>2015-12-14T12:21:43.219Z</time>
      </trkpt>
      <trkpt lat="43.56999" lon="2.96651">
        <ele>185.8</ele>
        <time>2015-12-14T12:21:45.271Z</time>
      </trkpt>
      <trkpt lat="43.56997" lon="2.96646">
        <ele>185.6</ele>
        <time>2015-12-14T12:21:46.223Z</time>
      </trkpt>
      <trkpt lat="43.56995" lon="2.9664">
        <ele>186.1</ele>
        <time>2015-12-14T12:21:47.244Z</time>
      </trkpt>
      <trkpt lat="43.56993" lon="2.96634">
        <ele>186.3</ele>
        <time>2015-12-14T12:21:48.212Z</time>
      </trkpt>
      <trkpt lat="43.56991" lon="2.96629">
        <ele>186.1</ele>
        <time>2015-12-14T12:21:49.258Z</time>
      </trkpt>
      <trkpt lat="43.56989" lon="2.96623">
        <ele>186</ele>
        <time>2015-12-14T12:21:50.219Z</time>
      </trkpt>
      <trkpt lat="43.56984" lon="2.96612">
        <ele>185.8</ele>
        <time>2015-12-14T12:21:52.247Z</time>
      </trkpt>
      <trkpt lat="43.56981" lon="2.96607">
        <ele>185.6</ele>
        <time>2015-12-14T12:21:53.211Z</time>
      </trkpt>
      <trkpt lat="43.56979" lon="2.96602">
        <ele>185.6</ele>
        <time>2015-12-14T12:21:54.258Z</time>
      </trkpt>
      <trkpt lat="43.56976" lon="2.96596">
        <ele>185.3</ele>
        <time>2015-12-14T12:21:55.213Z</time>
      </trkpt>
      <trkpt lat="43.56974" lon="2.96591">
        <ele>185.1</ele>
        <time>2015-12-14T12:21:56.293Z</time>
      </trkpt>
      <trkpt lat="43.56971" lon="2.96586">
        <ele>184.9</ele>
        <time>2015-12-14T12:21:57.207Z</time>
      </trkpt>
      <trkpt lat="43.56969" lon="2.9658">
        <ele>184.8</ele>
        <time>2015-12-14T12:21:58.249Z</time>
      </trkpt>
      <trkpt lat="43.56966" lon="2.96574">
        <ele>184.7</ele>
        <time>2015-12-14T12:21:59.209Z</time>
      </trkpt>
      <trkpt lat="43.56963" lon="2.96568">
        <ele>184.6</ele>
        <time>2015-12-14T12:22:00.268Z</time>
      </trkpt>
      <trkpt lat="43.5696" lon="2.96562">
        <ele>184.5</ele>
        <time>2015-12-14T12:22:01.215Z</time>
      </trkpt>
      <trkpt lat="43.56957" lon="2.96557">
        <ele>184.8</ele>
        <time>2015-12-14T12:22:02.247Z</time>
      </trkpt>
      <trkpt lat="43.56954" lon="2.96552">
        <ele>184.7</ele>
        <time>2015-12-14T12:22:03.207Z</time>
      </trkpt>
      <trkpt lat="43.5695" lon="2.96541">
        <ele>184.8</ele>
        <time>2015-12-14T12:22:05.245Z</time>
      </trkpt>
      <trkpt lat="43.56948" lon="2.96536">
        <ele>184.7</ele>
        <time>2015-12-14T12:22:06.209Z</time>
      </trkpt>
      <trkpt lat="43.56944" lon="2.96527">
        <ele>184.7</ele>
        <time>2015-12-14T12:22:08.262Z</time>
      </trkpt>
      <trkpt lat="43.56942" lon="2.96522">
        <ele>184.4</ele>
        <time>2015-12-14T12:22:09.211Z</time>
      </trkpt>
      <trkpt lat="43.56938" lon="2.96513">
        <ele>184.2</ele>
        <time>2015-12-14T12:22:11.266Z</time>
      </trkpt>
      <trkpt lat="43.56935" lon="2.96508">
        <ele>184</ele>
        <time>2015-12-14T12:22:12.210Z</time>
      </trkpt>
      <trkpt lat="43.56931" lon="2.96498">
        <ele>183.5</ele>
        <time>2015-12-14T12:22:14.271Z</time>
      </trkpt>
      <trkpt lat="43.56929" lon="2.96494">
        <ele>183.4</ele>
        <time>2015-12-14T12:22:15.210Z</time>
      </trkpt>
      <trkpt lat="43.56924" lon="2.96484">
        <ele>183.2</ele>
        <time>2015-12-14T12:22:17.250Z</time>
      </trkpt>
      <trkpt lat="43.56921" lon="2.96479">
        <ele>183.1</ele>
        <time>2015-12-14T12:22:18.212Z</time>
      </trkpt>
      <trkpt lat="43.56916" lon="2.96469">
        <ele>182.9</ele>
        <time>2015-12-14T12:22:20.251Z</time>
      </trkpt>
      <trkpt lat="43.56914" lon="2.96464">
        <ele>182.7</ele>
        <time>2015-12-14T12:22:21.210Z</time>
      </trkpt>
      <trkpt lat="43.5691" lon="2.96453">
        <ele>182.5</ele>
        <time>2015-12-14T12:22:23.241Z</time>
      </trkpt>
      <trkpt lat="43.56908" lon="2.96448">
        <ele>182.3</ele>
        <time>2015-12-14T12:22:24.215Z</time>
      </trkpt>
      <trkpt lat="43.56903" lon="2.96438">
        <ele>182.5</ele>
        <time>2015-12-14T12:22:26.251Z</time>
      </trkpt>
      <trkpt lat="43.56901" lon="2.96433">
        <ele>182.4</ele>
        <time>2015-12-14T12:22:27.209Z</time>
      </trkpt>
      <trkpt lat="43.56899" lon="2.96427">
        <ele>182.5</ele>
        <time>2015-12-14T12:22:28.248Z</time>
      </trkpt>
      <trkpt lat="43.56896" lon="2.96422">
        <ele>182.6</ele>
        <time>2015-12-14T12:22:29.571Z</time>
      </trkpt>
      <trkpt lat="43.56894" lon="2.96416">
        <ele>182.8</ele>
        <time>2015-12-14T12:22:30.251Z</time>
      </trkpt>
      <trkpt lat="43.56892" lon="2.96411">
        <ele>183.1</ele>
        <time>2015-12-14T12:22:31.208Z</time>
      </trkpt>
      <trkpt lat="43.56889" lon="2.96405">
        <ele>183.2</ele>
        <time>2015-12-14T12:22:32.260Z</time>
      </trkpt>
      <trkpt lat="43.56887" lon="2.96399">
        <ele>182.9</ele>
        <time>2015-12-14T12:22:33.211Z</time>
      </trkpt>
      <trkpt lat="43.56884" lon="2.96393">
        <ele>182.8</ele>
        <time>2015-12-14T12:22:34.248Z</time>
      </trkpt>
      <trkpt lat="43.56882" lon="2.96387">
        <ele>182.6</ele>
        <time>2015-12-14T12:22:35.215Z</time>
      </trkpt>
      <trkpt lat="43.56879" lon="2.96381">
        <ele>182.3</ele>
        <time>2015-12-14T12:22:36.266Z</time>
      </trkpt>
      <trkpt lat="43.56876" lon="2.96375">
        <ele>182.1</ele>
        <time>2015-12-14T12:22:37.221Z</time>
      </trkpt>
      <trkpt lat="43.56873" lon="2.96369">
        <ele>182</ele>
        <time>2015-12-14T12:22:38.255Z</time>
      </trkpt>
      <trkpt lat="43.5687" lon="2.96363">
        <ele>181.7</ele>
        <time>2015-12-14T12:22:39.210Z</time>
      </trkpt>
      <trkpt lat="43.56867" lon="2.96357">
        <ele>181.3</ele>
        <time>2015-12-14T12:22:40.247Z</time>
      </trkpt>
      <trkpt lat="43.56864" lon="2.96351">
        <ele>181.2</ele>
        <time>2015-12-14T12:22:41.211Z</time>
      </trkpt>
      <trkpt lat="43.56861" lon="2.96345">
        <ele>181</ele>
        <time>2015-12-14T12:22:42.278Z</time>
      </trkpt>
      <trkpt lat="43.56858" lon="2.96339">
        <ele>180.8</ele>
        <time>2015-12-14T12:22:43.217Z</time>
      </trkpt>
      <trkpt lat="43.56855" lon="2.96333">
        <ele>180.8</ele>
        <time>2015-12-14T12:22:44.259Z</time>
      </trkpt>
      <trkpt lat="43.56853" lon="2.96327">
        <ele>180.6</ele>
        <time>2015-12-14T12:22:45.216Z</time>
      </trkpt>
      <trkpt lat="43.5685" lon="2.96321">
        <ele>180.6</ele>
        <time>2015-12-14T12:22:46.251Z</time>
      </trkpt>
      <trkpt lat="43.56847" lon="2.96315">
        <ele>180.5</ele>
        <time>2015-12-14T12:22:47.206Z</time>
      </trkpt>
      <trkpt lat="43.56844" lon="2.96309">
        <ele>180.4</ele>
        <time>2015-12-14T12:22:48.249Z</time>
      </trkpt>
      <trkpt lat="43.56841" lon="2.96304">
        <ele>180.4</ele>
        <time>2015-12-14T12:22:49.209Z</time>
      </trkpt>
      <trkpt lat="43.56838" lon="2.96298">
        <ele>180.1</ele>
        <time>2015-12-14T12:22:50.251Z</time>
      </trkpt>
      <trkpt lat="43.56835" lon="2.96292">
        <ele>180</ele>
        <time>2015-12-14T12:22:51.215Z</time>
      </trkpt>
      <trkpt lat="43.56833" lon="2.96285">
        <ele>179.9</ele>
        <time>2015-12-14T12:22:52.260Z</time>
      </trkpt>
      <trkpt lat="43.5683" lon="2.96279">
        <ele>180</ele>
        <time>2015-12-14T12:22:53.213Z</time>
      </trkpt>
      <trkpt lat="43.56828" lon="2.96273">
        <ele>180</ele>
        <time>2015-12-14T12:22:54.278Z</time>
      </trkpt>
      <trkpt lat="43.56825" lon="2.96268">
        <ele>179.9</ele>
        <time>2015-12-14T12:22:55.211Z</time>
      </trkpt>
      <trkpt lat="43.56823" lon="2.96262">
        <ele>179.7</ele>
        <time>2015-12-14T12:22:56.665Z</time>
      </trkpt>
      <trkpt lat="43.5682" lon="2.96256">
        <ele>180.1</ele>
        <time>2015-12-14T12:22:57.210Z</time>
      </trkpt>
      <trkpt lat="43.56818" lon="2.96251">
        <ele>180.1</ele>
        <time>2015-12-14T12:22:58.253Z</time>
      </trkpt>
      <trkpt lat="43.56815" lon="2.96245">
        <ele>179.8</ele>
        <time>2015-12-14T12:22:59.209Z</time>
      </trkpt>
      <trkpt lat="43.56812" lon="2.9624">
        <ele>179.8</ele>
        <time>2015-12-14T12:23:00.275Z</time>
      </trkpt>
      <trkpt lat="43.5681" lon="2.96235">
        <ele>179.4</ele>
        <time>2015-12-14T12:23:01.214Z</time>
      </trkpt>
      <trkpt lat="43.56805" lon="2.96225">
        <ele>178.9</ele>
        <time>2015-12-14T12:23:03.264Z</time>
      </trkpt>
      <trkpt lat="43.56803" lon="2.9622">
        <ele>178.9</ele>
        <time>2015-12-14T12:23:04.220Z</time>
      </trkpt>
      <trkpt lat="43.56799" lon="2.9621">
        <ele>178.5</ele>
        <time>2015-12-14T12:23:06.251Z</time>
      </trkpt>
      <trkpt lat="43.56797" lon="2.96204">
        <ele>176.7</ele>
        <time>2015-12-14T12:23:07.214Z</time>
      </trkpt>
      <trkpt lat="43.56794" lon="2.96198">
        <ele>176.4</ele>
        <time>2015-12-14T12:23:08.254Z</time>
      </trkpt>
      <trkpt lat="43.56791" lon="2.96192">
        <ele>176.2</ele>
        <time>2015-12-14T12:23:09.211Z</time>
      </trkpt>
      <trkpt lat="43.56788" lon="2.96187">
        <ele>177.1</ele>
        <time>2015-12-14T12:23:10.249Z</time>
      </trkpt>
      <trkpt lat="43.56785" lon="2.96181">
        <ele>177</ele>
        <time>2015-12-14T12:23:11.212Z</time>
      </trkpt>
      <trkpt lat="43.56782" lon="2.96175">
        <ele>176.7</ele>
        <time>2015-12-14T12:23:12.272Z</time>
      </trkpt>
      <trkpt lat="43.56779" lon="2.96168">
        <ele>176.3</ele>
        <time>2015-12-14T12:23:13.218Z</time>
      </trkpt>
      <trkpt lat="43.56776" lon="2.96162">
        <ele>176</ele>
        <time>2015-12-14T12:23:14.279Z</time>
      </trkpt>
      <trkpt lat="43.56773" lon="2.96155">
        <ele>175.6</ele>
        <time>2015-12-14T12:23:15.210Z</time>
      </trkpt>
      <trkpt lat="43.5677" lon="2.96148">
        <ele>175.5</ele>
        <time>2015-12-14T12:23:16.243Z</time>
      </trkpt>
      <trkpt lat="43.56766" lon="2.96141">
        <ele>175</ele>
        <time>2015-12-14T12:23:17.210Z</time>
      </trkpt>
      <trkpt lat="43.56763" lon="2.96134">
        <ele>174.8</ele>
        <time>2015-12-14T12:23:18.246Z</time>
      </trkpt>
      <trkpt lat="43.5676" lon="2.96128">
        <ele>174.7</ele>
        <time>2015-12-14T12:23:19.215Z</time>
      </trkpt>
      <trkpt lat="43.56757" lon="2.96121">
        <ele>174.3</ele>
        <time>2015-12-14T12:23:20.518Z</time>
      </trkpt>
      <trkpt lat="43.56754" lon="2.96115">
        <ele>174.2</ele>
        <time>2015-12-14T12:23:21.210Z</time>
      </trkpt>
      <trkpt lat="43.56751" lon="2.96108">
        <ele>174.4</ele>
        <time>2015-12-14T12:23:22.237Z</time>
      </trkpt>
      <trkpt lat="43.56748" lon="2.96102">
        <ele>174.6</ele>
        <time>2015-12-14T12:23:23.211Z</time>
      </trkpt>
      <trkpt lat="43.56745" lon="2.96097">
        <ele>174.5</ele>
        <time>2015-12-14T12:23:24.257Z</time>
      </trkpt>
      <trkpt lat="43.56742" lon="2.9609">
        <ele>174.7</ele>
        <time>2015-12-14T12:23:25.217Z</time>
      </trkpt>
      <trkpt lat="43.5674" lon="2.96084">
        <ele>174.7</ele>
        <time>2015-12-14T12:23:26.243Z</time>
      </trkpt>
      <trkpt lat="43.56737" lon="2.96079">
        <ele>174.5</ele>
        <time>2015-12-14T12:23:27.210Z</time>
      </trkpt>
      <trkpt lat="43.56734" lon="2.96073">
        <ele>174.2</ele>
        <time>2015-12-14T12:23:28.267Z</time>
      </trkpt>
      <trkpt lat="43.56732" lon="2.96068">
        <ele>174.1</ele>
        <time>2015-12-14T12:23:29.212Z</time>
      </trkpt>
      <trkpt lat="43.5673" lon="2.96062">
        <ele>174.1</ele>
        <time>2015-12-14T12:23:30.274Z</time>
      </trkpt>
      <trkpt lat="43.56728" lon="2.96056">
        <ele>174.1</ele>
        <time>2015-12-14T12:23:31.220Z</time>
      </trkpt>
      <trkpt lat="43.56725" lon="2.96051">
        <ele>173.9</ele>
        <time>2015-12-14T12:23:32.258Z</time>
      </trkpt>
      <trkpt lat="43.56723" lon="2.96045">
        <ele>173.8</ele>
        <time>2015-12-14T12:23:33.209Z</time>
      </trkpt>
      <trkpt lat="43.5672" lon="2.9604">
        <ele>173.6</ele>
        <time>2015-12-14T12:23:34.247Z</time>
      </trkpt>
      <trkpt lat="43.56718" lon="2.96034">
        <ele>173.5</ele>
        <time>2015-12-14T12:23:35.212Z</time>
      </trkpt>
      <trkpt lat="43.56715" lon="2.96029">
        <ele>173.4</ele>
        <time>2015-12-14T12:23:36.259Z</time>
      </trkpt>
      <trkpt lat="43.56713" lon="2.96023">
        <ele>173.3</ele>
        <time>2015-12-14T12:23:37.208Z</time>
      </trkpt>
      <trkpt lat="43.56711" lon="2.96011">
        <ele>173.1</ele>
        <time>2015-12-14T12:23:39.279Z</time>
      </trkpt>
      <trkpt lat="43.5671" lon="2.96005">
        <ele>173.2</ele>
        <time>2015-12-14T12:23:40.212Z</time>
      </trkpt>
      <trkpt lat="43.56708" lon="2.95995">
        <ele>173.2</ele>
        <time>2015-12-14T12:23:42.246Z</time>
      </trkpt>
      <trkpt lat="43.56707" lon="2.9599">
        <ele>173.2</ele>
        <time>2015-12-14T12:23:43.210Z</time>
      </trkpt>
      <trkpt lat="43.56703" lon="2.9598">
        <ele>173.8</ele>
        <time>2015-12-14T12:23:45.248Z</time>
      </trkpt>
      <trkpt lat="43.56701" lon="2.95976">
        <ele>174.1</ele>
        <time>2015-12-14T12:23:46.223Z</time>
      </trkpt>
      <trkpt lat="43.56696" lon="2.95966">
        <ele>174.2</ele>
        <time>2015-12-14T12:23:49.265Z</time>
      </trkpt>
      <trkpt lat="43.56695" lon="2.95963">
        <ele>174.3</ele>
        <time>2015-12-14T12:23:50.212Z</time>
      </trkpt>
      <trkpt lat="43.56688" lon="2.95956">
        <ele>174.9</ele>
        <time>2015-12-14T12:23:54.252Z</time>
      </trkpt>
      <trkpt lat="43.56687" lon="2.95956">
        <ele>175</ele>
        <time>2015-12-14T12:23:55.217Z</time>
      </trkpt>
      <trkpt lat="43.5668" lon="2.95963">
        <ele>176.4</ele>
        <time>2015-12-14T12:24:05.280Z</time>
      </trkpt>
      <trkpt lat="43.5668" lon="2.95964">
        <ele>176.5</ele>
        <time>2015-12-14T12:24:06.214Z</time>
      </trkpt>
      <trkpt lat="43.56683" lon="2.95974">
        <ele>176.5</ele>
        <time>2015-12-14T12:24:10.277Z</time>
      </trkpt>
      <trkpt lat="43.56685" lon="2.95977">
        <ele>176.5</ele>
        <time>2015-12-14T12:24:11.219Z</time>
      </trkpt>
      <trkpt lat="43.56687" lon="2.95985">
        <ele>176.8</ele>
        <time>2015-12-14T12:24:13.265Z</time>
      </trkpt>
      <trkpt lat="43.56689" lon="2.9599">
        <ele>176.8</ele>
        <time>2015-12-14T12:24:14.210Z</time>
      </trkpt>
      <trkpt lat="43.56691" lon="2.95999">
        <ele>176.8</ele>
        <time>2015-12-14T12:24:16.277Z</time>
      </trkpt>
      <trkpt lat="43.56692" lon="2.96005">
        <ele>176.7</ele>
        <time>2015-12-14T12:24:17.212Z</time>
      </trkpt>
      <trkpt lat="43.56693" lon="2.96016">
        <ele>176.6</ele>
        <time>2015-12-14T12:24:19.265Z</time>
      </trkpt>
      <trkpt lat="43.56694" lon="2.96021">
        <ele>176.7</ele>
        <time>2015-12-14T12:24:20.217Z</time>
      </trkpt>
      <trkpt lat="43.56696" lon="2.96031">
        <ele>176.5</ele>
        <time>2015-12-14T12:24:22.240Z</time>
      </trkpt>
      <trkpt lat="43.56697" lon="2.96036">
        <ele>176</ele>
        <time>2015-12-14T12:24:23.215Z</time>
      </trkpt>
      <trkpt lat="43.56699" lon="2.96046">
        <ele>175.8</ele>
        <time>2015-12-14T12:24:25.286Z</time>
      </trkpt>
      <trkpt lat="43.56701" lon="2.96052">
        <ele>175.7</ele>
        <time>2015-12-14T12:24:26.222Z</time>
      </trkpt>
      <trkpt lat="43.56702" lon="2.96063">
        <ele>175.6</ele>
        <time>2015-12-14T12:24:28.246Z</time>
      </trkpt>
      <trkpt lat="43.56704" lon="2.96068">
        <ele>175.6</ele>
        <time>2015-12-14T12:24:29.209Z</time>
      </trkpt>
      <trkpt lat="43.56705" lon="2.96079">
        <ele>175.2</ele>
        <time>2015-12-14T12:24:31.254Z</time>
      </trkpt>
      <trkpt lat="43.56707" lon="2.96085">
        <ele>174.8</ele>
        <time>2015-12-14T12:24:32.213Z</time>
      </trkpt>
      <trkpt lat="43.56709" lon="2.96096">
        <ele>174.7</ele>
        <time>2015-12-14T12:24:34.267Z</time>
      </trkpt>
      <trkpt lat="43.5671" lon="2.96101">
        <ele>174.5</ele>
        <time>2015-12-14T12:24:35.214Z</time>
      </trkpt>
      <trkpt lat="43.56714" lon="2.96112">
        <ele>174.4</ele>
        <time>2015-12-14T12:24:37.290Z</time>
      </trkpt>
      <trkpt lat="43.56716" lon="2.96117">
        <ele>174.1</ele>
        <time>2015-12-14T12:24:38.205Z</time>
      </trkpt>
      <trkpt lat="43.56721" lon="2.96127">
        <ele>174.1</ele>
        <time>2015-12-14T12:24:40.243Z</time>
      </trkpt>
      <trkpt lat="43.56724" lon="2.96134">
        <ele>173.8</ele>
        <time>2015-12-14T12:24:41.207Z</time>
      </trkpt>
      <trkpt lat="43.56727" lon="2.96139">
        <ele>173.5</ele>
        <time>2015-12-14T12:24:42.257Z</time>
      </trkpt>
      <trkpt lat="43.56729" lon="2.96144">
        <ele>173.6</ele>
        <time>2015-12-14T12:24:43.213Z</time>
      </trkpt>
      <trkpt lat="43.56731" lon="2.96151">
        <ele>173.2</ele>
        <time>2015-12-14T12:24:44.247Z</time>
      </trkpt>
      <trkpt lat="43.56732" lon="2.96157">
        <ele>173.3</ele>
        <time>2015-12-14T12:24:45.212Z</time>
      </trkpt>
      <trkpt lat="43.56735" lon="2.96168">
        <ele>173.1</ele>
        <time>2015-12-14T12:24:47.272Z</time>
      </trkpt>
      <trkpt lat="43.56736" lon="2.96175">
        <ele>173</ele>
        <time>2015-12-14T12:24:48.218Z</time>
      </trkpt>
      <trkpt lat="43.56738" lon="2.96181">
        <ele>172.7</ele>
        <time>2015-12-14T12:24:49.255Z</time>
      </trkpt>
      <trkpt lat="43.5674" lon="2.96187">
        <ele>172.7</ele>
        <time>2015-12-14T12:24:50.215Z</time>
      </trkpt>
      <trkpt lat="43.56742" lon="2.96192">
        <ele>172.8</ele>
        <time>2015-12-14T12:24:51.255Z</time>
      </trkpt>
      <trkpt lat="43.56743" lon="2.96198">
        <ele>172.7</ele>
        <time>2015-12-14T12:24:52.222Z</time>
      </trkpt>
      <trkpt lat="43.56747" lon="2.96209">
        <ele>172.8</ele>
        <time>2015-12-14T12:24:54.252Z</time>
      </trkpt>
      <trkpt lat="43.56748" lon="2.96215">
        <ele>172.8</ele>
        <time>2015-12-14T12:24:55.213Z</time>
      </trkpt>
      <trkpt lat="43.56751" lon="2.96227">
        <ele>173</ele>
        <time>2015-12-14T12:24:57.248Z</time>
      </trkpt>
      <trkpt lat="43.56752" lon="2.96233">
        <ele>173.1</ele>
        <time>2015-12-14T12:24:58.206Z</time>
      </trkpt>
      <trkpt lat="43.56753" lon="2.9624">
        <ele>173.6</ele>
        <time>2015-12-14T12:24:59.251Z</time>
      </trkpt>
      <trkpt lat="43.56754" lon="2.96246">
        <ele>173.8</ele>
        <time>2015-12-14T12:25:00.226Z</time>
      </trkpt>
      <trkpt lat="43.56756" lon="2.96252">
        <ele>174.3</ele>
        <time>2015-12-14T12:25:01.275Z</time>
      </trkpt>
      <trkpt lat="43.56758" lon="2.96258">
        <ele>174.1</ele>
        <time>2015-12-14T12:25:02.217Z</time>
      </trkpt>
      <trkpt lat="43.56759" lon="2.96264">
        <ele>174.3</ele>
        <time>2015-12-14T12:25:03.264Z</time>
      </trkpt>
      <trkpt lat="43.56761" lon="2.9627">
        <ele>174.6</ele>
        <time>2015-12-14T12:25:04.216Z</time>
      </trkpt>
      <trkpt lat="43.56765" lon="2.9628">
        <ele>174.6</ele>
        <time>2015-12-14T12:25:06.255Z</time>
      </trkpt>
      <trkpt lat="43.56768" lon="2.96284">
        <ele>174.6</ele>
        <time>2015-12-14T12:25:07.218Z</time>
      </trkpt>
      <trkpt lat="43.56771" lon="2.96295">
        <ele>174.4</ele>
        <time>2015-12-14T12:25:09.252Z</time>
      </trkpt>
      <trkpt lat="43.56772" lon="2.96302">
        <ele>174.5</ele>
        <time>2015-12-14T12:25:10.212Z</time>
      </trkpt>
      <trkpt lat="43.56774" lon="2.96307">
        <ele>174.6</ele>
        <time>2015-12-14T12:25:11.260Z</time>
      </trkpt>
      <trkpt lat="43.56779" lon="2.96312">
        <ele>174.5</ele>
        <time>2015-12-14T12:25:12.209Z</time>
      </trkpt>
      <trkpt lat="43.56783" lon="2.96321">
        <ele>174.2</ele>
        <time>2015-12-14T12:25:14.274Z</time>
      </trkpt>
      <trkpt lat="43.56785" lon="2.96327">
        <ele>174.1</ele>
        <time>2015-12-14T12:25:15.218Z</time>
      </trkpt>
      <trkpt lat="43.56789" lon="2.96337">
        <ele>174</ele>
        <time>2015-12-14T12:25:17.305Z</time>
      </trkpt>
      <trkpt lat="43.56791" lon="2.96343">
        <ele>173.8</ele>
        <time>2015-12-14T12:25:18.214Z</time>
      </trkpt>
      <trkpt lat="43.56795" lon="2.96353">
        <ele>173.6</ele>
        <time>2015-12-14T12:25:20.244Z</time>
      </trkpt>
      <trkpt lat="43.56797" lon="2.96358">
        <ele>173.4</ele>
        <time>2015-12-14T12:25:21.213Z</time>
      </trkpt>
      <trkpt lat="43.56799" lon="2.96365">
        <ele>173.8</ele>
        <time>2015-12-14T12:25:22.253Z</time>
      </trkpt>
      <trkpt lat="43.56801" lon="2.96371">
        <ele>173.9</ele>
        <time>2015-12-14T12:25:23.207Z</time>
      </trkpt>
      <trkpt lat="43.56806" lon="2.96381">
        <ele>174.1</ele>
        <time>2015-12-14T12:25:25.264Z</time>
      </trkpt>
      <trkpt lat="43.56808" lon="2.96387">
        <ele>174.4</ele>
        <time>2015-12-14T12:25:26.216Z</time>
      </trkpt>
      <trkpt lat="43.56812" lon="2.96398">
        <ele>174.6</ele>
        <time>2015-12-14T12:25:28.249Z</time>
      </trkpt>
      <trkpt lat="43.56814" lon="2.96403">
        <ele>174.8</ele>
        <time>2015-12-14T12:25:29.211Z</time>
      </trkpt>
      <trkpt lat="43.56816" lon="2.96409">
        <ele>175.2</ele>
        <time>2015-12-14T12:25:30.248Z</time>
      </trkpt>
      <trkpt lat="43.56818" lon="2.96415">
        <ele>174.8</ele>
        <time>2015-12-14T12:25:31.218Z</time>
      </trkpt>
      <trkpt lat="43.56821" lon="2.9642">
        <ele>174.6</ele>
        <time>2015-12-14T12:25:32.255Z</time>
      </trkpt>
      <trkpt lat="43.56824" lon="2.96425">
        <ele>174.5</ele>
        <time>2015-12-14T12:25:33.219Z</time>
      </trkpt>
      <trkpt lat="43.56828" lon="2.96436">
        <ele>174.5</ele>
        <time>2015-12-14T12:25:35.616Z</time>
      </trkpt>
      <trkpt lat="43.5683" lon="2.96441">
        <ele>174.4</ele>
        <time>2015-12-14T12:25:36.211Z</time>
      </trkpt>
      <trkpt lat="43.56833" lon="2.96452">
        <ele>174.6</ele>
        <time>2015-12-14T12:25:38.258Z</time>
      </trkpt>
      <trkpt lat="43.56835" lon="2.96458">
        <ele>174.8</ele>
        <time>2015-12-14T12:25:39.216Z</time>
      </trkpt>
      <trkpt lat="43.56839" lon="2.96469">
        <ele>175.4</ele>
        <time>2015-12-14T12:25:41.273Z</time>
      </trkpt>
      <trkpt lat="43.56841" lon="2.96474">
        <ele>175.5</ele>
        <time>2015-12-14T12:25:42.211Z</time>
      </trkpt>
      <trkpt lat="43.56844" lon="2.96478">
        <ele>175.7</ele>
        <time>2015-12-14T12:25:43.280Z</time>
      </trkpt>
      <trkpt lat="43.56847" lon="2.96483">
        <ele>176</ele>
        <time>2015-12-14T12:25:44.209Z</time>
      </trkpt>
      <trkpt lat="43.5685" lon="2.96489">
        <ele>176.3</ele>
        <time>2015-12-14T12:25:45.252Z</time>
      </trkpt>
      <trkpt lat="43.56853" lon="2.96494">
        <ele>176.7</ele>
        <time>2015-12-14T12:25:46.214Z</time>
      </trkpt>
      <trkpt lat="43.56854" lon="2.96499">
        <ele>177.2</ele>
        <time>2015-12-14T12:25:47.250Z</time>
      </trkpt>
      <trkpt lat="43.56857" lon="2.96505">
        <ele>177.5</ele>
        <time>2015-12-14T12:25:48.217Z</time>
      </trkpt>
      <trkpt lat="43.5686" lon="2.9651">
        <ele>177.7</ele>
        <time>2015-12-14T12:25:49.251Z</time>
      </trkpt>
      <trkpt lat="43.56862" lon="2.96515">
        <ele>178</ele>
        <time>2015-12-14T12:25:50.214Z</time>
      </trkpt>
      <trkpt lat="43.56865" lon="2.96521">
        <ele>178.3</ele>
        <time>2015-12-14T12:25:51.252Z</time>
      </trkpt>
      <trkpt lat="43.56868" lon="2.96526">
        <ele>178.5</ele>
        <time>2015-12-14T12:25:52.213Z</time>
      </trkpt>
      <trkpt lat="43.56873" lon="2.96535">
        <ele>179.1</ele>
        <time>2015-12-14T12:25:54.251Z</time>
      </trkpt>
      <trkpt lat="43.56875" lon="2.9654">
        <ele>179.4</ele>
        <time>2015-12-14T12:25:55.212Z</time>
      </trkpt>
      <trkpt lat="43.56878" lon="2.96545">
        <ele>179.7</ele>
        <time>2015-12-14T12:25:56.264Z</time>
      </trkpt>
      <trkpt lat="43.56881" lon="2.9655">
        <ele>180</ele>
        <time>2015-12-14T12:25:57.215Z</time>
      </trkpt>
      <trkpt lat="43.56884" lon="2.96555">
        <ele>180.3</ele>
        <time>2015-12-14T12:25:58.260Z</time>
      </trkpt>
      <trkpt lat="43.56887" lon="2.96561">
        <ele>180.6</ele>
        <time>2015-12-14T12:25:59.209Z</time>
      </trkpt>
      <trkpt lat="43.56889" lon="2.96566">
        <ele>180.9</ele>
        <time>2015-12-14T12:26:00.265Z</time>
      </trkpt>
      <trkpt lat="43.56892" lon="2.96571">
        <ele>181.3</ele>
        <time>2015-12-14T12:26:01.221Z</time>
      </trkpt>
      <trkpt lat="43.56897" lon="2.9658">
        <ele>181.9</ele>
        <time>2015-12-14T12:26:03.268Z</time>
      </trkpt>
      <trkpt lat="43.569" lon="2.96585">
        <ele>182.1</ele>
        <time>2015-12-14T12:26:04.215Z</time>
      </trkpt>
      <trkpt lat="43.56902" lon="2.9659">
        <ele>182.3</ele>
        <time>2015-12-14T12:26:05.252Z</time>
      </trkpt>
      <trkpt lat="43.56906" lon="2.96594">
        <ele>182.5</ele>
        <time>2015-12-14T12:26:06.213Z</time>
      </trkpt>
      <trkpt lat="43.56913" lon="2.96602">
        <ele>183</ele>
        <time>2015-12-14T12:26:08.262Z</time>
      </trkpt>
      <trkpt lat="43.56916" lon="2.96606">
        <ele>183.1</ele>
        <time>2015-12-14T12:26:09.214Z</time>
      </trkpt>
      <trkpt lat="43.5692" lon="2.9661">
        <ele>183.3</ele>
        <time>2015-12-14T12:26:10.283Z</time>
      </trkpt>
      <trkpt lat="43.56923" lon="2.96614">
        <ele>183.6</ele>
        <time>2015-12-14T12:26:11.213Z</time>
      </trkpt>
      <trkpt lat="43.56927" lon="2.96618">
        <ele>184.1</ele>
        <time>2015-12-14T12:26:12.254Z</time>
      </trkpt>
      <trkpt lat="43.5693" lon="2.96622">
        <ele>184.3</ele>
        <time>2015-12-14T12:26:13.217Z</time>
      </trkpt>
      <trkpt lat="43.56935" lon="2.96627">
        <ele>184.5</ele>
        <time>2015-12-14T12:26:14.256Z</time>
      </trkpt>
      <trkpt lat="43.56939" lon="2.96632">
        <ele>184.6</ele>
        <time>2015-12-14T12:26:15.218Z</time>
      </trkpt>
      <trkpt lat="43.56943" lon="2.96636">
        <ele>184.8</ele>
        <time>2015-12-14T12:26:16.264Z</time>
      </trkpt>
      <trkpt lat="43.56946" lon="2.96641">
        <ele>185.1</ele>
        <time>2015-12-14T12:26:17.216Z</time>
      </trkpt>
      <trkpt lat="43.56948" lon="2.96646">
        <ele>185.3</ele>
        <time>2015-12-14T12:26:18.262Z</time>
      </trkpt>
      <trkpt lat="43.56952" lon="2.96651">
        <ele>185.4</ele>
        <time>2015-12-14T12:26:19.222Z</time>
      </trkpt>
      <trkpt lat="43.56954" lon="2.96657">
        <ele>185.7</ele>
        <time>2015-12-14T12:26:20.268Z</time>
      </trkpt>
      <trkpt lat="43.56957" lon="2.96663">
        <ele>185.9</ele>
        <time>2015-12-14T12:26:21.213Z</time>
      </trkpt>
      <trkpt lat="43.5696" lon="2.96668">
        <ele>186.1</ele>
        <time>2015-12-14T12:26:22.594Z</time>
      </trkpt>
      <trkpt lat="43.56963" lon="2.96672">
        <ele>186.3</ele>
        <time>2015-12-14T12:26:23.214Z</time>
      </trkpt>
      <trkpt lat="43.56966" lon="2.96677">
        <ele>186.2</ele>
        <time>2015-12-14T12:26:24.240Z</time>
      </trkpt>
      <trkpt lat="43.56968" lon="2.96683">
        <ele>186.3</ele>
        <time>2015-12-14T12:26:25.224Z</time>
      </trkpt>
      <trkpt lat="43.56969" lon="2.96689">
        <ele>186.5</ele>
        <time>2015-12-14T12:26:26.249Z</time>
      </trkpt>
      <trkpt lat="43.56972" lon="2.96694">
        <ele>186.5</ele>
        <time>2015-12-14T12:26:27.209Z</time>
      </trkpt>
      <trkpt lat="43.56975" lon="2.96699">
        <ele>186.5</ele>
        <time>2015-12-14T12:26:28.239Z</time>
      </trkpt>
      <trkpt lat="43.56978" lon="2.96704">
        <ele>186.7</ele>
        <time>2015-12-14T12:26:29.211Z</time>
      </trkpt>
      <trkpt lat="43.5698" lon="2.96709">
        <ele>186.8</ele>
        <time>2015-12-14T12:26:30.245Z</time>
      </trkpt>
      <trkpt lat="43.56984" lon="2.96713">
        <ele>187</ele>
        <time>2015-12-14T12:26:31.220Z</time>
      </trkpt>
      <trkpt lat="43.56988" lon="2.96718">
        <ele>187.1</ele>
        <time>2015-12-14T12:26:32.250Z</time>
      </trkpt>
      <trkpt lat="43.56991" lon="2.96723">
        <ele>187.2</ele>
        <time>2015-12-14T12:26:33.211Z</time>
      </trkpt>
      <trkpt lat="43.56994" lon="2.96728">
        <ele>187.3</ele>
        <time>2015-12-14T12:26:34.246Z</time>
      </trkpt>
      <trkpt lat="43.56997" lon="2.96735">
        <ele>187.5</ele>
        <time>2015-12-14T12:26:35.212Z</time>
      </trkpt>
      <trkpt lat="43.56999" lon="2.9674">
        <ele>187.7</ele>
        <time>2015-12-14T12:26:36.260Z</time>
      </trkpt>
      <trkpt lat="43.57001" lon="2.96746">
        <ele>187.8</ele>
        <time>2015-12-14T12:26:37.220Z</time>
      </trkpt>
      <trkpt lat="43.57006" lon="2.9675">
        <ele>188</ele>
        <time>2015-12-14T12:26:38.265Z</time>
      </trkpt>
      <trkpt lat="43.5701" lon="2.96755">
        <ele>188.1</ele>
        <time>2015-12-14T12:26:39.211Z</time>
      </trkpt>
      <trkpt lat="43.57013" lon="2.9676">
        <ele>188.3</ele>
        <time>2015-12-14T12:26:40.240Z</time>
      </trkpt>
      <trkpt lat="43.57018" lon="2.96764">
        <ele>188.4</ele>
        <time>2015-12-14T12:26:41.212Z</time>
      </trkpt>
      <trkpt lat="43.57022" lon="2.96769">
        <ele>188.6</ele>
        <time>2015-12-14T12:26:42.243Z</time>
      </trkpt>
      <trkpt lat="43.57025" lon="2.96775">
        <ele>188.7</ele>
        <time>2015-12-14T12:26:43.221Z</time>
      </trkpt>
      <trkpt lat="43.57028" lon="2.96781">
        <ele>188.9</ele>
        <time>2015-12-14T12:26:44.263Z</time>
      </trkpt>
      <trkpt lat="43.57033" lon="2.96785">
        <ele>189.2</ele>
        <time>2015-12-14T12:26:45.216Z</time>
      </trkpt>
      <trkpt lat="43.57038" lon="2.9679">
        <ele>189.3</ele>
        <time>2015-12-14T12:26:46.261Z</time>
      </trkpt>
      <trkpt lat="43.57042" lon="2.96795">
        <ele>189.4</ele>
        <time>2015-12-14T12:26:47.215Z</time>
      </trkpt>
      <trkpt lat="43.57045" lon="2.96801">
        <ele>189.3</ele>
        <time>2015-12-14T12:26:48.252Z</time>
      </trkpt>
      <trkpt lat="43.57048" lon="2.96806">
        <ele>189.3</ele>
        <time>2015-12-14T12:26:49.215Z</time>
      </trkpt>
      <trkpt lat="43.57051" lon="2.96812">
        <ele>189</ele>
        <time>2015-12-14T12:26:50.253Z</time>
      </trkpt>
      <trkpt lat="43.57054" lon="2.96819">
        <ele>188.8</ele>
        <time>2015-12-14T12:26:51.215Z</time>
      </trkpt>
      <trkpt lat="43.57061" lon="2.96821">
        <ele>188.6</ele>
        <time>2015-12-14T12:26:52.268Z</time>
      </trkpt>
      <trkpt lat="43.57068" lon="2.96825">
        <ele>188.6</ele>
        <time>2015-12-14T12:26:53.219Z</time>
      </trkpt>
      <trkpt lat="43.57073" lon="2.9683">
        <ele>188.4</ele>
        <time>2015-12-14T12:26:54.261Z</time>
      </trkpt>
      <trkpt lat="43.57078" lon="2.96837">
        <ele>187.9</ele>
        <time>2015-12-14T12:26:55.215Z</time>
      </trkpt>
      <trkpt lat="43.57081" lon="2.96843">
        <ele>187.7</ele>
        <time>2015-12-14T12:26:56.244Z</time>
      </trkpt>
      <trkpt lat="43.57085" lon="2.96848">
        <ele>187.4</ele>
        <time>2015-12-14T12:26:57.206Z</time>
      </trkpt>
      <trkpt lat="43.57089" lon="2.96853">
        <ele>186.9</ele>
        <time>2015-12-14T12:26:58.241Z</time>
      </trkpt>
      <trkpt lat="43.57094" lon="2.96858">
        <ele>186.4</ele>
        <time>2015-12-14T12:26:59.212Z</time>
      </trkpt>
      <trkpt lat="43.57097" lon="2.96864">
        <ele>186.2</ele>
        <time>2015-12-14T12:27:00.260Z</time>
      </trkpt>
      <trkpt lat="43.571" lon="2.96871">
        <ele>185.5</ele>
        <time>2015-12-14T12:27:01.212Z</time>
      </trkpt>
      <trkpt lat="43.57102" lon="2.96877">
        <ele>184.9</ele>
        <time>2015-12-14T12:27:02.246Z</time>
      </trkpt>
      <trkpt lat="43.57104" lon="2.96884">
        <ele>184.6</ele>
        <time>2015-12-14T12:27:03.210Z</time>
      </trkpt>
      <trkpt lat="43.57107" lon="2.9689">
        <ele>184.3</ele>
        <time>2015-12-14T12:27:04.260Z</time>
      </trkpt>
      <trkpt lat="43.57108" lon="2.96897">
        <ele>183.8</ele>
        <time>2015-12-14T12:27:05.222Z</time>
      </trkpt>
      <trkpt lat="43.57111" lon="2.96905">
        <ele>183.3</ele>
        <time>2015-12-14T12:27:06.254Z</time>
      </trkpt>
      <trkpt lat="43.57113" lon="2.96911">
        <ele>182.8</ele>
        <time>2015-12-14T12:27:07.217Z</time>
      </trkpt>
      <trkpt lat="43.57115" lon="2.96918">
        <ele>181.9</ele>
        <time>2015-12-14T12:27:08.270Z</time>
      </trkpt>
      <trkpt lat="43.57117" lon="2.96925">
        <ele>181.3</ele>
        <time>2015-12-14T12:27:09.213Z</time>
      </trkpt>
      <trkpt lat="43.57119" lon="2.96932">
        <ele>180.7</ele>
        <time>2015-12-14T12:27:10.247Z</time>
      </trkpt>
      <trkpt lat="43.5712" lon="2.96938">
        <ele>180</ele>
        <time>2015-12-14T12:27:11.213Z</time>
      </trkpt>
      <trkpt lat="43.57122" lon="2.96945">
        <ele>179</ele>
        <time>2015-12-14T12:27:12.241Z</time>
      </trkpt>
      <trkpt lat="43.57123" lon="2.96952">
        <ele>178.1</ele>
        <time>2015-12-14T12:27:13.214Z</time>
      </trkpt>
      <trkpt lat="43.57125" lon="2.96958">
        <ele>177.4</ele>
        <time>2015-12-14T12:27:14.262Z</time>
      </trkpt>
      <trkpt lat="43.57126" lon="2.96966">
        <ele>177.2</ele>
        <time>2015-12-14T12:27:15.216Z</time>
      </trkpt>
      <trkpt lat="43.57127" lon="2.96972">
        <ele>176.9</ele>
        <time>2015-12-14T12:27:16.276Z</time>
      </trkpt>
      <trkpt lat="43.57128" lon="2.9698">
        <ele>176.4</ele>
        <time>2015-12-14T12:27:17.211Z</time>
      </trkpt>
      <trkpt lat="43.57129" lon="2.96986">
        <ele>175.9</ele>
        <time>2015-12-14T12:27:18.242Z</time>
      </trkpt>
      <trkpt lat="43.57129" lon="2.96993">
        <ele>175.3</ele>
        <time>2015-12-14T12:27:19.213Z</time>
      </trkpt>
      <trkpt lat="43.5713" lon="2.97001">
        <ele>175</ele>
        <time>2015-12-14T12:27:20.250Z</time>
      </trkpt>
      <trkpt lat="43.57131" lon="2.97008">
        <ele>174.4</ele>
        <time>2015-12-14T12:27:21.211Z</time>
      </trkpt>
      <trkpt lat="43.57131" lon="2.97015">
        <ele>174.1</ele>
        <time>2015-12-14T12:27:22.253Z</time>
      </trkpt>
      <trkpt lat="43.57131" lon="2.97022">
        <ele>173.9</ele>
        <time>2015-12-14T12:27:23.210Z</time>
      </trkpt>
      <trkpt lat="43.57131" lon="2.97029">
        <ele>173.6</ele>
        <time>2015-12-14T12:27:24.246Z</time>
      </trkpt>
      <trkpt lat="43.57131" lon="2.97036">
        <ele>173.5</ele>
        <time>2015-12-14T12:27:25.216Z</time>
      </trkpt>
      <trkpt lat="43.57132" lon="2.97048">
        <ele>173</ele>
        <time>2015-12-14T12:27:27.257Z</time>
      </trkpt>
      <trkpt lat="43.57132" lon="2.97055">
        <ele>173</ele>
        <time>2015-12-14T12:27:28.213Z</time>
      </trkpt>
      <trkpt lat="43.57132" lon="2.97061">
        <ele>172.7</ele>
        <time>2015-12-14T12:27:29.244Z</time>
      </trkpt>
      <trkpt lat="43.57132" lon="2.97067">
        <ele>172.1</ele>
        <time>2015-12-14T12:27:30.227Z</time>
      </trkpt>
      <trkpt lat="43.57132" lon="2.97073">
        <ele>171.6</ele>
        <time>2015-12-14T12:27:31.248Z</time>
      </trkpt>
      <trkpt lat="43.57131" lon="2.9708">
        <ele>171.5</ele>
        <time>2015-12-14T12:27:32.214Z</time>
      </trkpt>
      <trkpt lat="43.5713" lon="2.97086">
        <ele>171.2</ele>
        <time>2015-12-14T12:27:33.244Z</time>
      </trkpt>
      <trkpt lat="43.5713" lon="2.97092">
        <ele>170.9</ele>
        <time>2015-12-14T12:27:34.214Z</time>
      </trkpt>
      <trkpt lat="43.57129" lon="2.97102">
        <ele>170.2</ele>
        <time>2015-12-14T12:27:36.647Z</time>
      </trkpt>
      <trkpt lat="43.57128" lon="2.97107">
        <ele>170</ele>
        <time>2015-12-14T12:27:37.216Z</time>
      </trkpt>
      <trkpt lat="43.57126" lon="2.97118">
        <ele>169.4</ele>
        <time>2015-12-14T12:27:39.248Z</time>
      </trkpt>
      <trkpt lat="43.57125" lon="2.97123">
        <ele>169.2</ele>
        <time>2015-12-14T12:27:40.217Z</time>
      </trkpt>
      <trkpt lat="43.57124" lon="2.97132">
        <ele>168.6</ele>
        <time>2015-12-14T12:27:42.263Z</time>
      </trkpt>
      <trkpt lat="43.57124" lon="2.97137">
        <ele>168.3</ele>
        <time>2015-12-14T12:27:43.220Z</time>
      </trkpt>
      <trkpt lat="43.57123" lon="2.97145">
        <ele>168.1</ele>
        <time>2015-12-14T12:27:45.245Z</time>
      </trkpt>
      <trkpt lat="43.57122" lon="2.97151">
        <ele>168.1</ele>
        <time>2015-12-14T12:27:46.211Z</time>
      </trkpt>
      <trkpt lat="43.57121" lon="2.97157">
        <ele>168.1</ele>
        <time>2015-12-14T12:27:47.241Z</time>
      </trkpt>
      <trkpt lat="43.57119" lon="2.97164">
        <ele>168.2</ele>
        <time>2015-12-14T12:27:48.219Z</time>
      </trkpt>
      <trkpt lat="43.57117" lon="2.97171">
        <ele>168.3</ele>
        <time>2015-12-14T12:27:49.304Z</time>
      </trkpt>
      <trkpt lat="43.57115" lon="2.97178">
        <ele>168.4</ele>
        <time>2015-12-14T12:27:50.221Z</time>
      </trkpt>
      <trkpt lat="43.57113" lon="2.97184">
        <ele>168.3</ele>
        <time>2015-12-14T12:27:51.263Z</time>
      </trkpt>
      <trkpt lat="43.5711" lon="2.97191">
        <ele>168.3</ele>
        <time>2015-12-14T12:27:52.214Z</time>
      </trkpt>
      <trkpt lat="43.57107" lon="2.97197">
        <ele>168.1</ele>
        <time>2015-12-14T12:27:53.279Z</time>
      </trkpt>
      <trkpt lat="43.57105" lon="2.97203">
        <ele>167.9</ele>
        <time>2015-12-14T12:27:54.222Z</time>
      </trkpt>
      <trkpt lat="43.57102" lon="2.9721">
        <ele>167.8</ele>
        <time>2015-12-14T12:27:55.256Z</time>
      </trkpt>
      <trkpt lat="43.57099" lon="2.97216">
        <ele>167.7</ele>
        <time>2015-12-14T12:27:56.214Z</time>
      </trkpt>
      <trkpt lat="43.57097" lon="2.97224">
        <ele>167.5</ele>
        <time>2015-12-14T12:27:57.244Z</time>
      </trkpt>
      <trkpt lat="43.57094" lon="2.9723">
        <ele>167.4</ele>
        <time>2015-12-14T12:27:58.212Z</time>
      </trkpt>
      <trkpt lat="43.57091" lon="2.97236">
        <ele>167.2</ele>
        <time>2015-12-14T12:27:59.274Z</time>
      </trkpt>
      <trkpt lat="43.57088" lon="2.97242">
        <ele>167.1</ele>
        <time>2015-12-14T12:28:00.221Z</time>
      </trkpt>
      <trkpt lat="43.57085" lon="2.97248">
        <ele>166.9</ele>
        <time>2015-12-14T12:28:01.297Z</time>
      </trkpt>
      <trkpt lat="43.57082" lon="2.97253">
        <ele>166.8</ele>
        <time>2015-12-14T12:28:02.223Z</time>
      </trkpt>
      <trkpt lat="43.57079" lon="2.97258">
        <ele>166.7</ele>
        <time>2015-12-14T12:28:03.627Z</time>
      </trkpt>
      <trkpt lat="43.57076" lon="2.97262">
        <ele>166.6</ele>
        <time>2015-12-14T12:28:04.216Z</time>
      </trkpt>
      <trkpt lat="43.57073" lon="2.97268">
        <ele>166.5</ele>
        <time>2015-12-14T12:28:05.254Z</time>
      </trkpt>
      <trkpt lat="43.57069" lon="2.97273">
        <ele>166.5</ele>
        <time>2015-12-14T12:28:06.214Z</time>
      </trkpt>
      <trkpt lat="43.57066" lon="2.97278">
        <ele>166.6</ele>
        <time>2015-12-14T12:28:07.304Z</time>
      </trkpt>
      <trkpt lat="43.57062" lon="2.97283">
        <ele>166.9</ele>
        <time>2015-12-14T12:28:08.211Z</time>
      </trkpt>
      <trkpt lat="43.57059" lon="2.97287">
        <ele>166.8</ele>
        <time>2015-12-14T12:28:09.281Z</time>
      </trkpt>
      <trkpt lat="43.57055" lon="2.97292">
        <ele>167</ele>
        <time>2015-12-14T12:28:10.220Z</time>
      </trkpt>
      <trkpt lat="43.57052" lon="2.97297">
        <ele>167.2</ele>
        <time>2015-12-14T12:28:11.286Z</time>
      </trkpt>
      <trkpt lat="43.57048" lon="2.97301">
        <ele>167.4</ele>
        <time>2015-12-14T12:28:12.223Z</time>
      </trkpt>
      <trkpt lat="43.57045" lon="2.97306">
        <ele>167.5</ele>
        <time>2015-12-14T12:28:13.259Z</time>
      </trkpt>
      <trkpt lat="43.57042" lon="2.97311">
        <ele>167.7</ele>
        <time>2015-12-14T12:28:14.218Z</time>
      </trkpt>
      <trkpt lat="43.57038" lon="2.97316">
        <ele>168</ele>
        <time>2015-12-14T12:28:15.250Z</time>
      </trkpt>
      <trkpt lat="43.57034" lon="2.97321">
        <ele>168.2</ele>
        <time>2015-12-14T12:28:16.213Z</time>
      </trkpt>
      <trkpt lat="43.57031" lon="2.97326">
        <ele>168.2</ele>
        <time>2015-12-14T12:28:17.280Z</time>
      </trkpt>
      <trkpt lat="43.57028" lon="2.97331">
        <ele>168.1</ele>
        <time>2015-12-14T12:28:18.228Z</time>
      </trkpt>
      <trkpt lat="43.57024" lon="2.97336">
        <ele>168</ele>
        <time>2015-12-14T12:28:19.256Z</time>
      </trkpt>
      <trkpt lat="43.57021" lon="2.97341">
        <ele>168.1</ele>
        <time>2015-12-14T12:28:20.218Z</time>
      </trkpt>
      <trkpt lat="43.57018" lon="2.97346">
        <ele>168.1</ele>
        <time>2015-12-14T12:28:21.243Z</time>
      </trkpt>
      <trkpt lat="43.57014" lon="2.9735">
        <ele>168.2</ele>
        <time>2015-12-14T12:28:22.213Z</time>
      </trkpt>
      <trkpt lat="43.57011" lon="2.97355">
        <ele>168.3</ele>
        <time>2015-12-14T12:28:23.261Z</time>
      </trkpt>
      <trkpt lat="43.57007" lon="2.9736">
        <ele>168.4</ele>
        <time>2015-12-14T12:28:24.223Z</time>
      </trkpt>
      <trkpt lat="43.57004" lon="2.97365">
        <ele>168.5</ele>
        <time>2015-12-14T12:28:25.276Z</time>
      </trkpt>
      <trkpt lat="43.57001" lon="2.97369">
        <ele>168.3</ele>
        <time>2015-12-14T12:28:26.218Z</time>
      </trkpt>
      <trkpt lat="43.56998" lon="2.97374">
        <ele>168.3</ele>
        <time>2015-12-14T12:28:27.248Z</time>
      </trkpt>
      <trkpt lat="43.56994" lon="2.97379">
        <ele>168</ele>
        <time>2015-12-14T12:28:28.215Z</time>
      </trkpt>
      <trkpt lat="43.56991" lon="2.97384">
        <ele>167.8</ele>
        <time>2015-12-14T12:28:29.244Z</time>
      </trkpt>
      <trkpt lat="43.56988" lon="2.97389">
        <ele>167.7</ele>
        <time>2015-12-14T12:28:30.213Z</time>
      </trkpt>
      <trkpt lat="43.56984" lon="2.97394">
        <ele>167.9</ele>
        <time>2015-12-14T12:28:31.248Z</time>
      </trkpt>
      <trkpt lat="43.56981" lon="2.97399">
        <ele>167.8</ele>
        <time>2015-12-14T12:28:32.210Z</time>
      </trkpt>
      <trkpt lat="43.56978" lon="2.97404">
        <ele>167.8</ele>
        <time>2015-12-14T12:28:33.245Z</time>
      </trkpt>
      <trkpt lat="43.56975" lon="2.97409">
        <ele>167.7</ele>
        <time>2015-12-14T12:28:34.213Z</time>
      </trkpt>
      <trkpt lat="43.56972" lon="2.97414">
        <ele>167.6</ele>
        <time>2015-12-14T12:28:35.266Z</time>
      </trkpt>
      <trkpt lat="43.5697" lon="2.9742">
        <ele>167.6</ele>
        <time>2015-12-14T12:28:36.215Z</time>
      </trkpt>
      <trkpt lat="43.56965" lon="2.97429">
        <ele>167.9</ele>
        <time>2015-12-14T12:28:38.246Z</time>
      </trkpt>
      <trkpt lat="43.56963" lon="2.97434">
        <ele>167.9</ele>
        <time>2015-12-14T12:28:39.215Z</time>
      </trkpt>
      <trkpt lat="43.56959" lon="2.97442">
        <ele>168.2</ele>
        <time>2015-12-14T12:28:41.262Z</time>
      </trkpt>
      <trkpt lat="43.56958" lon="2.97447">
        <ele>168.3</ele>
        <time>2015-12-14T12:28:42.221Z</time>
      </trkpt>
      <trkpt lat="43.56956" lon="2.97456">
        <ele>168.4</ele>
        <time>2015-12-14T12:28:44.241Z</time>
      </trkpt>
      <trkpt lat="43.56955" lon="2.97461">
        <ele>168.5</ele>
        <time>2015-12-14T12:28:45.212Z</time>
      </trkpt>
      <trkpt lat="43.56953" lon="2.9747">
        <ele>168.7</ele>
        <time>2015-12-14T12:28:47.255Z</time>
      </trkpt>
      <trkpt lat="43.56952" lon="2.97474">
        <ele>168.8</ele>
        <time>2015-12-14T12:28:48.210Z</time>
      </trkpt>
      <trkpt lat="43.56951" lon="2.97483">
        <ele>169</ele>
        <time>2015-12-14T12:28:50.239Z</time>
      </trkpt>
      <trkpt lat="43.5695" lon="2.97487">
        <ele>169.1</ele>
        <time>2015-12-14T12:28:51.256Z</time>
      </trkpt>
      <trkpt lat="43.56949" lon="2.97491">
        <ele>169.1</ele>
        <time>2015-12-14T12:28:52.257Z</time>
      </trkpt>
      <trkpt lat="43.56933" lon="2.97582">
        <ele>182.4</ele>
        <time>2015-12-14T12:29:05.226Z</time>
      </trkpt>
      <trkpt lat="43.56933" lon="2.97593">
        <ele>161.2</ele>
        <time>2015-12-14T12:29:07.248Z</time>
      </trkpt>
      <trkpt lat="43.56931" lon="2.97601">
        <ele>161.4</ele>
        <time>2015-12-14T12:29:08.226Z</time>
      </trkpt>
      <trkpt lat="43.56931" lon="2.97608">
        <ele>161.6</ele>
        <time>2015-12-14T12:29:09.268Z</time>
      </trkpt>
      <trkpt lat="43.56929" lon="2.97615">
        <ele>162.6</ele>
        <time>2015-12-14T12:29:10.215Z</time>
      </trkpt>
      <trkpt lat="43.56929" lon="2.97626">
        <ele>163.7</ele>
        <time>2015-12-14T12:29:12.276Z</time>
      </trkpt>
      <trkpt lat="43.5693" lon="2.97631">
        <ele>163.4</ele>
        <time>2015-12-14T12:29:13.223Z</time>
      </trkpt>
      <trkpt lat="43.56932" lon="2.97642">
        <ele>162.1</ele>
        <time>2015-12-14T12:29:15.243Z</time>
      </trkpt>
      <trkpt lat="43.56932" lon="2.97648">
        <ele>162</ele>
        <time>2015-12-14T12:29:16.207Z</time>
      </trkpt>
      <trkpt lat="43.56934" lon="2.97659">
        <ele>161.4</ele>
        <time>2015-12-14T12:29:18.264Z</time>
      </trkpt>
      <trkpt lat="43.56934" lon="2.97665">
        <ele>161.4</ele>
        <time>2015-12-14T12:29:19.220Z</time>
      </trkpt>
      <trkpt lat="43.56937" lon="2.97675">
        <ele>160.8</ele>
        <time>2015-12-14T12:29:21.254Z</time>
      </trkpt>
      <trkpt lat="43.56939" lon="2.97679">
        <ele>160.1</ele>
        <time>2015-12-14T12:29:22.218Z</time>
      </trkpt>
      <trkpt lat="43.56941" lon="2.97688">
        <ele>160.3</ele>
        <time>2015-12-14T12:29:24.261Z</time>
      </trkpt>
      <trkpt lat="43.56942" lon="2.97694">
        <ele>160.3</ele>
        <time>2015-12-14T12:29:25.218Z</time>
      </trkpt>
      <trkpt lat="43.56942" lon="2.97705">
        <ele>160.6</ele>
        <time>2015-12-14T12:29:27.281Z</time>
      </trkpt>
      <trkpt lat="43.56943" lon="2.97711">
        <ele>160.6</ele>
        <time>2015-12-14T12:29:28.218Z</time>
      </trkpt>
      <trkpt lat="43.56944" lon="2.97722">
        <ele>160.8</ele>
        <time>2015-12-14T12:29:30.249Z</time>
      </trkpt>
      <trkpt lat="43.56944" lon="2.97727">
        <ele>160.5</ele>
        <time>2015-12-14T12:29:31.217Z</time>
      </trkpt>
      <trkpt lat="43.56946" lon="2.97737">
        <ele>160.1</ele>
        <time>2015-12-14T12:29:33.270Z</time>
      </trkpt>
      <trkpt lat="43.56946" lon="2.97741">
        <ele>160.4</ele>
        <time>2015-12-14T12:29:34.211Z</time>
      </trkpt>
      <trkpt lat="43.56948" lon="2.9775">
        <ele>160.6</ele>
        <time>2015-12-14T12:29:36.274Z</time>
      </trkpt>
      <trkpt lat="43.56948" lon="2.97756">
        <ele>160.9</ele>
        <time>2015-12-14T12:29:37.220Z</time>
      </trkpt>
      <trkpt lat="43.56948" lon="2.97767">
        <ele>161.5</ele>
        <time>2015-12-14T12:29:39.250Z</time>
      </trkpt>
      <trkpt lat="43.56948" lon="2.97773">
        <ele>162</ele>
        <time>2015-12-14T12:29:40.215Z</time>
      </trkpt>
      <trkpt lat="43.56948" lon="2.9778">
        <ele>162.3</ele>
        <time>2015-12-14T12:29:41.252Z</time>
      </trkpt>
      <trkpt lat="43.56949" lon="2.97786">
        <ele>162.5</ele>
        <time>2015-12-14T12:29:42.219Z</time>
      </trkpt>
      <trkpt lat="43.56949" lon="2.97792">
        <ele>162.6</ele>
        <time>2015-12-14T12:29:43.277Z</time>
      </trkpt>
      <trkpt lat="43.56949" lon="2.97799">
        <ele>163.4</ele>
        <time>2015-12-14T12:29:44.212Z</time>
      </trkpt>
      <trkpt lat="43.5695" lon="2.97805">
        <ele>163.8</ele>
        <time>2015-12-14T12:29:45.257Z</time>
      </trkpt>
      <trkpt lat="43.5695" lon="2.97812">
        <ele>163.8</ele>
        <time>2015-12-14T12:29:46.211Z</time>
      </trkpt>
      <trkpt lat="43.56951" lon="2.97824">
        <ele>163.6</ele>
        <time>2015-12-14T12:29:48.272Z</time>
      </trkpt>
      <trkpt lat="43.56952" lon="2.9783">
        <ele>163.7</ele>
        <time>2015-12-14T12:29:49.219Z</time>
      </trkpt>
      <trkpt lat="43.56952" lon="2.97836">
        <ele>163.3</ele>
        <time>2015-12-14T12:29:50.249Z</time>
      </trkpt>
      <trkpt lat="43.56952" lon="2.97842">
        <ele>163</ele>
        <time>2015-12-14T12:29:51.214Z</time>
      </trkpt>
      <trkpt lat="43.56953" lon="2.97849">
        <ele>162.7</ele>
        <time>2015-12-14T12:29:52.256Z</time>
      </trkpt>
      <trkpt lat="43.56953" lon="2.97855">
        <ele>162.4</ele>
        <time>2015-12-14T12:29:53.222Z</time>
      </trkpt>
      <trkpt lat="43.56955" lon="2.97866">
        <ele>161.6</ele>
        <time>2015-12-14T12:29:55.271Z</time>
      </trkpt>
      <trkpt lat="43.56957" lon="2.97871">
        <ele>161.2</ele>
        <time>2015-12-14T12:29:56.220Z</time>
      </trkpt>
      <trkpt lat="43.56958" lon="2.97882">
        <ele>160.5</ele>
        <time>2015-12-14T12:29:58.240Z</time>
      </trkpt>
      <trkpt lat="43.56959" lon="2.97887">
        <ele>160.4</ele>
        <time>2015-12-14T12:29:59.213Z</time>
      </trkpt>
      <trkpt lat="43.56961" lon="2.97897">
        <ele>159.8</ele>
        <time>2015-12-14T12:30:01.256Z</time>
      </trkpt>
      <trkpt lat="43.56962" lon="2.97903">
        <ele>159.5</ele>
        <time>2015-12-14T12:30:02.217Z</time>
      </trkpt>
      <trkpt lat="43.56961" lon="2.97915">
        <ele>159.1</ele>
        <time>2015-12-14T12:30:04.273Z</time>
      </trkpt>
      <trkpt lat="43.56961" lon="2.97921">
        <ele>158.9</ele>
        <time>2015-12-14T12:30:05.221Z</time>
      </trkpt>
      <trkpt lat="43.56961" lon="2.97932">
        <ele>158.2</ele>
        <time>2015-12-14T12:30:07.256Z</time>
      </trkpt>
      <trkpt lat="43.56961" lon="2.97937">
        <ele>158</ele>
        <time>2015-12-14T12:30:08.225Z</time>
      </trkpt>
      <trkpt lat="43.56962" lon="2.97947">
        <ele>157.5</ele>
        <time>2015-12-14T12:30:10.269Z</time>
      </trkpt>
      <trkpt lat="43.56961" lon="2.97953">
        <ele>156.8</ele>
        <time>2015-12-14T12:30:11.222Z</time>
      </trkpt>
      <trkpt lat="43.56958" lon="2.97961">
        <ele>156.5</ele>
        <time>2015-12-14T12:30:12.287Z</time>
      </trkpt>
      <trkpt lat="43.56955" lon="2.9797">
        <ele>156.3</ele>
        <time>2015-12-14T12:30:13.224Z</time>
      </trkpt>
      <trkpt lat="43.56952" lon="2.97978">
        <ele>156</ele>
        <time>2015-12-14T12:30:14.273Z</time>
      </trkpt>
      <trkpt lat="43.56947" lon="2.97987">
        <ele>155.8</ele>
        <time>2015-12-14T12:30:15.212Z</time>
      </trkpt>
      <trkpt lat="43.56944" lon="2.97995">
        <ele>155.5</ele>
        <time>2015-12-14T12:30:16.244Z</time>
      </trkpt>
      <trkpt lat="43.56941" lon="2.98003">
        <ele>155.6</ele>
        <time>2015-12-14T12:30:17.212Z</time>
      </trkpt>
      <trkpt lat="43.56937" lon="2.98011">
        <ele>155.8</ele>
        <time>2015-12-14T12:30:18.282Z</time>
      </trkpt>
      <trkpt lat="43.56934" lon="2.98019">
        <ele>156.3</ele>
        <time>2015-12-14T12:30:19.218Z</time>
      </trkpt>
      <trkpt lat="43.56931" lon="2.98025">
        <ele>156.4</ele>
        <time>2015-12-14T12:30:20.490Z</time>
      </trkpt>
      <trkpt lat="43.56929" lon="2.98031">
        <ele>156.6</ele>
        <time>2015-12-14T12:30:21.213Z</time>
      </trkpt>
      <trkpt lat="43.56927" lon="2.98037">
        <ele>156.4</ele>
        <time>2015-12-14T12:30:22.248Z</time>
      </trkpt>
      <trkpt lat="43.56924" lon="2.98044">
        <ele>156.7</ele>
        <time>2015-12-14T12:30:23.213Z</time>
      </trkpt>
      <trkpt lat="43.5692" lon="2.98055">
        <ele>156.6</ele>
        <time>2015-12-14T12:30:25.260Z</time>
      </trkpt>
      <trkpt lat="43.56918" lon="2.98059">
        <ele>156.2</ele>
        <time>2015-12-14T12:30:26.567Z</time>
      </trkpt>
      <trkpt lat="43.56914" lon="2.9807">
        <ele>156.4</ele>
        <time>2015-12-14T12:30:28.248Z</time>
      </trkpt>
      <trkpt lat="43.56912" lon="2.98076">
        <ele>156.2</ele>
        <time>2015-12-14T12:30:29.207Z</time>
      </trkpt>
      <trkpt lat="43.5691" lon="2.98081">
        <ele>156.3</ele>
        <time>2015-12-14T12:30:30.247Z</time>
      </trkpt>
      <trkpt lat="43.56908" lon="2.98087">
        <ele>156.5</ele>
        <time>2015-12-14T12:30:31.220Z</time>
      </trkpt>
      <trkpt lat="43.56906" lon="2.98092">
        <ele>156.7</ele>
        <time>2015-12-14T12:30:32.274Z</time>
      </trkpt>
      <trkpt lat="43.56903" lon="2.98098">
        <ele>157.2</ele>
        <time>2015-12-14T12:30:33.215Z</time>
      </trkpt>
      <trkpt lat="43.56899" lon="2.98108">
        <ele>157.2</ele>
        <time>2015-12-14T12:30:35.280Z</time>
      </trkpt>
      <trkpt lat="43.56897" lon="2.98113">
        <ele>157.4</ele>
        <time>2015-12-14T12:30:36.214Z</time>
      </trkpt>
      <trkpt lat="43.56894" lon="2.98122">
        <ele>157.7</ele>
        <time>2015-12-14T12:30:38.245Z</time>
      </trkpt>
      <trkpt lat="43.56893" lon="2.98127">
        <ele>157.6</ele>
        <time>2015-12-14T12:30:39.211Z</time>
      </trkpt>
      <trkpt lat="43.5689" lon="2.98137">
        <ele>158.3</ele>
        <time>2015-12-14T12:30:41.263Z</time>
      </trkpt>
      <trkpt lat="43.56888" lon="2.98142">
        <ele>158.2</ele>
        <time>2015-12-14T12:30:42.216Z</time>
      </trkpt>
      <trkpt lat="43.56883" lon="2.98152">
        <ele>158.2</ele>
        <time>2015-12-14T12:30:44.266Z</time>
      </trkpt>
      <trkpt lat="43.56881" lon="2.98158">
        <ele>158.3</ele>
        <time>2015-12-14T12:30:45.216Z</time>
      </trkpt>
      <trkpt lat="43.56878" lon="2.98164">
        <ele>158.4</ele>
        <time>2015-12-14T12:30:46.260Z</time>
      </trkpt>
      <trkpt lat="43.56876" lon="2.9817">
        <ele>158.5</ele>
        <time>2015-12-14T12:30:47.211Z</time>
      </trkpt>
      <trkpt lat="43.56874" lon="2.98176">
        <ele>158.5</ele>
        <time>2015-12-14T12:30:48.243Z</time>
      </trkpt>
      <trkpt lat="43.56873" lon="2.98182">
        <ele>158.6</ele>
        <time>2015-12-14T12:30:49.215Z</time>
      </trkpt>
      <trkpt lat="43.56871" lon="2.98193">
        <ele>158.7</ele>
        <time>2015-12-14T12:30:51.282Z</time>
      </trkpt>
      <trkpt lat="43.5687" lon="2.98198">
        <ele>159.1</ele>
        <time>2015-12-14T12:30:52.210Z</time>
      </trkpt>
      <trkpt lat="43.56868" lon="2.98207">
        <ele>159.8</ele>
        <time>2015-12-14T12:30:54.258Z</time>
      </trkpt>
      <trkpt lat="43.56868" lon="2.9821">
        <ele>160</ele>
        <time>2015-12-14T12:30:55.216Z</time>
      </trkpt>
      <trkpt lat="43.56864" lon="2.98221">
        <ele>160.4</ele>
        <time>2015-12-14T12:30:57.243Z</time>
      </trkpt>
      <trkpt lat="43.56863" lon="2.98226">
        <ele>160.4</ele>
        <time>2015-12-14T12:30:58.214Z</time>
      </trkpt>
      <trkpt lat="43.5686" lon="2.98237">
        <ele>160.6</ele>
        <time>2015-12-14T12:31:00.254Z</time>
      </trkpt>
      <trkpt lat="43.5686" lon="2.98242">
        <ele>160.6</ele>
        <time>2015-12-14T12:31:01.217Z</time>
      </trkpt>
      <trkpt lat="43.56859" lon="2.98252">
        <ele>160.5</ele>
        <time>2015-12-14T12:31:03.254Z</time>
      </trkpt>
      <trkpt lat="43.56857" lon="2.98258">
        <ele>160.8</ele>
        <time>2015-12-14T12:31:04.218Z</time>
      </trkpt>
      <trkpt lat="43.56855" lon="2.98268">
        <ele>160.9</ele>
        <time>2015-12-14T12:31:06.649Z</time>
      </trkpt>
      <trkpt lat="43.56855" lon="2.98272">
        <ele>160.9</ele>
        <time>2015-12-14T12:31:07.216Z</time>
      </trkpt>
      <trkpt lat="43.56855" lon="2.98281">
        <ele>160.9</ele>
        <time>2015-12-14T12:31:09.242Z</time>
      </trkpt>
      <trkpt lat="43.56854" lon="2.98286">
        <ele>161.1</ele>
        <time>2015-12-14T12:31:10.214Z</time>
      </trkpt>
      <trkpt lat="43.56853" lon="2.98296">
        <ele>161.5</ele>
        <time>2015-12-14T12:31:12.261Z</time>
      </trkpt>
      <trkpt lat="43.56853" lon="2.983">
        <ele>161.5</ele>
        <time>2015-12-14T12:31:13.223Z</time>
      </trkpt>
      <trkpt lat="43.56852" lon="2.9831">
        <ele>161.8</ele>
        <time>2015-12-14T12:31:15.254Z</time>
      </trkpt>
      <trkpt lat="43.56851" lon="2.98316">
        <ele>162.1</ele>
        <time>2015-12-14T12:31:16.212Z</time>
      </trkpt>
      <trkpt lat="43.56851" lon="2.98325">
        <ele>162.3</ele>
        <time>2015-12-14T12:31:18.248Z</time>
      </trkpt>
      <trkpt lat="43.5685" lon="2.9833">
        <ele>162.5</ele>
        <time>2015-12-14T12:31:19.213Z</time>
      </trkpt>
      <trkpt lat="43.56851" lon="2.9834">
        <ele>162.6</ele>
        <time>2015-12-14T12:31:21.260Z</time>
      </trkpt>
      <trkpt lat="43.56851" lon="2.98345">
        <ele>162.5</ele>
        <time>2015-12-14T12:31:22.216Z</time>
      </trkpt>
      <trkpt lat="43.56852" lon="2.98355">
        <ele>162.3</ele>
        <time>2015-12-14T12:31:24.243Z</time>
      </trkpt>
      <trkpt lat="43.56852" lon="2.98361">
        <ele>162.2</ele>
        <time>2015-12-14T12:31:25.213Z</time>
      </trkpt>
      <trkpt lat="43.56853" lon="2.98371">
        <ele>162</ele>
        <time>2015-12-14T12:31:27.270Z</time>
      </trkpt>
      <trkpt lat="43.56853" lon="2.98377">
        <ele>161.9</ele>
        <time>2015-12-14T12:31:28.217Z</time>
      </trkpt>
      <trkpt lat="43.56855" lon="2.98389">
        <ele>161.8</ele>
        <time>2015-12-14T12:31:30.237Z</time>
      </trkpt>
      <trkpt lat="43.56856" lon="2.98394">
        <ele>161.7</ele>
        <time>2015-12-14T12:31:31.214Z</time>
      </trkpt>
      <trkpt lat="43.56858" lon="2.98404">
        <ele>161.6</ele>
        <time>2015-12-14T12:31:33.261Z</time>
      </trkpt>
      <trkpt lat="43.56859" lon="2.98409">
        <ele>161.5</ele>
        <time>2015-12-14T12:31:34.211Z</time>
      </trkpt>
      <trkpt lat="43.56861" lon="2.9842">
        <ele>161.4</ele>
        <time>2015-12-14T12:31:36.257Z</time>
      </trkpt>
      <trkpt lat="43.56862" lon="2.98426">
        <ele>161.3</ele>
        <time>2015-12-14T12:31:37.214Z</time>
      </trkpt>
      <trkpt lat="43.56863" lon="2.98432">
        <ele>161.2</ele>
        <time>2015-12-14T12:31:38.259Z</time>
      </trkpt>
      <trkpt lat="43.56864" lon="2.98438">
        <ele>161.2</ele>
        <time>2015-12-14T12:31:39.218Z</time>
      </trkpt>
      <trkpt lat="43.56866" lon="2.98449">
        <ele>161</ele>
        <time>2015-12-14T12:31:41.259Z</time>
      </trkpt>
      <trkpt lat="43.56868" lon="2.98453">
        <ele>160.9</ele>
        <time>2015-12-14T12:31:42.218Z</time>
      </trkpt>
      <trkpt lat="43.56869" lon="2.98458">
        <ele>160.8</ele>
        <time>2015-12-14T12:31:43.261Z</time>
      </trkpt>
      <trkpt lat="43.56954" lon="2.98707">
        <ele>173.1</ele>
        <time>2015-12-14T12:33:12.213Z</time>
      </trkpt>
      <trkpt lat="43.56953" lon="2.98714">
        <ele>166.9</ele>
        <time>2015-12-14T12:33:13.249Z</time>
      </trkpt>
      <trkpt lat="43.56942" lon="2.98728">
        <ele>173</ele>
        <time>2015-12-14T12:33:14.211Z</time>
      </trkpt>
      <trkpt lat="43.56945" lon="2.98739">
        <ele>170.5</ele>
        <time>2015-12-14T12:33:16.249Z</time>
      </trkpt>
      <trkpt lat="43.56948" lon="2.98744">
        <ele>170</ele>
        <time>2015-12-14T12:33:17.223Z</time>
      </trkpt>
      <trkpt lat="43.5695" lon="2.98749">
        <ele>170.4</ele>
        <time>2015-12-14T12:33:18.247Z</time>
      </trkpt>
      <trkpt lat="43.56954" lon="2.98754">
        <ele>170.5</ele>
        <time>2015-12-14T12:33:19.214Z</time>
      </trkpt>
      <trkpt lat="43.56957" lon="2.98759">
        <ele>170.9</ele>
        <time>2015-12-14T12:33:20.244Z</time>
      </trkpt>
      <trkpt lat="43.5696" lon="2.98765">
        <ele>171.9</ele>
        <time>2015-12-14T12:33:21.221Z</time>
      </trkpt>
      <trkpt lat="43.56963" lon="2.9877">
        <ele>172.4</ele>
        <time>2015-12-14T12:33:22.257Z</time>
      </trkpt>
      <trkpt lat="43.56966" lon="2.98776">
        <ele>172.7</ele>
        <time>2015-12-14T12:33:23.212Z</time>
      </trkpt>
      <trkpt lat="43.56969" lon="2.98781">
        <ele>173.1</ele>
        <time>2015-12-14T12:33:24.245Z</time>
      </trkpt>
      <trkpt lat="43.56973" lon="2.98786">
        <ele>173.5</ele>
        <time>2015-12-14T12:33:25.214Z</time>
      </trkpt>
      <trkpt lat="43.56977" lon="2.98791">
        <ele>173.8</ele>
        <time>2015-12-14T12:33:26.294Z</time>
      </trkpt>
      <trkpt lat="43.56981" lon="2.98795">
        <ele>173.7</ele>
        <time>2015-12-14T12:33:27.215Z</time>
      </trkpt>
      <trkpt lat="43.56985" lon="2.98799">
        <ele>173.7</ele>
        <time>2015-12-14T12:33:28.256Z</time>
      </trkpt>
      <trkpt lat="43.56989" lon="2.98804">
        <ele>173.5</ele>
        <time>2015-12-14T12:33:29.212Z</time>
      </trkpt>
      <trkpt lat="43.56992" lon="2.98808">
        <ele>173.9</ele>
        <time>2015-12-14T12:33:30.245Z</time>
      </trkpt>
      <trkpt lat="43.56996" lon="2.98812">
        <ele>174.1</ele>
        <time>2015-12-14T12:33:31.217Z</time>
      </trkpt>
      <trkpt lat="43.56999" lon="2.98817">
        <ele>174.4</ele>
        <time>2015-12-14T12:33:32.262Z</time>
      </trkpt>
      <trkpt lat="43.57002" lon="2.98823">
        <ele>174.9</ele>
        <time>2015-12-14T12:33:33.218Z</time>
      </trkpt>
      <trkpt lat="43.57005" lon="2.98828">
        <ele>175.5</ele>
        <time>2015-12-14T12:33:34.269Z</time>
      </trkpt>
      <trkpt lat="43.57009" lon="2.98833">
        <ele>176</ele>
        <time>2015-12-14T12:33:35.213Z</time>
      </trkpt>
      <trkpt lat="43.57012" lon="2.98838">
        <ele>176.5</ele>
        <time>2015-12-14T12:33:36.250Z</time>
      </trkpt>
      <trkpt lat="43.57015" lon="2.98843">
        <ele>177.1</ele>
        <time>2015-12-14T12:33:37.216Z</time>
      </trkpt>
      <trkpt lat="43.57019" lon="2.98848">
        <ele>177.3</ele>
        <time>2015-12-14T12:33:38.283Z</time>
      </trkpt>
      <trkpt lat="43.57022" lon="2.98853">
        <ele>177.3</ele>
        <time>2015-12-14T12:33:39.217Z</time>
      </trkpt>
      <trkpt lat="43.57027" lon="2.98858">
        <ele>177.7</ele>
        <time>2015-12-14T12:33:40.274Z</time>
      </trkpt>
      <trkpt lat="43.57032" lon="2.98862">
        <ele>177.9</ele>
        <time>2015-12-14T12:33:41.221Z</time>
      </trkpt>
      <trkpt lat="43.57036" lon="2.98867">
        <ele>178.1</ele>
        <time>2015-12-14T12:33:42.283Z</time>
      </trkpt>
      <trkpt lat="43.57042" lon="2.98872">
        <ele>178.3</ele>
        <time>2015-12-14T12:33:43.219Z</time>
      </trkpt>
      <trkpt lat="43.57047" lon="2.98877">
        <ele>178.4</ele>
        <time>2015-12-14T12:33:44.293Z</time>
      </trkpt>
      <trkpt lat="43.57052" lon="2.98882">
        <ele>178.7</ele>
        <time>2015-12-14T12:33:45.228Z</time>
      </trkpt>
      <trkpt lat="43.57056" lon="2.98887">
        <ele>179.2</ele>
        <time>2015-12-14T12:33:46.243Z</time>
      </trkpt>
      <trkpt lat="43.57059" lon="2.98893">
        <ele>179.5</ele>
        <time>2015-12-14T12:33:47.216Z</time>
      </trkpt>
      <trkpt lat="43.57062" lon="2.98898">
        <ele>179.6</ele>
        <time>2015-12-14T12:33:48.245Z</time>
      </trkpt>
      <trkpt lat="43.57065" lon="2.98904">
        <ele>179.6</ele>
        <time>2015-12-14T12:33:49.218Z</time>
      </trkpt>
      <trkpt lat="43.57068" lon="2.9891">
        <ele>179.6</ele>
        <time>2015-12-14T12:33:50.287Z</time>
      </trkpt>
      <trkpt lat="43.57071" lon="2.98915">
        <ele>179.9</ele>
        <time>2015-12-14T12:33:51.206Z</time>
      </trkpt>
      <trkpt lat="43.57073" lon="2.98921">
        <ele>180</ele>
        <time>2015-12-14T12:33:52.249Z</time>
      </trkpt>
      <trkpt lat="43.57076" lon="2.98926">
        <ele>180.3</ele>
        <time>2015-12-14T12:33:53.213Z</time>
      </trkpt>
      <trkpt lat="43.57079" lon="2.98932">
        <ele>180.3</ele>
        <time>2015-12-14T12:33:54.244Z</time>
      </trkpt>
      <trkpt lat="43.57082" lon="2.98937">
        <ele>180.5</ele>
        <time>2015-12-14T12:33:55.210Z</time>
      </trkpt>
      <trkpt lat="43.57086" lon="2.98943">
        <ele>180.8</ele>
        <time>2015-12-14T12:33:56.249Z</time>
      </trkpt>
      <trkpt lat="43.57088" lon="2.98949">
        <ele>181</ele>
        <time>2015-12-14T12:33:57.214Z</time>
      </trkpt>
      <trkpt lat="43.5709" lon="2.98955">
        <ele>181.2</ele>
        <time>2015-12-14T12:33:58.250Z</time>
      </trkpt>
      <trkpt lat="43.57093" lon="2.98961">
        <ele>181.1</ele>
        <time>2015-12-14T12:33:59.221Z</time>
      </trkpt>
      <trkpt lat="43.57096" lon="2.98967">
        <ele>181.3</ele>
        <time>2015-12-14T12:34:00.266Z</time>
      </trkpt>
      <trkpt lat="43.57098" lon="2.98973">
        <ele>181.7</ele>
        <time>2015-12-14T12:34:01.214Z</time>
      </trkpt>
      <trkpt lat="43.571" lon="2.98979">
        <ele>181.8</ele>
        <time>2015-12-14T12:34:02.246Z</time>
      </trkpt>
      <trkpt lat="43.57104" lon="2.98985">
        <ele>182</ele>
        <time>2015-12-14T12:34:03.211Z</time>
      </trkpt>
      <trkpt lat="43.57106" lon="2.98992">
        <ele>182.1</ele>
        <time>2015-12-14T12:34:04.258Z</time>
      </trkpt>
      <trkpt lat="43.57108" lon="2.98998">
        <ele>182.2</ele>
        <time>2015-12-14T12:34:05.220Z</time>
      </trkpt>
      <trkpt lat="43.57111" lon="2.99003">
        <ele>182.3</ele>
        <time>2015-12-14T12:34:06.244Z</time>
      </trkpt>
      <trkpt lat="43.57114" lon="2.99009">
        <ele>182.6</ele>
        <time>2015-12-14T12:34:07.214Z</time>
      </trkpt>
      <trkpt lat="43.57116" lon="2.99015">
        <ele>182.8</ele>
        <time>2015-12-14T12:34:08.246Z</time>
      </trkpt>
      <trkpt lat="43.57119" lon="2.99021">
        <ele>182.9</ele>
        <time>2015-12-14T12:34:09.212Z</time>
      </trkpt>
      <trkpt lat="43.57121" lon="2.99027">
        <ele>183</ele>
        <time>2015-12-14T12:34:10.276Z</time>
      </trkpt>
      <trkpt lat="43.57123" lon="2.99032">
        <ele>183.2</ele>
        <time>2015-12-14T12:34:11.223Z</time>
      </trkpt>
      <trkpt lat="43.57126" lon="2.99038">
        <ele>183.5</ele>
        <time>2015-12-14T12:34:12.265Z</time>
      </trkpt>
      <trkpt lat="43.57128" lon="2.99044">
        <ele>183.8</ele>
        <time>2015-12-14T12:34:13.223Z</time>
      </trkpt>
      <trkpt lat="43.57132" lon="2.9905">
        <ele>183.5</ele>
        <time>2015-12-14T12:34:14.241Z</time>
      </trkpt>
      <trkpt lat="43.57134" lon="2.99056">
        <ele>183.4</ele>
        <time>2015-12-14T12:34:15.214Z</time>
      </trkpt>
      <trkpt lat="43.57137" lon="2.99062">
        <ele>183.4</ele>
        <time>2015-12-14T12:34:16.247Z</time>
      </trkpt>
      <trkpt lat="43.57139" lon="2.99069">
        <ele>183.4</ele>
        <time>2015-12-14T12:34:17.217Z</time>
      </trkpt>
      <trkpt lat="43.57141" lon="2.99074">
        <ele>183.5</ele>
        <time>2015-12-14T12:34:18.270Z</time>
      </trkpt>
      <trkpt lat="43.57143" lon="2.9908">
        <ele>183.6</ele>
        <time>2015-12-14T12:34:19.220Z</time>
      </trkpt>
      <trkpt lat="43.57145" lon="2.99087">
        <ele>183.7</ele>
        <time>2015-12-14T12:34:20.257Z</time>
      </trkpt>
      <trkpt lat="43.57147" lon="2.99093">
        <ele>183.6</ele>
        <time>2015-12-14T12:34:21.268Z</time>
      </trkpt>
      <trkpt lat="43.57149" lon="2.99098">
        <ele>183.7</ele>
        <time>2015-12-14T12:34:22.238Z</time>
      </trkpt>
      <trkpt lat="43.57151" lon="2.99105">
        <ele>183.8</ele>
        <time>2015-12-14T12:34:23.212Z</time>
      </trkpt>
      <trkpt lat="43.57153" lon="2.99111">
        <ele>183.9</ele>
        <time>2015-12-14T12:34:24.251Z</time>
      </trkpt>
      <trkpt lat="43.57155" lon="2.99117">
        <ele>184.1</ele>
        <time>2015-12-14T12:34:25.214Z</time>
      </trkpt>
      <trkpt lat="43.57156" lon="2.99123">
        <ele>184.1</ele>
        <time>2015-12-14T12:34:26.276Z</time>
      </trkpt>
      <trkpt lat="43.57158" lon="2.99129">
        <ele>184.3</ele>
        <time>2015-12-14T12:34:27.221Z</time>
      </trkpt>
      <trkpt lat="43.5716" lon="2.99135">
        <ele>184.3</ele>
        <time>2015-12-14T12:34:28.268Z</time>
      </trkpt>
      <trkpt lat="43.57163" lon="2.99141">
        <ele>184.3</ele>
        <time>2015-12-14T12:34:29.216Z</time>
      </trkpt>
      <trkpt lat="43.57165" lon="2.99147">
        <ele>184.3</ele>
        <time>2015-12-14T12:34:30.263Z</time>
      </trkpt>
      <trkpt lat="43.57166" lon="2.99153">
        <ele>184.2</ele>
        <time>2015-12-14T12:34:31.237Z</time>
      </trkpt>
      <trkpt lat="43.57168" lon="2.9916">
        <ele>184</ele>
        <time>2015-12-14T12:34:32.258Z</time>
      </trkpt>
      <trkpt lat="43.57169" lon="2.99166">
        <ele>183.9</ele>
        <time>2015-12-14T12:34:33.213Z</time>
      </trkpt>
      <trkpt lat="43.5717" lon="2.99173">
        <ele>183.9</ele>
        <time>2015-12-14T12:34:34.237Z</time>
      </trkpt>
      <trkpt lat="43.57172" lon="2.99179">
        <ele>183.5</ele>
        <time>2015-12-14T12:34:35.212Z</time>
      </trkpt>
      <trkpt lat="43.57174" lon="2.99186">
        <ele>183.2</ele>
        <time>2015-12-14T12:34:36.282Z</time>
      </trkpt>
      <trkpt lat="43.57176" lon="2.99191">
        <ele>182.9</ele>
        <time>2015-12-14T12:34:37.219Z</time>
      </trkpt>
      <trkpt lat="43.57178" lon="2.99197">
        <ele>182.9</ele>
        <time>2015-12-14T12:34:38.256Z</time>
      </trkpt>
      <trkpt lat="43.57181" lon="2.99202">
        <ele>182.7</ele>
        <time>2015-12-14T12:34:39.213Z</time>
      </trkpt>
      <trkpt lat="43.57183" lon="2.99212">
        <ele>182.3</ele>
        <time>2015-12-14T12:34:41.253Z</time>
      </trkpt>
      <trkpt lat="43.57185" lon="2.99213">
        <ele>181.8</ele>
        <time>2015-12-14T12:34:42.212Z</time>
      </trkpt>
      <trkpt lat="43.57185" lon="2.99213">
        <ele>181.8</ele>
        <time>2015-12-14T12:34:42.259Z</time>
      </trkpt>
      <trkpt lat="43.57186" lon="2.99215">
        <ele>181.8</ele>
        <time>2015-12-14T12:34:43.262Z</time>
      </trkpt>
      <trkpt lat="43.57186" lon="2.99216">
        <ele>181.5</ele>
        <time>2015-12-14T12:34:44.215Z</time>
      </trkpt>
      <trkpt lat="43.5719" lon="2.99225">
        <ele>180.5</ele>
        <time>2015-12-14T12:34:47.239Z</time>
      </trkpt>
      <trkpt lat="43.57192" lon="2.99229">
        <ele>180</ele>
        <time>2015-12-14T12:34:48.211Z</time>
      </trkpt>
      <trkpt lat="43.57195" lon="2.99237">
        <ele>180</ele>
        <time>2015-12-14T12:34:50.238Z</time>
      </trkpt>
      <trkpt lat="43.57197" lon="2.99242">
        <ele>180.1</ele>
        <time>2015-12-14T12:34:51.211Z</time>
      </trkpt>
      <trkpt lat="43.57201" lon="2.99253">
        <ele>180.3</ele>
        <time>2015-12-14T12:34:53.242Z</time>
      </trkpt>
      <trkpt lat="43.57203" lon="2.99258">
        <ele>180.5</ele>
        <time>2015-12-14T12:34:54.214Z</time>
      </trkpt>
      <trkpt lat="43.57204" lon="2.99265">
        <ele>180.5</ele>
        <time>2015-12-14T12:34:55.247Z</time>
      </trkpt>
      <trkpt lat="43.57207" lon="2.99271">
        <ele>180.6</ele>
        <time>2015-12-14T12:34:56.213Z</time>
      </trkpt>
      <trkpt lat="43.5721" lon="2.99282">
        <ele>180.8</ele>
        <time>2015-12-14T12:34:58.245Z</time>
      </trkpt>
      <trkpt lat="43.57213" lon="2.99287">
        <ele>180.8</ele>
        <time>2015-12-14T12:34:59.212Z</time>
      </trkpt>
      <trkpt lat="43.57216" lon="2.99292">
        <ele>180.8</ele>
        <time>2015-12-14T12:35:00.242Z</time>
      </trkpt>
      <trkpt lat="43.57218" lon="2.99298">
        <ele>180.8</ele>
        <time>2015-12-14T12:35:01.214Z</time>
      </trkpt>
      <trkpt lat="43.57219" lon="2.99305">
        <ele>180.9</ele>
        <time>2015-12-14T12:35:02.241Z</time>
      </trkpt>
      <trkpt lat="43.57221" lon="2.9931">
        <ele>180.9</ele>
        <time>2015-12-14T12:35:03.213Z</time>
      </trkpt>
      <trkpt lat="43.57225" lon="2.9932">
        <ele>181</ele>
        <time>2015-12-14T12:35:05.238Z</time>
      </trkpt>
      <trkpt lat="43.57227" lon="2.99325">
        <ele>181.1</ele>
        <time>2015-12-14T12:35:06.213Z</time>
      </trkpt>
      <trkpt lat="43.57229" lon="2.9933">
        <ele>180.9</ele>
        <time>2015-12-14T12:35:07.251Z</time>
      </trkpt>
      <trkpt lat="43.57232" lon="2.99335">
        <ele>180.8</ele>
        <time>2015-12-14T12:35:08.216Z</time>
      </trkpt>
      <trkpt lat="43.57235" lon="2.99341">
        <ele>180.8</ele>
        <time>2015-12-14T12:35:09.242Z</time>
      </trkpt>
      <trkpt lat="43.57238" lon="2.99346">
        <ele>180.7</ele>
        <time>2015-12-14T12:35:10.214Z</time>
      </trkpt>
      <trkpt lat="43.57243" lon="2.99355">
        <ele>180.8</ele>
        <time>2015-12-14T12:35:12.248Z</time>
      </trkpt>
      <trkpt lat="43.57246" lon="2.9936">
        <ele>180.7</ele>
        <time>2015-12-14T12:35:13.214Z</time>
      </trkpt>
      <trkpt lat="43.57248" lon="2.99366">
        <ele>180.6</ele>
        <time>2015-12-14T12:35:14.251Z</time>
      </trkpt>
      <trkpt lat="43.5725" lon="2.99372">
        <ele>180.7</ele>
        <time>2015-12-14T12:35:15.217Z</time>
      </trkpt>
      <trkpt lat="43.57252" lon="2.99378">
        <ele>180.6</ele>
        <time>2015-12-14T12:35:16.260Z</time>
      </trkpt>
      <trkpt lat="43.57254" lon="2.99384">
        <ele>180.4</ele>
        <time>2015-12-14T12:35:17.217Z</time>
      </trkpt>
      <trkpt lat="43.57257" lon="2.99395">
        <ele>180.5</ele>
        <time>2015-12-14T12:35:19.248Z</time>
      </trkpt>
      <trkpt lat="43.5726" lon="2.99401">
        <ele>180.4</ele>
        <time>2015-12-14T12:35:20.214Z</time>
      </trkpt>
      <trkpt lat="43.57263" lon="2.99412">
        <ele>180.4</ele>
        <time>2015-12-14T12:35:22.272Z</time>
      </trkpt>
      <trkpt lat="43.57264" lon="2.99418">
        <ele>180.5</ele>
        <time>2015-12-14T12:35:23.213Z</time>
      </trkpt>
      <trkpt lat="43.57268" lon="2.99429">
        <ele>180.7</ele>
        <time>2015-12-14T12:35:25.256Z</time>
      </trkpt>
      <trkpt lat="43.57271" lon="2.99434">
        <ele>180.8</ele>
        <time>2015-12-14T12:35:26.220Z</time>
      </trkpt>
      <trkpt lat="43.57274" lon="2.99439">
        <ele>180.8</ele>
        <time>2015-12-14T12:35:27.252Z</time>
      </trkpt>
      <trkpt lat="43.57278" lon="2.99444">
        <ele>180.8</ele>
        <time>2015-12-14T12:35:28.216Z</time>
      </trkpt>
      <trkpt lat="43.57281" lon="2.99449">
        <ele>181</ele>
        <time>2015-12-14T12:35:29.266Z</time>
      </trkpt>
      <trkpt lat="43.57285" lon="2.99454">
        <ele>181.2</ele>
        <time>2015-12-14T12:35:30.225Z</time>
      </trkpt>
      <trkpt lat="43.57288" lon="2.9946">
        <ele>181.5</ele>
        <time>2015-12-14T12:35:31.646Z</time>
      </trkpt>
      <trkpt lat="43.57292" lon="2.99464">
        <ele>181.7</ele>
        <time>2015-12-14T12:35:32.209Z</time>
      </trkpt>
      <trkpt lat="43.57295" lon="2.99469">
        <ele>181.9</ele>
        <time>2015-12-14T12:35:33.239Z</time>
      </trkpt>
      <trkpt lat="43.57298" lon="2.99474">
        <ele>181.9</ele>
        <time>2015-12-14T12:35:34.213Z</time>
      </trkpt>
      <trkpt lat="43.573" lon="2.9948">
        <ele>182.2</ele>
        <time>2015-12-14T12:35:35.244Z</time>
      </trkpt>
      <trkpt lat="43.57303" lon="2.99484">
        <ele>182.3</ele>
        <time>2015-12-14T12:35:36.222Z</time>
      </trkpt>
      <trkpt lat="43.57305" lon="2.99489">
        <ele>182.4</ele>
        <time>2015-12-14T12:35:37.267Z</time>
      </trkpt>
      <trkpt lat="43.57308" lon="2.99495">
        <ele>182.4</ele>
        <time>2015-12-14T12:35:38.216Z</time>
      </trkpt>
      <trkpt lat="43.57312" lon="2.99505">
        <ele>182.8</ele>
        <time>2015-12-14T12:35:40.271Z</time>
      </trkpt>
      <trkpt lat="43.57314" lon="2.9951">
        <ele>183.1</ele>
        <time>2015-12-14T12:35:41.213Z</time>
      </trkpt>
      <trkpt lat="43.57317" lon="2.9952">
        <ele>183.7</ele>
        <time>2015-12-14T12:35:43.254Z</time>
      </trkpt>
      <trkpt lat="43.57319" lon="2.99526">
        <ele>184.1</ele>
        <time>2015-12-14T12:35:44.230Z</time>
      </trkpt>
      <trkpt lat="43.57324" lon="2.99535">
        <ele>184.7</ele>
        <time>2015-12-14T12:35:46.248Z</time>
      </trkpt>
      <trkpt lat="43.57327" lon="2.99539">
        <ele>185.1</ele>
        <time>2015-12-14T12:35:47.208Z</time>
      </trkpt>
      <trkpt lat="43.57332" lon="2.99549">
        <ele>186</ele>
        <time>2015-12-14T12:35:49.276Z</time>
      </trkpt>
      <trkpt lat="43.57336" lon="2.99554">
        <ele>186.1</ele>
        <time>2015-12-14T12:35:50.220Z</time>
      </trkpt>
      <trkpt lat="43.57338" lon="2.99559">
        <ele>186.3</ele>
        <time>2015-12-14T12:35:51.255Z</time>
      </trkpt>
      <trkpt lat="43.57341" lon="2.99564">
        <ele>186.4</ele>
        <time>2015-12-14T12:35:52.220Z</time>
      </trkpt>
      <trkpt lat="43.57343" lon="2.99569">
        <ele>186.7</ele>
        <time>2015-12-14T12:35:53.285Z</time>
      </trkpt>
      <trkpt lat="43.57346" lon="2.99575">
        <ele>187</ele>
        <time>2015-12-14T12:35:54.214Z</time>
      </trkpt>
      <trkpt lat="43.57349" lon="2.9958">
        <ele>187.2</ele>
        <time>2015-12-14T12:35:55.248Z</time>
      </trkpt>
      <trkpt lat="43.57352" lon="2.99585">
        <ele>187.3</ele>
        <time>2015-12-14T12:35:56.217Z</time>
      </trkpt>
      <trkpt lat="43.57356" lon="2.99589">
        <ele>187.5</ele>
        <time>2015-12-14T12:35:57.244Z</time>
      </trkpt>
      <trkpt lat="43.57357" lon="2.99595">
        <ele>188</ele>
        <time>2015-12-14T12:35:58.222Z</time>
      </trkpt>
      <trkpt lat="43.57359" lon="2.99601">
        <ele>188.3</ele>
        <time>2015-12-14T12:35:59.245Z</time>
      </trkpt>
      <trkpt lat="43.57362" lon="2.99606">
        <ele>188.7</ele>
        <time>2015-12-14T12:36:00.221Z</time>
      </trkpt>
      <trkpt lat="43.57365" lon="2.99611">
        <ele>189</ele>
        <time>2015-12-14T12:36:01.237Z</time>
      </trkpt>
      <trkpt lat="43.57368" lon="2.99616">
        <ele>189.4</ele>
        <time>2015-12-14T12:36:02.215Z</time>
      </trkpt>
      <trkpt lat="43.57372" lon="2.99622">
        <ele>189.7</ele>
        <time>2015-12-14T12:36:03.248Z</time>
      </trkpt>
      <trkpt lat="43.57377" lon="2.99629">
        <ele>189.8</ele>
        <time>2015-12-14T12:36:04.211Z</time>
      </trkpt>
      <trkpt lat="43.5738" lon="2.99635">
        <ele>189.9</ele>
        <time>2015-12-14T12:36:05.244Z</time>
      </trkpt>
      <trkpt lat="43.57383" lon="2.9964">
        <ele>189.5</ele>
        <time>2015-12-14T12:36:06.212Z</time>
      </trkpt>
      <trkpt lat="43.57388" lon="2.9965">
        <ele>189.8</ele>
        <time>2015-12-14T12:36:08.257Z</time>
      </trkpt>
      <trkpt lat="43.57391" lon="2.99655">
        <ele>189.8</ele>
        <time>2015-12-14T12:36:09.222Z</time>
      </trkpt>
      <trkpt lat="43.57396" lon="2.99666">
        <ele>189.7</ele>
        <time>2015-12-14T12:36:11.271Z</time>
      </trkpt>
      <trkpt lat="43.57398" lon="2.9967">
        <ele>189.8</ele>
        <time>2015-12-14T12:36:12.220Z</time>
      </trkpt>
      <trkpt lat="43.57401" lon="2.99675">
        <ele>189.9</ele>
        <time>2015-12-14T12:36:13.264Z</time>
      </trkpt>
      <trkpt lat="43.57403" lon="2.9968">
        <ele>190.1</ele>
        <time>2015-12-14T12:36:14.214Z</time>
      </trkpt>
      <trkpt lat="43.57406" lon="2.99686">
        <ele>190</ele>
        <time>2015-12-14T12:36:15.273Z</time>
      </trkpt>
      <trkpt lat="43.57408" lon="2.99691">
        <ele>189.6</ele>
        <time>2015-12-14T12:36:16.209Z</time>
      </trkpt>
      <trkpt lat="43.57411" lon="2.99697">
        <ele>189.5</ele>
        <time>2015-12-14T12:36:17.263Z</time>
      </trkpt>
      <trkpt lat="43.57413" lon="2.99702">
        <ele>189.5</ele>
        <time>2015-12-14T12:36:18.213Z</time>
      </trkpt>
      <trkpt lat="43.57417" lon="2.99712">
        <ele>189.4</ele>
        <time>2015-12-14T12:36:20.244Z</time>
      </trkpt>
      <trkpt lat="43.5742" lon="2.99717">
        <ele>189.4</ele>
        <time>2015-12-14T12:36:21.214Z</time>
      </trkpt>
      <trkpt lat="43.57424" lon="2.99725">
        <ele>189.8</ele>
        <time>2015-12-14T12:36:23.250Z</time>
      </trkpt>
      <trkpt lat="43.57426" lon="2.99729">
        <ele>189.9</ele>
        <time>2015-12-14T12:36:24.226Z</time>
      </trkpt>
      <trkpt lat="43.57431" lon="2.99736">
        <ele>189.4</ele>
        <time>2015-12-14T12:36:27.249Z</time>
      </trkpt>
      <trkpt lat="43.57433" lon="2.99738">
        <ele>189.3</ele>
        <time>2015-12-14T12:36:28.216Z</time>
      </trkpt>
      <trkpt lat="43.57436" lon="2.99747">
        <ele>186.3</ele>
        <time>2015-12-14T12:36:32.256Z</time>
      </trkpt>
      <trkpt lat="43.57436" lon="2.9975">
        <ele>185.8</ele>
        <time>2015-12-14T12:36:33.216Z</time>
      </trkpt>
      <trkpt lat="43.5744" lon="2.9976">
        <ele>183.2</ele>
        <time>2015-12-14T12:36:38.263Z</time>
      </trkpt>
      <trkpt lat="43.57443" lon="2.99763">
        <ele>183</ele>
        <time>2015-12-14T12:36:39.214Z</time>
      </trkpt>
      <trkpt lat="43.57446" lon="2.9977">
        <ele>182.2</ele>
        <time>2015-12-14T12:36:41.244Z</time>
      </trkpt>
      <trkpt lat="43.57449" lon="2.99774">
        <ele>182</ele>
        <time>2015-12-14T12:36:42.210Z</time>
      </trkpt>
      <trkpt lat="43.57452" lon="2.99782">
        <ele>181.6</ele>
        <time>2015-12-14T12:36:44.241Z</time>
      </trkpt>
      <trkpt lat="43.57454" lon="2.99786">
        <ele>181.3</ele>
        <time>2015-12-14T12:36:45.211Z</time>
      </trkpt>
      <trkpt lat="43.57457" lon="2.99796">
        <ele>181.1</ele>
        <time>2015-12-14T12:36:47.257Z</time>
      </trkpt>
      <trkpt lat="43.57459" lon="2.998">
        <ele>181</ele>
        <time>2015-12-14T12:36:48.219Z</time>
      </trkpt>
      <trkpt lat="43.57462" lon="2.99809">
        <ele>181.1</ele>
        <time>2015-12-14T12:36:50.264Z</time>
      </trkpt>
      <trkpt lat="43.57464" lon="2.99814">
        <ele>181.1</ele>
        <time>2015-12-14T12:36:51.212Z</time>
      </trkpt>
      <trkpt lat="43.57467" lon="2.99823">
        <ele>181.3</ele>
        <time>2015-12-14T12:36:53.265Z</time>
      </trkpt>
      <trkpt lat="43.57468" lon="2.99828">
        <ele>181.1</ele>
        <time>2015-12-14T12:36:54.220Z</time>
      </trkpt>
      <trkpt lat="43.57472" lon="2.99837">
        <ele>180.7</ele>
        <time>2015-12-14T12:36:56.274Z</time>
      </trkpt>
      <trkpt lat="43.57473" lon="2.99841">
        <ele>181</ele>
        <time>2015-12-14T12:36:57.217Z</time>
      </trkpt>
      <trkpt lat="43.57477" lon="2.9985">
        <ele>180.8</ele>
        <time>2015-12-14T12:36:59.260Z</time>
      </trkpt>
      <trkpt lat="43.57479" lon="2.99855">
        <ele>181</ele>
        <time>2015-12-14T12:37:00.212Z</time>
      </trkpt>
      <trkpt lat="43.57483" lon="2.99864">
        <ele>180.8</ele>
        <time>2015-12-14T12:37:02.274Z</time>
      </trkpt>
      <trkpt lat="43.57485" lon="2.99869">
        <ele>180.7</ele>
        <time>2015-12-14T12:37:03.211Z</time>
      </trkpt>
      <trkpt lat="43.57488" lon="2.99879">
        <ele>180.2</ele>
        <time>2015-12-14T12:37:05.241Z</time>
      </trkpt>
      <trkpt lat="43.5749" lon="2.99886">
        <ele>180.2</ele>
        <time>2015-12-14T12:37:06.218Z</time>
      </trkpt>
      <trkpt lat="43.57493" lon="2.99897">
        <ele>180.1</ele>
        <time>2015-12-14T12:37:08.244Z</time>
      </trkpt>
      <trkpt lat="43.57495" lon="2.99902">
        <ele>180.2</ele>
        <time>2015-12-14T12:37:09.215Z</time>
      </trkpt>
      <trkpt lat="43.57497" lon="2.99908">
        <ele>180.4</ele>
        <time>2015-12-14T12:37:10.254Z</time>
      </trkpt>
      <trkpt lat="43.57498" lon="2.99914">
        <ele>180.4</ele>
        <time>2015-12-14T12:37:11.211Z</time>
      </trkpt>
      <trkpt lat="43.57502" lon="2.99925">
        <ele>180.7</ele>
        <time>2015-12-14T12:37:13.274Z</time>
      </trkpt>
      <trkpt lat="43.57503" lon="2.9993">
        <ele>180.9</ele>
        <time>2015-12-14T12:37:14.217Z</time>
      </trkpt>
      <trkpt lat="43.57506" lon="2.99941">
        <ele>181</ele>
        <time>2015-12-14T12:37:16.241Z</time>
      </trkpt>
      <trkpt lat="43.57509" lon="2.99946">
        <ele>181</ele>
        <time>2015-12-14T12:37:17.213Z</time>
      </trkpt>
      <trkpt lat="43.57512" lon="2.99956">
        <ele>180.9</ele>
        <time>2015-12-14T12:37:19.490Z</time>
      </trkpt>
      <trkpt lat="43.57514" lon="2.99961">
        <ele>180.8</ele>
        <time>2015-12-14T12:37:20.212Z</time>
      </trkpt>
      <trkpt lat="43.57518" lon="2.99971">
        <ele>180.5</ele>
        <time>2015-12-14T12:37:22.238Z</time>
      </trkpt>
      <trkpt lat="43.57519" lon="2.99977">
        <ele>180.5</ele>
        <time>2015-12-14T12:37:23.212Z</time>
      </trkpt>
      <trkpt lat="43.57523" lon="2.99985">
        <ele>180.5</ele>
        <time>2015-12-14T12:37:25.276Z</time>
      </trkpt>
      <trkpt lat="43.57525" lon="2.9999">
        <ele>180.2</ele>
        <time>2015-12-14T12:37:26.219Z</time>
      </trkpt>
      <trkpt lat="43.57528" lon="2.99999">
        <ele>179.8</ele>
        <time>2015-12-14T12:37:28.246Z</time>
      </trkpt>
      <trkpt lat="43.57529" lon="3.00004">
        <ele>179.7</ele>
        <time>2015-12-14T12:37:29.210Z</time>
      </trkpt>
      <trkpt lat="43.57529" lon="3.00013">
        <ele>179.8</ele>
        <time>2015-12-14T12:37:31.256Z</time>
      </trkpt>
      <trkpt lat="43.5753" lon="3.00016">
        <ele>179.8</ele>
        <time>2015-12-14T12:37:32.218Z</time>
      </trkpt>
      <trkpt lat="43.5753" lon="3.00026">
        <ele>178.9</ele>
        <time>2015-12-14T12:37:35.267Z</time>
      </trkpt>
      <trkpt lat="43.57532" lon="3.0003">
        <ele>178.5</ele>
        <time>2015-12-14T12:37:36.217Z</time>
      </trkpt>
      <trkpt lat="43.57536" lon="3.0004">
        <ele>178.2</ele>
        <time>2015-12-14T12:37:40.239Z</time>
      </trkpt>
      <trkpt lat="43.57537" lon="3.00042">
        <ele>178.2</ele>
        <time>2015-12-14T12:37:41.211Z</time>
      </trkpt>
      <trkpt lat="43.57539" lon="3.00052">
        <ele>176.2</ele>
        <time>2015-12-14T12:37:46.269Z</time>
      </trkpt>
      <trkpt lat="43.57539" lon="3.00056">
        <ele>176.3</ele>
        <time>2015-12-14T12:37:47.500Z</time>
      </trkpt>
      <trkpt lat="43.5754" lon="3.00064">
        <ele>176.1</ele>
        <time>2015-12-14T12:37:49.258Z</time>
      </trkpt>
      <trkpt lat="43.57541" lon="3.00069">
        <ele>175.8</ele>
        <time>2015-12-14T12:37:50.218Z</time>
      </trkpt>
      <trkpt lat="43.57543" lon="3.0008">
        <ele>175.8</ele>
        <time>2015-12-14T12:37:52.260Z</time>
      </trkpt>
      <trkpt lat="43.57544" lon="3.00085">
        <ele>175.4</ele>
        <time>2015-12-14T12:37:53.221Z</time>
      </trkpt>
      <trkpt lat="43.57546" lon="3.00096">
        <ele>175</ele>
        <time>2015-12-14T12:37:55.612Z</time>
      </trkpt>
      <trkpt lat="43.57547" lon="3.00102">
        <ele>174.7</ele>
        <time>2015-12-14T12:37:56.215Z</time>
      </trkpt>
      <trkpt lat="43.57549" lon="3.00111">
        <ele>174.3</ele>
        <time>2015-12-14T12:37:58.266Z</time>
      </trkpt>
      <trkpt lat="43.5755" lon="3.00116">
        <ele>174.2</ele>
        <time>2015-12-14T12:37:59.219Z</time>
      </trkpt>
      <trkpt lat="43.57552" lon="3.00126">
        <ele>174</ele>
        <time>2015-12-14T12:38:01.280Z</time>
      </trkpt>
      <trkpt lat="43.57553" lon="3.00131">
        <ele>173.8</ele>
        <time>2015-12-14T12:38:02.211Z</time>
      </trkpt>
      <trkpt lat="43.57554" lon="3.0014">
        <ele>173.5</ele>
        <time>2015-12-14T12:38:04.264Z</time>
      </trkpt>
      <trkpt lat="43.57555" lon="3.00146">
        <ele>173.2</ele>
        <time>2015-12-14T12:38:05.213Z</time>
      </trkpt>
      <trkpt lat="43.57558" lon="3.00156">
        <ele>172.6</ele>
        <time>2015-12-14T12:38:07.258Z</time>
      </trkpt>
      <trkpt lat="43.57559" lon="3.00161">
        <ele>172.1</ele>
        <time>2015-12-14T12:38:08.214Z</time>
      </trkpt>
      <trkpt lat="43.5756" lon="3.00171">
        <ele>171.4</ele>
        <time>2015-12-14T12:38:10.263Z</time>
      </trkpt>
      <trkpt lat="43.5756" lon="3.00176">
        <ele>171.1</ele>
        <time>2015-12-14T12:38:11.210Z</time>
      </trkpt>
      <trkpt lat="43.57561" lon="3.00186">
        <ele>170</ele>
        <time>2015-12-14T12:38:13.281Z</time>
      </trkpt>
      <trkpt lat="43.57562" lon="3.00191">
        <ele>169.5</ele>
        <time>2015-12-14T12:38:14.219Z</time>
      </trkpt>
      <trkpt lat="43.57562" lon="3.00201">
        <ele>168.5</ele>
        <time>2015-12-14T12:38:16.243Z</time>
      </trkpt>
      <trkpt lat="43.57562" lon="3.00207">
        <ele>168</ele>
        <time>2015-12-14T12:38:17.213Z</time>
      </trkpt>
      <trkpt lat="43.57564" lon="3.00217">
        <ele>167.1</ele>
        <time>2015-12-14T12:38:19.269Z</time>
      </trkpt>
      <trkpt lat="43.57565" lon="3.00222">
        <ele>166.1</ele>
        <time>2015-12-14T12:38:20.222Z</time>
      </trkpt>
      <trkpt lat="43.57566" lon="3.00234">
        <ele>164.8</ele>
        <time>2015-12-14T12:38:22.240Z</time>
      </trkpt>
      <trkpt lat="43.57566" lon="3.0024">
        <ele>164.4</ele>
        <time>2015-12-14T12:38:23.212Z</time>
      </trkpt>
      <trkpt lat="43.57566" lon="3.00252">
        <ele>164.1</ele>
        <time>2015-12-14T12:38:25.242Z</time>
      </trkpt>
      <trkpt lat="43.57566" lon="3.00258">
        <ele>164</ele>
        <time>2015-12-14T12:38:26.207Z</time>
      </trkpt>
      <trkpt lat="43.57566" lon="3.00269">
        <ele>163.5</ele>
        <time>2015-12-14T12:38:28.266Z</time>
      </trkpt>
      <trkpt lat="43.57566" lon="3.00275">
        <ele>163.1</ele>
        <time>2015-12-14T12:38:29.225Z</time>
      </trkpt>
      <trkpt lat="43.57568" lon="3.00285">
        <ele>162.2</ele>
        <time>2015-12-14T12:38:31.247Z</time>
      </trkpt>
      <trkpt lat="43.57568" lon="3.00291">
        <ele>162.1</ele>
        <time>2015-12-14T12:38:32.216Z</time>
      </trkpt>
      <trkpt lat="43.57569" lon="3.00303">
        <ele>161.7</ele>
        <time>2015-12-14T12:38:34.657Z</time>
      </trkpt>
      <trkpt lat="43.57568" lon="3.00308">
        <ele>161.5</ele>
        <time>2015-12-14T12:38:35.212Z</time>
      </trkpt>
      <trkpt lat="43.57569" lon="3.00319">
        <ele>161.5</ele>
        <time>2015-12-14T12:38:37.254Z</time>
      </trkpt>
      <trkpt lat="43.57569" lon="3.00325">
        <ele>161.5</ele>
        <time>2015-12-14T12:38:38.212Z</time>
      </trkpt>
      <trkpt lat="43.57569" lon="3.00336">
        <ele>161.6</ele>
        <time>2015-12-14T12:38:40.263Z</time>
      </trkpt>
      <trkpt lat="43.57569" lon="3.00342">
        <ele>161.6</ele>
        <time>2015-12-14T12:38:41.218Z</time>
      </trkpt>
      <trkpt lat="43.5757" lon="3.00352">
        <ele>161.8</ele>
        <time>2015-12-14T12:38:43.266Z</time>
      </trkpt>
      <trkpt lat="43.57569" lon="3.00358">
        <ele>161.7</ele>
        <time>2015-12-14T12:38:44.215Z</time>
      </trkpt>
      <trkpt lat="43.57568" lon="3.00369">
        <ele>161.8</ele>
        <time>2015-12-14T12:38:46.243Z</time>
      </trkpt>
      <trkpt lat="43.57568" lon="3.00375">
        <ele>161.9</ele>
        <time>2015-12-14T12:38:47.216Z</time>
      </trkpt>
      <trkpt lat="43.57566" lon="3.00381">
        <ele>162.4</ele>
        <time>2015-12-14T12:38:48.244Z</time>
      </trkpt>
      <trkpt lat="43.57566" lon="3.00387">
        <ele>162.7</ele>
        <time>2015-12-14T12:38:49.215Z</time>
      </trkpt>
      <trkpt lat="43.57565" lon="3.00399">
        <ele>163.2</ele>
        <time>2015-12-14T12:38:51.394Z</time>
      </trkpt>
      <trkpt lat="43.57565" lon="3.00405">
        <ele>163.6</ele>
        <time>2015-12-14T12:38:52.559Z</time>
      </trkpt>
      <trkpt lat="43.57564" lon="3.00417">
        <ele>163.9</ele>
        <time>2015-12-14T12:38:54.244Z</time>
      </trkpt>
      <trkpt lat="43.57563" lon="3.00423">
        <ele>164.4</ele>
        <time>2015-12-14T12:38:55.226Z</time>
      </trkpt>
      <trkpt lat="43.57563" lon="3.00435">
        <ele>164.9</ele>
        <time>2015-12-14T12:38:57.242Z</time>
      </trkpt>
      <trkpt lat="43.57563" lon="3.0044">
        <ele>165.1</ele>
        <time>2015-12-14T12:38:58.211Z</time>
      </trkpt>
      <trkpt lat="43.57562" lon="3.00447">
        <ele>165.6</ele>
        <time>2015-12-14T12:38:59.248Z</time>
      </trkpt>
      <trkpt lat="43.57562" lon="3.00453">
        <ele>165.6</ele>
        <time>2015-12-14T12:39:00.220Z</time>
      </trkpt>
      <trkpt lat="43.57562" lon="3.00465">
        <ele>165.8</ele>
        <time>2015-12-14T12:39:02.246Z</time>
      </trkpt>
      <trkpt lat="43.57562" lon="3.00471">
        <ele>165.8</ele>
        <time>2015-12-14T12:39:03.208Z</time>
      </trkpt>
      <trkpt lat="43.57561" lon="3.00483">
        <ele>165.4</ele>
        <time>2015-12-14T12:39:05.260Z</time>
      </trkpt>
      <trkpt lat="43.5756" lon="3.00489">
        <ele>165.4</ele>
        <time>2015-12-14T12:39:06.217Z</time>
      </trkpt>
      <trkpt lat="43.5756" lon="3.00501">
        <ele>165.8</ele>
        <time>2015-12-14T12:39:08.263Z</time>
      </trkpt>
      <trkpt lat="43.57559" lon="3.00508">
        <ele>165.6</ele>
        <time>2015-12-14T12:39:09.219Z</time>
      </trkpt>
      <trkpt lat="43.57558" lon="3.00514">
        <ele>165.3</ele>
        <time>2015-12-14T12:39:10.252Z</time>
      </trkpt>
      <trkpt lat="43.57557" lon="3.0052">
        <ele>165.3</ele>
        <time>2015-12-14T12:39:11.222Z</time>
      </trkpt>
      <trkpt lat="43.57557" lon="3.00532">
        <ele>165.4</ele>
        <time>2015-12-14T12:39:13.255Z</time>
      </trkpt>
      <trkpt lat="43.57557" lon="3.00538">
        <ele>165.7</ele>
        <time>2015-12-14T12:39:14.213Z</time>
      </trkpt>
      <trkpt lat="43.57556" lon="3.0055">
        <ele>165.9</ele>
        <time>2015-12-14T12:39:16.264Z</time>
      </trkpt>
      <trkpt lat="43.57556" lon="3.00556">
        <ele>166.2</ele>
        <time>2015-12-14T12:39:17.214Z</time>
      </trkpt>
      <trkpt lat="43.57556" lon="3.00562">
        <ele>165.9</ele>
        <time>2015-12-14T12:39:18.267Z</time>
      </trkpt>
      <trkpt lat="43.57555" lon="3.00568">
        <ele>165.6</ele>
        <time>2015-12-14T12:39:19.219Z</time>
      </trkpt>
      <trkpt lat="43.57555" lon="3.0058">
        <ele>165.9</ele>
        <time>2015-12-14T12:39:21.659Z</time>
      </trkpt>
      <trkpt lat="43.57554" lon="3.00586">
        <ele>166.2</ele>
        <time>2015-12-14T12:39:22.211Z</time>
      </trkpt>
      <trkpt lat="43.57554" lon="3.00598">
        <ele>166.2</ele>
        <time>2015-12-14T12:39:24.248Z</time>
      </trkpt>
      <trkpt lat="43.57553" lon="3.00604">
        <ele>166.6</ele>
        <time>2015-12-14T12:39:25.214Z</time>
      </trkpt>
      <trkpt lat="43.57552" lon="3.00616">
        <ele>166.5</ele>
        <time>2015-12-14T12:39:27.239Z</time>
      </trkpt>
      <trkpt lat="43.57552" lon="3.00622">
        <ele>166.6</ele>
        <time>2015-12-14T12:39:28.214Z</time>
      </trkpt>
      <trkpt lat="43.57551" lon="3.00628">
        <ele>166.5</ele>
        <time>2015-12-14T12:39:29.255Z</time>
      </trkpt>
      <trkpt lat="43.57551" lon="3.00635">
        <ele>166.5</ele>
        <time>2015-12-14T12:39:30.222Z</time>
      </trkpt>
      <trkpt lat="43.57551" lon="3.00641">
        <ele>166.8</ele>
        <time>2015-12-14T12:39:31.388Z</time>
      </trkpt>
      <trkpt lat="43.5755" lon="3.00647">
        <ele>166.6</ele>
        <time>2015-12-14T12:39:32.229Z</time>
      </trkpt>
      <trkpt lat="43.57549" lon="3.00659">
        <ele>166.8</ele>
        <time>2015-12-14T12:39:34.264Z</time>
      </trkpt>
      <trkpt lat="43.57549" lon="3.00665">
        <ele>166.8</ele>
        <time>2015-12-14T12:39:35.216Z</time>
      </trkpt>
      <trkpt lat="43.57549" lon="3.00677">
        <ele>167</ele>
        <time>2015-12-14T12:39:37.270Z</time>
      </trkpt>
      <trkpt lat="43.57548" lon="3.00683">
        <ele>166.7</ele>
        <time>2015-12-14T12:39:38.210Z</time>
      </trkpt>
      <trkpt lat="43.57549" lon="3.00695">
        <ele>166.4</ele>
        <time>2015-12-14T12:39:40.272Z</time>
      </trkpt>
      <trkpt lat="43.57549" lon="3.00701">
        <ele>166.4</ele>
        <time>2015-12-14T12:39:41.216Z</time>
      </trkpt>
      <trkpt lat="43.57548" lon="3.00713">
        <ele>166.7</ele>
        <time>2015-12-14T12:39:43.250Z</time>
      </trkpt>
      <trkpt lat="43.57548" lon="3.00718">
        <ele>166.7</ele>
        <time>2015-12-14T12:39:44.212Z</time>
      </trkpt>
      <trkpt lat="43.57547" lon="3.0073">
        <ele>166.6</ele>
        <time>2015-12-14T12:39:46.265Z</time>
      </trkpt>
      <trkpt lat="43.57547" lon="3.00736">
        <ele>166.3</ele>
        <time>2015-12-14T12:39:47.217Z</time>
      </trkpt>
      <trkpt lat="43.57546" lon="3.00748">
        <ele>166.2</ele>
        <time>2015-12-14T12:39:49.286Z</time>
      </trkpt>
      <trkpt lat="43.57545" lon="3.00753">
        <ele>166.2</ele>
        <time>2015-12-14T12:39:50.235Z</time>
      </trkpt>
      <trkpt lat="43.57544" lon="3.00765">
        <ele>166.2</ele>
        <time>2015-12-14T12:39:52.239Z</time>
      </trkpt>
      <trkpt lat="43.57544" lon="3.0077">
        <ele>166.2</ele>
        <time>2015-12-14T12:39:53.213Z</time>
      </trkpt>
      <trkpt lat="43.57543" lon="3.00781">
        <ele>165.7</ele>
        <time>2015-12-14T12:39:55.614Z</time>
      </trkpt>
      <trkpt lat="43.57543" lon="3.00785">
        <ele>165.8</ele>
        <time>2015-12-14T12:39:56.214Z</time>
      </trkpt>
      <trkpt lat="43.57543" lon="3.00796">
        <ele>165.5</ele>
        <time>2015-12-14T12:39:58.250Z</time>
      </trkpt>
      <trkpt lat="43.57543" lon="3.00801">
        <ele>165.4</ele>
        <time>2015-12-14T12:39:59.220Z</time>
      </trkpt>
      <trkpt lat="43.57543" lon="3.00811">
        <ele>165.1</ele>
        <time>2015-12-14T12:40:01.282Z</time>
      </trkpt>
      <trkpt lat="43.57542" lon="3.00816">
        <ele>165.2</ele>
        <time>2015-12-14T12:40:02.222Z</time>
      </trkpt>
      <trkpt lat="43.57542" lon="3.00826">
        <ele>165.2</ele>
        <time>2015-12-14T12:40:04.248Z</time>
      </trkpt>
      <trkpt lat="43.57542" lon="3.00831">
        <ele>165.3</ele>
        <time>2015-12-14T12:40:05.212Z</time>
      </trkpt>
      <trkpt lat="43.57539" lon="3.0084">
        <ele>165.7</ele>
        <time>2015-12-14T12:40:08.247Z</time>
      </trkpt>
      <trkpt lat="43.57539" lon="3.00843">
        <ele>165.5</ele>
        <time>2015-12-14T12:40:09.212Z</time>
      </trkpt>
      <trkpt lat="43.57542" lon="3.00852">
        <ele>165.7</ele>
        <time>2015-12-14T12:40:12.264Z</time>
      </trkpt>
      <trkpt lat="43.57542" lon="3.00855">
        <ele>165.6</ele>
        <time>2015-12-14T12:40:13.218Z</time>
      </trkpt>
      <trkpt lat="43.57542" lon="3.00867">
        <ele>166.2</ele>
        <time>2015-12-14T12:40:18.266Z</time>
      </trkpt>
      <trkpt lat="43.57541" lon="3.00869">
        <ele>166.3</ele>
        <time>2015-12-14T12:40:19.214Z</time>
      </trkpt>
      <trkpt lat="43.5754" lon="3.0088">
        <ele>167.2</ele>
        <time>2015-12-14T12:40:23.262Z</time>
      </trkpt>
      <trkpt lat="43.57539" lon="3.00884">
        <ele>167.3</ele>
        <time>2015-12-14T12:40:24.222Z</time>
      </trkpt>
      <trkpt lat="43.57539" lon="3.00894">
        <ele>167.1</ele>
        <time>2015-12-14T12:40:27.616Z</time>
      </trkpt>
      <trkpt lat="43.57539" lon="3.00896">
        <ele>167</ele>
        <time>2015-12-14T12:40:28.220Z</time>
      </trkpt>
      <trkpt lat="43.57537" lon="3.00908">
        <ele>166.7</ele>
        <time>2015-12-14T12:40:32.258Z</time>
      </trkpt>
      <trkpt lat="43.57537" lon="3.00911">
        <ele>166.6</ele>
        <time>2015-12-14T12:40:33.218Z</time>
      </trkpt>
      <trkpt lat="43.57537" lon="3.00923">
        <ele>165.9</ele>
        <time>2015-12-14T12:40:40.260Z</time>
      </trkpt>
      <trkpt lat="43.57537" lon="3.00924">
        <ele>165.7</ele>
        <time>2015-12-14T12:40:41.212Z</time>
      </trkpt>
      <trkpt lat="43.57538" lon="3.00935">
        <ele>164.5</ele>
        <time>2015-12-14T12:41:32.255Z</time>
      </trkpt>
      <trkpt lat="43.57538" lon="3.00938">
        <ele>164.5</ele>
        <time>2015-12-14T12:41:33.212Z</time>
      </trkpt>
      <trkpt lat="43.57539" lon="3.00948">
        <ele>164.2</ele>
        <time>2015-12-14T12:41:39.275Z</time>
      </trkpt>
      <trkpt lat="43.57539" lon="3.00951">
        <ele>164.2</ele>
        <time>2015-12-14T12:41:40.216Z</time>
      </trkpt>
      <trkpt lat="43.57537" lon="3.00962">
        <ele>164.3</ele>
        <time>2015-12-14T12:41:43.273Z</time>
      </trkpt>
      <trkpt lat="43.57536" lon="3.00966">
        <ele>164.5</ele>
        <time>2015-12-14T12:41:44.221Z</time>
      </trkpt>
      <trkpt lat="43.57537" lon="3.00975">
        <ele>164.9</ele>
        <time>2015-12-14T12:41:46.275Z</time>
      </trkpt>
      <trkpt lat="43.57536" lon="3.00979">
        <ele>165</ele>
        <time>2015-12-14T12:41:47.214Z</time>
      </trkpt>
      <trkpt lat="43.57536" lon="3.00989">
        <ele>165.2</ele>
        <time>2015-12-14T12:41:49.242Z</time>
      </trkpt>
      <trkpt lat="43.57536" lon="3.00993">
        <ele>165.4</ele>
        <time>2015-12-14T12:41:50.213Z</time>
      </trkpt>
      <trkpt lat="43.57535" lon="3.01004">
        <ele>165.7</ele>
        <time>2015-12-14T12:41:52.266Z</time>
      </trkpt>
      <trkpt lat="43.57534" lon="3.01008">
        <ele>165.8</ele>
        <time>2015-12-14T12:41:53.213Z</time>
      </trkpt>
      <trkpt lat="43.57533" lon="3.01018">
        <ele>166.8</ele>
        <time>2015-12-14T12:41:55.251Z</time>
      </trkpt>
      <trkpt lat="43.57533" lon="3.01023">
        <ele>167.1</ele>
        <time>2015-12-14T12:41:56.223Z</time>
      </trkpt>
      <trkpt lat="43.57532" lon="3.01033">
        <ele>167.8</ele>
        <time>2015-12-14T12:41:58.249Z</time>
      </trkpt>
      <trkpt lat="43.57532" lon="3.01038">
        <ele>168.2</ele>
        <time>2015-12-14T12:41:59.213Z</time>
      </trkpt>
      <trkpt lat="43.5753" lon="3.01047">
        <ele>168.9</ele>
        <time>2015-12-14T12:42:01.269Z</time>
      </trkpt>
      <trkpt lat="43.5753" lon="3.01053">
        <ele>169.2</ele>
        <time>2015-12-14T12:42:02.215Z</time>
      </trkpt>
      <trkpt lat="43.57531" lon="3.01062">
        <ele>169.9</ele>
        <time>2015-12-14T12:42:04.257Z</time>
      </trkpt>
      <trkpt lat="43.5753" lon="3.01067">
        <ele>170.1</ele>
        <time>2015-12-14T12:42:05.212Z</time>
      </trkpt>
      <trkpt lat="43.57527" lon="3.01078">
        <ele>170.7</ele>
        <time>2015-12-14T12:42:07.663Z</time>
      </trkpt>
      <trkpt lat="43.57525" lon="3.01082">
        <ele>170.9</ele>
        <time>2015-12-14T12:42:08.215Z</time>
      </trkpt>
      <trkpt lat="43.57522" lon="3.01092">
        <ele>171.3</ele>
        <time>2015-12-14T12:42:10.263Z</time>
      </trkpt>
      <trkpt lat="43.57521" lon="3.01097">
        <ele>171.5</ele>
        <time>2015-12-14T12:42:11.214Z</time>
      </trkpt>
      <trkpt lat="43.57519" lon="3.01107">
        <ele>171.9</ele>
        <time>2015-12-14T12:42:13.294Z</time>
      </trkpt>
      <trkpt lat="43.57518" lon="3.01111">
        <ele>172.1</ele>
        <time>2015-12-14T12:42:14.217Z</time>
      </trkpt>
      <trkpt lat="43.57516" lon="3.01121">
        <ele>172.3</ele>
        <time>2015-12-14T12:42:16.267Z</time>
      </trkpt>
      <trkpt lat="43.57516" lon="3.01126">
        <ele>172.4</ele>
        <time>2015-12-14T12:42:17.206Z</time>
      </trkpt>
      <trkpt lat="43.57515" lon="3.01136">
        <ele>172.8</ele>
        <time>2015-12-14T12:42:19.256Z</time>
      </trkpt>
      <trkpt lat="43.57515" lon="3.0114">
        <ele>172.9</ele>
        <time>2015-12-14T12:42:20.224Z</time>
      </trkpt>
      <trkpt lat="43.57513" lon="3.0115">
        <ele>173.4</ele>
        <time>2015-12-14T12:42:22.251Z</time>
      </trkpt>
      <trkpt lat="43.57511" lon="3.01155">
        <ele>173.6</ele>
        <time>2015-12-14T12:42:23.210Z</time>
      </trkpt>
      <trkpt lat="43.57509" lon="3.01165">
        <ele>173.7</ele>
        <time>2015-12-14T12:42:25.674Z</time>
      </trkpt>
      <trkpt lat="43.57508" lon="3.0117">
        <ele>173.7</ele>
        <time>2015-12-14T12:42:26.211Z</time>
      </trkpt>
      <trkpt lat="43.57505" lon="3.01179">
        <ele>174.1</ele>
        <time>2015-12-14T12:42:28.246Z</time>
      </trkpt>
      <trkpt lat="43.57504" lon="3.01184">
        <ele>174.3</ele>
        <time>2015-12-14T12:42:29.213Z</time>
      </trkpt>
      <trkpt lat="43.57501" lon="3.01195">
        <ele>174.8</ele>
        <time>2015-12-14T12:42:31.290Z</time>
      </trkpt>
      <trkpt lat="43.575" lon="3.012">
        <ele>175</ele>
        <time>2015-12-14T12:42:32.223Z</time>
      </trkpt>
      <trkpt lat="43.57496" lon="3.0121">
        <ele>175.6</ele>
        <time>2015-12-14T12:42:34.261Z</time>
      </trkpt>
      <trkpt lat="43.57497" lon="3.01216">
        <ele>175.6</ele>
        <time>2015-12-14T12:42:35.211Z</time>
      </trkpt>
      <trkpt lat="43.57495" lon="3.01227">
        <ele>175.8</ele>
        <time>2015-12-14T12:42:37.295Z</time>
      </trkpt>
      <trkpt lat="43.57494" lon="3.01232">
        <ele>176.1</ele>
        <time>2015-12-14T12:42:38.216Z</time>
      </trkpt>
      <trkpt lat="43.57493" lon="3.01242">
        <ele>176.6</ele>
        <time>2015-12-14T12:42:40.271Z</time>
      </trkpt>
      <trkpt lat="43.57492" lon="3.01247">
        <ele>177</ele>
        <time>2015-12-14T12:42:41.217Z</time>
      </trkpt>
      <trkpt lat="43.57488" lon="3.01258">
        <ele>177.5</ele>
        <time>2015-12-14T12:42:43.313Z</time>
      </trkpt>
      <trkpt lat="43.57487" lon="3.01263">
        <ele>177.7</ele>
        <time>2015-12-14T12:42:44.212Z</time>
      </trkpt>
      <trkpt lat="43.57483" lon="3.01273">
        <ele>177.8</ele>
        <time>2015-12-14T12:42:46.253Z</time>
      </trkpt>
      <trkpt lat="43.5748" lon="3.01278">
        <ele>177.9</ele>
        <time>2015-12-14T12:42:47.215Z</time>
      </trkpt>
      <trkpt lat="43.57476" lon="3.01287">
        <ele>178.3</ele>
        <time>2015-12-14T12:42:49.301Z</time>
      </trkpt>
      <trkpt lat="43.57475" lon="3.01292">
        <ele>178.6</ele>
        <time>2015-12-14T12:42:50.209Z</time>
      </trkpt>
      <trkpt lat="43.57471" lon="3.013">
        <ele>178.9</ele>
        <time>2015-12-14T12:42:52.246Z</time>
      </trkpt>
      <trkpt lat="43.57469" lon="3.01305">
        <ele>179.1</ele>
        <time>2015-12-14T12:42:53.207Z</time>
      </trkpt>
      <trkpt lat="43.57464" lon="3.01315">
        <ele>179.7</ele>
        <time>2015-12-14T12:42:55.287Z</time>
      </trkpt>
      <trkpt lat="43.57462" lon="3.0132">
        <ele>179.9</ele>
        <time>2015-12-14T12:42:56.215Z</time>
      </trkpt>
      <trkpt lat="43.57458" lon="3.0133">
        <ele>180.4</ele>
        <time>2015-12-14T12:42:58.277Z</time>
      </trkpt>
      <trkpt lat="43.57456" lon="3.01335">
        <ele>180.6</ele>
        <time>2015-12-14T12:42:59.217Z</time>
      </trkpt>
      <trkpt lat="43.57452" lon="3.01345">
        <ele>180.8</ele>
        <time>2015-12-14T12:43:01.608Z</time>
      </trkpt>
      <trkpt lat="43.5745" lon="3.0135">
        <ele>180.8</ele>
        <time>2015-12-14T12:43:02.213Z</time>
      </trkpt>
      <trkpt lat="43.57447" lon="3.0136">
        <ele>180.6</ele>
        <time>2015-12-14T12:43:04.283Z</time>
      </trkpt>
      <trkpt lat="43.57445" lon="3.01364">
        <ele>180.7</ele>
        <time>2015-12-14T12:43:05.219Z</time>
      </trkpt>
      <trkpt lat="43.57441" lon="3.01373">
        <ele>180.5</ele>
        <time>2015-12-14T12:43:07.280Z</time>
      </trkpt>
      <trkpt lat="43.57438" lon="3.01378">
        <ele>180.7</ele>
        <time>2015-12-14T12:43:08.215Z</time>
      </trkpt>
      <trkpt lat="43.57435" lon="3.01387">
        <ele>180.8</ele>
        <time>2015-12-14T12:43:10.274Z</time>
      </trkpt>
      <trkpt lat="43.57433" lon="3.01392">
        <ele>180.9</ele>
        <time>2015-12-14T12:43:11.215Z</time>
      </trkpt>
      <trkpt lat="43.57429" lon="3.01401">
        <ele>181.1</ele>
        <time>2015-12-14T12:43:13.264Z</time>
      </trkpt>
      <trkpt lat="43.57427" lon="3.01407">
        <ele>181.2</ele>
        <time>2015-12-14T12:43:14.212Z</time>
      </trkpt>
      <trkpt lat="43.57423" lon="3.01416">
        <ele>182.1</ele>
        <time>2015-12-14T12:43:16.267Z</time>
      </trkpt>
      <trkpt lat="43.57422" lon="3.01421">
        <ele>182.5</ele>
        <time>2015-12-14T12:43:17.212Z</time>
      </trkpt>
      <trkpt lat="43.57418" lon="3.0143">
        <ele>183.3</ele>
        <time>2015-12-14T12:43:19.260Z</time>
      </trkpt>
      <trkpt lat="43.57416" lon="3.01435">
        <ele>183.6</ele>
        <time>2015-12-14T12:43:20.212Z</time>
      </trkpt>
      <trkpt lat="43.57412" lon="3.01445">
        <ele>183.3</ele>
        <time>2015-12-14T12:43:22.248Z</time>
      </trkpt>
      <trkpt lat="43.5741" lon="3.01449">
        <ele>183.3</ele>
        <time>2015-12-14T12:43:23.212Z</time>
      </trkpt>
      <trkpt lat="43.57407" lon="3.01459">
        <ele>183.3</ele>
        <time>2015-12-14T12:43:25.260Z</time>
      </trkpt>
      <trkpt lat="43.57406" lon="3.01463">
        <ele>183.2</ele>
        <time>2015-12-14T12:43:26.216Z</time>
      </trkpt>
      <trkpt lat="43.57402" lon="3.01473">
        <ele>183</ele>
        <time>2015-12-14T12:43:28.273Z</time>
      </trkpt>
      <trkpt lat="43.574" lon="3.01477">
        <ele>183.2</ele>
        <time>2015-12-14T12:43:29.214Z</time>
      </trkpt>
      <trkpt lat="43.57396" lon="3.01487">
        <ele>183.7</ele>
        <time>2015-12-14T12:43:31.251Z</time>
      </trkpt>
      <trkpt lat="43.57394" lon="3.01492">
        <ele>183.9</ele>
        <time>2015-12-14T12:43:32.222Z</time>
      </trkpt>
      <trkpt lat="43.5739" lon="3.01501">
        <ele>184.3</ele>
        <time>2015-12-14T12:43:34.273Z</time>
      </trkpt>
      <trkpt lat="43.57389" lon="3.01506">
        <ele>184.4</ele>
        <time>2015-12-14T12:43:35.212Z</time>
      </trkpt>
      <trkpt lat="43.57385" lon="3.01516">
        <ele>184.6</ele>
        <time>2015-12-14T12:43:37.261Z</time>
      </trkpt>
      <trkpt lat="43.57383" lon="3.01521">
        <ele>184.4</ele>
        <time>2015-12-14T12:43:38.215Z</time>
      </trkpt>
      <trkpt lat="43.57379" lon="3.01531">
        <ele>184.9</ele>
        <time>2015-12-14T12:43:40.269Z</time>
      </trkpt>
      <trkpt lat="43.57377" lon="3.01535">
        <ele>185.3</ele>
        <time>2015-12-14T12:43:41.214Z</time>
      </trkpt>
      <trkpt lat="43.57374" lon="3.01545">
        <ele>185.7</ele>
        <time>2015-12-14T12:43:43.247Z</time>
      </trkpt>
      <trkpt lat="43.57372" lon="3.0155">
        <ele>185.9</ele>
        <time>2015-12-14T12:43:44.208Z</time>
      </trkpt>
      <trkpt lat="43.57368" lon="3.0156">
        <ele>186.6</ele>
        <time>2015-12-14T12:43:46.272Z</time>
      </trkpt>
      <trkpt lat="43.57366" lon="3.01565">
        <ele>186.8</ele>
        <time>2015-12-14T12:43:47.219Z</time>
      </trkpt>
      <trkpt lat="43.57362" lon="3.01575">
        <ele>187.3</ele>
        <time>2015-12-14T12:43:49.265Z</time>
      </trkpt>
      <trkpt lat="43.5736" lon="3.0158">
        <ele>187.7</ele>
        <time>2015-12-14T12:43:50.231Z</time>
      </trkpt>
      <trkpt lat="43.57356" lon="3.0159">
        <ele>188</ele>
        <time>2015-12-14T12:43:52.243Z</time>
      </trkpt>
      <trkpt lat="43.57353" lon="3.01595">
        <ele>188.1</ele>
        <time>2015-12-14T12:43:53.210Z</time>
      </trkpt>
      <trkpt lat="43.5735" lon="3.01604">
        <ele>188.3</ele>
        <time>2015-12-14T12:43:55.288Z</time>
      </trkpt>
      <trkpt lat="43.57348" lon="3.0161">
        <ele>188.7</ele>
        <time>2015-12-14T12:43:56.212Z</time>
      </trkpt>
      <trkpt lat="43.57344" lon="3.0162">
        <ele>189.1</ele>
        <time>2015-12-14T12:43:58.249Z</time>
      </trkpt>
      <trkpt lat="43.57343" lon="3.01624">
        <ele>189.4</ele>
        <time>2015-12-14T12:43:59.217Z</time>
      </trkpt>
      <trkpt lat="43.57339" lon="3.01635">
        <ele>189.3</ele>
        <time>2015-12-14T12:44:01.261Z</time>
      </trkpt>
      <trkpt lat="43.57338" lon="3.0164">
        <ele>189.6</ele>
        <time>2015-12-14T12:44:02.212Z</time>
      </trkpt>
      <trkpt lat="43.57334" lon="3.0165">
        <ele>189</ele>
        <time>2015-12-14T12:44:04.252Z</time>
      </trkpt>
      <trkpt lat="43.57333" lon="3.01655">
        <ele>188.9</ele>
        <time>2015-12-14T12:44:05.207Z</time>
      </trkpt>
      <trkpt lat="43.57331" lon="3.01666">
        <ele>188.3</ele>
        <time>2015-12-14T12:44:07.301Z</time>
      </trkpt>
      <trkpt lat="43.5733" lon="3.01671">
        <ele>187.9</ele>
        <time>2015-12-14T12:44:08.212Z</time>
      </trkpt>
      <trkpt lat="43.57328" lon="3.0168">
        <ele>186.6</ele>
        <time>2015-12-14T12:44:10.258Z</time>
      </trkpt>
      <trkpt lat="43.57327" lon="3.01685">
        <ele>186</ele>
        <time>2015-12-14T12:44:11.216Z</time>
      </trkpt>
      <trkpt lat="43.57326" lon="3.01695">
        <ele>185.6</ele>
        <time>2015-12-14T12:44:13.275Z</time>
      </trkpt>
      <trkpt lat="43.57324" lon="3.017">
        <ele>185.6</ele>
        <time>2015-12-14T12:44:14.212Z</time>
      </trkpt>
      <trkpt lat="43.57322" lon="3.01711">
        <ele>185</ele>
        <time>2015-12-14T12:44:16.265Z</time>
      </trkpt>
      <trkpt lat="43.57321" lon="3.01716">
        <ele>184.7</ele>
        <time>2015-12-14T12:44:17.210Z</time>
      </trkpt>
      <trkpt lat="43.5732" lon="3.01726">
        <ele>184.6</ele>
        <time>2015-12-14T12:44:19.268Z</time>
      </trkpt>
      <trkpt lat="43.57319" lon="3.01731">
        <ele>184.5</ele>
        <time>2015-12-14T12:44:20.211Z</time>
      </trkpt>
      <trkpt lat="43.57317" lon="3.01741">
        <ele>184.8</ele>
        <time>2015-12-14T12:44:22.254Z</time>
      </trkpt>
      <trkpt lat="43.57316" lon="3.01746">
        <ele>184.6</ele>
        <time>2015-12-14T12:44:23.214Z</time>
      </trkpt>
      <trkpt lat="43.57315" lon="3.01756">
        <ele>184.4</ele>
        <time>2015-12-14T12:44:25.259Z</time>
      </trkpt>
      <trkpt lat="43.57315" lon="3.01761">
        <ele>184.3</ele>
        <time>2015-12-14T12:44:26.210Z</time>
      </trkpt>
      <trkpt lat="43.57314" lon="3.01772">
        <ele>183.8</ele>
        <time>2015-12-14T12:44:28.274Z</time>
      </trkpt>
      <trkpt lat="43.57314" lon="3.01777">
        <ele>183.7</ele>
        <time>2015-12-14T12:44:29.218Z</time>
      </trkpt>
      <trkpt lat="43.57313" lon="3.01788">
        <ele>183.4</ele>
        <time>2015-12-14T12:44:31.264Z</time>
      </trkpt>
      <trkpt lat="43.57312" lon="3.01794">
        <ele>183.2</ele>
        <time>2015-12-14T12:44:32.212Z</time>
      </trkpt>
      <trkpt lat="43.57311" lon="3.01804">
        <ele>183</ele>
        <time>2015-12-14T12:44:34.271Z</time>
      </trkpt>
      <trkpt lat="43.57311" lon="3.0181">
        <ele>182.9</ele>
        <time>2015-12-14T12:44:35.214Z</time>
      </trkpt>
      <trkpt lat="43.57312" lon="3.01821">
        <ele>182.7</ele>
        <time>2015-12-14T12:44:37.260Z</time>
      </trkpt>
      <trkpt lat="43.57313" lon="3.01826">
        <ele>182.5</ele>
        <time>2015-12-14T12:44:38.208Z</time>
      </trkpt>
      <trkpt lat="43.57313" lon="3.01836">
        <ele>182.3</ele>
        <time>2015-12-14T12:44:40.244Z</time>
      </trkpt>
      <trkpt lat="43.57314" lon="3.01841">
        <ele>181.9</ele>
        <time>2015-12-14T12:44:41.212Z</time>
      </trkpt>
      <trkpt lat="43.57315" lon="3.01852">
        <ele>180.9</ele>
        <time>2015-12-14T12:44:43.284Z</time>
      </trkpt>
      <trkpt lat="43.57315" lon="3.01857">
        <ele>180.7</ele>
        <time>2015-12-14T12:44:44.217Z</time>
      </trkpt>
      <trkpt lat="43.57316" lon="3.01866">
        <ele>179.9</ele>
        <time>2015-12-14T12:44:46.271Z</time>
      </trkpt>
      <trkpt lat="43.57317" lon="3.01871">
        <ele>179.6</ele>
        <time>2015-12-14T12:44:47.212Z</time>
      </trkpt>
      <trkpt lat="43.57319" lon="3.0188">
        <ele>178.9</ele>
        <time>2015-12-14T12:44:49.260Z</time>
      </trkpt>
      <trkpt lat="43.57319" lon="3.01884">
        <ele>178.6</ele>
        <time>2015-12-14T12:44:50.216Z</time>
      </trkpt>
      <trkpt lat="43.57322" lon="3.01895">
        <ele>177.7</ele>
        <time>2015-12-14T12:44:52.258Z</time>
      </trkpt>
      <trkpt lat="43.57323" lon="3.019">
        <ele>177.5</ele>
        <time>2015-12-14T12:44:53.220Z</time>
      </trkpt>
      <trkpt lat="43.57326" lon="3.01908">
        <ele>177.1</ele>
        <time>2015-12-14T12:44:55.263Z</time>
      </trkpt>
      <trkpt lat="43.57327" lon="3.01914">
        <ele>176.8</ele>
        <time>2015-12-14T12:44:56.212Z</time>
      </trkpt>
      <trkpt lat="43.57329" lon="3.01923">
        <ele>176.5</ele>
        <time>2015-12-14T12:44:58.245Z</time>
      </trkpt>
      <trkpt lat="43.57329" lon="3.01929">
        <ele>176.7</ele>
        <time>2015-12-14T12:44:59.213Z</time>
      </trkpt>
      <trkpt lat="43.57329" lon="3.0194">
        <ele>176.6</ele>
        <time>2015-12-14T12:45:01.270Z</time>
      </trkpt>
      <trkpt lat="43.57331" lon="3.01945">
        <ele>176.8</ele>
        <time>2015-12-14T12:45:02.215Z</time>
      </trkpt>
      <trkpt lat="43.57333" lon="3.01955">
        <ele>176.7</ele>
        <time>2015-12-14T12:45:04.672Z</time>
      </trkpt>
      <trkpt lat="43.57334" lon="3.01961">
        <ele>176.5</ele>
        <time>2015-12-14T12:45:05.212Z</time>
      </trkpt>
      <trkpt lat="43.57337" lon="3.01971">
        <ele>176.1</ele>
        <time>2015-12-14T12:45:07.250Z</time>
      </trkpt>
      <trkpt lat="43.57338" lon="3.01977">
        <ele>176</ele>
        <time>2015-12-14T12:45:08.213Z</time>
      </trkpt>
      <trkpt lat="43.57338" lon="3.01988">
        <ele>175.7</ele>
        <time>2015-12-14T12:45:10.256Z</time>
      </trkpt>
      <trkpt lat="43.57339" lon="3.01993">
        <ele>175.5</ele>
        <time>2015-12-14T12:45:11.218Z</time>
      </trkpt>
      <trkpt lat="43.57341" lon="3.02004">
        <ele>175.5</ele>
        <time>2015-12-14T12:45:13.273Z</time>
      </trkpt>
      <trkpt lat="43.57343" lon="3.02009">
        <ele>175.5</ele>
        <time>2015-12-14T12:45:14.217Z</time>
      </trkpt>
      <trkpt lat="43.57347" lon="3.02018">
        <ele>175.6</ele>
        <time>2015-12-14T12:45:16.243Z</time>
      </trkpt>
      <trkpt lat="43.5735" lon="3.02022">
        <ele>175.6</ele>
        <time>2015-12-14T12:45:17.211Z</time>
      </trkpt>
      <trkpt lat="43.57352" lon="3.02032">
        <ele>175.8</ele>
        <time>2015-12-14T12:45:19.282Z</time>
      </trkpt>
      <trkpt lat="43.57353" lon="3.02038">
        <ele>176.1</ele>
        <time>2015-12-14T12:45:20.221Z</time>
      </trkpt>
      <trkpt lat="43.57356" lon="3.02048">
        <ele>176.2</ele>
        <time>2015-12-14T12:45:22.248Z</time>
      </trkpt>
      <trkpt lat="43.57357" lon="3.02052">
        <ele>176.4</ele>
        <time>2015-12-14T12:45:23.211Z</time>
      </trkpt>
      <trkpt lat="43.57359" lon="3.0206">
        <ele>176.6</ele>
        <time>2015-12-14T12:45:25.265Z</time>
      </trkpt>
      <trkpt lat="43.57362" lon="3.02064">
        <ele>176.6</ele>
        <time>2015-12-14T12:45:26.219Z</time>
      </trkpt>
      <trkpt lat="43.57365" lon="3.02073">
        <ele>176.6</ele>
        <time>2015-12-14T12:45:28.266Z</time>
      </trkpt>
      <trkpt lat="43.57368" lon="3.02077">
        <ele>176.6</ele>
        <time>2015-12-14T12:45:29.215Z</time>
      </trkpt>
      <trkpt lat="43.57372" lon="3.02086">
        <ele>175.7</ele>
        <time>2015-12-14T12:45:31.279Z</time>
      </trkpt>
      <trkpt lat="43.57372" lon="3.02091">
        <ele>175.7</ele>
        <time>2015-12-14T12:45:32.224Z</time>
      </trkpt>
      <trkpt lat="43.57376" lon="3.021">
        <ele>176.3</ele>
        <time>2015-12-14T12:45:34.641Z</time>
      </trkpt>
      <trkpt lat="43.57379" lon="3.02103">
        <ele>176.3</ele>
        <time>2015-12-14T12:45:35.213Z</time>
      </trkpt>
      <trkpt lat="43.57383" lon="3.02111">
        <ele>176.6</ele>
        <time>2015-12-14T12:45:37.253Z</time>
      </trkpt>
      <trkpt lat="43.57384" lon="3.02115">
        <ele>177</ele>
        <time>2015-12-14T12:45:38.209Z</time>
      </trkpt>
      <trkpt lat="43.57387" lon="3.0212">
        <ele>177.7</ele>
        <time>2015-12-14T12:45:39.259Z</time>
      </trkpt>
      <trkpt lat="43.57392" lon="3.02125">
        <ele>177.9</ele>
        <time>2015-12-14T12:45:40.214Z</time>
      </trkpt>
      <trkpt lat="43.57395" lon="3.0213">
        <ele>178.5</ele>
        <time>2015-12-14T12:45:41.250Z</time>
      </trkpt>
      <trkpt lat="43.57397" lon="3.02136">
        <ele>179</ele>
        <time>2015-12-14T12:45:42.207Z</time>
      </trkpt>
      <trkpt lat="43.57401" lon="3.02143">
        <ele>179.7</ele>
        <time>2015-12-14T12:45:44.258Z</time>
      </trkpt>
      <trkpt lat="43.57404" lon="3.02146">
        <ele>180.2</ele>
        <time>2015-12-14T12:45:45.220Z</time>
      </trkpt>
      <trkpt lat="43.57408" lon="3.02155">
        <ele>181.1</ele>
        <time>2015-12-14T12:45:47.283Z</time>
      </trkpt>
      <trkpt lat="43.57411" lon="3.02159">
        <ele>181.7</ele>
        <time>2015-12-14T12:45:48.223Z</time>
      </trkpt>
      <trkpt lat="43.57417" lon="3.02167">
        <ele>183.1</ele>
        <time>2015-12-14T12:45:50.280Z</time>
      </trkpt>
      <trkpt lat="43.57419" lon="3.02171">
        <ele>183.8</ele>
        <time>2015-12-14T12:45:51.223Z</time>
      </trkpt>
      <trkpt lat="43.57425" lon="3.02179">
        <ele>184.1</ele>
        <time>2015-12-14T12:45:53.606Z</time>
      </trkpt>
      <trkpt lat="43.57427" lon="3.02183">
        <ele>184.5</ele>
        <time>2015-12-14T12:45:54.215Z</time>
      </trkpt>
      <trkpt lat="43.57432" lon="3.02189">
        <ele>186.3</ele>
        <time>2015-12-14T12:45:56.283Z</time>
      </trkpt>
      <trkpt lat="43.57434" lon="3.02192">
        <ele>186.7</ele>
        <time>2015-12-14T12:45:57.219Z</time>
      </trkpt>
      <trkpt lat="43.5744" lon="3.02201">
        <ele>187.8</ele>
        <time>2015-12-14T12:46:00.260Z</time>
      </trkpt>
      <trkpt lat="43.57442" lon="3.02205">
        <ele>188.2</ele>
        <time>2015-12-14T12:46:01.211Z</time>
      </trkpt>
      <trkpt lat="43.57446" lon="3.02212">
        <ele>189</ele>
        <time>2015-12-14T12:46:03.267Z</time>
      </trkpt>
      <trkpt lat="43.57449" lon="3.02216">
        <ele>189.6</ele>
        <time>2015-12-14T12:46:04.207Z</time>
      </trkpt>
      <trkpt lat="43.57455" lon="3.02224">
        <ele>190.4</ele>
        <time>2015-12-14T12:46:06.260Z</time>
      </trkpt>
      <trkpt lat="43.57458" lon="3.02228">
        <ele>190.8</ele>
        <time>2015-12-14T12:46:07.217Z</time>
      </trkpt>
      <trkpt lat="43.57463" lon="3.02235">
        <ele>191.5</ele>
        <time>2015-12-14T12:46:09.244Z</time>
      </trkpt>
      <trkpt lat="43.57465" lon="3.02239">
        <ele>191.9</ele>
        <time>2015-12-14T12:46:10.214Z</time>
      </trkpt>
      <trkpt lat="43.5747" lon="3.02249">
        <ele>192.3</ele>
        <time>2015-12-14T12:46:12.296Z</time>
      </trkpt>
      <trkpt lat="43.57472" lon="3.02253">
        <ele>192.4</ele>
        <time>2015-12-14T12:46:13.209Z</time>
      </trkpt>
      <trkpt lat="43.57477" lon="3.02261">
        <ele>192.9</ele>
        <time>2015-12-14T12:46:15.268Z</time>
      </trkpt>
      <trkpt lat="43.5748" lon="3.02265">
        <ele>192.8</ele>
        <time>2015-12-14T12:46:16.217Z</time>
      </trkpt>
      <trkpt lat="43.57486" lon="3.02272">
        <ele>193.5</ele>
        <time>2015-12-14T12:46:18.270Z</time>
      </trkpt>
      <trkpt lat="43.57488" lon="3.02275">
        <ele>193.7</ele>
        <time>2015-12-14T12:46:19.226Z</time>
      </trkpt>
      <trkpt lat="43.57492" lon="3.02282">
        <ele>194.3</ele>
        <time>2015-12-14T12:46:21.254Z</time>
      </trkpt>
      <trkpt lat="43.57494" lon="3.02286">
        <ele>194.4</ele>
        <time>2015-12-14T12:46:22.207Z</time>
      </trkpt>
      <trkpt lat="43.57499" lon="3.02293">
        <ele>194.8</ele>
        <time>2015-12-14T12:46:24.278Z</time>
      </trkpt>
      <trkpt lat="43.575" lon="3.02296">
        <ele>195</ele>
        <time>2015-12-14T12:46:25.219Z</time>
      </trkpt>
      <trkpt lat="43.57504" lon="3.02302">
        <ele>195</ele>
        <time>2015-12-14T12:46:27.253Z</time>
      </trkpt>
      <trkpt lat="43.57506" lon="3.02305">
        <ele>195.2</ele>
        <time>2015-12-14T12:46:28.215Z</time>
      </trkpt>
      <trkpt lat="43.57512" lon="3.02312">
        <ele>195.1</ele>
        <time>2015-12-14T12:46:30.249Z</time>
      </trkpt>
      <trkpt lat="43.57513" lon="3.02316">
        <ele>195.4</ele>
        <time>2015-12-14T12:46:31.215Z</time>
      </trkpt>
      <trkpt lat="43.57519" lon="3.02322">
        <ele>195.5</ele>
        <time>2015-12-14T12:46:33.284Z</time>
      </trkpt>
      <trkpt lat="43.57522" lon="3.02325">
        <ele>195.3</ele>
        <time>2015-12-14T12:46:34.216Z</time>
      </trkpt>
      <trkpt lat="43.57527" lon="3.02332">
        <ele>194.6</ele>
        <time>2015-12-14T12:46:36.278Z</time>
      </trkpt>
      <trkpt lat="43.57529" lon="3.02336">
        <ele>194.6</ele>
        <time>2015-12-14T12:46:37.217Z</time>
      </trkpt>
      <trkpt lat="43.57534" lon="3.02343">
        <ele>194.5</ele>
        <time>2015-12-14T12:46:39.504Z</time>
      </trkpt>
      <trkpt lat="43.57537" lon="3.02347">
        <ele>194.4</ele>
        <time>2015-12-14T12:46:40.213Z</time>
      </trkpt>
      <trkpt lat="43.57542" lon="3.02355">
        <ele>194.2</ele>
        <time>2015-12-14T12:46:42.267Z</time>
      </trkpt>
      <trkpt lat="43.57545" lon="3.02359">
        <ele>193.9</ele>
        <time>2015-12-14T12:46:43.212Z</time>
      </trkpt>
      <trkpt lat="43.5755" lon="3.02366">
        <ele>193.6</ele>
        <time>2015-12-14T12:46:45.243Z</time>
      </trkpt>
      <trkpt lat="43.57553" lon="3.02369">
        <ele>193.5</ele>
        <time>2015-12-14T12:46:46.211Z</time>
      </trkpt>
      <trkpt lat="43.57559" lon="3.02376">
        <ele>193</ele>
        <time>2015-12-14T12:46:48.259Z</time>
      </trkpt>
      <trkpt lat="43.57562" lon="3.0238">
        <ele>192.9</ele>
        <time>2015-12-14T12:46:49.213Z</time>
      </trkpt>
      <trkpt lat="43.57568" lon="3.02387">
        <ele>192.8</ele>
        <time>2015-12-14T12:46:51.250Z</time>
      </trkpt>
      <trkpt lat="43.57571" lon="3.02391">
        <ele>192.8</ele>
        <time>2015-12-14T12:46:52.210Z</time>
      </trkpt>
      <trkpt lat="43.57576" lon="3.02397">
        <ele>192.7</ele>
        <time>2015-12-14T12:46:54.264Z</time>
      </trkpt>
      <trkpt lat="43.57578" lon="3.02401">
        <ele>192.6</ele>
        <time>2015-12-14T12:46:55.212Z</time>
      </trkpt>
      <trkpt lat="43.57583" lon="3.02409">
        <ele>192.4</ele>
        <time>2015-12-14T12:46:57.277Z</time>
      </trkpt>
      <trkpt lat="43.57586" lon="3.02412">
        <ele>192.1</ele>
        <time>2015-12-14T12:46:58.217Z</time>
      </trkpt>
      <trkpt lat="43.5759" lon="3.0242">
        <ele>192</ele>
        <time>2015-12-14T12:47:00.270Z</time>
      </trkpt>
      <trkpt lat="43.57593" lon="3.02423">
        <ele>192.1</ele>
        <time>2015-12-14T12:47:01.214Z</time>
      </trkpt>
      <trkpt lat="43.57596" lon="3.0243">
        <ele>192.2</ele>
        <time>2015-12-14T12:47:03.250Z</time>
      </trkpt>
      <trkpt lat="43.57599" lon="3.02433">
        <ele>192.3</ele>
        <time>2015-12-14T12:47:04.211Z</time>
      </trkpt>
      <trkpt lat="43.57602" lon="3.0244">
        <ele>192.3</ele>
        <time>2015-12-14T12:47:06.242Z</time>
      </trkpt>
      <trkpt lat="43.57604" lon="3.02445">
        <ele>192.3</ele>
        <time>2015-12-14T12:47:07.208Z</time>
      </trkpt>
      <trkpt lat="43.57608" lon="3.02453">
        <ele>192.4</ele>
        <time>2015-12-14T12:47:09.287Z</time>
      </trkpt>
      <trkpt lat="43.5761" lon="3.02457">
        <ele>192.5</ele>
        <time>2015-12-14T12:47:10.223Z</time>
      </trkpt>
      <trkpt lat="43.57614" lon="3.02464">
        <ele>192.6</ele>
        <time>2015-12-14T12:47:12.249Z</time>
      </trkpt>
      <trkpt lat="43.5774" lon="3.02651">
        <ele>195.1</ele>
        <time>2015-12-14T12:47:56.216Z</time>
      </trkpt>
      <trkpt lat="43.57745" lon="3.0266">
        <ele>178.9</ele>
        <time>2015-12-14T12:48:01.272Z</time>
      </trkpt>
      <trkpt lat="43.57748" lon="3.02663">
        <ele>180.8</ele>
        <time>2015-12-14T12:48:02.223Z</time>
      </trkpt>
      <trkpt lat="43.57756" lon="3.0267">
        <ele>182</ele>
        <time>2015-12-14T12:48:04.240Z</time>
      </trkpt>
      <trkpt lat="43.5776" lon="3.02673">
        <ele>182.7</ele>
        <time>2015-12-14T12:48:05.210Z</time>
      </trkpt>
      <trkpt lat="43.57764" lon="3.02677">
        <ele>182.1</ele>
        <time>2015-12-14T12:48:06.251Z</time>
      </trkpt>
      <trkpt lat="43.57767" lon="3.0268">
        <ele>182.7</ele>
        <time>2015-12-14T12:48:07.220Z</time>
      </trkpt>
      <trkpt lat="43.57772" lon="3.02689">
        <ele>183.4</ele>
        <time>2015-12-14T12:48:09.243Z</time>
      </trkpt>
      <trkpt lat="43.57775" lon="3.02693">
        <ele>183.4</ele>
        <time>2015-12-14T12:48:10.215Z</time>
      </trkpt>
      <trkpt lat="43.5778" lon="3.027">
        <ele>184.2</ele>
        <time>2015-12-14T12:48:12.528Z</time>
      </trkpt>
      <trkpt lat="43.57782" lon="3.02704">
        <ele>184.9</ele>
        <time>2015-12-14T12:48:13.489Z</time>
      </trkpt>
      <trkpt lat="43.57786" lon="3.02711">
        <ele>185.4</ele>
        <time>2015-12-14T12:48:15.526Z</time>
      </trkpt>
      <trkpt lat="43.57788" lon="3.02714">
        <ele>185.2</ele>
        <time>2015-12-14T12:48:16.481Z</time>
      </trkpt>
      <trkpt lat="43.57793" lon="3.0272">
        <ele>185.5</ele>
        <time>2015-12-14T12:48:18.539Z</time>
      </trkpt>
      <trkpt lat="43.57795" lon="3.02723">
        <ele>185.8</ele>
        <time>2015-12-14T12:48:19.494Z</time>
      </trkpt>
      <trkpt lat="43.578" lon="3.02732">
        <ele>186.1</ele>
        <time>2015-12-14T12:48:21.516Z</time>
      </trkpt>
      <trkpt lat="43.57803" lon="3.02737">
        <ele>186.7</ele>
        <time>2015-12-14T12:48:22.480Z</time>
      </trkpt>
      <trkpt lat="43.57808" lon="3.02746">
        <ele>187.1</ele>
        <time>2015-12-14T12:48:24.527Z</time>
      </trkpt>
      <trkpt lat="43.57812" lon="3.02749">
        <ele>187.3</ele>
        <time>2015-12-14T12:48:25.477Z</time>
      </trkpt>
      <trkpt lat="43.57816" lon="3.02753">
        <ele>187.2</ele>
        <time>2015-12-14T12:48:26.517Z</time>
      </trkpt>
      <trkpt lat="43.57825" lon="3.0276">
        <ele>186.3</ele>
        <time>2015-12-14T12:48:27.483Z</time>
      </trkpt>
      <trkpt lat="43.57829" lon="3.02764">
        <ele>185.9</ele>
        <time>2015-12-14T12:48:28.524Z</time>
      </trkpt>
      <trkpt lat="43.57833" lon="3.0277">
        <ele>185.6</ele>
        <time>2015-12-14T12:48:29.490Z</time>
      </trkpt>
      <trkpt lat="43.57837" lon="3.02774">
        <ele>185</ele>
        <time>2015-12-14T12:48:30.546Z</time>
      </trkpt>
      <trkpt lat="43.57839" lon="3.02779">
        <ele>185</ele>
        <time>2015-12-14T12:48:31.484Z</time>
      </trkpt>
      <trkpt lat="43.57844" lon="3.02787">
        <ele>185</ele>
        <time>2015-12-14T12:48:33.510Z</time>
      </trkpt>
      <trkpt lat="43.57848" lon="3.02792">
        <ele>185.2</ele>
        <time>2015-12-14T12:48:34.476Z</time>
      </trkpt>
      <trkpt lat="43.57854" lon="3.028">
        <ele>185.1</ele>
        <time>2015-12-14T12:48:36.554Z</time>
      </trkpt>
      <trkpt lat="43.57857" lon="3.02804">
        <ele>184.5</ele>
        <time>2015-12-14T12:48:37.486Z</time>
      </trkpt>
      <trkpt lat="43.5786" lon="3.02809">
        <ele>185.2</ele>
        <time>2015-12-14T12:48:38.788Z</time>
      </trkpt>
      <trkpt lat="43.57864" lon="3.02813">
        <ele>185.2</ele>
        <time>2015-12-14T12:48:39.484Z</time>
      </trkpt>
      <trkpt lat="43.57867" lon="3.02818">
        <ele>185.2</ele>
        <time>2015-12-14T12:48:40.517Z</time>
      </trkpt>
      <trkpt lat="43.5787" lon="3.02824">
        <ele>185.4</ele>
        <time>2015-12-14T12:48:41.482Z</time>
      </trkpt>
      <trkpt lat="43.57872" lon="3.0283">
        <ele>185.6</ele>
        <time>2015-12-14T12:48:42.534Z</time>
      </trkpt>
      <trkpt lat="43.57875" lon="3.02836">
        <ele>185.6</ele>
        <time>2015-12-14T12:48:43.487Z</time>
      </trkpt>
      <trkpt lat="43.57877" lon="3.02841">
        <ele>185.7</ele>
        <time>2015-12-14T12:48:44.538Z</time>
      </trkpt>
      <trkpt lat="43.5788" lon="3.02846">
        <ele>185.9</ele>
        <time>2015-12-14T12:48:45.480Z</time>
      </trkpt>
      <trkpt lat="43.57883" lon="3.02852">
        <ele>185.9</ele>
        <time>2015-12-14T12:48:46.525Z</time>
      </trkpt>
      <trkpt lat="43.57886" lon="3.02857">
        <ele>186.1</ele>
        <time>2015-12-14T12:48:47.480Z</time>
      </trkpt>
      <trkpt lat="43.57889" lon="3.02863">
        <ele>186.1</ele>
        <time>2015-12-14T12:48:48.509Z</time>
      </trkpt>
      <trkpt lat="43.57891" lon="3.02869">
        <ele>186.2</ele>
        <time>2015-12-14T12:48:49.482Z</time>
      </trkpt>
      <trkpt lat="43.57895" lon="3.02875">
        <ele>186.2</ele>
        <time>2015-12-14T12:48:50.556Z</time>
      </trkpt>
      <trkpt lat="43.57898" lon="3.02881">
        <ele>186.3</ele>
        <time>2015-12-14T12:48:51.480Z</time>
      </trkpt>
      <trkpt lat="43.579" lon="3.02886">
        <ele>186.3</ele>
        <time>2015-12-14T12:48:52.513Z</time>
      </trkpt>
      <trkpt lat="43.57902" lon="3.02893">
        <ele>186.4</ele>
        <time>2015-12-14T12:48:53.475Z</time>
      </trkpt>
      <trkpt lat="43.57904" lon="3.02898">
        <ele>186.5</ele>
        <time>2015-12-14T12:48:54.510Z</time>
      </trkpt>
      <trkpt lat="43.57907" lon="3.02903">
        <ele>186.6</ele>
        <time>2015-12-14T12:48:55.486Z</time>
      </trkpt>
      <trkpt lat="43.57912" lon="3.02913">
        <ele>186.4</ele>
        <time>2015-12-14T12:48:57.532Z</time>
      </trkpt>
      <trkpt lat="43.57913" lon="3.02917">
        <ele>186.2</ele>
        <time>2015-12-14T12:48:58.487Z</time>
      </trkpt>
      <trkpt lat="43.57917" lon="3.02928">
        <ele>186</ele>
        <time>2015-12-14T12:49:00.528Z</time>
      </trkpt>
      <trkpt lat="43.57919" lon="3.02934">
        <ele>186.1</ele>
        <time>2015-12-14T12:49:01.490Z</time>
      </trkpt>
      <trkpt lat="43.57921" lon="3.0294">
        <ele>186.1</ele>
        <time>2015-12-14T12:49:02.504Z</time>
      </trkpt>
      <trkpt lat="43.57922" lon="3.02945">
        <ele>186.2</ele>
        <time>2015-12-14T12:49:03.480Z</time>
      </trkpt>
      <trkpt lat="43.57924" lon="3.02951">
        <ele>186.5</ele>
        <time>2015-12-14T12:49:04.509Z</time>
      </trkpt>
      <trkpt lat="43.57926" lon="3.02956">
        <ele>186.3</ele>
        <time>2015-12-14T12:49:05.479Z</time>
      </trkpt>
      <trkpt lat="43.57931" lon="3.02967">
        <ele>186.9</ele>
        <time>2015-12-14T12:49:07.545Z</time>
      </trkpt>
      <trkpt lat="43.57934" lon="3.02971">
        <ele>187.1</ele>
        <time>2015-12-14T12:49:08.480Z</time>
      </trkpt>
      <trkpt lat="43.57938" lon="3.02981">
        <ele>187.3</ele>
        <time>2015-12-14T12:49:10.515Z</time>
      </trkpt>
      <trkpt lat="43.5794" lon="3.02985">
        <ele>187.3</ele>
        <time>2015-12-14T12:49:11.479Z</time>
      </trkpt>
      <trkpt lat="43.57944" lon="3.02995">
        <ele>187.6</ele>
        <time>2015-12-14T12:49:13.544Z</time>
      </trkpt>
      <trkpt lat="43.57946" lon="3.03001">
        <ele>187.7</ele>
        <time>2015-12-14T12:49:14.494Z</time>
      </trkpt>
      <trkpt lat="43.57948" lon="3.03013">
        <ele>188.1</ele>
        <time>2015-12-14T12:49:16.543Z</time>
      </trkpt>
      <trkpt lat="43.5795" lon="3.03019">
        <ele>188.5</ele>
        <time>2015-12-14T12:49:17.486Z</time>
      </trkpt>
      <trkpt lat="43.57952" lon="3.03025">
        <ele>188.5</ele>
        <time>2015-12-14T12:49:18.531Z</time>
      </trkpt>
      <trkpt lat="43.57954" lon="3.03031">
        <ele>188.7</ele>
        <time>2015-12-14T12:49:19.491Z</time>
      </trkpt>
      <trkpt lat="43.57956" lon="3.03037">
        <ele>188.7</ele>
        <time>2015-12-14T12:49:20.511Z</time>
      </trkpt>
      <trkpt lat="43.57958" lon="3.03043">
        <ele>188.9</ele>
        <time>2015-12-14T12:49:21.481Z</time>
      </trkpt>
      <trkpt lat="43.5796" lon="3.03048">
        <ele>188.9</ele>
        <time>2015-12-14T12:49:22.511Z</time>
      </trkpt>
      <trkpt lat="43.57961" lon="3.03054">
        <ele>189.4</ele>
        <time>2015-12-14T12:49:23.482Z</time>
      </trkpt>
      <trkpt lat="43.57964" lon="3.03065">
        <ele>189.9</ele>
        <time>2015-12-14T12:49:25.541Z</time>
      </trkpt>
      <trkpt lat="43.57966" lon="3.03071">
        <ele>190.2</ele>
        <time>2015-12-14T12:49:26.479Z</time>
      </trkpt>
      <trkpt lat="43.57969" lon="3.03077">
        <ele>190.6</ele>
        <time>2015-12-14T12:49:27.513Z</time>
      </trkpt>
      <trkpt lat="43.57971" lon="3.03083">
        <ele>190.6</ele>
        <time>2015-12-14T12:49:28.476Z</time>
      </trkpt>
      <trkpt lat="43.57974" lon="3.03089">
        <ele>190.8</ele>
        <time>2015-12-14T12:49:29.517Z</time>
      </trkpt>
      <trkpt lat="43.57975" lon="3.03095">
        <ele>190.7</ele>
        <time>2015-12-14T12:49:30.482Z</time>
      </trkpt>
      <trkpt lat="43.57976" lon="3.03101">
        <ele>190.6</ele>
        <time>2015-12-14T12:49:31.546Z</time>
      </trkpt>
      <trkpt lat="43.57977" lon="3.03107">
        <ele>190.8</ele>
        <time>2015-12-14T12:49:32.486Z</time>
      </trkpt>
      <trkpt lat="43.57978" lon="3.03119">
        <ele>191.3</ele>
        <time>2015-12-14T12:49:34.525Z</time>
      </trkpt>
      <trkpt lat="43.57979" lon="3.03124">
        <ele>191.7</ele>
        <time>2015-12-14T12:49:35.492Z</time>
      </trkpt>
      <trkpt lat="43.57979" lon="3.03131">
        <ele>192.2</ele>
        <time>2015-12-14T12:49:36.541Z</time>
      </trkpt>
      <trkpt lat="43.5798" lon="3.03137">
        <ele>192.6</ele>
        <time>2015-12-14T12:49:37.486Z</time>
      </trkpt>
      <trkpt lat="43.5798" lon="3.03144">
        <ele>193</ele>
        <time>2015-12-14T12:49:38.532Z</time>
      </trkpt>
      <trkpt lat="43.5798" lon="3.03151">
        <ele>193.2</ele>
        <time>2015-12-14T12:49:39.477Z</time>
      </trkpt>
      <trkpt lat="43.57982" lon="3.03163">
        <ele>193</ele>
        <time>2015-12-14T12:49:41.517Z</time>
      </trkpt>
      <trkpt lat="43.57983" lon="3.03169">
        <ele>193.1</ele>
        <time>2015-12-14T12:49:42.480Z</time>
      </trkpt>
      <trkpt lat="43.57985" lon="3.03181">
        <ele>192.9</ele>
        <time>2015-12-14T12:49:44.514Z</time>
      </trkpt>
      <trkpt lat="43.57986" lon="3.03186">
        <ele>193</ele>
        <time>2015-12-14T12:49:45.483Z</time>
      </trkpt>
      <trkpt lat="43.57987" lon="3.03193">
        <ele>193</ele>
        <time>2015-12-14T12:49:46.517Z</time>
      </trkpt>
      <trkpt lat="43.57987" lon="3.03199">
        <ele>192.9</ele>
        <time>2015-12-14T12:49:47.486Z</time>
      </trkpt>
      <trkpt lat="43.57988" lon="3.03205">
        <ele>192.3</ele>
        <time>2015-12-14T12:49:48.515Z</time>
      </trkpt>
      <trkpt lat="43.5799" lon="3.03212">
        <ele>192.1</ele>
        <time>2015-12-14T12:49:49.482Z</time>
      </trkpt>
      <trkpt lat="43.5799" lon="3.03219">
        <ele>192</ele>
        <time>2015-12-14T12:49:50.515Z</time>
      </trkpt>
      <trkpt lat="43.57991" lon="3.03226">
        <ele>191.9</ele>
        <time>2015-12-14T12:49:51.480Z</time>
      </trkpt>
      <trkpt lat="43.57992" lon="3.03232">
        <ele>191.1</ele>
        <time>2015-12-14T12:49:52.530Z</time>
      </trkpt>
      <trkpt lat="43.57993" lon="3.03238">
        <ele>190.7</ele>
        <time>2015-12-14T12:49:53.487Z</time>
      </trkpt>
      <trkpt lat="43.57994" lon="3.03245">
        <ele>189.5</ele>
        <time>2015-12-14T12:49:54.539Z</time>
      </trkpt>
      <trkpt lat="43.57994" lon="3.03253">
        <ele>189.2</ele>
        <time>2015-12-14T12:49:55.485Z</time>
      </trkpt>
      <trkpt lat="43.57994" lon="3.0326">
        <ele>188.5</ele>
        <time>2015-12-14T12:49:56.533Z</time>
      </trkpt>
      <trkpt lat="43.57994" lon="3.03267">
        <ele>187.9</ele>
        <time>2015-12-14T12:49:57.494Z</time>
      </trkpt>
      <trkpt lat="43.57994" lon="3.03274">
        <ele>187.6</ele>
        <time>2015-12-14T12:49:58.513Z</time>
      </trkpt>
      <trkpt lat="43.57994" lon="3.03281">
        <ele>186.9</ele>
        <time>2015-12-14T12:49:59.481Z</time>
      </trkpt>
      <trkpt lat="43.57996" lon="3.03288">
        <ele>186.2</ele>
        <time>2015-12-14T12:50:00.519Z</time>
      </trkpt>
      <trkpt lat="43.57996" lon="3.03296">
        <ele>185.5</ele>
        <time>2015-12-14T12:50:01.489Z</time>
      </trkpt>
      <trkpt lat="43.57997" lon="3.03303">
        <ele>184.9</ele>
        <time>2015-12-14T12:50:02.520Z</time>
      </trkpt>
      <trkpt lat="43.57998" lon="3.03311">
        <ele>184.2</ele>
        <time>2015-12-14T12:50:03.481Z</time>
      </trkpt>
      <trkpt lat="43.57999" lon="3.03318">
        <ele>183.4</ele>
        <time>2015-12-14T12:50:04.517Z</time>
      </trkpt>
      <trkpt lat="43.58" lon="3.03325">
        <ele>182.6</ele>
        <time>2015-12-14T12:50:05.493Z</time>
      </trkpt>
      <trkpt lat="43.58001" lon="3.03332">
        <ele>181.7</ele>
        <time>2015-12-14T12:50:06.515Z</time>
      </trkpt>
      <trkpt lat="43.58001" lon="3.03339">
        <ele>181.1</ele>
        <time>2015-12-14T12:50:07.484Z</time>
      </trkpt>
      <trkpt lat="43.58002" lon="3.03345">
        <ele>180</ele>
        <time>2015-12-14T12:50:08.520Z</time>
      </trkpt>
      <trkpt lat="43.58002" lon="3.03352">
        <ele>179</ele>
        <time>2015-12-14T12:50:09.491Z</time>
      </trkpt>
      <trkpt lat="43.58003" lon="3.03359">
        <ele>178.3</ele>
        <time>2015-12-14T12:50:10.558Z</time>
      </trkpt>
      <trkpt lat="43.58003" lon="3.03365">
        <ele>178</ele>
        <time>2015-12-14T12:50:11.484Z</time>
      </trkpt>
      <trkpt lat="43.58003" lon="3.03372">
        <ele>177.7</ele>
        <time>2015-12-14T12:50:12.538Z</time>
      </trkpt>
      <trkpt lat="43.58003" lon="3.03379">
        <ele>177.4</ele>
        <time>2015-12-14T12:50:13.488Z</time>
      </trkpt>
      <trkpt lat="43.58003" lon="3.03386">
        <ele>177</ele>
        <time>2015-12-14T12:50:14.863Z</time>
      </trkpt>
      <trkpt lat="43.58003" lon="3.03393">
        <ele>176.6</ele>
        <time>2015-12-14T12:50:15.481Z</time>
      </trkpt>
      <trkpt lat="43.58003" lon="3.03399">
        <ele>176.1</ele>
        <time>2015-12-14T12:50:16.514Z</time>
      </trkpt>
      <trkpt lat="43.58002" lon="3.03406">
        <ele>175.7</ele>
        <time>2015-12-14T12:50:17.489Z</time>
      </trkpt>
      <trkpt lat="43.58002" lon="3.03413">
        <ele>175.3</ele>
        <time>2015-12-14T12:50:18.531Z</time>
      </trkpt>
      <trkpt lat="43.58003" lon="3.0342">
        <ele>174.6</ele>
        <time>2015-12-14T12:50:19.488Z</time>
      </trkpt>
      <trkpt lat="43.58003" lon="3.03427">
        <ele>174.1</ele>
        <time>2015-12-14T12:50:20.515Z</time>
      </trkpt>
      <trkpt lat="43.58003" lon="3.03434">
        <ele>173</ele>
        <time>2015-12-14T12:50:21.480Z</time>
      </trkpt>
      <trkpt lat="43.58002" lon="3.03441">
        <ele>173.3</ele>
        <time>2015-12-14T12:50:22.510Z</time>
      </trkpt>
      <trkpt lat="43.58001" lon="3.03448">
        <ele>173</ele>
        <time>2015-12-14T12:50:23.480Z</time>
      </trkpt>
      <trkpt lat="43.58" lon="3.03456">
        <ele>172.9</ele>
        <time>2015-12-14T12:50:24.518Z</time>
      </trkpt>
      <trkpt lat="43.58" lon="3.03463">
        <ele>172.4</ele>
        <time>2015-12-14T12:50:25.482Z</time>
      </trkpt>
      <trkpt lat="43.57999" lon="3.0347">
        <ele>172.2</ele>
        <time>2015-12-14T12:50:26.515Z</time>
      </trkpt>
      <trkpt lat="43.57999" lon="3.03477">
        <ele>171.8</ele>
        <time>2015-12-14T12:50:27.479Z</time>
      </trkpt>
      <trkpt lat="43.57998" lon="3.03484">
        <ele>171.5</ele>
        <time>2015-12-14T12:50:28.534Z</time>
      </trkpt>
      <trkpt lat="43.57997" lon="3.03491">
        <ele>171.3</ele>
        <time>2015-12-14T12:50:29.482Z</time>
      </trkpt>
      <trkpt lat="43.57996" lon="3.03498">
        <ele>170.5</ele>
        <time>2015-12-14T12:50:30.535Z</time>
      </trkpt>
      <trkpt lat="43.57996" lon="3.03506">
        <ele>169.8</ele>
        <time>2015-12-14T12:50:31.486Z</time>
      </trkpt>
      <trkpt lat="43.57995" lon="3.03513">
        <ele>169.5</ele>
        <time>2015-12-14T12:50:32.524Z</time>
      </trkpt>
      <trkpt lat="43.57993" lon="3.0352">
        <ele>169.4</ele>
        <time>2015-12-14T12:50:33.484Z</time>
      </trkpt>
      <trkpt lat="43.57993" lon="3.03527">
        <ele>168.9</ele>
        <time>2015-12-14T12:50:34.514Z</time>
      </trkpt>
      <trkpt lat="43.57992" lon="3.03534">
        <ele>168.5</ele>
        <time>2015-12-14T12:50:35.480Z</time>
      </trkpt>
      <trkpt lat="43.57992" lon="3.03541">
        <ele>168.3</ele>
        <time>2015-12-14T12:50:36.514Z</time>
      </trkpt>
      <trkpt lat="43.57991" lon="3.03548">
        <ele>168</ele>
        <time>2015-12-14T12:50:37.481Z</time>
      </trkpt>
      <trkpt lat="43.57992" lon="3.03554">
        <ele>167.8</ele>
        <time>2015-12-14T12:50:38.525Z</time>
      </trkpt>
      <trkpt lat="43.57991" lon="3.03561">
        <ele>167.6</ele>
        <time>2015-12-14T12:50:39.485Z</time>
      </trkpt>
      <trkpt lat="43.5799" lon="3.03568">
        <ele>167.7</ele>
        <time>2015-12-14T12:50:40.538Z</time>
      </trkpt>
      <trkpt lat="43.5799" lon="3.03575">
        <ele>167.4</ele>
        <time>2015-12-14T12:50:41.478Z</time>
      </trkpt>
      <trkpt lat="43.57989" lon="3.03582">
        <ele>167.2</ele>
        <time>2015-12-14T12:50:42.524Z</time>
      </trkpt>
      <trkpt lat="43.57987" lon="3.03589">
        <ele>166.9</ele>
        <time>2015-12-14T12:50:43.487Z</time>
      </trkpt>
      <trkpt lat="43.57987" lon="3.03595">
        <ele>166.6</ele>
        <time>2015-12-14T12:50:44.504Z</time>
      </trkpt>
      <trkpt lat="43.57985" lon="3.03602">
        <ele>166.4</ele>
        <time>2015-12-14T12:50:45.480Z</time>
      </trkpt>
      <trkpt lat="43.57984" lon="3.03609">
        <ele>166.2</ele>
        <time>2015-12-14T12:50:46.518Z</time>
      </trkpt>
      <trkpt lat="43.57983" lon="3.03615">
        <ele>165.9</ele>
        <time>2015-12-14T12:50:47.475Z</time>
      </trkpt>
      <trkpt lat="43.57981" lon="3.03622">
        <ele>165.8</ele>
        <time>2015-12-14T12:50:48.531Z</time>
      </trkpt>
      <trkpt lat="43.5798" lon="3.03629">
        <ele>165.8</ele>
        <time>2015-12-14T12:50:49.489Z</time>
      </trkpt>
      <trkpt lat="43.57978" lon="3.03636">
        <ele>165.8</ele>
        <time>2015-12-14T12:50:50.510Z</time>
      </trkpt>
      <trkpt lat="43.57976" lon="3.03642">
        <ele>165.8</ele>
        <time>2015-12-14T12:50:51.477Z</time>
      </trkpt>
      <trkpt lat="43.57975" lon="3.03649">
        <ele>165.8</ele>
        <time>2015-12-14T12:50:52.509Z</time>
      </trkpt>
      <trkpt lat="43.57974" lon="3.03655">
        <ele>165.9</ele>
        <time>2015-12-14T12:50:53.479Z</time>
      </trkpt>
      <trkpt lat="43.57972" lon="3.03662">
        <ele>166.1</ele>
        <time>2015-12-14T12:50:54.520Z</time>
      </trkpt>
      <trkpt lat="43.5797" lon="3.03668">
        <ele>166.1</ele>
        <time>2015-12-14T12:50:55.481Z</time>
      </trkpt>
      <trkpt lat="43.57968" lon="3.03674">
        <ele>166.3</ele>
        <time>2015-12-14T12:50:56.525Z</time>
      </trkpt>
      <trkpt lat="43.57967" lon="3.03681">
        <ele>166.5</ele>
        <time>2015-12-14T12:50:57.475Z</time>
      </trkpt>
      <trkpt lat="43.57965" lon="3.03687">
        <ele>166.6</ele>
        <time>2015-12-14T12:50:58.535Z</time>
      </trkpt>
      <trkpt lat="43.57963" lon="3.03693">
        <ele>166.6</ele>
        <time>2015-12-14T12:50:59.486Z</time>
      </trkpt>
      <trkpt lat="43.57961" lon="3.037">
        <ele>166.6</ele>
        <time>2015-12-14T12:51:00.530Z</time>
      </trkpt>
      <trkpt lat="43.57959" lon="3.03706">
        <ele>166.7</ele>
        <time>2015-12-14T12:51:01.481Z</time>
      </trkpt>
      <trkpt lat="43.57957" lon="3.03713">
        <ele>166.6</ele>
        <time>2015-12-14T12:51:02.514Z</time>
      </trkpt>
      <trkpt lat="43.57954" lon="3.03719">
        <ele>166.6</ele>
        <time>2015-12-14T12:51:03.482Z</time>
      </trkpt>
      <trkpt lat="43.57953" lon="3.03726">
        <ele>166.6</ele>
        <time>2015-12-14T12:51:04.518Z</time>
      </trkpt>
      <trkpt lat="43.57951" lon="3.03732">
        <ele>166.7</ele>
        <time>2015-12-14T12:51:05.480Z</time>
      </trkpt>
      <trkpt lat="43.57949" lon="3.03738">
        <ele>166.9</ele>
        <time>2015-12-14T12:51:06.510Z</time>
      </trkpt>
      <trkpt lat="43.57947" lon="3.03743">
        <ele>167</ele>
        <time>2015-12-14T12:51:07.483Z</time>
      </trkpt>
      <trkpt lat="43.57945" lon="3.03749">
        <ele>167.1</ele>
        <time>2015-12-14T12:51:08.638Z</time>
      </trkpt>
      <trkpt lat="43.57944" lon="3.03755">
        <ele>167.3</ele>
        <time>2015-12-14T12:51:09.481Z</time>
      </trkpt>
      <trkpt lat="43.57942" lon="3.03761">
        <ele>167.5</ele>
        <time>2015-12-14T12:51:10.505Z</time>
      </trkpt>
      <trkpt lat="43.5794" lon="3.03767">
        <ele>167.7</ele>
        <time>2015-12-14T12:51:11.474Z</time>
      </trkpt>
      <trkpt lat="43.57937" lon="3.03779">
        <ele>167.7</ele>
        <time>2015-12-14T12:51:13.543Z</time>
      </trkpt>
      <trkpt lat="43.57936" lon="3.03785">
        <ele>167.6</ele>
        <time>2015-12-14T12:51:14.480Z</time>
      </trkpt>
      <trkpt lat="43.57935" lon="3.03791">
        <ele>167.7</ele>
        <time>2015-12-14T12:51:15.529Z</time>
      </trkpt>
      <trkpt lat="43.57933" lon="3.03797">
        <ele>167.7</ele>
        <time>2015-12-14T12:51:16.490Z</time>
      </trkpt>
      <trkpt lat="43.57931" lon="3.03803">
        <ele>167.7</ele>
        <time>2015-12-14T12:51:17.867Z</time>
      </trkpt>
      <trkpt lat="43.5793" lon="3.03809">
        <ele>167.8</ele>
        <time>2015-12-14T12:51:18.482Z</time>
      </trkpt>
      <trkpt lat="43.57928" lon="3.03814">
        <ele>167.7</ele>
        <time>2015-12-14T12:51:19.816Z</time>
      </trkpt>
      <trkpt lat="43.57926" lon="3.0382">
        <ele>167.7</ele>
        <time>2015-12-14T12:51:20.481Z</time>
      </trkpt>
      <trkpt lat="43.57925" lon="3.03826">
        <ele>167.7</ele>
        <time>2015-12-14T12:51:21.507Z</time>
      </trkpt>
      <trkpt lat="43.57924" lon="3.03832">
        <ele>167.8</ele>
        <time>2015-12-14T12:51:22.494Z</time>
      </trkpt>
      <trkpt lat="43.57921" lon="3.03843">
        <ele>167.9</ele>
        <time>2015-12-14T12:51:24.512Z</time>
      </trkpt>
      <trkpt lat="43.57918" lon="3.03849">
        <ele>167.9</ele>
        <time>2015-12-14T12:51:25.481Z</time>
      </trkpt>
      <trkpt lat="43.57916" lon="3.03855">
        <ele>168</ele>
        <time>2015-12-14T12:51:26.516Z</time>
      </trkpt>
      <trkpt lat="43.57913" lon="3.03861">
        <ele>168</ele>
        <time>2015-12-14T12:51:27.481Z</time>
      </trkpt>
      <trkpt lat="43.57912" lon="3.03867">
        <ele>167.9</ele>
        <time>2015-12-14T12:51:28.536Z</time>
      </trkpt>
      <trkpt lat="43.5791" lon="3.03873">
        <ele>167.9</ele>
        <time>2015-12-14T12:51:29.481Z</time>
      </trkpt>
      <trkpt lat="43.57907" lon="3.0388">
        <ele>167.9</ele>
        <time>2015-12-14T12:51:30.534Z</time>
      </trkpt>
      <trkpt lat="43.57906" lon="3.03886">
        <ele>168</ele>
        <time>2015-12-14T12:51:31.487Z</time>
      </trkpt>
      <trkpt lat="43.57904" lon="3.03896">
        <ele>167.8</ele>
        <time>2015-12-14T12:51:33.535Z</time>
      </trkpt>
      <trkpt lat="43.57904" lon="3.03901">
        <ele>167.8</ele>
        <time>2015-12-14T12:51:34.476Z</time>
      </trkpt>
      <trkpt lat="43.57901" lon="3.03907">
        <ele>167.8</ele>
        <time>2015-12-14T12:51:35.515Z</time>
      </trkpt>
      <trkpt lat="43.579" lon="3.03912">
        <ele>167.7</ele>
        <time>2015-12-14T12:51:36.483Z</time>
      </trkpt>
      <trkpt lat="43.57897" lon="3.03921">
        <ele>167.4</ele>
        <time>2015-12-14T12:51:38.518Z</time>
      </trkpt>
      <trkpt lat="43.57898" lon="3.03925">
        <ele>167.3</ele>
        <time>2015-12-14T12:51:39.476Z</time>
      </trkpt>
      <trkpt lat="43.57896" lon="3.03935">
        <ele>167.4</ele>
        <time>2015-12-14T12:51:41.518Z</time>
      </trkpt>
      <trkpt lat="43.57895" lon="3.03938">
        <ele>167.5</ele>
        <time>2015-12-14T12:51:42.485Z</time>
      </trkpt>
      <trkpt lat="43.57892" lon="3.03949">
        <ele>168</ele>
        <time>2015-12-14T12:51:45.513Z</time>
      </trkpt>
      <trkpt lat="43.57892" lon="3.03952">
        <ele>168</ele>
        <time>2015-12-14T12:51:46.480Z</time>
      </trkpt>
      <trkpt lat="43.5789" lon="3.03961">
        <ele>167.8</ele>
        <time>2015-12-14T12:51:48.536Z</time>
      </trkpt>
      <trkpt lat="43.57889" lon="3.03964">
        <ele>168.1</ele>
        <time>2015-12-14T12:51:49.486Z</time>
      </trkpt>
      <trkpt lat="43.57886" lon="3.03975">
        <ele>168.3</ele>
        <time>2015-12-14T12:51:52.512Z</time>
      </trkpt>
      <trkpt lat="43.57884" lon="3.03979">
        <ele>168.7</ele>
        <time>2015-12-14T12:51:53.481Z</time>
      </trkpt>
      <trkpt lat="43.5788" lon="3.03987">
        <ele>168.9</ele>
        <time>2015-12-14T12:51:55.534Z</time>
      </trkpt>
      <trkpt lat="43.57878" lon="3.0399">
        <ele>169.4</ele>
        <time>2015-12-14T12:51:56.496Z</time>
      </trkpt>
      <trkpt lat="43.57876" lon="3.04002">
        <ele>171.3</ele>
        <time>2015-12-14T12:52:00.551Z</time>
      </trkpt>
      <trkpt lat="43.57875" lon="3.04006">
        <ele>171.8</ele>
        <time>2015-12-14T12:52:01.478Z</time>
      </trkpt>
      <trkpt lat="43.5788" lon="3.04015">
        <ele>173.6</ele>
        <time>2015-12-14T12:52:05.527Z</time>
      </trkpt>
      <trkpt lat="43.57881" lon="3.04017">
        <ele>173.8</ele>
        <time>2015-12-14T12:52:06.488Z</time>
      </trkpt>
      <trkpt lat="43.57883" lon="3.04029">
        <ele>173.4</ele>
        <time>2015-12-14T12:52:09.526Z</time>
      </trkpt>
      <trkpt lat="43.57883" lon="3.04033">
        <ele>173.5</ele>
        <time>2015-12-14T12:52:10.495Z</time>
      </trkpt>
      <trkpt lat="43.57883" lon="3.04044">
        <ele>173.8</ele>
        <time>2015-12-14T12:52:13.509Z</time>
      </trkpt>
      <trkpt lat="43.57882" lon="3.04048">
        <ele>173.9</ele>
        <time>2015-12-14T12:52:14.491Z</time>
      </trkpt>
      <trkpt lat="43.57878" lon="3.04057">
        <ele>173.7</ele>
        <time>2015-12-14T12:52:17.511Z</time>
      </trkpt>
      <trkpt lat="43.57876" lon="3.04058">
        <ele>174</ele>
        <time>2015-12-14T12:52:18.481Z</time>
      </trkpt>
      <trkpt lat="43.57869" lon="3.04063">
        <ele>173.9</ele>
        <time>2015-12-14T12:52:21.906Z</time>
      </trkpt>
      <trkpt lat="43.57866" lon="3.04065">
        <ele>174</ele>
        <time>2015-12-14T12:52:22.483Z</time>
      </trkpt>
      <trkpt lat="43.57859" lon="3.0407">
        <ele>173.9</ele>
        <time>2015-12-14T12:52:25.531Z</time>
      </trkpt>
      <trkpt lat="43.57856" lon="3.04071">
        <ele>173.7</ele>
        <time>2015-12-14T12:52:26.493Z</time>
      </trkpt>
      <trkpt lat="43.57851" lon="3.04076">
        <ele>173.3</ele>
        <time>2015-12-14T12:52:28.510Z</time>
      </trkpt>
      <trkpt lat="43.57849" lon="3.0408">
        <ele>173.2</ele>
        <time>2015-12-14T12:52:29.482Z</time>
      </trkpt>
      <trkpt lat="43.57845" lon="3.04089">
        <ele>172.8</ele>
        <time>2015-12-14T12:52:31.538Z</time>
      </trkpt>
      <trkpt lat="43.57844" lon="3.04093">
        <ele>172.7</ele>
        <time>2015-12-14T12:52:32.487Z</time>
      </trkpt>
      <trkpt lat="43.57841" lon="3.04103">
        <ele>172.5</ele>
        <time>2015-12-14T12:52:34.544Z</time>
      </trkpt>
      <trkpt lat="43.5784" lon="3.04107">
        <ele>172.3</ele>
        <time>2015-12-14T12:52:35.484Z</time>
      </trkpt>
      <trkpt lat="43.57837" lon="3.04115">
        <ele>172</ele>
        <time>2015-12-14T12:52:37.530Z</time>
      </trkpt>
      <trkpt lat="43.57836" lon="3.0412">
        <ele>171.9</ele>
        <time>2015-12-14T12:52:38.499Z</time>
      </trkpt>
      <trkpt lat="43.57832" lon="3.0413">
        <ele>172</ele>
        <time>2015-12-14T12:52:40.520Z</time>
      </trkpt>
      <trkpt lat="43.5783" lon="3.04135">
        <ele>172</ele>
        <time>2015-12-14T12:52:41.481Z</time>
      </trkpt>
      <trkpt lat="43.57828" lon="3.04144">
        <ele>171.8</ele>
        <time>2015-12-14T12:52:43.512Z</time>
      </trkpt>
      <trkpt lat="43.57827" lon="3.04148">
        <ele>171.6</ele>
        <time>2015-12-14T12:52:44.486Z</time>
      </trkpt>
      <trkpt lat="43.57824" lon="3.04157">
        <ele>171.6</ele>
        <time>2015-12-14T12:52:46.554Z</time>
      </trkpt>
      <trkpt lat="43.57823" lon="3.04162">
        <ele>171.6</ele>
        <time>2015-12-14T12:52:47.476Z</time>
      </trkpt>
      <trkpt lat="43.57819" lon="3.04172">
        <ele>171.5</ele>
        <time>2015-12-14T12:52:49.512Z</time>
      </trkpt>
      <trkpt lat="43.57818" lon="3.04178">
        <ele>171.3</ele>
        <time>2015-12-14T12:52:50.480Z</time>
      </trkpt>
      <trkpt lat="43.57815" lon="3.04187">
        <ele>170.9</ele>
        <time>2015-12-14T12:52:52.518Z</time>
      </trkpt>
      <trkpt lat="43.57814" lon="3.04192">
        <ele>170.8</ele>
        <time>2015-12-14T12:52:53.476Z</time>
      </trkpt>
      <trkpt lat="43.57811" lon="3.04203">
        <ele>170.7</ele>
        <time>2015-12-14T12:52:55.520Z</time>
      </trkpt>
      <trkpt lat="43.5781" lon="3.04208">
        <ele>170.5</ele>
        <time>2015-12-14T12:52:56.486Z</time>
      </trkpt>
      <trkpt lat="43.57806" lon="3.04219">
        <ele>170.6</ele>
        <time>2015-12-14T12:52:58.513Z</time>
      </trkpt>
      <trkpt lat="43.57805" lon="3.04224">
        <ele>170.2</ele>
        <time>2015-12-14T12:52:59.481Z</time>
      </trkpt>
      <trkpt lat="43.57803" lon="3.04234">
        <ele>169.9</ele>
        <time>2015-12-14T12:53:01.526Z</time>
      </trkpt>
      <trkpt lat="43.57802" lon="3.04239">
        <ele>169.8</ele>
        <time>2015-12-14T12:53:02.483Z</time>
      </trkpt>
      <trkpt lat="43.578" lon="3.04244">
        <ele>169.9</ele>
        <time>2015-12-14T12:53:03.517Z</time>
      </trkpt>
      <trkpt lat="43.57798" lon="3.0425">
        <ele>170.5</ele>
        <time>2015-12-14T12:53:04.483Z</time>
      </trkpt>
      <trkpt lat="43.57796" lon="3.04256">
        <ele>171.1</ele>
        <time>2015-12-14T12:53:05.515Z</time>
      </trkpt>
      <trkpt lat="43.57795" lon="3.04263">
        <ele>171.2</ele>
        <time>2015-12-14T12:53:06.481Z</time>
      </trkpt>
      <trkpt lat="43.57793" lon="3.04268">
        <ele>171.8</ele>
        <time>2015-12-14T12:53:07.558Z</time>
      </trkpt>
      <trkpt lat="43.57791" lon="3.04274">
        <ele>172</ele>
        <time>2015-12-14T12:53:08.485Z</time>
      </trkpt>
      <trkpt lat="43.57788" lon="3.04284">
        <ele>172.4</ele>
        <time>2015-12-14T12:53:10.551Z</time>
      </trkpt>
      <trkpt lat="43.57787" lon="3.04289">
        <ele>172.7</ele>
        <time>2015-12-14T12:53:11.480Z</time>
      </trkpt>
      <trkpt lat="43.57784" lon="3.04298">
        <ele>173.1</ele>
        <time>2015-12-14T12:53:13.519Z</time>
      </trkpt>
      <trkpt lat="43.57784" lon="3.04303">
        <ele>172.9</ele>
        <time>2015-12-14T12:53:14.476Z</time>
      </trkpt>
      <trkpt lat="43.57781" lon="3.04313">
        <ele>173</ele>
        <time>2015-12-14T12:53:16.535Z</time>
      </trkpt>
      <trkpt lat="43.5778" lon="3.04318">
        <ele>173.1</ele>
        <time>2015-12-14T12:53:17.485Z</time>
      </trkpt>
      <trkpt lat="43.57777" lon="3.04324">
        <ele>173.4</ele>
        <time>2015-12-14T12:53:18.542Z</time>
      </trkpt>
      <trkpt lat="43.57775" lon="3.04331">
        <ele>173.8</ele>
        <time>2015-12-14T12:53:19.487Z</time>
      </trkpt>
      <trkpt lat="43.57773" lon="3.04337">
        <ele>174.1</ele>
        <time>2015-12-14T12:53:20.549Z</time>
      </trkpt>
      <trkpt lat="43.57772" lon="3.04342">
        <ele>174.3</ele>
        <time>2015-12-14T12:53:21.482Z</time>
      </trkpt>
      <trkpt lat="43.57768" lon="3.04352">
        <ele>174.5</ele>
        <time>2015-12-14T12:53:23.512Z</time>
      </trkpt>
      <trkpt lat="43.57766" lon="3.04358">
        <ele>174.3</ele>
        <time>2015-12-14T12:53:24.482Z</time>
      </trkpt>
      <trkpt lat="43.57764" lon="3.04363">
        <ele>174.5</ele>
        <time>2015-12-14T12:53:25.528Z</time>
      </trkpt>
      <trkpt lat="43.57762" lon="3.04369">
        <ele>174.7</ele>
        <time>2015-12-14T12:53:26.484Z</time>
      </trkpt>
      <trkpt lat="43.5776" lon="3.04379">
        <ele>175</ele>
        <time>2015-12-14T12:53:28.529Z</time>
      </trkpt>
      <trkpt lat="43.57758" lon="3.04385">
        <ele>175.1</ele>
        <time>2015-12-14T12:53:29.483Z</time>
      </trkpt>
      <trkpt lat="43.57756" lon="3.04395">
        <ele>175.2</ele>
        <time>2015-12-14T12:53:31.512Z</time>
      </trkpt>
      <trkpt lat="43.57755" lon="3.04401">
        <ele>175.4</ele>
        <time>2015-12-14T12:53:32.481Z</time>
      </trkpt>
      <trkpt lat="43.57753" lon="3.0441">
        <ele>175.6</ele>
        <time>2015-12-14T12:53:34.530Z</time>
      </trkpt>
      <trkpt lat="43.57751" lon="3.04415">
        <ele>175.6</ele>
        <time>2015-12-14T12:53:35.484Z</time>
      </trkpt>
      <trkpt lat="43.57751" lon="3.04425">
        <ele>175.7</ele>
        <time>2015-12-14T12:53:37.512Z</time>
      </trkpt>
      <trkpt lat="43.5775" lon="3.0443">
        <ele>175.7</ele>
        <time>2015-12-14T12:53:38.481Z</time>
      </trkpt>
      <trkpt lat="43.57746" lon="3.04441">
        <ele>176</ele>
        <time>2015-12-14T12:53:40.517Z</time>
      </trkpt>
      <trkpt lat="43.57745" lon="3.04446">
        <ele>176.1</ele>
        <time>2015-12-14T12:53:41.485Z</time>
      </trkpt>
      <trkpt lat="43.57743" lon="3.04451">
        <ele>176.5</ele>
        <time>2015-12-14T12:53:42.518Z</time>
      </trkpt>
      <trkpt lat="43.5774" lon="3.04458">
        <ele>176.8</ele>
        <time>2015-12-14T12:53:43.482Z</time>
      </trkpt>
      <trkpt lat="43.57737" lon="3.04468">
        <ele>176.9</ele>
        <time>2015-12-14T12:53:45.512Z</time>
      </trkpt>
      <trkpt lat="43.57735" lon="3.04473">
        <ele>177</ele>
        <time>2015-12-14T12:53:46.486Z</time>
      </trkpt>
      <trkpt lat="43.57734" lon="3.04478">
        <ele>177</ele>
        <time>2015-12-14T12:53:47.757Z</time>
      </trkpt>
      <trkpt lat="43.57731" lon="3.04484">
        <ele>177.3</ele>
        <time>2015-12-14T12:53:48.475Z</time>
      </trkpt>
      <trkpt lat="43.57727" lon="3.04495">
        <ele>177.6</ele>
        <time>2015-12-14T12:53:50.522Z</time>
      </trkpt>
      <trkpt lat="43.57726" lon="3.04501">
        <ele>177.6</ele>
        <time>2015-12-14T12:53:51.481Z</time>
      </trkpt>
      <trkpt lat="43.57724" lon="3.04511">
        <ele>177.5</ele>
        <time>2015-12-14T12:53:53.519Z</time>
      </trkpt>
      <trkpt lat="43.57722" lon="3.04517">
        <ele>177.5</ele>
        <time>2015-12-14T12:53:54.476Z</time>
      </trkpt>
      <trkpt lat="43.57719" lon="3.04523">
        <ele>177.7</ele>
        <time>2015-12-14T12:53:55.546Z</time>
      </trkpt>
      <trkpt lat="43.57717" lon="3.04529">
        <ele>177.9</ele>
        <time>2015-12-14T12:53:56.476Z</time>
      </trkpt>
      <trkpt lat="43.57715" lon="3.04535">
        <ele>178</ele>
        <time>2015-12-14T12:53:57.541Z</time>
      </trkpt>
      <trkpt lat="43.57714" lon="3.04541">
        <ele>178</ele>
        <time>2015-12-14T12:53:58.486Z</time>
      </trkpt>
      <trkpt lat="43.57712" lon="3.04547">
        <ele>178</ele>
        <time>2015-12-14T12:53:59.546Z</time>
      </trkpt>
      <trkpt lat="43.5771" lon="3.04553">
        <ele>178.2</ele>
        <time>2015-12-14T12:54:00.486Z</time>
      </trkpt>
      <trkpt lat="43.57708" lon="3.04559">
        <ele>178.4</ele>
        <time>2015-12-14T12:54:01.521Z</time>
      </trkpt>
      <trkpt lat="43.57706" lon="3.04566">
        <ele>178.6</ele>
        <time>2015-12-14T12:54:02.481Z</time>
      </trkpt>
      <trkpt lat="43.57705" lon="3.04577">
        <ele>178.7</ele>
        <time>2015-12-14T12:54:04.515Z</time>
      </trkpt>
      <trkpt lat="43.57704" lon="3.04583">
        <ele>178.6</ele>
        <time>2015-12-14T12:54:05.485Z</time>
      </trkpt>
      <trkpt lat="43.57702" lon="3.04594">
        <ele>178.5</ele>
        <time>2015-12-14T12:54:07.539Z</time>
      </trkpt>
      <trkpt lat="43.57701" lon="3.04601">
        <ele>178.4</ele>
        <time>2015-12-14T12:54:08.485Z</time>
      </trkpt>
      <trkpt lat="43.577" lon="3.04613">
        <ele>178.3</ele>
        <time>2015-12-14T12:54:10.840Z</time>
      </trkpt>
      <trkpt lat="43.57699" lon="3.04618">
        <ele>178.2</ele>
        <time>2015-12-14T12:54:11.475Z</time>
      </trkpt>
      <trkpt lat="43.57697" lon="3.04629">
        <ele>178.2</ele>
        <time>2015-12-14T12:54:13.519Z</time>
      </trkpt>
      <trkpt lat="43.57696" lon="3.04635">
        <ele>178.1</ele>
        <time>2015-12-14T12:54:14.480Z</time>
      </trkpt>
      <trkpt lat="43.57696" lon="3.04646">
        <ele>177.6</ele>
        <time>2015-12-14T12:54:16.532Z</time>
      </trkpt>
      <trkpt lat="43.57696" lon="3.04652">
        <ele>177.3</ele>
        <time>2015-12-14T12:54:17.482Z</time>
      </trkpt>
      <trkpt lat="43.57696" lon="3.04658">
        <ele>176.7</ele>
        <time>2015-12-14T12:54:18.929Z</time>
      </trkpt>
      <trkpt lat="43.57695" lon="3.04664">
        <ele>176.4</ele>
        <time>2015-12-14T12:54:19.484Z</time>
      </trkpt>
      <trkpt lat="43.57694" lon="3.0467">
        <ele>176.1</ele>
        <time>2015-12-14T12:54:20.510Z</time>
      </trkpt>
      <trkpt lat="43.57693" lon="3.04677">
        <ele>175.9</ele>
        <time>2015-12-14T12:54:21.474Z</time>
      </trkpt>
      <trkpt lat="43.57692" lon="3.04683">
        <ele>175.7</ele>
        <time>2015-12-14T12:54:22.517Z</time>
      </trkpt>
      <trkpt lat="43.57692" lon="3.04689">
        <ele>175.4</ele>
        <time>2015-12-14T12:54:23.487Z</time>
      </trkpt>
      <trkpt lat="43.57692" lon="3.04696">
        <ele>175.2</ele>
        <time>2015-12-14T12:54:24.529Z</time>
      </trkpt>
      <trkpt lat="43.57692" lon="3.04702">
        <ele>175</ele>
        <time>2015-12-14T12:54:25.481Z</time>
      </trkpt>
      <trkpt lat="43.57691" lon="3.04714">
        <ele>174.5</ele>
        <time>2015-12-14T12:54:27.521Z</time>
      </trkpt>
      <trkpt lat="43.57691" lon="3.0472">
        <ele>174.3</ele>
        <time>2015-12-14T12:54:28.484Z</time>
      </trkpt>
      <trkpt lat="43.5769" lon="3.04727">
        <ele>174.2</ele>
        <time>2015-12-14T12:54:29.512Z</time>
      </trkpt>
      <trkpt lat="43.5769" lon="3.04734">
        <ele>174.1</ele>
        <time>2015-12-14T12:54:30.483Z</time>
      </trkpt>
      <trkpt lat="43.57689" lon="3.0474">
        <ele>174.1</ele>
        <time>2015-12-14T12:54:31.517Z</time>
      </trkpt>
      <trkpt lat="43.57688" lon="3.04746">
        <ele>173.9</ele>
        <time>2015-12-14T12:54:32.480Z</time>
      </trkpt>
      <trkpt lat="43.57689" lon="3.04753">
        <ele>173.9</ele>
        <time>2015-12-14T12:54:33.533Z</time>
      </trkpt>
      <trkpt lat="43.57689" lon="3.04759">
        <ele>173.7</ele>
        <time>2015-12-14T12:54:34.491Z</time>
      </trkpt>
      <trkpt lat="43.57688" lon="3.04771">
        <ele>173.6</ele>
        <time>2015-12-14T12:54:36.512Z</time>
      </trkpt>
      <trkpt lat="43.57688" lon="3.04777">
        <ele>173.6</ele>
        <time>2015-12-14T12:54:37.481Z</time>
      </trkpt>
      <trkpt lat="43.57688" lon="3.04784">
        <ele>173.7</ele>
        <time>2015-12-14T12:54:38.525Z</time>
      </trkpt>
      <trkpt lat="43.57687" lon="3.0479">
        <ele>173.6</ele>
        <time>2015-12-14T12:54:39.481Z</time>
      </trkpt>
      <trkpt lat="43.57687" lon="3.04802">
        <ele>173.5</ele>
        <time>2015-12-14T12:54:41.540Z</time>
      </trkpt>
      <trkpt lat="43.57686" lon="3.04808">
        <ele>173.6</ele>
        <time>2015-12-14T12:54:42.488Z</time>
      </trkpt>
      <trkpt lat="43.57688" lon="3.0482">
        <ele>173.6</ele>
        <time>2015-12-14T12:54:44.542Z</time>
      </trkpt>
      <trkpt lat="43.57688" lon="3.04826">
        <ele>173.5</ele>
        <time>2015-12-14T12:54:45.485Z</time>
      </trkpt>
      <trkpt lat="43.57689" lon="3.04837">
        <ele>173.6</ele>
        <time>2015-12-14T12:54:47.532Z</time>
      </trkpt>
      <trkpt lat="43.5769" lon="3.04843">
        <ele>173.6</ele>
        <time>2015-12-14T12:54:48.488Z</time>
      </trkpt>
      <trkpt lat="43.57692" lon="3.0485">
        <ele>173.6</ele>
        <time>2015-12-14T12:54:49.526Z</time>
      </trkpt>
      <trkpt lat="43.57697" lon="3.04855">
        <ele>174.1</ele>
        <time>2015-12-14T12:54:50.481Z</time>
      </trkpt>
      <trkpt lat="43.577" lon="3.04862">
        <ele>174.4</ele>
        <time>2015-12-14T12:54:51.515Z</time>
      </trkpt>
      <trkpt lat="43.57702" lon="3.04868">
        <ele>174.6</ele>
        <time>2015-12-14T12:54:52.482Z</time>
      </trkpt>
      <trkpt lat="43.57704" lon="3.04879">
        <ele>174.6</ele>
        <time>2015-12-14T12:54:54.534Z</time>
      </trkpt>
      <trkpt lat="43.57705" lon="3.04885">
        <ele>174.4</ele>
        <time>2015-12-14T12:54:55.483Z</time>
      </trkpt>
      <trkpt lat="43.57707" lon="3.04896">
        <ele>174.5</ele>
        <time>2015-12-14T12:54:57.511Z</time>
      </trkpt>
      <trkpt lat="43.57709" lon="3.04901">
        <ele>174.6</ele>
        <time>2015-12-14T12:54:58.482Z</time>
      </trkpt>
      <trkpt lat="43.57711" lon="3.04912">
        <ele>174.7</ele>
        <time>2015-12-14T12:55:00.531Z</time>
      </trkpt>
      <trkpt lat="43.57712" lon="3.04918">
        <ele>174.8</ele>
        <time>2015-12-14T12:55:01.477Z</time>
      </trkpt>
      <trkpt lat="43.57715" lon="3.04929">
        <ele>174.8</ele>
        <time>2015-12-14T12:55:03.538Z</time>
      </trkpt>
      <trkpt lat="43.57716" lon="3.04935">
        <ele>174.9</ele>
        <time>2015-12-14T12:55:04.489Z</time>
      </trkpt>
      <trkpt lat="43.57719" lon="3.04946">
        <ele>175.3</ele>
        <time>2015-12-14T12:55:06.525Z</time>
      </trkpt>
      <trkpt lat="43.57721" lon="3.04951">
        <ele>175.6</ele>
        <time>2015-12-14T12:55:07.489Z</time>
      </trkpt>
      <trkpt lat="43.57725" lon="3.04963">
        <ele>176</ele>
        <time>2015-12-14T12:55:09.523Z</time>
      </trkpt>
      <trkpt lat="43.57727" lon="3.04969">
        <ele>175.9</ele>
        <time>2015-12-14T12:55:10.484Z</time>
      </trkpt>
      <trkpt lat="43.57732" lon="3.04979">
        <ele>176.1</ele>
        <time>2015-12-14T12:55:12.525Z</time>
      </trkpt>
      <trkpt lat="43.57735" lon="3.04984">
        <ele>176</ele>
        <time>2015-12-14T12:55:13.479Z</time>
      </trkpt>
      <trkpt lat="43.57736" lon="3.0499">
        <ele>176.3</ele>
        <time>2015-12-14T12:55:14.535Z</time>
      </trkpt>
      <trkpt lat="43.57738" lon="3.04996">
        <ele>176.4</ele>
        <time>2015-12-14T12:55:15.488Z</time>
      </trkpt>
      <trkpt lat="43.5774" lon="3.05002">
        <ele>176.6</ele>
        <time>2015-12-14T12:55:16.513Z</time>
      </trkpt>
      <trkpt lat="43.57742" lon="3.05007">
        <ele>176.7</ele>
        <time>2015-12-14T12:55:17.479Z</time>
      </trkpt>
      <trkpt lat="43.57745" lon="3.05018">
        <ele>177.4</ele>
        <time>2015-12-14T12:55:19.526Z</time>
      </trkpt>
      <trkpt lat="43.57747" lon="3.05023">
        <ele>177.8</ele>
        <time>2015-12-14T12:55:20.493Z</time>
      </trkpt>
      <trkpt lat="43.57751" lon="3.05034">
        <ele>178.7</ele>
        <time>2015-12-14T12:55:22.515Z</time>
      </trkpt>
      <trkpt lat="43.57753" lon="3.0504">
        <ele>179.5</ele>
        <time>2015-12-14T12:55:23.481Z</time>
      </trkpt>
      <trkpt lat="43.57756" lon="3.05051">
        <ele>180.5</ele>
        <time>2015-12-14T12:55:25.543Z</time>
      </trkpt>
      <trkpt lat="43.57759" lon="3.05056">
        <ele>181</ele>
        <time>2015-12-14T12:55:26.486Z</time>
      </trkpt>
      <trkpt lat="43.57763" lon="3.05066">
        <ele>181.5</ele>
        <time>2015-12-14T12:55:28.529Z</time>
      </trkpt>
      <trkpt lat="43.57766" lon="3.05071">
        <ele>181.7</ele>
        <time>2015-12-14T12:55:29.484Z</time>
      </trkpt>
      <trkpt lat="43.57769" lon="3.05076">
        <ele>181.8</ele>
        <time>2015-12-14T12:55:30.513Z</time>
      </trkpt>
      <trkpt lat="43.57771" lon="3.05082">
        <ele>182.3</ele>
        <time>2015-12-14T12:55:31.482Z</time>
      </trkpt>
      <trkpt lat="43.57774" lon="3.05087">
        <ele>182.3</ele>
        <time>2015-12-14T12:55:32.512Z</time>
      </trkpt>
      <trkpt lat="43.57777" lon="3.05091">
        <ele>182.7</ele>
        <time>2015-12-14T12:55:33.488Z</time>
      </trkpt>
      <trkpt lat="43.57779" lon="3.05096">
        <ele>183.1</ele>
        <time>2015-12-14T12:55:34.519Z</time>
      </trkpt>
      <trkpt lat="43.57782" lon="3.05101">
        <ele>183.4</ele>
        <time>2015-12-14T12:55:35.481Z</time>
      </trkpt>
      <trkpt lat="43.57784" lon="3.05107">
        <ele>184.2</ele>
        <time>2015-12-14T12:55:36.520Z</time>
      </trkpt>
      <trkpt lat="43.57787" lon="3.05112">
        <ele>184.8</ele>
        <time>2015-12-14T12:55:37.483Z</time>
      </trkpt>
      <trkpt lat="43.57792" lon="3.05122">
        <ele>185.6</ele>
        <time>2015-12-14T12:55:39.525Z</time>
      </trkpt>
      <trkpt lat="43.57794" lon="3.05128">
        <ele>186</ele>
        <time>2015-12-14T12:55:40.479Z</time>
      </trkpt>
      <trkpt lat="43.57797" lon="3.05132">
        <ele>186.4</ele>
        <time>2015-12-14T12:55:41.535Z</time>
      </trkpt>
      <trkpt lat="43.57802" lon="3.05137">
        <ele>186.7</ele>
        <time>2015-12-14T12:55:42.488Z</time>
      </trkpt>
      <trkpt lat="43.57807" lon="3.05147">
        <ele>187.6</ele>
        <time>2015-12-14T12:55:44.532Z</time>
      </trkpt>
      <trkpt lat="43.57809" lon="3.05153">
        <ele>188.1</ele>
        <time>2015-12-14T12:55:45.484Z</time>
      </trkpt>
      <trkpt lat="43.57814" lon="3.05162">
        <ele>188.7</ele>
        <time>2015-12-14T12:55:47.517Z</time>
      </trkpt>
      <trkpt lat="43.57817" lon="3.05167">
        <ele>189.1</ele>
        <time>2015-12-14T12:55:48.479Z</time>
      </trkpt>
      <trkpt lat="43.57822" lon="3.05177">
        <ele>189.2</ele>
        <time>2015-12-14T12:55:50.537Z</time>
      </trkpt>
      <trkpt lat="43.57825" lon="3.05182">
        <ele>189.6</ele>
        <time>2015-12-14T12:55:51.483Z</time>
      </trkpt>
      <trkpt lat="43.57827" lon="3.05188">
        <ele>190</ele>
        <time>2015-12-14T12:55:52.556Z</time>
      </trkpt>
      <trkpt lat="43.5783" lon="3.05193">
        <ele>190.1</ele>
        <time>2015-12-14T12:55:53.481Z</time>
      </trkpt>
      <trkpt lat="43.57832" lon="3.05198">
        <ele>190.5</ele>
        <time>2015-12-14T12:55:54.509Z</time>
      </trkpt>
      <trkpt lat="43.57834" lon="3.05204">
        <ele>190.4</ele>
        <time>2015-12-14T12:55:55.830Z</time>
      </trkpt>
      <trkpt lat="43.57837" lon="3.05214">
        <ele>191.5</ele>
        <time>2015-12-14T12:55:57.535Z</time>
      </trkpt>
      <trkpt lat="43.57839" lon="3.05219">
        <ele>192.1</ele>
        <time>2015-12-14T12:55:58.485Z</time>
      </trkpt>
      <trkpt lat="43.57844" lon="3.05228">
        <ele>192.9</ele>
        <time>2015-12-14T12:56:00.516Z</time>
      </trkpt>
      <trkpt lat="43.57845" lon="3.05234">
        <ele>193.4</ele>
        <time>2015-12-14T12:56:01.483Z</time>
      </trkpt>
      <trkpt lat="43.5785" lon="3.05243">
        <ele>193.8</ele>
        <time>2015-12-14T12:56:03.530Z</time>
      </trkpt>
      <trkpt lat="43.57852" lon="3.05248">
        <ele>193.3</ele>
        <time>2015-12-14T12:56:04.490Z</time>
      </trkpt>
      <trkpt lat="43.57857" lon="3.05258">
        <ele>192.9</ele>
        <time>2015-12-14T12:56:06.509Z</time>
      </trkpt>
      <trkpt lat="43.57858" lon="3.05264">
        <ele>193.1</ele>
        <time>2015-12-14T12:56:07.482Z</time>
      </trkpt>
      <trkpt lat="43.57862" lon="3.05274">
        <ele>192.6</ele>
        <time>2015-12-14T12:56:09.504Z</time>
      </trkpt>
      <trkpt lat="43.57863" lon="3.0528">
        <ele>192.8</ele>
        <time>2015-12-14T12:56:10.486Z</time>
      </trkpt>
      <trkpt lat="43.57865" lon="3.05285">
        <ele>193</ele>
        <time>2015-12-14T12:56:11.547Z</time>
      </trkpt>
      <trkpt lat="43.57869" lon="3.05292">
        <ele>192.4</ele>
        <time>2015-12-14T12:56:12.487Z</time>
      </trkpt>
      <trkpt lat="43.57871" lon="3.05303">
        <ele>192.3</ele>
        <time>2015-12-14T12:56:14.651Z</time>
      </trkpt>
      <trkpt lat="43.57872" lon="3.05309">
        <ele>191.7</ele>
        <time>2015-12-14T12:56:15.481Z</time>
      </trkpt>
      <trkpt lat="43.57873" lon="3.05316">
        <ele>192</ele>
        <time>2015-12-14T12:56:16.516Z</time>
      </trkpt>
      <trkpt lat="43.57873" lon="3.05322">
        <ele>192.1</ele>
        <time>2015-12-14T12:56:17.481Z</time>
      </trkpt>
      <trkpt lat="43.57876" lon="3.05333">
        <ele>192.5</ele>
        <time>2015-12-14T12:56:19.539Z</time>
      </trkpt>
      <trkpt lat="43.57877" lon="3.05338">
        <ele>192.6</ele>
        <time>2015-12-14T12:56:20.492Z</time>
      </trkpt>
      <trkpt lat="43.57879" lon="3.05349">
        <ele>192.9</ele>
        <time>2015-12-14T12:56:22.863Z</time>
      </trkpt>
      <trkpt lat="43.57881" lon="3.05354">
        <ele>193.1</ele>
        <time>2015-12-14T12:56:23.481Z</time>
      </trkpt>
      <trkpt lat="43.57883" lon="3.05365">
        <ele>193.2</ele>
        <time>2015-12-14T12:56:25.545Z</time>
      </trkpt>
      <trkpt lat="43.57885" lon="3.05371">
        <ele>192.9</ele>
        <time>2015-12-14T12:56:26.488Z</time>
      </trkpt>
      <trkpt lat="43.57887" lon="3.05382">
        <ele>192.5</ele>
        <time>2015-12-14T12:56:28.529Z</time>
      </trkpt>
      <trkpt lat="43.57889" lon="3.05388">
        <ele>192.4</ele>
        <time>2015-12-14T12:56:29.485Z</time>
      </trkpt>
      <trkpt lat="43.5789" lon="3.05399">
        <ele>192.3</ele>
        <time>2015-12-14T12:56:31.757Z</time>
      </trkpt>
      <trkpt lat="43.57891" lon="3.05405">
        <ele>192.1</ele>
        <time>2015-12-14T12:56:32.475Z</time>
      </trkpt>
      <trkpt lat="43.57893" lon="3.05416">
        <ele>191.5</ele>
        <time>2015-12-14T12:56:34.520Z</time>
      </trkpt>
      <trkpt lat="43.57894" lon="3.05421">
        <ele>191.8</ele>
        <time>2015-12-14T12:56:35.482Z</time>
      </trkpt>
      <trkpt lat="43.57896" lon="3.05433">
        <ele>191.3</ele>
        <time>2015-12-14T12:56:37.512Z</time>
      </trkpt>
      <trkpt lat="43.57896" lon="3.05438">
        <ele>191.1</ele>
        <time>2015-12-14T12:56:38.484Z</time>
      </trkpt>
      <trkpt lat="43.57898" lon="3.0545">
        <ele>190.3</ele>
        <time>2015-12-14T12:56:40.511Z</time>
      </trkpt>
      <trkpt lat="43.579" lon="3.05456">
        <ele>188.5</ele>
        <time>2015-12-14T12:56:41.484Z</time>
      </trkpt>
      <trkpt lat="43.57903" lon="3.05467">
        <ele>187.1</ele>
        <time>2015-12-14T12:56:43.533Z</time>
      </trkpt>
      <trkpt lat="43.57904" lon="3.05473">
        <ele>186.1</ele>
        <time>2015-12-14T12:56:44.476Z</time>
      </trkpt>
      <trkpt lat="43.57906" lon="3.05485">
        <ele>185.3</ele>
        <time>2015-12-14T12:56:46.520Z</time>
      </trkpt>
      <trkpt lat="43.57907" lon="3.05491">
        <ele>184.5</ele>
        <time>2015-12-14T12:56:47.480Z</time>
      </trkpt>
      <trkpt lat="43.57909" lon="3.05502">
        <ele>183.5</ele>
        <time>2015-12-14T12:56:49.527Z</time>
      </trkpt>
      <trkpt lat="43.5791" lon="3.05507">
        <ele>183</ele>
        <time>2015-12-14T12:56:50.487Z</time>
      </trkpt>
      <trkpt lat="43.57911" lon="3.05518">
        <ele>182.3</ele>
        <time>2015-12-14T12:56:52.515Z</time>
      </trkpt>
      <trkpt lat="43.57912" lon="3.05523">
        <ele>182.1</ele>
        <time>2015-12-14T12:56:53.479Z</time>
      </trkpt>
      <trkpt lat="43.57915" lon="3.05534">
        <ele>181.2</ele>
        <time>2015-12-14T12:56:55.534Z</time>
      </trkpt>
      <trkpt lat="43.57916" lon="3.05539">
        <ele>180.9</ele>
        <time>2015-12-14T12:56:56.479Z</time>
      </trkpt>
      <trkpt lat="43.57917" lon="3.05551">
        <ele>180.4</ele>
        <time>2015-12-14T12:56:58.506Z</time>
      </trkpt>
      <trkpt lat="43.57917" lon="3.05556">
        <ele>180.2</ele>
        <time>2015-12-14T12:56:59.484Z</time>
      </trkpt>
      <trkpt lat="43.57918" lon="3.05563">
        <ele>179.9</ele>
        <time>2015-12-14T12:57:00.554Z</time>
      </trkpt>
      <trkpt lat="43.57919" lon="3.05569">
        <ele>179.4</ele>
        <time>2015-12-14T12:57:01.838Z</time>
      </trkpt>
      <trkpt lat="43.57922" lon="3.05581">
        <ele>178.6</ele>
        <time>2015-12-14T12:57:03.518Z</time>
      </trkpt>
      <trkpt lat="43.57922" lon="3.05586">
        <ele>178.1</ele>
        <time>2015-12-14T12:57:04.481Z</time>
      </trkpt>
      <trkpt lat="43.57924" lon="3.05597">
        <ele>177.3</ele>
        <time>2015-12-14T12:57:06.539Z</time>
      </trkpt>
      <trkpt lat="43.57925" lon="3.05602">
        <ele>176.9</ele>
        <time>2015-12-14T12:57:07.479Z</time>
      </trkpt>
      <trkpt lat="43.57927" lon="3.05613">
        <ele>176.4</ele>
        <time>2015-12-14T12:57:09.534Z</time>
      </trkpt>
      <trkpt lat="43.57927" lon="3.05619">
        <ele>176.3</ele>
        <time>2015-12-14T12:57:10.496Z</time>
      </trkpt>
      <trkpt lat="43.5793" lon="3.0563">
        <ele>176.3</ele>
        <time>2015-12-14T12:57:12.526Z</time>
      </trkpt>
      <trkpt lat="43.5793" lon="3.05636">
        <ele>176.4</ele>
        <time>2015-12-14T12:57:13.478Z</time>
      </trkpt>
      <trkpt lat="43.57932" lon="3.05642">
        <ele>176.5</ele>
        <time>2015-12-14T12:57:14.515Z</time>
      </trkpt>
      <trkpt lat="43.57934" lon="3.05648">
        <ele>176.6</ele>
        <time>2015-12-14T12:57:15.488Z</time>
      </trkpt>
      <trkpt lat="43.57937" lon="3.05653">
        <ele>176.5</ele>
        <time>2015-12-14T12:57:16.549Z</time>
      </trkpt>
      <trkpt lat="43.57939" lon="3.05658">
        <ele>176.3</ele>
        <time>2015-12-14T12:57:17.479Z</time>
      </trkpt>
      <trkpt lat="43.57942" lon="3.05668">
        <ele>176.1</ele>
        <time>2015-12-14T12:57:19.526Z</time>
      </trkpt>
      <trkpt lat="43.57946" lon="3.05673">
        <ele>176.3</ele>
        <time>2015-12-14T12:57:20.487Z</time>
      </trkpt>
      <trkpt lat="43.57949" lon="3.05683">
        <ele>176.5</ele>
        <time>2015-12-14T12:57:22.511Z</time>
      </trkpt>
      <trkpt lat="43.57952" lon="3.05688">
        <ele>176.8</ele>
        <time>2015-12-14T12:57:23.475Z</time>
      </trkpt>
      <trkpt lat="43.57956" lon="3.05698">
        <ele>177.5</ele>
        <time>2015-12-14T12:57:25.542Z</time>
      </trkpt>
      <trkpt lat="43.57958" lon="3.05703">
        <ele>177.3</ele>
        <time>2015-12-14T12:57:26.484Z</time>
      </trkpt>
      <trkpt lat="43.57962" lon="3.05712">
        <ele>177</ele>
        <time>2015-12-14T12:57:28.532Z</time>
      </trkpt>
      <trkpt lat="43.57964" lon="3.05717">
        <ele>177</ele>
        <time>2015-12-14T12:57:29.480Z</time>
      </trkpt>
      <trkpt lat="43.57968" lon="3.05727">
        <ele>177.1</ele>
        <time>2015-12-14T12:57:31.543Z</time>
      </trkpt>
      <trkpt lat="43.5797" lon="3.05731">
        <ele>177.2</ele>
        <time>2015-12-14T12:57:32.483Z</time>
      </trkpt>
      <trkpt lat="43.57973" lon="3.05741">
        <ele>178</ele>
        <time>2015-12-14T12:57:34.513Z</time>
      </trkpt>
      <trkpt lat="43.57975" lon="3.05745">
        <ele>178.1</ele>
        <time>2015-12-14T12:57:35.476Z</time>
      </trkpt>
      <trkpt lat="43.57977" lon="3.05755">
        <ele>178.8</ele>
        <time>2015-12-14T12:57:37.544Z</time>
      </trkpt>
      <trkpt lat="43.57978" lon="3.0576">
        <ele>179</ele>
        <time>2015-12-14T12:57:38.493Z</time>
      </trkpt>
      <trkpt lat="43.57982" lon="3.05769">
        <ele>179</ele>
        <time>2015-12-14T12:57:40.529Z</time>
      </trkpt>
      <trkpt lat="43.57984" lon="3.05774">
        <ele>179.2</ele>
        <time>2015-12-14T12:57:41.483Z</time>
      </trkpt>
      <trkpt lat="43.57987" lon="3.05783">
        <ele>179.5</ele>
        <time>2015-12-14T12:57:43.542Z</time>
      </trkpt>
      <trkpt lat="43.57989" lon="3.05787">
        <ele>179.8</ele>
        <time>2015-12-14T12:57:44.488Z</time>
      </trkpt>
      <trkpt lat="43.57994" lon="3.05796">
        <ele>180.1</ele>
        <time>2015-12-14T12:57:46.932Z</time>
      </trkpt>
      <trkpt lat="43.57996" lon="3.058">
        <ele>180.4</ele>
        <time>2015-12-14T12:57:47.478Z</time>
      </trkpt>
      <trkpt lat="43.57999" lon="3.05809">
        <ele>180.5</ele>
        <time>2015-12-14T12:57:49.532Z</time>
      </trkpt>
      <trkpt lat="43.58001" lon="3.05813">
        <ele>180.8</ele>
        <time>2015-12-14T12:57:50.481Z</time>
      </trkpt>
      <trkpt lat="43.58003" lon="3.05822">
        <ele>181.3</ele>
        <time>2015-12-14T12:57:52.520Z</time>
      </trkpt>
      <trkpt lat="43.58005" lon="3.05825">
        <ele>181.6</ele>
        <time>2015-12-14T12:57:53.484Z</time>
      </trkpt>
      <trkpt lat="43.58008" lon="3.05834">
        <ele>181.5</ele>
        <time>2015-12-14T12:57:55.545Z</time>
      </trkpt>
      <trkpt lat="43.58009" lon="3.05838">
        <ele>181.8</ele>
        <time>2015-12-14T12:57:56.482Z</time>
      </trkpt>
      <trkpt lat="43.58011" lon="3.05847">
        <ele>181.9</ele>
        <time>2015-12-14T12:57:58.514Z</time>
      </trkpt>
      <trkpt lat="43.58012" lon="3.05851">
        <ele>181.8</ele>
        <time>2015-12-14T12:57:59.490Z</time>
      </trkpt>
      <trkpt lat="43.58016" lon="3.05862">
        <ele>181.4</ele>
        <time>2015-12-14T12:58:02.533Z</time>
      </trkpt>
      <trkpt lat="43.58017" lon="3.05865">
        <ele>181.2</ele>
        <time>2015-12-14T12:58:03.479Z</time>
      </trkpt>
      <trkpt lat="43.58019" lon="3.05876">
        <ele>180.7</ele>
        <time>2015-12-14T12:58:08.506Z</time>
      </trkpt>
      <trkpt lat="43.58019" lon="3.05878">
        <ele>180.6</ele>
        <time>2015-12-14T12:58:09.488Z</time>
      </trkpt>
      <trkpt lat="43.58022" lon="3.05888">
        <ele>180.6</ele>
        <time>2015-12-14T12:58:14.531Z</time>
      </trkpt>
      <trkpt lat="43.58023" lon="3.0589">
        <ele>180.7</ele>
        <time>2015-12-14T12:58:15.484Z</time>
      </trkpt>
      <trkpt lat="43.58028" lon="3.05899">
        <ele>180.1</ele>
        <time>2015-12-14T12:58:22.511Z</time>
      </trkpt>
      <trkpt lat="43.58028" lon="3.05902">
        <ele>180.3</ele>
        <time>2015-12-14T12:58:23.481Z</time>
      </trkpt>
      <trkpt lat="43.5803" lon="3.05912">
        <ele>180</ele>
        <time>2015-12-14T12:58:26.513Z</time>
      </trkpt>
      <trkpt lat="43.58031" lon="3.05917">
        <ele>179.7</ele>
        <time>2015-12-14T12:58:27.479Z</time>
      </trkpt>
      <trkpt lat="43.58032" lon="3.05926">
        <ele>179.8</ele>
        <time>2015-12-14T12:58:29.529Z</time>
      </trkpt>
      <trkpt lat="43.58033" lon="3.05931">
        <ele>179.6</ele>
        <time>2015-12-14T12:58:30.479Z</time>
      </trkpt>
      <trkpt lat="43.58034" lon="3.05941">
        <ele>179.4</ele>
        <time>2015-12-14T12:58:32.530Z</time>
      </trkpt>
      <trkpt lat="43.58035" lon="3.05946">
        <ele>179.2</ele>
        <time>2015-12-14T12:58:33.487Z</time>
      </trkpt>
      <trkpt lat="43.58037" lon="3.05955">
        <ele>179.2</ele>
        <time>2015-12-14T12:58:36.111Z</time>
      </trkpt>
      <trkpt lat="43.58038" lon="3.05959">
        <ele>179.3</ele>
        <time>2015-12-14T12:58:36.481Z</time>
      </trkpt>
      <trkpt lat="43.58041" lon="3.05969">
        <ele>179.6</ele>
        <time>2015-12-14T12:58:38.514Z</time>
      </trkpt>
      <trkpt lat="43.58042" lon="3.05974">
        <ele>179.5</ele>
        <time>2015-12-14T12:58:39.476Z</time>
      </trkpt>
      <trkpt lat="43.58044" lon="3.05982">
        <ele>179.8</ele>
        <time>2015-12-14T12:58:41.522Z</time>
      </trkpt>
      <trkpt lat="43.58047" lon="3.05987">
        <ele>179.9</ele>
        <time>2015-12-14T12:58:42.486Z</time>
      </trkpt>
      <trkpt lat="43.58047" lon="3.05992">
        <ele>179.9</ele>
        <time>2015-12-14T12:58:43.925Z</time>
      </trkpt>
      <trkpt lat="43.58038" lon="3.06004">
        <ele>179.3</ele>
        <time>2015-12-14T12:58:44.479Z</time>
      </trkpt>
      <trkpt lat="43.5804" lon="3.06009">
        <ele>179</ele>
        <time>2015-12-14T12:58:45.514Z</time>
      </trkpt>
      <trkpt lat="43.58042" lon="3.06016">
        <ele>178.9</ele>
        <time>2015-12-14T12:58:46.484Z</time>
      </trkpt>
      <trkpt lat="43.58045" lon="3.06021">
        <ele>178.7</ele>
        <time>2015-12-14T12:58:47.511Z</time>
      </trkpt>
      <trkpt lat="43.58047" lon="3.06027">
        <ele>178.7</ele>
        <time>2015-12-14T12:58:48.486Z</time>
      </trkpt>
      <trkpt lat="43.58051" lon="3.06038">
        <ele>178.7</ele>
        <time>2015-12-14T12:58:50.531Z</time>
      </trkpt>
      <trkpt lat="43.58054" lon="3.06044">
        <ele>178.6</ele>
        <time>2015-12-14T12:58:51.485Z</time>
      </trkpt>
      <trkpt lat="43.58055" lon="3.06055">
        <ele>178.1</ele>
        <time>2015-12-14T12:58:53.543Z</time>
      </trkpt>
      <trkpt lat="43.58056" lon="3.0606">
        <ele>177.7</ele>
        <time>2015-12-14T12:58:54.484Z</time>
      </trkpt>
      <trkpt lat="43.58057" lon="3.0607">
        <ele>177.4</ele>
        <time>2015-12-14T12:58:56.513Z</time>
      </trkpt>
      <trkpt lat="43.58059" lon="3.06076">
        <ele>177.4</ele>
        <time>2015-12-14T12:58:57.488Z</time>
      </trkpt>
      <trkpt lat="43.58058" lon="3.06085">
        <ele>176.9</ele>
        <time>2015-12-14T12:58:59.537Z</time>
      </trkpt>
      <trkpt lat="43.58058" lon="3.0609">
        <ele>176.8</ele>
        <time>2015-12-14T12:59:00.492Z</time>
      </trkpt>
      <trkpt lat="43.58059" lon="3.061">
        <ele>176.7</ele>
        <time>2015-12-14T12:59:02.529Z</time>
      </trkpt>
      <trkpt lat="43.58061" lon="3.06105">
        <ele>176.7</ele>
        <time>2015-12-14T12:59:03.480Z</time>
      </trkpt>
      <trkpt lat="43.58063" lon="3.06115">
        <ele>177</ele>
        <time>2015-12-14T12:59:05.508Z</time>
      </trkpt>
      <trkpt lat="43.58064" lon="3.0612">
        <ele>177</ele>
        <time>2015-12-14T12:59:06.479Z</time>
      </trkpt>
      <trkpt lat="43.58066" lon="3.0613">
        <ele>176.7</ele>
        <time>2015-12-14T12:59:08.513Z</time>
      </trkpt>
      <trkpt lat="43.58066" lon="3.06135">
        <ele>176.6</ele>
        <time>2015-12-14T12:59:09.480Z</time>
      </trkpt>
      <trkpt lat="43.58068" lon="3.06145">
        <ele>176.4</ele>
        <time>2015-12-14T12:59:11.541Z</time>
      </trkpt>
      <trkpt lat="43.58069" lon="3.0615">
        <ele>176.5</ele>
        <time>2015-12-14T12:59:12.486Z</time>
      </trkpt>
      <trkpt lat="43.58071" lon="3.06159">
        <ele>176.6</ele>
        <time>2015-12-14T12:59:14.507Z</time>
      </trkpt>
      <trkpt lat="43.58073" lon="3.06164">
        <ele>176.8</ele>
        <time>2015-12-14T12:59:15.481Z</time>
      </trkpt>
      <trkpt lat="43.58076" lon="3.06174">
        <ele>176.5</ele>
        <time>2015-12-14T12:59:17.522Z</time>
      </trkpt>
      <trkpt lat="43.58078" lon="3.06179">
        <ele>176.5</ele>
        <time>2015-12-14T12:59:18.487Z</time>
      </trkpt>
      <trkpt lat="43.58081" lon="3.0619">
        <ele>176.5</ele>
        <time>2015-12-14T12:59:20.541Z</time>
      </trkpt>
      <trkpt lat="43.58082" lon="3.06195">
        <ele>176.8</ele>
        <time>2015-12-14T12:59:21.488Z</time>
      </trkpt>
      <trkpt lat="43.58086" lon="3.06205">
        <ele>176.8</ele>
        <time>2015-12-14T12:59:23.514Z</time>
      </trkpt>
      <trkpt lat="43.58087" lon="3.06209">
        <ele>177</ele>
        <time>2015-12-14T12:59:24.481Z</time>
      </trkpt>
      <trkpt lat="43.5809" lon="3.06221">
        <ele>177</ele>
        <time>2015-12-14T12:59:27.518Z</time>
      </trkpt>
      <trkpt lat="43.58091" lon="3.06224">
        <ele>177.6</ele>
        <time>2015-12-14T12:59:28.480Z</time>
      </trkpt>
      <trkpt lat="43.58095" lon="3.06234">
        <ele>178.4</ele>
        <time>2015-12-14T12:59:31.510Z</time>
      </trkpt>
      <trkpt lat="43.58096" lon="3.06238">
        <ele>178.3</ele>
        <time>2015-12-14T12:59:32.481Z</time>
      </trkpt>
      <trkpt lat="43.58099" lon="3.06246">
        <ele>178.8</ele>
        <time>2015-12-14T12:59:34.529Z</time>
      </trkpt>
      <trkpt lat="43.581" lon="3.0625">
        <ele>178.9</ele>
        <time>2015-12-14T12:59:35.487Z</time>
      </trkpt>
      <trkpt lat="43.58103" lon="3.06257">
        <ele>179</ele>
        <time>2015-12-14T12:59:37.511Z</time>
      </trkpt>
      <trkpt lat="43.58104" lon="3.06261">
        <ele>179</ele>
        <time>2015-12-14T12:59:38.479Z</time>
      </trkpt>
      <trkpt lat="43.58107" lon="3.0627">
        <ele>179.4</ele>
        <time>2015-12-14T12:59:40.523Z</time>
      </trkpt>
      <trkpt lat="43.58108" lon="3.06274">
        <ele>179.8</ele>
        <time>2015-12-14T12:59:41.484Z</time>
      </trkpt>
      <trkpt lat="43.58111" lon="3.06283">
        <ele>180.5</ele>
        <time>2015-12-14T12:59:43.538Z</time>
      </trkpt>
      <trkpt lat="43.58113" lon="3.06287">
        <ele>180.7</ele>
        <time>2015-12-14T12:59:44.484Z</time>
      </trkpt>
      <trkpt lat="43.58116" lon="3.06296">
        <ele>181</ele>
        <time>2015-12-14T12:59:46.518Z</time>
      </trkpt>
      <trkpt lat="43.58117" lon="3.063">
        <ele>180.9</ele>
        <time>2015-12-14T12:59:47.483Z</time>
      </trkpt>
      <trkpt lat="43.5812" lon="3.06308">
        <ele>180.9</ele>
        <time>2015-12-14T12:59:49.530Z</time>
      </trkpt>
      <trkpt lat="43.58122" lon="3.06312">
        <ele>181</ele>
        <time>2015-12-14T12:59:50.480Z</time>
      </trkpt>
      <trkpt lat="43.58125" lon="3.0632">
        <ele>180.9</ele>
        <time>2015-12-14T12:59:52.505Z</time>
      </trkpt>
      <trkpt lat="43.58128" lon="3.06324">
        <ele>180.8</ele>
        <time>2015-12-14T12:59:53.480Z</time>
      </trkpt>
      <trkpt lat="43.58132" lon="3.06331">
        <ele>181.4</ele>
        <time>2015-12-14T12:59:55.525Z</time>
      </trkpt>
      <trkpt lat="43.58134" lon="3.06336">
        <ele>182</ele>
        <time>2015-12-14T12:59:56.490Z</time>
      </trkpt>
      <trkpt lat="43.58137" lon="3.06344">
        <ele>181.6</ele>
        <time>2015-12-14T12:59:58.524Z</time>
      </trkpt>
      <trkpt lat="43.58139" lon="3.06349">
        <ele>181.8</ele>
        <time>2015-12-14T12:59:59.489Z</time>
      </trkpt>
      <trkpt lat="43.58143" lon="3.06358">
        <ele>182</ele>
        <time>2015-12-14T13:00:01.518Z</time>
      </trkpt>
      <trkpt lat="43.58145" lon="3.06362">
        <ele>182.2</ele>
        <time>2015-12-14T13:00:02.478Z</time>
      </trkpt>
      <trkpt lat="43.5815" lon="3.0637">
        <ele>182.2</ele>
        <time>2015-12-14T13:00:04.537Z</time>
      </trkpt>
      <trkpt lat="43.58152" lon="3.06375">
        <ele>182.9</ele>
        <time>2015-12-14T13:00:05.480Z</time>
      </trkpt>
      <trkpt lat="43.58156" lon="3.06383">
        <ele>184.3</ele>
        <time>2015-12-14T13:00:07.713Z</time>
      </trkpt>
      <trkpt lat="43.58158" lon="3.06387">
        <ele>185.1</ele>
        <time>2015-12-14T13:00:08.484Z</time>
      </trkpt>
      <trkpt lat="43.58164" lon="3.06394">
        <ele>186.3</ele>
        <time>2015-12-14T13:00:10.524Z</time>
      </trkpt>
      <trkpt lat="43.58166" lon="3.06397">
        <ele>186.9</ele>
        <time>2015-12-14T13:00:11.481Z</time>
      </trkpt>
      <trkpt lat="43.58169" lon="3.06404">
        <ele>187.6</ele>
        <time>2015-12-14T13:00:13.540Z</time>
      </trkpt>
      <trkpt lat="43.58171" lon="3.06407">
        <ele>188</ele>
        <time>2015-12-14T13:00:14.485Z</time>
      </trkpt>
      <trkpt lat="43.58177" lon="3.06414">
        <ele>189</ele>
        <time>2015-12-14T13:00:17.536Z</time>
      </trkpt>
      <trkpt lat="43.58179" lon="3.06416">
        <ele>189.2</ele>
        <time>2015-12-14T13:00:18.494Z</time>
      </trkpt>
      <trkpt lat="43.58187" lon="3.0642">
        <ele>190.9</ele>
        <time>2015-12-14T13:00:25.548Z</time>
      </trkpt>
      <trkpt lat="43.58188" lon="3.06422">
        <ele>190.5</ele>
        <time>2015-12-14T13:00:26.477Z</time>
      </trkpt>
      <trkpt lat="43.58193" lon="3.06432">
        <ele>190.8</ele>
        <time>2015-12-14T13:00:31.544Z</time>
      </trkpt>
      <trkpt lat="43.58194" lon="3.06435">
        <ele>190.7</ele>
        <time>2015-12-14T13:00:32.476Z</time>
      </trkpt>
      <trkpt lat="43.58191" lon="3.06444">
        <ele>190.6</ele>
        <time>2015-12-14T13:00:41.529Z</time>
      </trkpt>
      <trkpt lat="43.58189" lon="3.06447">
        <ele>190.2</ele>
        <time>2015-12-14T13:00:42.484Z</time>
      </trkpt>
      <trkpt lat="43.58184" lon="3.06454">
        <ele>187.7</ele>
        <time>2015-12-14T13:00:45.516Z</time>
      </trkpt>
      <trkpt lat="43.58182" lon="3.06455">
        <ele>187.1</ele>
        <time>2015-12-14T13:00:46.481Z</time>
      </trkpt>
      <trkpt lat="43.58173" lon="3.06455">
        <ele>186.9</ele>
        <time>2015-12-14T13:00:49.518Z</time>
      </trkpt>
      <trkpt lat="43.58171" lon="3.06454">
        <ele>186.5</ele>
        <time>2015-12-14T13:00:50.481Z</time>
      </trkpt>
      <trkpt lat="43.58165" lon="3.06447">
        <ele>185.5</ele>
        <time>2015-12-14T13:00:53.561Z</time>
      </trkpt>
      <trkpt lat="43.58163" lon="3.06444">
        <ele>185.4</ele>
        <time>2015-12-14T13:00:54.476Z</time>
      </trkpt>
      <trkpt lat="43.58159" lon="3.06433">
        <ele>184.4</ele>
        <time>2015-12-14T13:00:57.512Z</time>
      </trkpt>
      <trkpt lat="43.58156" lon="3.0643">
        <ele>183.8</ele>
        <time>2015-12-14T13:00:58.485Z</time>
      </trkpt>
      <trkpt lat="43.58151" lon="3.06423">
        <ele>183.2</ele>
        <time>2015-12-14T13:01:00.535Z</time>
      </trkpt>
      <trkpt lat="43.58148" lon="3.0642">
        <ele>182.9</ele>
        <time>2015-12-14T13:01:01.481Z</time>
      </trkpt>
      <trkpt lat="43.58144" lon="3.06414">
        <ele>182.2</ele>
        <time>2015-12-14T13:01:03.519Z</time>
      </trkpt>
      <trkpt lat="43.58141" lon="3.06411">
        <ele>182.1</ele>
        <time>2015-12-14T13:01:04.481Z</time>
      </trkpt>
      <trkpt lat="43.58137" lon="3.06404">
        <ele>181.7</ele>
        <time>2015-12-14T13:01:06.529Z</time>
      </trkpt>
      <trkpt lat="43.58135" lon="3.06401">
        <ele>181.7</ele>
        <time>2015-12-14T13:01:07.486Z</time>
      </trkpt>
      <trkpt lat="43.58129" lon="3.06392">
        <ele>181.4</ele>
        <time>2015-12-14T13:01:10.513Z</time>
      </trkpt>
      <trkpt lat="43.58126" lon="3.06388">
        <ele>181.4</ele>
        <time>2015-12-14T13:01:11.493Z</time>
      </trkpt>
      <trkpt lat="43.58122" lon="3.0638">
        <ele>181.6</ele>
        <time>2015-12-14T13:01:13.509Z</time>
      </trkpt>
      <trkpt lat="43.58119" lon="3.06376">
        <ele>181.4</ele>
        <time>2015-12-14T13:01:14.482Z</time>
      </trkpt>
      <trkpt lat="43.58114" lon="3.06368">
        <ele>181</ele>
        <time>2015-12-14T13:01:16.511Z</time>
      </trkpt>
      <trkpt lat="43.58111" lon="3.06364">
        <ele>180.7</ele>
        <time>2015-12-14T13:01:17.488Z</time>
      </trkpt>
      <trkpt lat="43.58105" lon="3.06355">
        <ele>180.4</ele>
        <time>2015-12-14T13:01:19.522Z</time>
      </trkpt>
      <trkpt lat="43.58102" lon="3.0635">
        <ele>180.3</ele>
        <time>2015-12-14T13:01:20.481Z</time>
      </trkpt>
      <trkpt lat="43.58099" lon="3.06346">
        <ele>180.1</ele>
        <time>2015-12-14T13:01:21.512Z</time>
      </trkpt>
      <trkpt lat="43.58096" lon="3.06341">
        <ele>179.8</ele>
        <time>2015-12-14T13:01:22.484Z</time>
      </trkpt>
      <trkpt lat="43.58093" lon="3.06336">
        <ele>179.5</ele>
        <time>2015-12-14T13:01:23.540Z</time>
      </trkpt>
      <trkpt lat="43.5809" lon="3.0633">
        <ele>179.4</ele>
        <time>2015-12-14T13:01:24.488Z</time>
      </trkpt>
      <trkpt lat="43.58087" lon="3.06324">
        <ele>179.3</ele>
        <time>2015-12-14T13:01:25.568Z</time>
      </trkpt>
      <trkpt lat="43.58083" lon="3.06318">
        <ele>179.1</ele>
        <time>2015-12-14T13:01:26.485Z</time>
      </trkpt>
      <trkpt lat="43.58079" lon="3.06312">
        <ele>178.9</ele>
        <time>2015-12-14T13:01:27.516Z</time>
      </trkpt>
      <trkpt lat="43.58075" lon="3.06305">
        <ele>178.6</ele>
        <time>2015-12-14T13:01:28.483Z</time>
      </trkpt>
      <trkpt lat="43.58071" lon="3.06298">
        <ele>178.3</ele>
        <time>2015-12-14T13:01:29.512Z</time>
      </trkpt>
      <trkpt lat="43.58067" lon="3.0629">
        <ele>178.1</ele>
        <time>2015-12-14T13:01:30.485Z</time>
      </trkpt>
      <trkpt lat="43.58063" lon="3.06284">
        <ele>177.8</ele>
        <time>2015-12-14T13:01:31.543Z</time>
      </trkpt>
      <trkpt lat="43.58058" lon="3.06277">
        <ele>177.6</ele>
        <time>2015-12-14T13:01:32.487Z</time>
      </trkpt>
      <trkpt lat="43.58053" lon="3.06271">
        <ele>177.4</ele>
        <time>2015-12-14T13:01:33.864Z</time>
      </trkpt>
      <trkpt lat="43.58047" lon="3.06267">
        <ele>176.8</ele>
        <time>2015-12-14T13:01:34.484Z</time>
      </trkpt>
      <trkpt lat="43.58041" lon="3.06262">
        <ele>176.4</ele>
        <time>2015-12-14T13:01:35.512Z</time>
      </trkpt>
      <trkpt lat="43.58034" lon="3.06259">
        <ele>176.1</ele>
        <time>2015-12-14T13:01:36.481Z</time>
      </trkpt>
      <trkpt lat="43.58029" lon="3.06256">
        <ele>176</ele>
        <time>2015-12-14T13:01:37.548Z</time>
      </trkpt>
      <trkpt lat="43.58024" lon="3.06254">
        <ele>175.7</ele>
        <time>2015-12-14T13:01:38.487Z</time>
      </trkpt>
      <trkpt lat="43.58019" lon="3.06253">
        <ele>175.1</ele>
        <time>2015-12-14T13:01:39.532Z</time>
      </trkpt>
      <trkpt lat="43.58014" lon="3.06252">
        <ele>174.9</ele>
        <time>2015-12-14T13:01:40.486Z</time>
      </trkpt>
      <trkpt lat="43.58006" lon="3.06252">
        <ele>174.7</ele>
        <time>2015-12-14T13:01:42.515Z</time>
      </trkpt>
      <trkpt lat="43.58002" lon="3.06253">
        <ele>174.6</ele>
        <time>2015-12-14T13:01:43.484Z</time>
      </trkpt>
      <trkpt lat="43.57993" lon="3.06256">
        <ele>174.4</ele>
        <time>2015-12-14T13:01:45.531Z</time>
      </trkpt>
      <trkpt lat="43.57989" lon="3.06256">
        <ele>174.3</ele>
        <time>2015-12-14T13:01:46.477Z</time>
      </trkpt>
      <trkpt lat="43.5798" lon="3.0626">
        <ele>174</ele>
        <time>2015-12-14T13:01:48.527Z</time>
      </trkpt>
      <trkpt lat="43.57976" lon="3.06261">
        <ele>173.9</ele>
        <time>2015-12-14T13:01:49.479Z</time>
      </trkpt>
      <trkpt lat="43.57971" lon="3.06263">
        <ele>173.9</ele>
        <time>2015-12-14T13:01:50.554Z</time>
      </trkpt>
      <trkpt lat="43.57966" lon="3.06266">
        <ele>173.8</ele>
        <time>2015-12-14T13:01:51.491Z</time>
      </trkpt>
      <trkpt lat="43.5796" lon="3.06269">
        <ele>173.7</ele>
        <time>2015-12-14T13:01:52.918Z</time>
      </trkpt>
      <trkpt lat="43.57955" lon="3.06272">
        <ele>173.7</ele>
        <time>2015-12-14T13:01:53.490Z</time>
      </trkpt>
      <trkpt lat="43.57949" lon="3.06275">
        <ele>173.5</ele>
        <time>2015-12-14T13:01:54.552Z</time>
      </trkpt>
      <trkpt lat="43.57944" lon="3.06276">
        <ele>173.4</ele>
        <time>2015-12-14T13:01:55.495Z</time>
      </trkpt>
      <trkpt lat="43.57939" lon="3.06277">
        <ele>173.4</ele>
        <time>2015-12-14T13:01:56.540Z</time>
      </trkpt>
      <trkpt lat="43.57934" lon="3.06278">
        <ele>173.4</ele>
        <time>2015-12-14T13:01:57.487Z</time>
      </trkpt>
      <trkpt lat="43.5793" lon="3.06277">
        <ele>173.2</ele>
        <time>2015-12-14T13:02:00.556Z</time>
      </trkpt>
      <trkpt lat="43.5793" lon="3.06276">
        <ele>173.1</ele>
        <time>2015-12-14T13:02:01.494Z</time>
      </trkpt>
      <trkpt lat="43.5793" lon="3.06275">
        <ele>173</ele>
        <time>2015-12-14T13:02:02.516Z</time>
      </trkpt>
      <trkpt lat="43.57929" lon="3.06272">
        <ele>172.6</ele>
        <time>2015-12-14T13:02:03.485Z</time>
      </trkpt>
      <trkpt lat="43.57925" lon="3.06264">
        <ele>171.9</ele>
        <time>2015-12-14T13:02:05.561Z</time>
      </trkpt>
      <trkpt lat="43.57924" lon="3.06258">
        <ele>171.4</ele>
        <time>2015-12-14T13:02:06.492Z</time>
      </trkpt>
      <trkpt lat="43.5792" lon="3.06249">
        <ele>170.7</ele>
        <time>2015-12-14T13:02:08.520Z</time>
      </trkpt>
      <trkpt lat="43.57919" lon="3.06243">
        <ele>170.4</ele>
        <time>2015-12-14T13:02:09.486Z</time>
      </trkpt>
      <trkpt lat="43.57913" lon="3.06236">
        <ele>169.7</ele>
        <time>2015-12-14T13:02:11.522Z</time>
      </trkpt>
      <trkpt lat="43.57913" lon="3.0623">
        <ele>169.4</ele>
        <time>2015-12-14T13:02:12.483Z</time>
      </trkpt>
      <trkpt lat="43.57914" lon="3.06219">
        <ele>168.5</ele>
        <time>2015-12-14T13:02:14.514Z</time>
      </trkpt>
      <trkpt lat="43.57913" lon="3.06215">
        <ele>168.3</ele>
        <time>2015-12-14T13:02:15.493Z</time>
      </trkpt>
      <trkpt lat="43.5791" lon="3.06204">
        <ele>167.3</ele>
        <time>2015-12-14T13:02:18.541Z</time>
      </trkpt>
      <trkpt lat="43.5791" lon="3.06201">
        <ele>167.1</ele>
        <time>2015-12-14T13:02:19.489Z</time>
      </trkpt>
      <trkpt lat="43.57907" lon="3.0619">
        <ele>166.4</ele>
        <time>2015-12-14T13:02:22.515Z</time>
      </trkpt>
      <trkpt lat="43.57904" lon="3.06186">
        <ele>166.7</ele>
        <time>2015-12-14T13:02:23.481Z</time>
      </trkpt>
      <trkpt lat="43.57902" lon="3.06177">
        <ele>166.5</ele>
        <time>2015-12-14T13:02:25.508Z</time>
      </trkpt>
      <trkpt lat="43.57901" lon="3.06173">
        <ele>166.4</ele>
        <time>2015-12-14T13:02:26.484Z</time>
      </trkpt>
      <trkpt lat="43.57898" lon="3.06164">
        <ele>165.8</ele>
        <time>2015-12-14T13:02:28.524Z</time>
      </trkpt>
      <trkpt lat="43.57898" lon="3.06159">
        <ele>165.6</ele>
        <time>2015-12-14T13:02:29.485Z</time>
      </trkpt>
      <trkpt lat="43.57895" lon="3.06151">
        <ele>165.1</ele>
        <time>2015-12-14T13:02:31.509Z</time>
      </trkpt>
      <trkpt lat="43.57893" lon="3.06147">
        <ele>164.7</ele>
        <time>2015-12-14T13:02:32.483Z</time>
      </trkpt>
      <trkpt lat="43.5789" lon="3.06138">
        <ele>163.9</ele>
        <time>2015-12-14T13:02:35.544Z</time>
      </trkpt>
      <trkpt lat="43.57886" lon="3.06138">
        <ele>164</ele>
        <time>2015-12-14T13:02:36.495Z</time>
      </trkpt>
      <trkpt lat="43.57885" lon="3.06136">
        <ele>163.9</ele>
        <time>2015-12-14T13:02:37.530Z</time>
      </trkpt>
      <trkpt lat="43.57885" lon="3.06135">
        <ele>163.7</ele>
        <time>2015-12-14T13:02:38.481Z</time>
      </trkpt>
      <trkpt lat="43.5788" lon="3.06132">
        <ele>160.1</ele>
        <time>2015-12-14T13:03:43.335Z</time>
      </trkpt>
    </trkseg>
  </trk>
</gpx>